<?xml version="1.0" encoding="UTF-8"?>
<gpx version="1.1" creator="https://www.youtrack.es" xsi:schemaLocation="http://www.topografix.com/GPX/1/1 http://www.topografix.com/GPX/1/1/gpx.xsd http://www.garmin.com/xmlschemas/GpxExtensions/v3 http://www.garmin.com/xmlschemas/GpxExtensionsv3.xsd http://www.garmin.com/xmlschemas/TrackPointExtension/v1 http://www.garmin.com/xmlschemas/TrackPointExtensionv1.xsd" xmlns:gpxtpx="http://www.garmin.com/xmlschemas/TrackPointExtension/v1" xmlns:gpxx="http://www.garmin.com/xmlschemas/GpxExtensions/v3" xmlns:xsi="http://www.w3.org/2001/XMLSchema-instance">
  <metadata>
    <link href="https://www.youtrack.es">
      <text>YouTrack.es</text>
    </link>
    <time>2026-05-09T01:00:40Z</time>
  </metadata>
  <trk>
    <src>https://www.youtrack.es</src>
    <link href="https://www.youtrack.es/ruta/30966-la-morra-spdlm">
      <text>YouTrack.es</text>
    </link>
    <trkseg>
      <trkpt lat="39.53990933485329" lon="-4.3330167979002">
        <ele>899.6</ele>
        <time>2022-04-14T07:12:03.000Z</time>
      </trkpt>
      <trkpt lat="39.53989592380822" lon="-4.333017719909549">
        <ele>900.2</ele>
        <time>2022-04-14T07:12:04.000Z</time>
      </trkpt>
      <trkpt lat="39.539858624339104" lon="-4.3330263532698154">
        <ele>901</ele>
        <time>2022-04-14T07:12:07.000Z</time>
      </trkpt>
      <trkpt lat="39.5398414414376" lon="-4.333044039085507">
        <ele>901.2</ele>
        <time>2022-04-14T07:12:09.000Z</time>
      </trkpt>
      <trkpt lat="39.53979282639921" lon="-4.3330975994467735">
        <ele>901.2</ele>
        <time>2022-04-14T07:12:15.000Z</time>
      </trkpt>
      <trkpt lat="39.539784444496036" lon="-4.333106987178326">
        <ele>901.2</ele>
        <time>2022-04-14T07:12:16.000Z</time>
      </trkpt>
      <trkpt lat="39.53974354080856" lon="-4.333124756813049">
        <ele>901.4</ele>
        <time>2022-04-14T07:12:21.000Z</time>
      </trkpt>
      <trkpt lat="39.539735494181514" lon="-4.333131378516555">
        <ele>901.4</ele>
        <time>2022-04-14T07:12:22.000Z</time>
      </trkpt>
      <trkpt lat="39.53969777561724" lon="-4.333155434578657">
        <ele>902.2</ele>
        <time>2022-04-14T07:12:26.000Z</time>
      </trkpt>
      <trkpt lat="39.53966600820422" lon="-4.333170270547271">
        <ele>902.8</ele>
        <time>2022-04-14T07:12:29.000Z</time>
      </trkpt>
      <trkpt lat="39.53964203596115" lon="-4.333185441792011">
        <ele>903</ele>
        <time>2022-04-14T07:12:32.000Z</time>
      </trkpt>
      <trkpt lat="39.539631055667996" lon="-4.333202624693513">
        <ele>903.2</ele>
        <time>2022-04-14T07:12:34.000Z</time>
      </trkpt>
      <trkpt lat="39.539626110345125" lon="-4.333216538652778">
        <ele>903.2</ele>
        <time>2022-04-14T07:12:35.000Z</time>
      </trkpt>
      <trkpt lat="39.5395877212286" lon="-4.333291305229068">
        <ele>903.8</ele>
        <time>2022-04-14T07:12:40.000Z</time>
      </trkpt>
      <trkpt lat="39.539572298526764" lon="-4.3333217315375805">
        <ele>904</ele>
        <time>2022-04-14T07:12:42.000Z</time>
      </trkpt>
      <trkpt lat="39.53956249170005" lon="-4.3333400040864944">
        <ele>904</ele>
        <time>2022-04-14T07:12:43.000Z</time>
      </trkpt>
      <trkpt lat="39.539538603276014" lon="-4.333367580547929">
        <ele>904.4</ele>
        <time>2022-04-14T07:12:46.000Z</time>
      </trkpt>
      <trkpt lat="39.53952368348837" lon="-4.333384595811367">
        <ele>904.6</ele>
        <time>2022-04-14T07:12:48.000Z</time>
      </trkpt>
      <trkpt lat="39.539489736780524" lon="-4.333411417901516">
        <ele>904.8</ele>
        <time>2022-04-14T07:12:52.000Z</time>
      </trkpt>
      <trkpt lat="39.539456628263" lon="-4.333450980484486">
        <ele>905.2</ele>
        <time>2022-04-14T07:12:58.000Z</time>
      </trkpt>
      <trkpt lat="39.53944455832243" lon="-4.333454500883818">
        <ele>905.2</ele>
        <time>2022-04-14T07:12:59.000Z</time>
      </trkpt>
      <trkpt lat="39.539434583857656" lon="-4.333461793139577">
        <ele>905.4</ele>
        <time>2022-04-14T07:13:00.000Z</time>
      </trkpt>
      <trkpt lat="39.53942662104964" lon="-4.333474617451429">
        <ele>905.6</ele>
        <time>2022-04-14T07:13:01.000Z</time>
      </trkpt>
      <trkpt lat="39.539420418441296" lon="-4.333487944677472">
        <ele>905.6</ele>
        <time>2022-04-14T07:13:02.000Z</time>
      </trkpt>
      <trkpt lat="39.53938596881926" lon="-4.33353379368782">
        <ele>905.8</ele>
        <time>2022-04-14T07:13:07.000Z</time>
      </trkpt>
      <trkpt lat="39.53935218974948" lon="-4.333638567477465">
        <ele>906.2</ele>
        <time>2022-04-14T07:13:14.000Z</time>
      </trkpt>
      <trkpt lat="39.53934967517853" lon="-4.333672095090151">
        <ele>906.4</ele>
        <time>2022-04-14T07:13:16.000Z</time>
      </trkpt>
      <trkpt lat="39.53932972624898" lon="-4.333762368187308">
        <ele>907.2</ele>
        <time>2022-04-14T07:13:22.000Z</time>
      </trkpt>
      <trkpt lat="39.539328552782536" lon="-4.3338206224143505">
        <ele>907.4</ele>
        <time>2022-04-14T07:13:26.000Z</time>
      </trkpt>
      <trkpt lat="39.5393337495625" lon="-4.33383671566844">
        <ele>907.6</ele>
        <time>2022-04-14T07:13:27.000Z</time>
      </trkpt>
      <trkpt lat="39.53933668322861" lon="-4.33387728407979">
        <ele>907.8</ele>
        <time>2022-04-14T07:13:30.000Z</time>
      </trkpt>
      <trkpt lat="39.539388148114085" lon="-4.3339955527335405">
        <ele>908.2</ele>
        <time>2022-04-14T07:13:38.000Z</time>
      </trkpt>
      <trkpt lat="39.53941086307168" lon="-4.3340465147048235">
        <ele>908.6</ele>
        <time>2022-04-14T07:13:43.000Z</time>
      </trkpt>
      <trkpt lat="39.53940700739622" lon="-4.334108792245388">
        <ele>908.6</ele>
        <time>2022-04-14T07:13:46.000Z</time>
      </trkpt>
      <trkpt lat="39.53940533101559" lon="-4.334125472232699">
        <ele>908.6</ele>
        <time>2022-04-14T07:13:47.000Z</time>
      </trkpt>
      <trkpt lat="39.53940516337752" lon="-4.334158496931195">
        <ele>908.8</ele>
        <time>2022-04-14T07:13:49.000Z</time>
      </trkpt>
      <trkpt lat="39.53942636959255" lon="-4.334209794178605">
        <ele>909</ele>
        <time>2022-04-14T07:13:53.000Z</time>
      </trkpt>
      <trkpt lat="39.53943332657218" lon="-4.334234436973929">
        <ele>909</ele>
        <time>2022-04-14T07:13:55.000Z</time>
      </trkpt>
      <trkpt lat="39.53944254666567" lon="-4.334300570189953">
        <ele>909</ele>
        <time>2022-04-14T07:14:00.000Z</time>
      </trkpt>
      <trkpt lat="39.5394529402256" lon="-4.334342144429684">
        <ele>909</ele>
        <time>2022-04-14T07:14:03.000Z</time>
      </trkpt>
      <trkpt lat="39.53945520333946" lon="-4.334355387836695">
        <ele>909.2</ele>
        <time>2022-04-14T07:14:04.000Z</time>
      </trkpt>
      <trkpt lat="39.53945788554847" lon="-4.33438397012651">
        <ele>909</ele>
        <time>2022-04-14T07:14:06.000Z</time>
      </trkpt>
      <trkpt lat="39.53948546200991" lon="-4.334484720602632">
        <ele>909.4</ele>
        <time>2022-04-14T07:14:12.000Z</time>
      </trkpt>
      <trkpt lat="39.539515720680356" lon="-4.334515146911144">
        <ele>909.4</ele>
        <time>2022-04-14T07:14:16.000Z</time>
      </trkpt>
      <trkpt lat="39.53951010480523" lon="-4.334540963172913">
        <ele>909.6</ele>
        <time>2022-04-14T07:14:19.000Z</time>
      </trkpt>
      <trkpt lat="39.53949183225632" lon="-4.3345551285892725">
        <ele>909.6</ele>
        <time>2022-04-14T07:14:21.000Z</time>
      </trkpt>
      <trkpt lat="39.53948370181024" lon="-4.334559990093112">
        <ele>909.6</ele>
        <time>2022-04-14T07:14:22.000Z</time>
      </trkpt>
      <trkpt lat="39.539446234703064" lon="-4.334594272077084">
        <ele>909.4</ele>
        <time>2022-04-14T07:14:25.000Z</time>
      </trkpt>
      <trkpt lat="39.53940558247268" lon="-4.334620591253042">
        <ele>909.4</ele>
        <time>2022-04-14T07:14:29.000Z</time>
      </trkpt>
      <trkpt lat="39.53936937265098" lon="-4.334642048925161">
        <ele>909.8</ele>
        <time>2022-04-14T07:14:33.000Z</time>
      </trkpt>
      <trkpt lat="39.5393408741802" lon="-4.334668116644025">
        <ele>909.8</ele>
        <time>2022-04-14T07:14:36.000Z</time>
      </trkpt>
      <trkpt lat="39.53932913951576" lon="-4.3347143009305">
        <ele>910.2</ele>
        <time>2022-04-14T07:14:39.000Z</time>
      </trkpt>
      <trkpt lat="39.539325619116426" lon="-4.334721090272069">
        <ele>910.6</ele>
        <time>2022-04-14T07:14:41.000Z</time>
      </trkpt>
      <trkpt lat="39.53932201489806" lon="-4.334728633984923">
        <ele>910.8</ele>
        <time>2022-04-14T07:14:42.000Z</time>
      </trkpt>
      <trkpt lat="39.5393250323832" lon="-4.334739614278078">
        <ele>910.8</ele>
        <time>2022-04-14T07:14:43.000Z</time>
      </trkpt>
      <trkpt lat="39.539313800632954" lon="-4.334752019494772">
        <ele>911</ele>
        <time>2022-04-14T07:14:45.000Z</time>
      </trkpt>
      <trkpt lat="39.539314806461334" lon="-4.334783619269729">
        <ele>911</ele>
        <time>2022-04-14T07:14:48.000Z</time>
      </trkpt>
      <trkpt lat="39.53930474817753" lon="-4.334828043356538">
        <ele>911.2</ele>
        <time>2022-04-14T07:14:51.000Z</time>
      </trkpt>
      <trkpt lat="39.53928337432444" lon="-4.334905743598938">
        <ele>911.8</ele>
        <time>2022-04-14T07:14:56.000Z</time>
      </trkpt>
      <trkpt lat="39.53930483199656" lon="-4.334970954805613">
        <ele>912.4</ele>
        <time>2022-04-14T07:15:00.000Z</time>
      </trkpt>
      <trkpt lat="39.53930139541626" lon="-4.334984868764877">
        <ele>912.4</ele>
        <time>2022-04-14T07:15:01.000Z</time>
      </trkpt>
      <trkpt lat="39.53929318115115" lon="-4.335018480196595">
        <ele>912.8</ele>
        <time>2022-04-14T07:15:02.000Z</time>
      </trkpt>
      <trkpt lat="39.53927993774414" lon="-4.33506466448307">
        <ele>913</ele>
        <time>2022-04-14T07:15:06.000Z</time>
      </trkpt>
      <trkpt lat="39.539267867803574" lon="-4.33510129339993">
        <ele>913.8</ele>
        <time>2022-04-14T07:15:09.000Z</time>
      </trkpt>
      <trkpt lat="39.539263090118766" lon="-4.335111770778894">
        <ele>914</ele>
        <time>2022-04-14T07:15:10.000Z</time>
      </trkpt>
      <trkpt lat="39.5392526127398" lon="-4.335127612575889">
        <ele>914.2</ele>
        <time>2022-04-14T07:15:12.000Z</time>
      </trkpt>
      <trkpt lat="39.539207350462675" lon="-4.335150495171547">
        <ele>914.6</ele>
        <time>2022-04-14T07:15:16.000Z</time>
      </trkpt>
      <trkpt lat="39.539162339642644" lon="-4.335161643102765">
        <ele>915</ele>
        <time>2022-04-14T07:15:19.000Z</time>
      </trkpt>
      <trkpt lat="39.539117412641644" lon="-4.335179412737489">
        <ele>915.4</ele>
        <time>2022-04-14T07:15:23.000Z</time>
      </trkpt>
      <trkpt lat="39.53910584561527" lon="-4.335185028612614">
        <ele>915.6</ele>
        <time>2022-04-14T07:15:24.000Z</time>
      </trkpt>
      <trkpt lat="39.53908941708505" lon="-4.3351962603628635">
        <ele>915.6</ele>
        <time>2022-04-14T07:15:26.000Z</time>
      </trkpt>
      <trkpt lat="39.539078352972865" lon="-4.335204139351845">
        <ele>916</ele>
        <time>2022-04-14T07:15:28.000Z</time>
      </trkpt>
      <trkpt lat="39.539069049060345" lon="-4.335206989198923">
        <ele>916.2</ele>
        <time>2022-04-14T07:15:29.000Z</time>
      </trkpt>
      <trkpt lat="39.539058739319444" lon="-4.335214868187904">
        <ele>916.4</ele>
        <time>2022-04-14T07:15:30.000Z</time>
      </trkpt>
      <trkpt lat="39.53901523724198" lon="-4.3352339789271355">
        <ele>916.8</ele>
        <time>2022-04-14T07:15:35.000Z</time>
      </trkpt>
      <trkpt lat="39.53901029191911" lon="-4.335239343345165">
        <ele>917</ele>
        <time>2022-04-14T07:15:36.000Z</time>
      </trkpt>
      <trkpt lat="39.53900543041527" lon="-4.335245713591576">
        <ele>917.2</ele>
        <time>2022-04-14T07:15:37.000Z</time>
      </trkpt>
      <trkpt lat="39.53899981454015" lon="-4.335256861522794">
        <ele>917.4</ele>
        <time>2022-04-14T07:15:38.000Z</time>
      </trkpt>
      <trkpt lat="39.538988415151834" lon="-4.335242444649339">
        <ele>917.8</ele>
        <time>2022-04-14T07:15:40.000Z</time>
      </trkpt>
      <trkpt lat="39.53898296691477" lon="-4.3352478090673685">
        <ele>918.2</ele>
        <time>2022-04-14T07:15:41.000Z</time>
      </trkpt>
      <trkpt lat="39.538967879489064" lon="-4.335265327244997">
        <ele>918.4</ele>
        <time>2022-04-14T07:15:44.000Z</time>
      </trkpt>
      <trkpt lat="39.538961593061686" lon="-4.335272619500756">
        <ele>918.4</ele>
        <time>2022-04-14T07:15:45.000Z</time>
      </trkpt>
      <trkpt lat="39.53894323669374" lon="-4.335264153778553">
        <ele>918.6</ele>
        <time>2022-04-14T07:15:47.000Z</time>
      </trkpt>
      <trkpt lat="39.53891649842262" lon="-4.335274295881391">
        <ele>918.8</ele>
        <time>2022-04-14T07:15:50.000Z</time>
      </trkpt>
      <trkpt lat="39.53890568576753" lon="-4.335264321416616">
        <ele>918.8</ele>
        <time>2022-04-14T07:15:51.000Z</time>
      </trkpt>
      <trkpt lat="39.538890263065696" lon="-4.335262980312109">
        <ele>919</ele>
        <time>2022-04-14T07:15:53.000Z</time>
      </trkpt>
      <trkpt lat="39.53881340101361" lon="-4.335321569815278">
        <ele>919.4</ele>
        <time>2022-04-14T07:16:01.000Z</time>
      </trkpt>
      <trkpt lat="39.53877719119191" lon="-4.335357779636979">
        <ele>919.8</ele>
        <time>2022-04-14T07:16:06.000Z</time>
      </trkpt>
      <trkpt lat="39.538769563660026" lon="-4.335366999730468">
        <ele>919.8</ele>
        <time>2022-04-14T07:16:07.000Z</time>
      </trkpt>
      <trkpt lat="39.53875841572881" lon="-4.335401952266693">
        <ele>920.4</ele>
        <time>2022-04-14T07:16:10.000Z</time>
      </trkpt>
      <trkpt lat="39.538759756833315" lon="-4.335423829033971">
        <ele>920.4</ele>
        <time>2022-04-14T07:16:11.000Z</time>
      </trkpt>
      <trkpt lat="39.538753470405936" lon="-4.335446543991566">
        <ele>920.6</ele>
        <time>2022-04-14T07:16:13.000Z</time>
      </trkpt>
      <trkpt lat="39.538745172321796" lon="-4.335468085482717">
        <ele>921</ele>
        <time>2022-04-14T07:16:15.000Z</time>
      </trkpt>
      <trkpt lat="39.53871943987906" lon="-4.335501026362181">
        <ele>921.2</ele>
        <time>2022-04-14T07:16:18.000Z</time>
      </trkpt>
      <trkpt lat="39.53869806602597" lon="-4.335545618087053">
        <ele>921.6</ele>
        <time>2022-04-14T07:16:22.000Z</time>
      </trkpt>
      <trkpt lat="39.53867166303098" lon="-4.3355953227728605">
        <ele>922.2</ele>
        <time>2022-04-14T07:16:27.000Z</time>
      </trkpt>
      <trkpt lat="39.53864333219826" lon="-4.335648883134127">
        <ele>922.4</ele>
        <time>2022-04-14T07:16:32.000Z</time>
      </trkpt>
      <trkpt lat="39.53861642628908" lon="-4.335686014965177">
        <ele>922.8</ele>
        <time>2022-04-14T07:16:36.000Z</time>
      </trkpt>
      <trkpt lat="39.53857543878257" lon="-4.335732031613588">
        <ele>923.8</ele>
        <time>2022-04-14T07:16:42.000Z</time>
      </trkpt>
      <trkpt lat="39.53856311738491" lon="-4.335746951401234">
        <ele>924</ele>
        <time>2022-04-14T07:16:44.000Z</time>
      </trkpt>
      <trkpt lat="39.53854928724468" lon="-4.3357735220342875">
        <ele>924.2</ele>
        <time>2022-04-14T07:16:47.000Z</time>
      </trkpt>
      <trkpt lat="39.53853193670511" lon="-4.335793890058994">
        <ele>924.6</ele>
        <time>2022-04-14T07:16:50.000Z</time>
      </trkpt>
      <trkpt lat="39.53852590173483" lon="-4.3357988353818655">
        <ele>924.8</ele>
        <time>2022-04-14T07:16:51.000Z</time>
      </trkpt>
      <trkpt lat="39.538519363850355" lon="-4.335806462913752">
        <ele>924.8</ele>
        <time>2022-04-14T07:16:52.000Z</time>
      </trkpt>
      <trkpt lat="39.53845960088074" lon="-4.335861196741462">
        <ele>925.6</ele>
        <time>2022-04-14T07:17:00.000Z</time>
      </trkpt>
      <trkpt lat="39.53843311406672" lon="-4.335877960547805">
        <ele>925.8</ele>
        <time>2022-04-14T07:17:03.000Z</time>
      </trkpt>
      <trkpt lat="39.53841098584235" lon="-4.33587770909071">
        <ele>926</ele>
        <time>2022-04-14T07:17:05.000Z</time>
      </trkpt>
      <trkpt lat="39.538391791284084" lon="-4.335892545059323">
        <ele>926.6</ele>
        <time>2022-04-14T07:17:08.000Z</time>
      </trkpt>
      <trkpt lat="39.53838407993317" lon="-4.335899669677019">
        <ele>926.6</ele>
        <time>2022-04-14T07:17:09.000Z</time>
      </trkpt>
      <trkpt lat="39.53835817985237" lon="-4.335940154269338">
        <ele>927</ele>
        <time>2022-04-14T07:17:13.000Z</time>
      </trkpt>
      <trkpt lat="39.53833630308509" lon="-4.335956666618586">
        <ele>927.4</ele>
        <time>2022-04-14T07:17:16.000Z</time>
      </trkpt>
      <trkpt lat="39.53832138329744" lon="-4.335970496758819">
        <ele>927.6</ele>
        <time>2022-04-14T07:17:18.000Z</time>
      </trkpt>
      <trkpt lat="39.538275031372905" lon="-4.335999079048634">
        <ele>928</ele>
        <time>2022-04-14T07:17:23.000Z</time>
      </trkpt>
      <trkpt lat="39.538265224546194" lon="-4.336002850905061">
        <ele>928</ele>
        <time>2022-04-14T07:17:24.000Z</time>
      </trkpt>
      <trkpt lat="39.538222309201956" lon="-4.33602187782526">
        <ele>928.6</ele>
        <time>2022-04-14T07:17:30.000Z</time>
      </trkpt>
      <trkpt lat="39.53818869777024" lon="-4.336034115403891">
        <ele>929.2</ele>
        <time>2022-04-14T07:17:34.000Z</time>
      </trkpt>
      <trkpt lat="39.53818182460964" lon="-4.336036881431937">
        <ele>929.2</ele>
        <time>2022-04-14T07:17:35.000Z</time>
      </trkpt>
      <trkpt lat="39.5381354726851" lon="-4.33609957806766">
        <ele>930</ele>
        <time>2022-04-14T07:17:42.000Z</time>
      </trkpt>
      <trkpt lat="39.53812952153385" lon="-4.336108462885022">
        <ele>930.2</ele>
        <time>2022-04-14T07:17:43.000Z</time>
      </trkpt>
      <trkpt lat="39.53808627091348" lon="-4.336164370179176">
        <ele>931</ele>
        <time>2022-04-14T07:17:50.000Z</time>
      </trkpt>
      <trkpt lat="39.53806355595589" lon="-4.3361973110586405">
        <ele>931.2</ele>
        <time>2022-04-14T07:17:53.000Z</time>
      </trkpt>
      <trkpt lat="39.53805626370013" lon="-4.336203597486019">
        <ele>931.2</ele>
        <time>2022-04-14T07:17:54.000Z</time>
      </trkpt>
      <trkpt lat="39.53803447075188" lon="-4.33622463606298">
        <ele>931.6</ele>
        <time>2022-04-14T07:17:57.000Z</time>
      </trkpt>
      <trkpt lat="39.538027262315154" lon="-4.336233856156468">
        <ele>931.8</ele>
        <time>2022-04-14T07:17:58.000Z</time>
      </trkpt>
      <trkpt lat="39.53798158094287" lon="-4.33626277372241">
        <ele>932.2</ele>
        <time>2022-04-14T07:18:03.000Z</time>
      </trkpt>
      <trkpt lat="39.53794981352985" lon="-4.336280878633261">
        <ele>932.6</ele>
        <time>2022-04-14T07:18:06.000Z</time>
      </trkpt>
      <trkpt lat="39.5379420183599" lon="-4.336288841441274">
        <ele>932.6</ele>
        <time>2022-04-14T07:18:07.000Z</time>
      </trkpt>
      <trkpt lat="39.53791896812618" lon="-4.336312059313059">
        <ele>933.2</ele>
        <time>2022-04-14T07:18:10.000Z</time>
      </trkpt>
      <trkpt lat="39.53791134059429" lon="-4.336320273578167">
        <ele>933.4</ele>
        <time>2022-04-14T07:18:11.000Z</time>
      </trkpt>
      <trkpt lat="39.537898348644376" lon="-4.336332511156797">
        <ele>933.4</ele>
        <time>2022-04-14T07:18:13.000Z</time>
      </trkpt>
      <trkpt lat="39.53788820654154" lon="-4.336336366832256">
        <ele>933.6</ele>
        <time>2022-04-14T07:18:14.000Z</time>
      </trkpt>
      <trkpt lat="39.537836322560906" lon="-4.336367966607213">
        <ele>934</ele>
        <time>2022-04-14T07:18:20.000Z</time>
      </trkpt>
      <trkpt lat="39.537812853232026" lon="-4.336389759555459">
        <ele>934.4</ele>
        <time>2022-04-14T07:18:23.000Z</time>
      </trkpt>
      <trkpt lat="39.53777798451483" lon="-4.336403086781502">
        <ele>934.6</ele>
        <time>2022-04-14T07:18:27.000Z</time>
      </trkpt>
      <trkpt lat="39.537733141332865" lon="-4.336416916921735">
        <ele>935</ele>
        <time>2022-04-14T07:18:31.000Z</time>
      </trkpt>
      <trkpt lat="39.53769919462502" lon="-4.336441559717059">
        <ele>935.4</ele>
        <time>2022-04-14T07:18:35.000Z</time>
      </trkpt>
      <trkpt lat="39.53768536448479" lon="-4.336453126743436">
        <ele>935.6</ele>
        <time>2022-04-14T07:18:37.000Z</time>
      </trkpt>
      <trkpt lat="39.537664325907826" lon="-4.336468297988176">
        <ele>936</ele>
        <time>2022-04-14T07:18:40.000Z</time>
      </trkpt>
      <trkpt lat="39.53764194622636" lon="-4.336482882499695">
        <ele>936.6</ele>
        <time>2022-04-14T07:18:42.000Z</time>
      </trkpt>
      <trkpt lat="39.537599282339215" lon="-4.336504675447941">
        <ele>937.2</ele>
        <time>2022-04-14T07:18:46.000Z</time>
      </trkpt>
      <trkpt lat="39.53755594789982" lon="-4.336528982967138">
        <ele>937.6</ele>
        <time>2022-04-14T07:18:52.000Z</time>
      </trkpt>
      <trkpt lat="39.537528455257416" lon="-4.336539711803198">
        <ele>938.4</ele>
        <time>2022-04-14T07:18:55.000Z</time>
      </trkpt>
      <trkpt lat="39.53751781024039" lon="-4.336549267172813">
        <ele>938.8</ele>
        <time>2022-04-14T07:18:57.000Z</time>
      </trkpt>
      <trkpt lat="39.53749098815024" lon="-4.336565276607871">
        <ele>939.4</ele>
        <time>2022-04-14T07:19:02.000Z</time>
      </trkpt>
      <trkpt lat="39.537482019513845" lon="-4.336579609662294">
        <ele>939.6</ele>
        <time>2022-04-14T07:19:04.000Z</time>
      </trkpt>
      <trkpt lat="39.537476152181625" lon="-4.336587907746434">
        <ele>939.8</ele>
        <time>2022-04-14T07:19:05.000Z</time>
      </trkpt>
      <trkpt lat="39.53745109029114" lon="-4.336650520563126">
        <ele>940.4</ele>
        <time>2022-04-14T07:19:11.000Z</time>
      </trkpt>
      <trkpt lat="39.537437092512846" lon="-4.336685473099351">
        <ele>940.6</ele>
        <time>2022-04-14T07:19:14.000Z</time>
      </trkpt>
      <trkpt lat="39.537428710609674" lon="-4.3367168214172125">
        <ele>940.8</ele>
        <time>2022-04-14T07:19:17.000Z</time>
      </trkpt>
      <trkpt lat="39.53740708529949" lon="-4.3367901630699635">
        <ele>941.2</ele>
        <time>2022-04-14T07:19:23.000Z</time>
      </trkpt>
      <trkpt lat="39.53740540891886" lon="-4.336801562458277">
        <ele>941.2</ele>
        <time>2022-04-14T07:19:24.000Z</time>
      </trkpt>
      <trkpt lat="39.53736584633589" lon="-4.3368911650031805">
        <ele>942</ele>
        <time>2022-04-14T07:19:32.000Z</time>
      </trkpt>
      <trkpt lat="39.537328630685806" lon="-4.336970122531056">
        <ele>942.2</ele>
        <time>2022-04-14T07:19:40.000Z</time>
      </trkpt>
      <trkpt lat="39.53729602508247" lon="-4.337046230211854">
        <ele>943</ele>
        <time>2022-04-14T07:19:47.000Z</time>
      </trkpt>
      <trkpt lat="39.53729317523539" lon="-4.337058383971453">
        <ele>943.2</ele>
        <time>2022-04-14T07:19:48.000Z</time>
      </trkpt>
      <trkpt lat="39.537274315953255" lon="-4.3371462263166904">
        <ele>944</ele>
        <time>2022-04-14T07:19:56.000Z</time>
      </trkpt>
      <trkpt lat="39.537267526611686" lon="-4.337169695645571">
        <ele>944.2</ele>
        <time>2022-04-14T07:19:58.000Z</time>
      </trkpt>
      <trkpt lat="39.537252774462104" lon="-4.337205067276955">
        <ele>944.6</ele>
        <time>2022-04-14T07:20:01.000Z</time>
      </trkpt>
      <trkpt lat="39.53723751939833" lon="-4.337249994277954">
        <ele>944.8</ele>
        <time>2022-04-14T07:20:05.000Z</time>
      </trkpt>
      <trkpt lat="39.53722905367613" lon="-4.337267931550741">
        <ele>945.2</ele>
        <time>2022-04-14T07:20:07.000Z</time>
      </trkpt>
      <trkpt lat="39.537212206050754" lon="-4.3373108468949795">
        <ele>945.6</ele>
        <time>2022-04-14T07:20:11.000Z</time>
      </trkpt>
      <trkpt lat="39.537185383960605" lon="-4.33733968064189">
        <ele>945.8</ele>
        <time>2022-04-14T07:20:15.000Z</time>
      </trkpt>
      <trkpt lat="39.53716551885009" lon="-4.337364491075277">
        <ele>945.8</ele>
        <time>2022-04-14T07:20:18.000Z</time>
      </trkpt>
      <trkpt lat="39.53714003786445" lon="-4.337406400591135">
        <ele>946.2</ele>
        <time>2022-04-14T07:20:23.000Z</time>
      </trkpt>
      <trkpt lat="39.537102822214365" lon="-4.337497595697641">
        <ele>946.6</ele>
        <time>2022-04-14T07:20:31.000Z</time>
      </trkpt>
      <trkpt lat="39.53706678003073" lon="-4.337587198242545">
        <ele>946.8</ele>
        <time>2022-04-14T07:20:39.000Z</time>
      </trkpt>
      <trkpt lat="39.537029061466455" lon="-4.3377157766371965">
        <ele>946.8</ele>
        <time>2022-04-14T07:20:49.000Z</time>
      </trkpt>
      <trkpt lat="39.537015818059444" lon="-4.337782245129347">
        <ele>947</ele>
        <time>2022-04-14T07:20:54.000Z</time>
      </trkpt>
      <trkpt lat="39.53700475394726" lon="-4.33780487626791">
        <ele>947</ele>
        <time>2022-04-14T07:20:56.000Z</time>
      </trkpt>
      <trkpt lat="39.53700056299567" lon="-4.337832368910313">
        <ele>947</ele>
        <time>2022-04-14T07:20:58.000Z</time>
      </trkpt>
      <trkpt lat="39.536977764219046" lon="-4.33790160343051">
        <ele>947</ele>
        <time>2022-04-14T07:21:04.000Z</time>
      </trkpt>
      <trkpt lat="39.53697055578232" lon="-4.337924318388104">
        <ele>947.4</ele>
        <time>2022-04-14T07:21:06.000Z</time>
      </trkpt>
      <trkpt lat="39.53696728684008" lon="-4.337953655049205">
        <ele>947.4</ele>
        <time>2022-04-14T07:21:08.000Z</time>
      </trkpt>
      <trkpt lat="39.53695605508983" lon="-4.338019536808133">
        <ele>947.6</ele>
        <time>2022-04-14T07:21:13.000Z</time>
      </trkpt>
      <trkpt lat="39.5369422249496" lon="-4.338057255372405">
        <ele>947.8</ele>
        <time>2022-04-14T07:21:16.000Z</time>
      </trkpt>
      <trkpt lat="39.5369250420481" lon="-4.338098578155041">
        <ele>948.2</ele>
        <time>2022-04-14T07:21:19.000Z</time>
      </trkpt>
      <trkpt lat="39.53687282279134" lon="-4.338246518746018">
        <ele>948</ele>
        <time>2022-04-14T07:21:30.000Z</time>
      </trkpt>
      <trkpt lat="39.536855639889836" lon="-4.338294127956033">
        <ele>948.4</ele>
        <time>2022-04-14T07:21:34.000Z</time>
      </trkpt>
      <trkpt lat="39.536843905225396" lon="-4.338365038856864">
        <ele>948.6</ele>
        <time>2022-04-14T07:21:39.000Z</time>
      </trkpt>
      <trkpt lat="39.536853125318885" lon="-4.338457575067878">
        <ele>949</ele>
        <time>2022-04-14T07:21:45.000Z</time>
      </trkpt>
      <trkpt lat="39.53685681335628" lon="-4.338484480977058">
        <ele>949.2</ele>
        <time>2022-04-14T07:21:47.000Z</time>
      </trkpt>
      <trkpt lat="39.53685882501304" lon="-4.338496131822467">
        <ele>949.4</ele>
        <time>2022-04-14T07:21:48.000Z</time>
      </trkpt>
      <trkpt lat="39.5368610881269" lon="-4.338517338037491">
        <ele>949.4</ele>
        <time>2022-04-14T07:21:50.000Z</time>
      </trkpt>
      <trkpt lat="39.536865362897515" lon="-4.338541477918625">
        <ele>949.4</ele>
        <time>2022-04-14T07:21:52.000Z</time>
      </trkpt>
      <trkpt lat="39.53687240369618" lon="-4.338576095178723">
        <ele>949.6</ele>
        <time>2022-04-14T07:21:54.000Z</time>
      </trkpt>
      <trkpt lat="39.53689687885344" lon="-4.338647508993745">
        <ele>950.2</ele>
        <time>2022-04-14T07:21:59.000Z</time>
      </trkpt>
      <trkpt lat="39.536924958229065" lon="-4.338685143738985">
        <ele>950.4</ele>
        <time>2022-04-14T07:22:03.000Z</time>
      </trkpt>
      <trkpt lat="39.53693057410419" lon="-4.3386950343847275">
        <ele>950.4</ele>
        <time>2022-04-14T07:22:04.000Z</time>
      </trkpt>
      <trkpt lat="39.536966448649764" lon="-4.3387656938284636">
        <ele>951</ele>
        <time>2022-04-14T07:22:11.000Z</time>
      </trkpt>
      <trkpt lat="39.53697206452489" lon="-4.338778182864189">
        <ele>951.2</ele>
        <time>2022-04-14T07:22:12.000Z</time>
      </trkpt>
      <trkpt lat="39.53698664903641" lon="-4.338800981640816">
        <ele>951.6</ele>
        <time>2022-04-14T07:22:14.000Z</time>
      </trkpt>
      <trkpt lat="39.537013890221715" lon="-4.3388555478304625">
        <ele>952</ele>
        <time>2022-04-14T07:22:19.000Z</time>
      </trkpt>
      <trkpt lat="39.537020679563284" lon="-4.338867114856839">
        <ele>952</ele>
        <time>2022-04-14T07:22:20.000Z</time>
      </trkpt>
      <trkpt lat="39.53703920356929" lon="-4.338896702975035">
        <ele>952</ele>
        <time>2022-04-14T07:22:23.000Z</time>
      </trkpt>
      <trkpt lat="39.53706242144108" lon="-4.338924698531628">
        <ele>952.2</ele>
        <time>2022-04-14T07:22:26.000Z</time>
      </trkpt>
      <trkpt lat="39.53706845641136" lon="-4.338934505358338">
        <ele>952.2</ele>
        <time>2022-04-14T07:22:27.000Z</time>
      </trkpt>
      <trkpt lat="39.5370820350945" lon="-4.338989993557334">
        <ele>952.4</ele>
        <time>2022-04-14T07:22:32.000Z</time>
      </trkpt>
      <trkpt lat="39.53709519468248" lon="-4.339014552533627">
        <ele>952.6</ele>
        <time>2022-04-14T07:22:34.000Z</time>
      </trkpt>
      <trkpt lat="39.537100810557604" lon="-4.339041709899902">
        <ele>952.4</ele>
        <time>2022-04-14T07:22:36.000Z</time>
      </trkpt>
      <trkpt lat="39.53712159767747" lon="-4.339112117886543">
        <ele>952.4</ele>
        <time>2022-04-14T07:22:41.000Z</time>
      </trkpt>
      <trkpt lat="39.537130733951926" lon="-4.339135754853487">
        <ele>952.6</ele>
        <time>2022-04-14T07:22:43.000Z</time>
      </trkpt>
      <trkpt lat="39.53716116026044" lon="-4.339238936081529">
        <ele>953.6</ele>
        <time>2022-04-14T07:22:51.000Z</time>
      </trkpt>
      <trkpt lat="39.53716870397329" lon="-4.339276319369674">
        <ele>953.8</ele>
        <time>2022-04-14T07:22:54.000Z</time>
      </trkpt>
      <trkpt lat="39.53719770535827" lon="-4.339381093159318">
        <ele>954.4</ele>
        <time>2022-04-14T07:23:02.000Z</time>
      </trkpt>
      <trkpt lat="39.537205919623375" lon="-4.3394174706190825">
        <ele>954.6</ele>
        <time>2022-04-14T07:23:05.000Z</time>
      </trkpt>
      <trkpt lat="39.53721581026912" lon="-4.339479161426425">
        <ele>955</ele>
        <time>2022-04-14T07:23:10.000Z</time>
      </trkpt>
      <trkpt lat="39.5372165646404" lon="-4.339490476995707">
        <ele>955</ele>
        <time>2022-04-14T07:23:11.000Z</time>
      </trkpt>
      <trkpt lat="39.53722310252488" lon="-4.339529285207391">
        <ele>955.4</ele>
        <time>2022-04-14T07:23:14.000Z</time>
      </trkpt>
      <trkpt lat="39.53723827376962" lon="-4.339564573019743">
        <ele>955.8</ele>
        <time>2022-04-14T07:23:17.000Z</time>
      </trkpt>
      <trkpt lat="39.537243051454425" lon="-4.339586617425084">
        <ele>956</ele>
        <time>2022-04-14T07:23:19.000Z</time>
      </trkpt>
      <trkpt lat="39.537239111959934" lon="-4.33964604511857">
        <ele>956.2</ele>
        <time>2022-04-14T07:23:24.000Z</time>
      </trkpt>
      <trkpt lat="39.53723492100835" lon="-4.339688792824745">
        <ele>956.4</ele>
        <time>2022-04-14T07:23:27.000Z</time>
      </trkpt>
      <trkpt lat="39.537230813875794" lon="-4.339715698733926">
        <ele>956.6</ele>
        <time>2022-04-14T07:23:29.000Z</time>
      </trkpt>
      <trkpt lat="39.5372133795172" lon="-4.339806726202369">
        <ele>956.8</ele>
        <time>2022-04-14T07:23:36.000Z</time>
      </trkpt>
      <trkpt lat="39.537210864946246" lon="-4.33981804177165">
        <ele>957</ele>
        <time>2022-04-14T07:23:37.000Z</time>
      </trkpt>
      <trkpt lat="39.53717976808548" lon="-4.33992407284677">
        <ele>957.8</ele>
        <time>2022-04-14T07:23:46.000Z</time>
      </trkpt>
      <trkpt lat="39.53717582859099" lon="-4.339936478063464">
        <ele>957.8</ele>
        <time>2022-04-14T07:23:47.000Z</time>
      </trkpt>
      <trkpt lat="39.53714749775827" lon="-4.340043514966965">
        <ele>958.4</ele>
        <time>2022-04-14T07:23:55.000Z</time>
      </trkpt>
      <trkpt lat="39.5371166523546" lon="-4.340118449181318">
        <ele>959</ele>
        <time>2022-04-14T07:24:00.000Z</time>
      </trkpt>
      <trkpt lat="39.5371029060334" lon="-4.340150216594338">
        <ele>959</ele>
        <time>2022-04-14T07:24:05.000Z</time>
      </trkpt>
      <trkpt lat="39.53705948777497" lon="-4.3402191158384085">
        <ele>960</ele>
        <time>2022-04-14T07:24:12.000Z</time>
      </trkpt>
      <trkpt lat="39.53704004175961" lon="-4.340250128880143">
        <ele>960.4</ele>
        <time>2022-04-14T07:24:15.000Z</time>
      </trkpt>
      <trkpt lat="39.537034844979644" lon="-4.340259935706854">
        <ele>960.4</ele>
        <time>2022-04-14T07:24:16.000Z</time>
      </trkpt>
      <trkpt lat="39.53701414167881" lon="-4.340291535481811">
        <ele>960.4</ele>
        <time>2022-04-14T07:24:19.000Z</time>
      </trkpt>
      <trkpt lat="39.53698547556996" lon="-4.340327996760607">
        <ele>960.6</ele>
        <time>2022-04-14T07:24:23.000Z</time>
      </trkpt>
      <trkpt lat="39.53694767318666" lon="-4.340359345078468">
        <ele>961</ele>
        <time>2022-04-14T07:24:27.000Z</time>
      </trkpt>
      <trkpt lat="39.536902997642756" lon="-4.340402344241738">
        <ele>961.4</ele>
        <time>2022-04-14T07:24:32.000Z</time>
      </trkpt>
      <trkpt lat="39.536835020408034" lon="-4.340458000078797">
        <ele>962</ele>
        <time>2022-04-14T07:24:39.000Z</time>
      </trkpt>
      <trkpt lat="39.53682588413358" lon="-4.340468812733889">
        <ele>962.2</ele>
        <time>2022-04-14T07:24:40.000Z</time>
      </trkpt>
      <trkpt lat="39.53675455413759" lon="-4.340512650087476">
        <ele>962.6</ele>
        <time>2022-04-14T07:24:48.000Z</time>
      </trkpt>
      <trkpt lat="39.5367157459259" lon="-4.34054802171886">
        <ele>963.2</ele>
        <time>2022-04-14T07:24:54.000Z</time>
      </trkpt>
      <trkpt lat="39.536693366244435" lon="-4.340572496876121">
        <ele>963.2</ele>
        <time>2022-04-14T07:24:57.000Z</time>
      </trkpt>
      <trkpt lat="39.53665975481272" lon="-4.340602084994316">
        <ele>963.2</ele>
        <time>2022-04-14T07:25:01.000Z</time>
      </trkpt>
      <trkpt lat="39.53662530519068" lon="-4.340631170198321">
        <ele>963.2</ele>
        <time>2022-04-14T07:25:05.000Z</time>
      </trkpt>
      <trkpt lat="39.53660996630788" lon="-4.340641228482127">
        <ele>963.4</ele>
        <time>2022-04-14T07:25:07.000Z</time>
      </trkpt>
      <trkpt lat="39.53657375648618" lon="-4.340656567364931">
        <ele>963.6</ele>
        <time>2022-04-14T07:25:11.000Z</time>
      </trkpt>
      <trkpt lat="39.53654031269252" lon="-4.340664446353912">
        <ele>963.6</ele>
        <time>2022-04-14T07:25:14.000Z</time>
      </trkpt>
      <trkpt lat="39.53648750670254" lon="-4.3406791146844625">
        <ele>963.8</ele>
        <time>2022-04-14T07:25:19.000Z</time>
      </trkpt>
      <trkpt lat="39.53645138069987" lon="-4.340681042522192">
        <ele>963.8</ele>
        <time>2022-04-14T07:25:22.000Z</time>
      </trkpt>
      <trkpt lat="39.53642439097166" lon="-4.3406767677515745">
        <ele>964.2</ele>
        <time>2022-04-14T07:25:25.000Z</time>
      </trkpt>
      <trkpt lat="39.536375273019075" lon="-4.340674169361591">
        <ele>964.6</ele>
        <time>2022-04-14T07:25:31.000Z</time>
      </trkpt>
      <trkpt lat="39.53636823222041" lon="-4.340676348656416">
        <ele>964.6</ele>
        <time>2022-04-14T07:25:32.000Z</time>
      </trkpt>
      <trkpt lat="39.53633554279804" lon="-4.340670648962259">
        <ele>965.2</ele>
        <time>2022-04-14T07:25:36.000Z</time>
      </trkpt>
      <trkpt lat="39.536327328532934" lon="-4.3406688049435616">
        <ele>965.4</ele>
        <time>2022-04-14T07:25:37.000Z</time>
      </trkpt>
      <trkpt lat="39.5362979080528" lon="-4.340649275109172">
        <ele>965.8</ele>
        <time>2022-04-14T07:25:40.000Z</time>
      </trkpt>
      <trkpt lat="39.536273684352636" lon="-4.340647766366601">
        <ele>966.2</ele>
        <time>2022-04-14T07:25:45.000Z</time>
      </trkpt>
      <trkpt lat="39.536269661039114" lon="-4.3406464252620935">
        <ele>966.2</ele>
        <time>2022-04-14T07:25:46.000Z</time>
      </trkpt>
      <trkpt lat="39.53626991249621" lon="-4.340628236532211">
        <ele>966.6</ele>
        <time>2022-04-14T07:25:49.000Z</time>
      </trkpt>
      <trkpt lat="39.53626890666783" lon="-4.340627901256084">
        <ele>966.6</ele>
        <time>2022-04-14T07:25:51.000Z</time>
      </trkpt>
      <trkpt lat="39.53623965382576" lon="-4.34063452295959">
        <ele>966.4</ele>
        <time>2022-04-14T07:25:57.000Z</time>
      </trkpt>
      <trkpt lat="39.536231104284525" lon="-4.3406337685883045">
        <ele>966.4</ele>
        <time>2022-04-14T07:25:58.000Z</time>
      </trkpt>
      <trkpt lat="39.5361736882478" lon="-4.3406308349221945">
        <ele>967.4</ele>
        <time>2022-04-14T07:26:04.000Z</time>
      </trkpt>
      <trkpt lat="39.536160277202725" lon="-4.340628907084465">
        <ele>968</ele>
        <time>2022-04-14T07:26:06.000Z</time>
      </trkpt>
      <trkpt lat="39.53613496385515" lon="-4.34062329120934">
        <ele>968.4</ele>
        <time>2022-04-14T07:26:08.000Z</time>
      </trkpt>
      <trkpt lat="39.53609154559672" lon="-4.340596050024033">
        <ele>968.8</ele>
        <time>2022-04-14T07:26:13.000Z</time>
      </trkpt>
      <trkpt lat="39.53606246039271" lon="-4.340580627322197">
        <ele>969.6</ele>
        <time>2022-04-14T07:26:17.000Z</time>
      </trkpt>
      <trkpt lat="39.536029351875186" lon="-4.340559085831046">
        <ele>970.2</ele>
        <time>2022-04-14T07:26:21.000Z</time>
      </trkpt>
      <trkpt lat="39.53600705601275" lon="-4.340540561825037">
        <ele>970.6</ele>
        <time>2022-04-14T07:26:24.000Z</time>
      </trkpt>
      <trkpt lat="39.53598962165415" lon="-4.340533604845405">
        <ele>970.8</ele>
        <time>2022-04-14T07:26:26.000Z</time>
      </trkpt>
      <trkpt lat="39.53596355393529" lon="-4.340522289276123">
        <ele>971.2</ele>
        <time>2022-04-14T07:26:29.000Z</time>
      </trkpt>
      <trkpt lat="39.5359318703413" lon="-4.340516505762935">
        <ele>971.8</ele>
        <time>2022-04-14T07:26:33.000Z</time>
      </trkpt>
      <trkpt lat="39.53591275960207" lon="-4.3405115604400635">
        <ele>972</ele>
        <time>2022-04-14T07:26:36.000Z</time>
      </trkpt>
      <trkpt lat="39.53590102493763" lon="-4.340502675622702">
        <ele>972.4</ele>
        <time>2022-04-14T07:26:38.000Z</time>
      </trkpt>
      <trkpt lat="39.53588283620775" lon="-4.340487252920866">
        <ele>972.8</ele>
        <time>2022-04-14T07:26:41.000Z</time>
      </trkpt>
      <trkpt lat="39.53587839379907" lon="-4.340485827997327">
        <ele>973</ele>
        <time>2022-04-14T07:26:42.000Z</time>
      </trkpt>
      <trkpt lat="39.53586892224848" lon="-4.340479206293821">
        <ele>973.4</ele>
        <time>2022-04-14T07:26:44.000Z</time>
      </trkpt>
      <trkpt lat="39.535864647477865" lon="-4.340475685894489">
        <ele>973.4</ele>
        <time>2022-04-14T07:26:45.000Z</time>
      </trkpt>
      <trkpt lat="39.535834304988384" lon="-4.340456826612353">
        <ele>973.8</ele>
        <time>2022-04-14T07:26:50.000Z</time>
      </trkpt>
      <trkpt lat="39.53581879846752" lon="-4.34044836089015">
        <ele>974</ele>
        <time>2022-04-14T07:26:52.000Z</time>
      </trkpt>
      <trkpt lat="39.5358023699373" lon="-4.340446349233389">
        <ele>974.2</ele>
        <time>2022-04-14T07:26:54.000Z</time>
      </trkpt>
      <trkpt lat="39.535768423229456" lon="-4.340427070856094">
        <ele>975</ele>
        <time>2022-04-14T07:26:59.000Z</time>
      </trkpt>
      <trkpt lat="39.53575995750725" lon="-4.3404238019138575">
        <ele>975.2</ele>
        <time>2022-04-14T07:27:00.000Z</time>
      </trkpt>
      <trkpt lat="39.535730285570025" lon="-4.340409552678466">
        <ele>975.6</ele>
        <time>2022-04-14T07:27:03.000Z</time>
      </trkpt>
      <trkpt lat="39.53570497222245" lon="-4.340390441939235">
        <ele>976</ele>
        <time>2022-04-14T07:27:06.000Z</time>
      </trkpt>
      <trkpt lat="39.53569784760475" lon="-4.340383317321539">
        <ele>976</ele>
        <time>2022-04-14T07:27:07.000Z</time>
      </trkpt>
      <trkpt lat="39.535678485408425" lon="-4.340358674526215">
        <ele>976</ele>
        <time>2022-04-14T07:27:10.000Z</time>
      </trkpt>
      <trkpt lat="39.53565392643213" lon="-4.3403286673128605">
        <ele>976.6</ele>
        <time>2022-04-14T07:27:14.000Z</time>
      </trkpt>
      <trkpt lat="39.53564990311861" lon="-4.340325063094497">
        <ele>976.6</ele>
        <time>2022-04-14T07:27:15.000Z</time>
      </trkpt>
      <trkpt lat="39.535638336092234" lon="-4.34031399898231">
        <ele>976.8</ele>
        <time>2022-04-14T07:27:17.000Z</time>
      </trkpt>
      <trkpt lat="39.535632049664855" lon="-4.340308383107185">
        <ele>976.8</ele>
        <time>2022-04-14T07:27:18.000Z</time>
      </trkpt>
      <trkpt lat="39.53561855480075" lon="-4.340289104729891">
        <ele>977</ele>
        <time>2022-04-14T07:27:21.000Z</time>
      </trkpt>
      <trkpt lat="39.535613022744656" lon="-4.340282566845417">
        <ele>977.2</ele>
        <time>2022-04-14T07:27:22.000Z</time>
      </trkpt>
      <trkpt lat="39.53560899943113" lon="-4.340277789160609">
        <ele>977.4</ele>
        <time>2022-04-14T07:27:23.000Z</time>
      </trkpt>
      <trkpt lat="39.535604221746325" lon="-4.340272592380643">
        <ele>977.8</ele>
        <time>2022-04-14T07:27:24.000Z</time>
      </trkpt>
      <trkpt lat="39.53559743240476" lon="-4.340267898514867">
        <ele>977.8</ele>
        <time>2022-04-14T07:27:25.000Z</time>
      </trkpt>
      <trkpt lat="39.5355711132288" lon="-4.340249625965953">
        <ele>978.2</ele>
        <time>2022-04-14T07:27:29.000Z</time>
      </trkpt>
      <trkpt lat="39.53554890118539" lon="-4.340235460549593">
        <ele>978.6</ele>
        <time>2022-04-14T07:27:32.000Z</time>
      </trkpt>
      <trkpt lat="39.53551193699241" lon="-4.340203693136573">
        <ele>979.2</ele>
        <time>2022-04-14T07:27:38.000Z</time>
      </trkpt>
      <trkpt lat="39.53549928031862" lon="-4.340196400880814">
        <ele>979.4</ele>
        <time>2022-04-14T07:27:40.000Z</time>
      </trkpt>
      <trkpt lat="39.535457538440824" lon="-4.340167986229062">
        <ele>980.2</ele>
        <time>2022-04-14T07:27:47.000Z</time>
      </trkpt>
      <trkpt lat="39.53544949181378" lon="-4.340165555477142">
        <ele>980.4</ele>
        <time>2022-04-14T07:27:48.000Z</time>
      </trkpt>
      <trkpt lat="39.53542250208557" lon="-4.34014493599534">
        <ele>980.8</ele>
        <time>2022-04-14T07:27:52.000Z</time>
      </trkpt>
      <trkpt lat="39.53540422953665" lon="-4.340128842741251">
        <ele>980.8</ele>
        <time>2022-04-14T07:27:55.000Z</time>
      </trkpt>
      <trkpt lat="39.53536265529692" lon="-4.340085340663791">
        <ele>981.4</ele>
        <time>2022-04-14T07:28:03.000Z</time>
      </trkpt>
      <trkpt lat="39.535358380526304" lon="-4.340078718960285">
        <ele>981.4</ele>
        <time>2022-04-14T07:28:04.000Z</time>
      </trkpt>
      <trkpt lat="39.53532703220844" lon="-4.34004720300436">
        <ele>982.2</ele>
        <time>2022-04-14T07:28:10.000Z</time>
      </trkpt>
      <trkpt lat="39.53529207967222" lon="-4.340023649856448">
        <ele>982.6</ele>
        <time>2022-04-14T07:28:14.000Z</time>
      </trkpt>
      <trkpt lat="39.53523265197873" lon="-4.339989200234413">
        <ele>983.2</ele>
        <time>2022-04-14T07:28:21.000Z</time>
      </trkpt>
      <trkpt lat="39.53521555289626" lon="-4.339980818331242">
        <ele>983.6</ele>
        <time>2022-04-14T07:28:23.000Z</time>
      </trkpt>
      <trkpt lat="39.53518898226321" lon="-4.339957432821393">
        <ele>984.2</ele>
        <time>2022-04-14T07:28:27.000Z</time>
      </trkpt>
      <trkpt lat="39.53517506830394" lon="-4.339947625994682">
        <ele>984.4</ele>
        <time>2022-04-14T07:28:29.000Z</time>
      </trkpt>
      <trkpt lat="39.53516467474401" lon="-4.339938992634416">
        <ele>984.6</ele>
        <time>2022-04-14T07:28:31.000Z</time>
      </trkpt>
      <trkpt lat="39.535156711936" lon="-4.339928347617388">
        <ele>985</ele>
        <time>2022-04-14T07:28:33.000Z</time>
      </trkpt>
      <trkpt lat="39.535137098282576" lon="-4.339911080896854">
        <ele>985.6</ele>
        <time>2022-04-14T07:28:37.000Z</time>
      </trkpt>
      <trkpt lat="39.53509904444218" lon="-4.339885683730245">
        <ele>986.4</ele>
        <time>2022-04-14T07:28:44.000Z</time>
      </trkpt>
      <trkpt lat="39.535081861540675" lon="-4.339890461415052">
        <ele>986.6</ele>
        <time>2022-04-14T07:28:47.000Z</time>
      </trkpt>
      <trkpt lat="39.535084795206785" lon="-4.33989817276597">
        <ele>986.8</ele>
        <time>2022-04-14T07:28:50.000Z</time>
      </trkpt>
      <trkpt lat="39.535086220130324" lon="-4.3399004358798265">
        <ele>986.8</ele>
        <time>2022-04-14T07:28:52.000Z</time>
      </trkpt>
      <trkpt lat="39.535090662539005" lon="-4.339905045926571">
        <ele>986.8</ele>
        <time>2022-04-14T07:28:55.000Z</time>
      </trkpt>
      <trkpt lat="39.53507482074201" lon="-4.339892975986004">
        <ele>986.6</ele>
        <time>2022-04-14T07:29:00.000Z</time>
      </trkpt>
      <trkpt lat="39.53506065532565" lon="-4.339890796691179">
        <ele>986.6</ele>
        <time>2022-04-14T07:29:03.000Z</time>
      </trkpt>
      <trkpt lat="39.53505763784051" lon="-4.339890209957957">
        <ele>986.6</ele>
        <time>2022-04-14T07:29:04.000Z</time>
      </trkpt>
      <trkpt lat="39.53503366559744" lon="-4.339872943237424">
        <ele>986.8</ele>
        <time>2022-04-14T07:29:08.000Z</time>
      </trkpt>
      <trkpt lat="39.53499326482415" lon="-4.339851485565305">
        <ele>987.8</ele>
        <time>2022-04-14T07:29:15.000Z</time>
      </trkpt>
      <trkpt lat="39.53497080132365" lon="-4.339838661253452">
        <ele>988.2</ele>
        <time>2022-04-14T07:29:18.000Z</time>
      </trkpt>
      <trkpt lat="39.53494817018509" lon="-4.3398253340274096">
        <ele>988.6</ele>
        <time>2022-04-14T07:29:21.000Z</time>
      </trkpt>
      <trkpt lat="39.53493400476873" lon="-4.3398224003612995">
        <ele>988.8</ele>
        <time>2022-04-14T07:29:23.000Z</time>
      </trkpt>
      <trkpt lat="39.53492671251297" lon="-4.339819801971316">
        <ele>988.8</ele>
        <time>2022-04-14T07:29:24.000Z</time>
      </trkpt>
      <trkpt lat="39.53490232117474" lon="-4.339805636554956">
        <ele>989</ele>
        <time>2022-04-14T07:29:27.000Z</time>
      </trkpt>
      <trkpt lat="39.53486803919077" lon="-4.33978820219636">
        <ele>989.8</ele>
        <time>2022-04-14T07:29:31.000Z</time>
      </trkpt>
      <trkpt lat="39.53484423458576" lon="-4.339778143912554">
        <ele>990.4</ele>
        <time>2022-04-14T07:29:34.000Z</time>
      </trkpt>
      <trkpt lat="39.5348266325891" lon="-4.339779233559966">
        <ele>990.6</ele>
        <time>2022-04-14T07:29:36.000Z</time>
      </trkpt>
      <trkpt lat="39.534794026985765" lon="-4.339772025123239">
        <ele>990.8</ele>
        <time>2022-04-14T07:29:40.000Z</time>
      </trkpt>
      <trkpt lat="39.53474264591932" lon="-4.3397570215165615">
        <ele>991.8</ele>
        <time>2022-04-14T07:29:46.000Z</time>
      </trkpt>
      <trkpt lat="39.534735437482595" lon="-4.3397593684494495">
        <ele>992</ele>
        <time>2022-04-14T07:29:47.000Z</time>
      </trkpt>
      <trkpt lat="39.534705094993114" lon="-4.33975693769753">
        <ele>992.6</ele>
        <time>2022-04-14T07:29:51.000Z</time>
      </trkpt>
      <trkpt lat="39.53467131592333" lon="-4.339751657098532">
        <ele>992.8</ele>
        <time>2022-04-14T07:29:55.000Z</time>
      </trkpt>
      <trkpt lat="39.53465363010764" lon="-4.339753417298198">
        <ele>993.2</ele>
        <time>2022-04-14T07:29:57.000Z</time>
      </trkpt>
      <trkpt lat="39.534623958170414" lon="-4.339751489460468">
        <ele>994.4</ele>
        <time>2022-04-14T07:30:01.000Z</time>
      </trkpt>
      <trkpt lat="39.53460509888828" lon="-4.339751740917563">
        <ele>994.6</ele>
        <time>2022-04-14T07:30:03.000Z</time>
      </trkpt>
      <trkpt lat="39.53455631621182" lon="-4.339763056486845">
        <ele>994.8</ele>
        <time>2022-04-14T07:30:08.000Z</time>
      </trkpt>
      <trkpt lat="39.53454852104187" lon="-4.339764565229416">
        <ele>995</ele>
        <time>2022-04-14T07:30:09.000Z</time>
      </trkpt>
      <trkpt lat="39.534538462758064" lon="-4.339765822514892">
        <ele>995.2</ele>
        <time>2022-04-14T07:30:10.000Z</time>
      </trkpt>
      <trkpt lat="39.53452756628394" lon="-4.339769426733255">
        <ele>995.4</ele>
        <time>2022-04-14T07:30:11.000Z</time>
      </trkpt>
      <trkpt lat="39.534469144418836" lon="-4.339772695675492">
        <ele>996</ele>
        <time>2022-04-14T07:30:19.000Z</time>
      </trkpt>
      <trkpt lat="39.53444693237543" lon="-4.339770432561636">
        <ele>996.4</ele>
        <time>2022-04-14T07:30:22.000Z</time>
      </trkpt>
      <trkpt lat="39.5344053581357" lon="-4.339775545522571">
        <ele>997</ele>
        <time>2022-04-14T07:30:27.000Z</time>
      </trkpt>
      <trkpt lat="39.53436001203954" lon="-4.339787531644106">
        <ele>997.4</ele>
        <time>2022-04-14T07:30:33.000Z</time>
      </trkpt>
      <trkpt lat="39.53435204923153" lon="-4.339787615463138">
        <ele>997.6</ele>
        <time>2022-04-14T07:30:34.000Z</time>
      </trkpt>
      <trkpt lat="39.53433151356876" lon="-4.339784514158964">
        <ele>997.8</ele>
        <time>2022-04-14T07:30:37.000Z</time>
      </trkpt>
      <trkpt lat="39.53430670313537" lon="-4.339792309328914">
        <ele>998</ele>
        <time>2022-04-14T07:30:40.000Z</time>
      </trkpt>
      <trkpt lat="39.53428382053971" lon="-4.33979800902307">
        <ele>998.4</ele>
        <time>2022-04-14T07:30:43.000Z</time>
      </trkpt>
      <trkpt lat="39.534278037026525" lon="-4.339797170832753">
        <ele>998.6</ele>
        <time>2022-04-14T07:30:44.000Z</time>
      </trkpt>
      <trkpt lat="39.53426512889564" lon="-4.339785352349281">
        <ele>999.2</ele>
        <time>2022-04-14T07:30:49.000Z</time>
      </trkpt>
      <trkpt lat="39.5342414919287" lon="-4.339782418683171">
        <ele>999.6</ele>
        <time>2022-04-14T07:30:55.000Z</time>
      </trkpt>
      <trkpt lat="39.53420394100249" lon="-4.339784346520901">
        <ele>1000</ele>
        <time>2022-04-14T07:31:02.000Z</time>
      </trkpt>
      <trkpt lat="39.53413956798613" lon="-4.339797841385007">
        <ele>1000.8</ele>
        <time>2022-04-14T07:31:09.000Z</time>
      </trkpt>
      <trkpt lat="39.53412842005491" lon="-4.33979700319469">
        <ele>1001</ele>
        <time>2022-04-14T07:31:10.000Z</time>
      </trkpt>
      <trkpt lat="39.53409103676677" lon="-4.339795159175992">
        <ele>1001.8</ele>
        <time>2022-04-14T07:31:14.000Z</time>
      </trkpt>
      <trkpt lat="39.53406128101051" lon="-4.339803121984005">
        <ele>1002.8</ele>
        <time>2022-04-14T07:31:18.000Z</time>
      </trkpt>
      <trkpt lat="39.534053737297654" lon="-4.3398029543459415">
        <ele>1002.8</ele>
        <time>2022-04-14T07:31:19.000Z</time>
      </trkpt>
      <trkpt lat="39.53401652164757" lon="-4.339814018458128">
        <ele>1003.6</ele>
        <time>2022-04-14T07:31:25.000Z</time>
      </trkpt>
      <trkpt lat="39.53400067985058" lon="-4.339824076741934">
        <ele>1003.8</ele>
        <time>2022-04-14T07:31:27.000Z</time>
      </trkpt>
      <trkpt lat="39.533948712050915" lon="-4.339866824448109">
        <ele>1005</ele>
        <time>2022-04-14T07:31:34.000Z</time>
      </trkpt>
      <trkpt lat="39.533886183053255" lon="-4.339890629053116">
        <ele>1005.6</ele>
        <time>2022-04-14T07:31:41.000Z</time>
      </trkpt>
      <trkpt lat="39.533857349306345" lon="-4.339915607124567">
        <ele>1006.2</ele>
        <time>2022-04-14T07:31:45.000Z</time>
      </trkpt>
      <trkpt lat="39.53383857384324" lon="-4.339938908815384">
        <ele>1006.6</ele>
        <time>2022-04-14T07:31:48.000Z</time>
      </trkpt>
      <trkpt lat="39.53380856662989" lon="-4.339953409507871">
        <ele>1007</ele>
        <time>2022-04-14T07:31:52.000Z</time>
      </trkpt>
      <trkpt lat="39.533801106736064" lon="-4.339956510812044">
        <ele>1007.2</ele>
        <time>2022-04-14T07:31:53.000Z</time>
      </trkpt>
      <trkpt lat="39.533795323222876" lon="-4.339964557439089">
        <ele>1007.2</ele>
        <time>2022-04-14T07:31:54.000Z</time>
      </trkpt>
      <trkpt lat="39.53377252444625" lon="-4.339978471398354">
        <ele>1007.6</ele>
        <time>2022-04-14T07:31:57.000Z</time>
      </trkpt>
      <trkpt lat="39.53374117612839" lon="-4.339997749775648">
        <ele>1008.2</ele>
        <time>2022-04-14T07:32:01.000Z</time>
      </trkpt>
      <trkpt lat="39.53369650058448" lon="-4.34002130292356">
        <ele>1009</ele>
        <time>2022-04-14T07:32:07.000Z</time>
      </trkpt>
      <trkpt lat="39.533671606332064" lon="-4.340027002617717">
        <ele>1009.4</ele>
        <time>2022-04-14T07:32:10.000Z</time>
      </trkpt>
      <trkpt lat="39.53365542925894" lon="-4.340031696483493">
        <ele>1009.6</ele>
        <time>2022-04-14T07:32:12.000Z</time>
      </trkpt>
      <trkpt lat="39.5336333848536" lon="-4.340038737282157">
        <ele>1010</ele>
        <time>2022-04-14T07:32:15.000Z</time>
      </trkpt>
      <trkpt lat="39.53359457664192" lon="-4.340048376470804">
        <ele>1010.4</ele>
        <time>2022-04-14T07:32:20.000Z</time>
      </trkpt>
      <trkpt lat="39.53358770348132" lon="-4.340049549937248">
        <ele>1010.6</ele>
        <time>2022-04-14T07:32:21.000Z</time>
      </trkpt>
      <trkpt lat="39.53357622027397" lon="-4.340054159983993">
        <ele>1010.6</ele>
        <time>2022-04-14T07:32:23.000Z</time>
      </trkpt>
      <trkpt lat="39.53356767073274" lon="-4.3400555010885">
        <ele>1010.8</ele>
        <time>2022-04-14T07:32:24.000Z</time>
      </trkpt>
      <trkpt lat="39.533518301323056" lon="-4.340071091428399">
        <ele>1011.6</ele>
        <time>2022-04-14T07:32:30.000Z</time>
      </trkpt>
      <trkpt lat="39.533500615507364" lon="-4.34007897041738">
        <ele>1011.8</ele>
        <time>2022-04-14T07:32:32.000Z</time>
      </trkpt>
      <trkpt lat="39.53343775123358" lon="-4.340086095035076">
        <ele>1012.6</ele>
        <time>2022-04-14T07:32:40.000Z</time>
      </trkpt>
      <trkpt lat="39.533420568332076" lon="-4.340088525786996">
        <ele>1012.8</ele>
        <time>2022-04-14T07:32:42.000Z</time>
      </trkpt>
      <trkpt lat="39.53339735046029" lon="-4.340090872719884">
        <ele>1012.8</ele>
        <time>2022-04-14T07:32:44.000Z</time>
      </trkpt>
      <trkpt lat="39.53337321057916" lon="-4.340093219652772">
        <ele>1013.2</ele>
        <time>2022-04-14T07:32:48.000Z</time>
      </trkpt>
      <trkpt lat="39.53335577622056" lon="-4.340091962367296">
        <ele>1013.4</ele>
        <time>2022-04-14T07:32:52.000Z</time>
      </trkpt>
      <trkpt lat="39.53331805765629" lon="-4.340095650404692">
        <ele>1013.4</ele>
        <time>2022-04-14T07:32:56.000Z</time>
      </trkpt>
      <trkpt lat="39.53330338932574" lon="-4.340108307078481">
        <ele>1013.8</ele>
        <time>2022-04-14T07:32:59.000Z</time>
      </trkpt>
      <trkpt lat="39.53326349146664" lon="-4.340128256008029">
        <ele>1014</ele>
        <time>2022-04-14T07:33:04.000Z</time>
      </trkpt>
      <trkpt lat="39.53322778455913" lon="-4.340157760307193">
        <ele>1014.6</ele>
        <time>2022-04-14T07:33:10.000Z</time>
      </trkpt>
      <trkpt lat="39.53321462497115" lon="-4.340148540213704">
        <ele>1014.8</ele>
        <time>2022-04-14T07:33:13.000Z</time>
      </trkpt>
      <trkpt lat="39.53320397995412" lon="-4.340143175795674">
        <ele>1014.8</ele>
        <time>2022-04-14T07:33:15.000Z</time>
      </trkpt>
      <trkpt lat="39.53319098800421" lon="-4.340139906853437">
        <ele>1014.8</ele>
        <time>2022-04-14T07:33:17.000Z</time>
      </trkpt>
      <trkpt lat="39.53312175348401" lon="-4.340184330940247">
        <ele>1015.2</ele>
        <time>2022-04-14T07:33:28.000Z</time>
      </trkpt>
      <trkpt lat="39.533050674945116" lon="-4.340197155252099">
        <ele>1015.8</ele>
        <time>2022-04-14T07:33:35.000Z</time>
      </trkpt>
      <trkpt lat="39.533039443194866" lon="-4.3401979096233845">
        <ele>1016</ele>
        <time>2022-04-14T07:33:36.000Z</time>
      </trkpt>
      <trkpt lat="39.53301924280822" lon="-4.340206291526556">
        <ele>1016</ele>
        <time>2022-04-14T07:33:38.000Z</time>
      </trkpt>
      <trkpt lat="39.53299191780388" lon="-4.340220456942916">
        <ele>1016</ele>
        <time>2022-04-14T07:33:41.000Z</time>
      </trkpt>
      <trkpt lat="39.53297699801624" lon="-4.340225905179977">
        <ele>1016.2</ele>
        <time>2022-04-14T07:33:43.000Z</time>
      </trkpt>
      <trkpt lat="39.5329409558326" lon="-4.340233784168959">
        <ele>1016.6</ele>
        <time>2022-04-14T07:33:47.000Z</time>
      </trkpt>
      <trkpt lat="39.53292544931173" lon="-4.34023872949183">
        <ele>1017</ele>
        <time>2022-04-14T07:33:49.000Z</time>
      </trkpt>
      <trkpt lat="39.53291748650372" lon="-4.34024166315794">
        <ele>1017</ele>
        <time>2022-04-14T07:33:50.000Z</time>
      </trkpt>
      <trkpt lat="39.53290265053511" lon="-4.340241579338908">
        <ele>1017.2</ele>
        <time>2022-04-14T07:33:52.000Z</time>
      </trkpt>
      <trkpt lat="39.53288714401424" lon="-4.340238980948925">
        <ele>1017.4</ele>
        <time>2022-04-14T07:33:54.000Z</time>
      </trkpt>
      <trkpt lat="39.53287993557751" lon="-4.340238310396671">
        <ele>1017.6</ele>
        <time>2022-04-14T07:33:55.000Z</time>
      </trkpt>
      <trkpt lat="39.53284598886967" lon="-4.340249542146921">
        <ele>1018</ele>
        <time>2022-04-14T07:33:59.000Z</time>
      </trkpt>
      <trkpt lat="39.532825788483024" lon="-4.3402627017349005">
        <ele>1018.2</ele>
        <time>2022-04-14T07:34:02.000Z</time>
      </trkpt>
      <trkpt lat="39.53281061723828" lon="-4.340273765847087">
        <ele>1018.6</ele>
        <time>2022-04-14T07:34:04.000Z</time>
      </trkpt>
      <trkpt lat="39.532759403809905" lon="-4.340288937091827">
        <ele>1019</ele>
        <time>2022-04-14T07:34:09.000Z</time>
      </trkpt>
      <trkpt lat="39.53275420702994" lon="-4.3402936309576035">
        <ele>1019</ele>
        <time>2022-04-14T07:34:10.000Z</time>
      </trkpt>
      <trkpt lat="39.532749596983194" lon="-4.34029882773757">
        <ele>1019.2</ele>
        <time>2022-04-14T07:34:11.000Z</time>
      </trkpt>
      <trkpt lat="39.53274104744196" lon="-4.340304611250758">
        <ele>1019.2</ele>
        <time>2022-04-14T07:34:12.000Z</time>
      </trkpt>
      <trkpt lat="39.532696790993214" lon="-4.34032766148448">
        <ele>1019.4</ele>
        <time>2022-04-14T07:34:17.000Z</time>
      </trkpt>
      <trkpt lat="39.53268740326166" lon="-4.340331517159939">
        <ele>1019.4</ele>
        <time>2022-04-14T07:34:18.000Z</time>
      </trkpt>
      <trkpt lat="39.53264155425131" lon="-4.3403372168540955">
        <ele>1020</ele>
        <time>2022-04-14T07:34:23.000Z</time>
      </trkpt>
      <trkpt lat="39.53261028975248" lon="-4.340348951518536">
        <ele>1020.2</ele>
        <time>2022-04-14T07:34:26.000Z</time>
      </trkpt>
      <trkpt lat="39.53254424035549" lon="-4.340353310108185">
        <ele>1021</ele>
        <time>2022-04-14T07:34:33.000Z</time>
      </trkpt>
      <trkpt lat="39.53252253122628" lon="-4.340353310108185">
        <ele>1021</ele>
        <time>2022-04-14T07:34:35.000Z</time>
      </trkpt>
      <trkpt lat="39.532510209828615" lon="-4.340353226289153">
        <ele>1021.2</ele>
        <time>2022-04-14T07:34:36.000Z</time>
      </trkpt>
      <trkpt lat="39.53244801610708" lon="-4.340337468311191">
        <ele>1021.8</ele>
        <time>2022-04-14T07:34:43.000Z</time>
      </trkpt>
      <trkpt lat="39.53241758979857" lon="-4.340336881577969">
        <ele>1022.2</ele>
        <time>2022-04-14T07:34:46.000Z</time>
      </trkpt>
      <trkpt lat="39.532386157661676" lon="-4.3403372168540955">
        <ele>1022.6</ele>
        <time>2022-04-14T07:34:50.000Z</time>
      </trkpt>
      <trkpt lat="39.53237785957754" lon="-4.34033646248281">
        <ele>1022.8</ele>
        <time>2022-04-14T07:34:51.000Z</time>
      </trkpt>
      <trkpt lat="39.53235170803964" lon="-4.340330930426717">
        <ele>1023.2</ele>
        <time>2022-04-14T07:34:54.000Z</time>
      </trkpt>
      <trkpt lat="39.53234198503196" lon="-4.340327996760607">
        <ele>1023.2</ele>
        <time>2022-04-14T07:34:55.000Z</time>
      </trkpt>
      <trkpt lat="39.53230485320091" lon="-4.340309388935566">
        <ele>1023.6</ele>
        <time>2022-04-14T07:34:59.000Z</time>
      </trkpt>
      <trkpt lat="39.53229580074549" lon="-4.340304275974631">
        <ele>1023.6</ele>
        <time>2022-04-14T07:35:00.000Z</time>
      </trkpt>
      <trkpt lat="39.53227434307337" lon="-4.340298241004348">
        <ele>1023.8</ele>
        <time>2022-04-14T07:35:03.000Z</time>
      </trkpt>
      <trkpt lat="39.53226847574115" lon="-4.3402930442243814">
        <ele>1024</ele>
        <time>2022-04-14T07:35:04.000Z</time>
      </trkpt>
      <trkpt lat="39.5322606805712" lon="-4.340284243226051">
        <ele>1024.2</ele>
        <time>2022-04-14T07:35:06.000Z</time>
      </trkpt>
      <trkpt lat="39.532249784097075" lon="-4.34026999399066">
        <ele>1024.6</ele>
        <time>2022-04-14T07:35:08.000Z</time>
      </trkpt>
      <trkpt lat="39.53222908079624" lon="-4.340233700349927">
        <ele>1025</ele>
        <time>2022-04-14T07:35:12.000Z</time>
      </trkpt>
      <trkpt lat="39.53222254291177" lon="-4.340225486084819">
        <ele>1025</ele>
        <time>2022-04-14T07:35:13.000Z</time>
      </trkpt>
      <trkpt lat="39.5322123169899" lon="-4.340213667601347">
        <ele>1025</ele>
        <time>2022-04-14T07:35:15.000Z</time>
      </trkpt>
      <trkpt lat="39.532205360010266" lon="-4.340202854946256">
        <ele>1025.4</ele>
        <time>2022-04-14T07:35:17.000Z</time>
      </trkpt>
      <trkpt lat="39.53218306414783" lon="-4.340176284313202">
        <ele>1026</ele>
        <time>2022-04-14T07:35:22.000Z</time>
      </trkpt>
      <trkpt lat="39.532182812690735" lon="-4.340162537992001">
        <ele>1026</ele>
        <time>2022-04-14T07:35:23.000Z</time>
      </trkpt>
      <trkpt lat="39.53217912465334" lon="-4.3401560839265585">
        <ele>1026</ele>
        <time>2022-04-14T07:35:24.000Z</time>
      </trkpt>
      <trkpt lat="39.532172502949834" lon="-4.340135715901852">
        <ele>1026.6</ele>
        <time>2022-04-14T07:35:27.000Z</time>
      </trkpt>
      <trkpt lat="39.532151548191905" lon="-4.340109061449766">
        <ele>1027.2</ele>
        <time>2022-04-14T07:35:31.000Z</time>
      </trkpt>
      <trkpt lat="39.53214299865067" lon="-4.340102439746261">
        <ele>1027.2</ele>
        <time>2022-04-14T07:35:32.000Z</time>
      </trkpt>
      <trkpt lat="39.53211106359959" lon="-4.340078299865127">
        <ele>1027.6</ele>
        <time>2022-04-14T07:35:37.000Z</time>
      </trkpt>
      <trkpt lat="39.53208424150944" lon="-4.340074276551604">
        <ele>1028.2</ele>
        <time>2022-04-14T07:35:41.000Z</time>
      </trkpt>
      <trkpt lat="39.53207979910076" lon="-4.340073522180319">
        <ele>1028.4</ele>
        <time>2022-04-14T07:35:42.000Z</time>
      </trkpt>
      <trkpt lat="39.53207359649241" lon="-4.340071007609367">
        <ele>1028.6</ele>
        <time>2022-04-14T07:35:43.000Z</time>
      </trkpt>
      <trkpt lat="39.53205071389675" lon="-4.3400591891258955">
        <ele>1029.2</ele>
        <time>2022-04-14T07:35:46.000Z</time>
      </trkpt>
      <trkpt lat="39.53203001059592" lon="-4.340055584907532">
        <ele>1029.8</ele>
        <time>2022-04-14T07:35:50.000Z</time>
      </trkpt>
      <trkpt lat="39.532001595944166" lon="-4.3400706723332405">
        <ele>1030.8</ele>
        <time>2022-04-14T07:35:57.000Z</time>
      </trkpt>
      <trkpt lat="39.53199606388807" lon="-4.340072516351938">
        <ele>1031.2</ele>
        <time>2022-04-14T07:35:59.000Z</time>
      </trkpt>
      <trkpt lat="39.53198675997555" lon="-4.340064637362957">
        <ele>1031.6</ele>
        <time>2022-04-14T07:36:02.000Z</time>
      </trkpt>
      <trkpt lat="39.53198533505201" lon="-4.340062625706196">
        <ele>1032</ele>
        <time>2022-04-14T07:36:05.000Z</time>
      </trkpt>
      <trkpt lat="39.531984413042665" lon="-4.340062960982323">
        <ele>1032</ele>
        <time>2022-04-14T07:36:06.000Z</time>
      </trkpt>
      <trkpt lat="39.531936971470714" lon="-4.340062206611037">
        <ele>1032.4</ele>
        <time>2022-04-14T07:36:15.000Z</time>
      </trkpt>
      <trkpt lat="39.53194853849709" lon="-4.340089783072472">
        <ele>1032.6</ele>
        <time>2022-04-14T07:36:24.000Z</time>
      </trkpt>
      <trkpt lat="39.5319583453238" lon="-4.340097494423389">
        <ele>1032.8</ele>
        <time>2022-04-14T07:36:27.000Z</time>
      </trkpt>
      <trkpt lat="39.53196899034083" lon="-4.3400948122143745">
        <ele>1032.6</ele>
        <time>2022-04-14T07:36:33.000Z</time>
      </trkpt>
      <trkpt lat="39.5319652184844" lon="-4.340054327622056">
        <ele>1032.4</ele>
        <time>2022-04-14T07:36:41.000Z</time>
      </trkpt>
      <trkpt lat="39.531965386122465" lon="-4.340042341500521">
        <ele>1031.6</ele>
        <time>2022-04-14T07:36:47.000Z</time>
      </trkpt>
      <trkpt lat="39.53196563757956" lon="-4.340042676776648">
        <ele>1031.2</ele>
        <time>2022-04-14T07:36:52.000Z</time>
      </trkpt>
      <trkpt lat="39.53196454793215" lon="-4.340045191347599">
        <ele>1031.2</ele>
        <time>2022-04-14T07:36:54.000Z</time>
      </trkpt>
      <trkpt lat="39.531981479376554" lon="-4.340064637362957">
        <ele>1031</ele>
        <time>2022-04-14T07:37:00.000Z</time>
      </trkpt>
      <trkpt lat="39.53204333782196" lon="-4.340086514130235">
        <ele>1030.8</ele>
        <time>2022-04-14T07:37:08.000Z</time>
      </trkpt>
      <trkpt lat="39.53204006887972" lon="-4.340085424482822">
        <ele>1030.6</ele>
        <time>2022-04-14T07:37:09.000Z</time>
      </trkpt>
      <trkpt lat="39.53203361481428" lon="-4.340087436139584">
        <ele>1030.6</ele>
        <time>2022-04-14T07:37:12.000Z</time>
      </trkpt>
      <trkpt lat="39.531991789117455" lon="-4.340082323178649">
        <ele>1031</ele>
        <time>2022-04-14T07:37:17.000Z</time>
      </trkpt>
      <trkpt lat="39.531962452456355" lon="-4.340075701475143">
        <ele>1031.2</ele>
        <time>2022-04-14T07:37:20.000Z</time>
      </trkpt>
      <trkpt lat="39.53193353489041" lon="-4.3400586023926735">
        <ele>1032.4</ele>
        <time>2022-04-14T07:37:24.000Z</time>
      </trkpt>
      <trkpt lat="39.53190302476287" lon="-4.340042676776648">
        <ele>1032.2</ele>
        <time>2022-04-14T07:37:28.000Z</time>
      </trkpt>
      <trkpt lat="39.53189296647906" lon="-4.34004133567214">
        <ele>1032.4</ele>
        <time>2022-04-14T07:37:29.000Z</time>
      </trkpt>
      <trkpt lat="39.531874023377895" lon="-4.340025493875146">
        <ele>1032.6</ele>
        <time>2022-04-14T07:37:31.000Z</time>
      </trkpt>
      <trkpt lat="39.5318616181612" lon="-4.340030774474144">
        <ele>1032.8</ele>
        <time>2022-04-14T07:37:33.000Z</time>
      </trkpt>
      <trkpt lat="39.53184057958424" lon="-4.340031109750271">
        <ele>1033.4</ele>
        <time>2022-04-14T07:37:36.000Z</time>
      </trkpt>
      <trkpt lat="39.53183270059526" lon="-4.340031025931239">
        <ele>1033.4</ele>
        <time>2022-04-14T07:37:37.000Z</time>
      </trkpt>
      <trkpt lat="39.531795401126146" lon="-4.340021554380655">
        <ele>1034.2</ele>
        <time>2022-04-14T07:37:41.000Z</time>
      </trkpt>
      <trkpt lat="39.5317891985178" lon="-4.340017447248101">
        <ele>1034.4</ele>
        <time>2022-04-14T07:37:42.000Z</time>
      </trkpt>
      <trkpt lat="39.53178031370044" lon="-4.3400138430297375">
        <ele>1034.8</ele>
        <time>2022-04-14T07:37:43.000Z</time>
      </trkpt>
      <trkpt lat="39.53176229260862" lon="-4.340013926848769">
        <ele>1035</ele>
        <time>2022-04-14T07:37:45.000Z</time>
      </trkpt>
      <trkpt lat="39.53173496760428" lon="-4.340008562430739">
        <ele>1035.2</ele>
        <time>2022-04-14T07:37:48.000Z</time>
      </trkpt>
      <trkpt lat="39.531728429719806" lon="-4.34000906534493">
        <ele>1035.4</ele>
        <time>2022-04-14T07:37:49.000Z</time>
      </trkpt>
      <trkpt lat="39.53172147274017" lon="-4.340012753382325">
        <ele>1035.6</ele>
        <time>2022-04-14T07:37:50.000Z</time>
      </trkpt>
      <trkpt lat="39.53169817104936" lon="-4.340014765039086">
        <ele>1036</ele>
        <time>2022-04-14T07:37:53.000Z</time>
      </trkpt>
      <trkpt lat="39.53167922794819" lon="-4.340007472783327">
        <ele>1036.6</ele>
        <time>2022-04-14T07:37:57.000Z</time>
      </trkpt>
      <trkpt lat="39.531669253483415" lon="-4.3400041200220585">
        <ele>1037</ele>
        <time>2022-04-14T07:37:59.000Z</time>
      </trkpt>
      <trkpt lat="39.53165735118091" lon="-4.340004287660122">
        <ele>1037.4</ele>
        <time>2022-04-14T07:38:01.000Z</time>
      </trkpt>
      <trkpt lat="39.531644778326154" lon="-4.340009652078152">
        <ele>1037.8</ele>
        <time>2022-04-14T07:38:03.000Z</time>
      </trkpt>
      <trkpt lat="39.531626254320145" lon="-4.340012334287167">
        <ele>1038.4</ele>
        <time>2022-04-14T07:38:07.000Z</time>
      </trkpt>
      <trkpt lat="39.531605299562216" lon="-4.340008897706866">
        <ele>1038.8</ele>
        <time>2022-04-14T07:38:11.000Z</time>
      </trkpt>
      <trkpt lat="39.53158007003367" lon="-4.340008981525898">
        <ele>1039.4</ele>
        <time>2022-04-14T07:38:15.000Z</time>
      </trkpt>
      <trkpt lat="39.53156498260796" lon="-4.34001300483942">
        <ele>1039.6</ele>
        <time>2022-04-14T07:38:17.000Z</time>
      </trkpt>
      <trkpt lat="39.531545620411634" lon="-4.340016860514879">
        <ele>1040</ele>
        <time>2022-04-14T07:38:20.000Z</time>
      </trkpt>
      <trkpt lat="39.531522653996944" lon="-4.3400047067552805">
        <ele>1040.6</ele>
        <time>2022-04-14T07:38:25.000Z</time>
      </trkpt>
      <trkpt lat="39.531513852998614" lon="-4.340004036203027">
        <ele>1041</ele>
        <time>2022-04-14T07:38:27.000Z</time>
      </trkpt>
      <trkpt lat="39.53148384578526" lon="-4.339998671784997">
        <ele>1041.4</ele>
        <time>2022-04-14T07:38:31.000Z</time>
      </trkpt>
      <trkpt lat="39.531476804986596" lon="-4.340000096708536">
        <ele>1041.4</ele>
        <time>2022-04-14T07:38:32.000Z</time>
      </trkpt>
      <trkpt lat="39.53143933787942" lon="-4.339998587965965">
        <ele>1042</ele>
        <time>2022-04-14T07:38:39.000Z</time>
      </trkpt>
      <trkpt lat="39.53143749386072" lon="-4.340000515803695">
        <ele>1042</ele>
        <time>2022-04-14T07:38:40.000Z</time>
      </trkpt>
      <trkpt lat="39.53139332123101" lon="-4.340000934898853">
        <ele>1042.6</ele>
        <time>2022-04-14T07:38:45.000Z</time>
      </trkpt>
      <trkpt lat="39.53138334676623" lon="-4.3399985041469336">
        <ele>1042.6</ele>
        <time>2022-04-14T07:38:46.000Z</time>
      </trkpt>
      <trkpt lat="39.53137680888176" lon="-4.339994145557284">
        <ele>1042.8</ele>
        <time>2022-04-14T07:38:47.000Z</time>
      </trkpt>
      <trkpt lat="39.531365409493446" lon="-4.339987356215715">
        <ele>1043</ele>
        <time>2022-04-14T07:38:49.000Z</time>
      </trkpt>
      <trkpt lat="39.53135862015188" lon="-4.339984506368637">
        <ele>1043</ele>
        <time>2022-04-14T07:38:50.000Z</time>
      </trkpt>
      <trkpt lat="39.53132852911949" lon="-4.33996950276196">
        <ele>1044</ele>
        <time>2022-04-14T07:38:55.000Z</time>
      </trkpt>
      <trkpt lat="39.53131235204637" lon="-4.339962461963296">
        <ele>1044.2</ele>
        <time>2022-04-14T07:38:57.000Z</time>
      </trkpt>
      <trkpt lat="39.5313002821058" lon="-4.33995584025979">
        <ele>1044.4</ele>
        <time>2022-04-14T07:38:59.000Z</time>
      </trkpt>
      <trkpt lat="39.5312936604023" lon="-4.3399513978511095">
        <ele>1044.4</ele>
        <time>2022-04-14T07:39:00.000Z</time>
      </trkpt>
      <trkpt lat="39.53126390464604" lon="-4.339936645701528">
        <ele>1045.2</ele>
        <time>2022-04-14T07:39:04.000Z</time>
      </trkpt>
      <trkpt lat="39.53122157603502" lon="-4.339933460578322">
        <ele>1046.4</ele>
        <time>2022-04-14T07:39:10.000Z</time>
      </trkpt>
      <trkpt lat="39.531205985695124" lon="-4.339931197464466">
        <ele>1046.6</ele>
        <time>2022-04-14T07:39:12.000Z</time>
      </trkpt>
      <trkpt lat="39.531173799186945" lon="-4.339911416172981">
        <ele>1047.2</ele>
        <time>2022-04-14T07:39:16.000Z</time>
      </trkpt>
      <trkpt lat="39.53116709366441" lon="-4.339907141402364">
        <ele>1047.4</ele>
        <time>2022-04-14T07:39:17.000Z</time>
      </trkpt>
      <trkpt lat="39.531157705932856" lon="-4.339900938794017">
        <ele>1047.8</ele>
        <time>2022-04-14T07:39:19.000Z</time>
      </trkpt>
      <trkpt lat="39.53113775700331" lon="-4.339889455586672">
        <ele>1048.4</ele>
        <time>2022-04-14T07:39:24.000Z</time>
      </trkpt>
      <trkpt lat="39.53109894879162" lon="-4.339899932965636">
        <ele>1049</ele>
        <time>2022-04-14T07:39:28.000Z</time>
      </trkpt>
      <trkpt lat="39.53107581473887" lon="-4.339895071461797">
        <ele>1049.4</ele>
        <time>2022-04-14T07:39:32.000Z</time>
      </trkpt>
      <trkpt lat="39.53104765154421" lon="-4.339895406737924">
        <ele>1050</ele>
        <time>2022-04-14T07:39:35.000Z</time>
      </trkpt>
      <trkpt lat="39.53104002401233" lon="-4.339894317090511">
        <ele>1050.2</ele>
        <time>2022-04-14T07:39:36.000Z</time>
      </trkpt>
      <trkpt lat="39.53100699931383" lon="-4.33988643810153">
        <ele>1050.6</ele>
        <time>2022-04-14T07:39:41.000Z</time>
      </trkpt>
      <trkpt lat="39.53099233098328" lon="-4.339886354282498">
        <ele>1050.6</ele>
        <time>2022-04-14T07:39:43.000Z</time>
      </trkpt>
      <trkpt lat="39.53093935735524" lon="-4.339871853590012">
        <ele>1051.6</ele>
        <time>2022-04-14T07:39:50.000Z</time>
      </trkpt>
      <trkpt lat="39.53091982752085" lon="-4.339877218008041">
        <ele>1051.8</ele>
        <time>2022-04-14T07:39:53.000Z</time>
      </trkpt>
      <trkpt lat="39.53088043257594" lon="-4.33985123410821">
        <ele>1052.6</ele>
        <time>2022-04-14T07:40:00.000Z</time>
      </trkpt>
      <trkpt lat="39.53087565489113" lon="-4.339847713708878">
        <ele>1052.8</ele>
        <time>2022-04-14T07:40:01.000Z</time>
      </trkpt>
      <trkpt lat="39.530826369300485" lon="-4.339816700667143">
        <ele>1053.2</ele>
        <time>2022-04-14T07:40:08.000Z</time>
      </trkpt>
      <trkpt lat="39.530775072053075" lon="-4.3397885374724865">
        <ele>1053.6</ele>
        <time>2022-04-14T07:40:14.000Z</time>
      </trkpt>
      <trkpt lat="39.53076736070216" lon="-4.3397856038063765">
        <ele>1053.8</ele>
        <time>2022-04-14T07:40:15.000Z</time>
      </trkpt>
      <trkpt lat="39.53074699267745" lon="-4.33978627435863">
        <ele>1054</ele>
        <time>2022-04-14T07:40:18.000Z</time>
      </trkpt>
      <trkpt lat="39.530733078718185" lon="-4.339787196367979">
        <ele>1054</ele>
        <time>2022-04-14T07:40:20.000Z</time>
      </trkpt>
      <trkpt lat="39.53071623109281" lon="-4.339781496673822">
        <ele>1054.4</ele>
        <time>2022-04-14T07:40:23.000Z</time>
      </trkpt>
      <trkpt lat="39.53069628216326" lon="-4.339774288237095">
        <ele>1054.8</ele>
        <time>2022-04-14T07:40:26.000Z</time>
      </trkpt>
      <trkpt lat="39.53069033101201" lon="-4.339773114770651">
        <ele>1054.8</ele>
        <time>2022-04-14T07:40:27.000Z</time>
      </trkpt>
      <trkpt lat="39.53066845424473" lon="-4.339771857485175">
        <ele>1055.4</ele>
        <time>2022-04-14T07:40:30.000Z</time>
      </trkpt>
      <trkpt lat="39.530641715973616" lon="-4.339775545522571">
        <ele>1055.8</ele>
        <time>2022-04-14T07:40:34.000Z</time>
      </trkpt>
      <trkpt lat="39.53061162494123" lon="-4.339758949354291">
        <ele>1056.2</ele>
        <time>2022-04-14T07:40:39.000Z</time>
      </trkpt>
      <trkpt lat="39.53057734295726" lon="-4.339733552187681">
        <ele>1056.8</ele>
        <time>2022-04-14T07:40:44.000Z</time>
      </trkpt>
      <trkpt lat="39.53055831603706" lon="-4.33974226936698">
        <ele>1057.2</ele>
        <time>2022-04-14T07:40:47.000Z</time>
      </trkpt>
      <trkpt lat="39.53048698604107" lon="-4.339692648500204">
        <ele>1057.6</ele>
        <time>2022-04-14T07:40:55.000Z</time>
      </trkpt>
      <trkpt lat="39.53047717921436" lon="-4.33968803845346">
        <ele>1057.6</ele>
        <time>2022-04-14T07:40:56.000Z</time>
      </trkpt>
      <trkpt lat="39.530459493398666" lon="-4.33967144228518">
        <ele>1058</ele>
        <time>2022-04-14T07:40:58.000Z</time>
      </trkpt>
      <trkpt lat="39.530441388487816" lon="-4.339671861380339">
        <ele>1058.4</ele>
        <time>2022-04-14T07:41:01.000Z</time>
      </trkpt>
      <trkpt lat="39.530428145080805" lon="-4.3396601267158985">
        <ele>1058.6</ele>
        <time>2022-04-14T07:41:03.000Z</time>
      </trkpt>
      <trkpt lat="39.53042160719633" lon="-4.339656103402376">
        <ele>1058.8</ele>
        <time>2022-04-14T07:41:04.000Z</time>
      </trkpt>
      <trkpt lat="39.53040341846645" lon="-4.339642776176333">
        <ele>1059</ele>
        <time>2022-04-14T07:41:07.000Z</time>
      </trkpt>
      <trkpt lat="39.53039168380201" lon="-4.339642440900207">
        <ele>1059.2</ele>
        <time>2022-04-14T07:41:09.000Z</time>
      </trkpt>
      <trkpt lat="39.530370058491826" lon="-4.339642189443111">
        <ele>1059.6</ele>
        <time>2022-04-14T07:41:13.000Z</time>
      </trkpt>
      <trkpt lat="39.5303594134748" lon="-4.339647805318236">
        <ele>1060</ele>
        <time>2022-04-14T07:41:15.000Z</time>
      </trkpt>
      <trkpt lat="39.530326975509524" lon="-4.339665658771992">
        <ele>1060.4</ele>
        <time>2022-04-14T07:41:21.000Z</time>
      </trkpt>
      <trkpt lat="39.530308451503515" lon="-4.339660881087184">
        <ele>1061</ele>
        <time>2022-04-14T07:41:25.000Z</time>
      </trkpt>
      <trkpt lat="39.53028632327914" lon="-4.339664401486516">
        <ele>1061.2</ele>
        <time>2022-04-14T07:41:28.000Z</time>
      </trkpt>
      <trkpt lat="39.5302558131516" lon="-4.339654091745615">
        <ele>1061.8</ele>
        <time>2022-04-14T07:41:33.000Z</time>
      </trkpt>
      <trkpt lat="39.530240558087826" lon="-4.339633975178003">
        <ele>1062</ele>
        <time>2022-04-14T07:41:36.000Z</time>
      </trkpt>
      <trkpt lat="39.53023192472756" lon="-4.339627688750625">
        <ele>1062.2</ele>
        <time>2022-04-14T07:41:38.000Z</time>
      </trkpt>
      <trkpt lat="39.53020426444709" lon="-4.3396171275526285">
        <ele>1062.6</ele>
        <time>2022-04-14T07:41:42.000Z</time>
      </trkpt>
      <trkpt lat="39.530190685763955" lon="-4.339605560526252">
        <ele>1062.8</ele>
        <time>2022-04-14T07:41:44.000Z</time>
      </trkpt>
      <trkpt lat="39.53017727471888" lon="-4.339601788669825">
        <ele>1063.2</ele>
        <time>2022-04-14T07:41:46.000Z</time>
      </trkpt>
      <trkpt lat="39.53015866689384" lon="-4.339599022641778">
        <ele>1063.6</ele>
        <time>2022-04-14T07:41:49.000Z</time>
      </trkpt>
      <trkpt lat="39.53015229664743" lon="-4.339597430080175">
        <ele>1063.8</ele>
        <time>2022-04-14T07:41:50.000Z</time>
      </trkpt>
      <trkpt lat="39.53014408238232" lon="-4.3396015372127295">
        <ele>1064.2</ele>
        <time>2022-04-14T07:41:52.000Z</time>
      </trkpt>
      <trkpt lat="39.530126228928566" lon="-4.339602794498205">
        <ele>1064.6</ele>
        <time>2022-04-14T07:41:57.000Z</time>
      </trkpt>
      <trkpt lat="39.530084151774645" lon="-4.33960597962141">
        <ele>1065.2</ele>
        <time>2022-04-14T07:42:04.000Z</time>
      </trkpt>
      <trkpt lat="39.53005070798099" lon="-4.339590556919575">
        <ele>1066.4</ele>
        <time>2022-04-14T07:42:10.000Z</time>
      </trkpt>
      <trkpt lat="39.53004006296396" lon="-4.339585863053799">
        <ele>1066.6</ele>
        <time>2022-04-14T07:42:12.000Z</time>
      </trkpt>
      <trkpt lat="39.52999932691455" lon="-4.339583599939942">
        <ele>1067.4</ele>
        <time>2022-04-14T07:42:19.000Z</time>
      </trkpt>
      <trkpt lat="39.52999454922974" lon="-4.3395850248634815">
        <ele>1067.6</ele>
        <time>2022-04-14T07:42:20.000Z</time>
      </trkpt>
      <trkpt lat="39.529967810958624" lon="-4.339569853618741">
        <ele>1068.4</ele>
        <time>2022-04-14T07:42:25.000Z</time>
      </trkpt>
      <trkpt lat="39.52994626946747" lon="-4.339558035135269">
        <ele>1069</ele>
        <time>2022-04-14T07:42:28.000Z</time>
      </trkpt>
      <trkpt lat="39.52992087230086" lon="-4.3395373318344355">
        <ele>1069.6</ele>
        <time>2022-04-14T07:42:31.000Z</time>
      </trkpt>
      <trkpt lat="39.52988357283175" lon="-4.339527441188693">
        <ele>1070.6</ele>
        <time>2022-04-14T07:42:36.000Z</time>
      </trkpt>
      <trkpt lat="39.5298776216805" lon="-4.339523501694202">
        <ele>1070.6</ele>
        <time>2022-04-14T07:42:37.000Z</time>
      </trkpt>
      <trkpt lat="39.52984845265746" lon="-4.3395276088267565">
        <ele>1071.4</ele>
        <time>2022-04-14T07:42:43.000Z</time>
      </trkpt>
      <trkpt lat="39.52983311377466" lon="-4.339527441188693">
        <ele>1071.8</ele>
        <time>2022-04-14T07:42:46.000Z</time>
      </trkpt>
      <trkpt lat="39.529818277806044" lon="-4.33951897546649">
        <ele>1072</ele>
        <time>2022-04-14T07:42:49.000Z</time>
      </trkpt>
      <trkpt lat="39.52977351844311" lon="-4.339483939111233">
        <ele>1072.4</ele>
        <time>2022-04-14T07:42:55.000Z</time>
      </trkpt>
      <trkpt lat="39.529763124883175" lon="-4.339477317407727">
        <ele>1072.4</ele>
        <time>2022-04-14T07:42:56.000Z</time>
      </trkpt>
      <trkpt lat="39.52975792810321" lon="-4.3394731264561415">
        <ele>1072.6</ele>
        <time>2022-04-14T07:42:57.000Z</time>
      </trkpt>
      <trkpt lat="39.52975398860872" lon="-4.339470947161317">
        <ele>1073</ele>
        <time>2022-04-14T07:42:58.000Z</time>
      </trkpt>
      <trkpt lat="39.52972272410989" lon="-4.339453848078847">
        <ele>1073.4</ele>
        <time>2022-04-14T07:43:04.000Z</time>
      </trkpt>
      <trkpt lat="39.52967285178602" lon="-4.339429121464491">
        <ele>1073.8</ele>
        <time>2022-04-14T07:43:10.000Z</time>
      </trkpt>
      <trkpt lat="39.52965918928385" lon="-4.339414704591036">
        <ele>1074</ele>
        <time>2022-04-14T07:43:12.000Z</time>
      </trkpt>
      <trkpt lat="39.52965474687517" lon="-4.339415458962321">
        <ele>1074.2</ele>
        <time>2022-04-14T07:43:13.000Z</time>
      </trkpt>
      <trkpt lat="39.529659608379006" lon="-4.339419146999717">
        <ele>1074.4</ele>
        <time>2022-04-14T07:43:18.000Z</time>
      </trkpt>
      <trkpt lat="39.529677629470825" lon="-4.339421410113573">
        <ele>1074.2</ele>
        <time>2022-04-14T07:43:22.000Z</time>
      </trkpt>
      <trkpt lat="39.52967897057533" lon="-4.339430881664157">
        <ele>1074.4</ele>
        <time>2022-04-14T07:43:25.000Z</time>
      </trkpt>
      <trkpt lat="39.52967595309019" lon="-4.339421913027763">
        <ele>1074.6</ele>
        <time>2022-04-14T07:43:32.000Z</time>
      </trkpt>
      <trkpt lat="39.529670169577" lon="-4.339389810338616">
        <ele>1074.8</ele>
        <time>2022-04-14T07:43:42.000Z</time>
      </trkpt>
      <trkpt lat="39.52967050485313" lon="-4.339389894157648">
        <ele>1074.8</ele>
        <time>2022-04-14T07:43:43.000Z</time>
      </trkpt>
      <trkpt lat="39.52968081459403" lon="-4.339396767318249">
        <ele>1075</ele>
        <time>2022-04-14T07:43:45.000Z</time>
      </trkpt>
      <trkpt lat="39.52968995086849" lon="-4.339408669620752">
        <ele>1075</ele>
        <time>2022-04-14T07:43:48.000Z</time>
      </trkpt>
      <trkpt lat="39.529689783230424" lon="-4.339409926906228">
        <ele>1075.2</ele>
        <time>2022-04-14T07:43:50.000Z</time>
      </trkpt>
      <trkpt lat="39.529689867049456" lon="-4.339409926906228">
        <ele>1075.2</ele>
        <time>2022-04-14T07:43:51.000Z</time>
      </trkpt>
      <trkpt lat="39.52968969941139" lon="-4.339411351829767">
        <ele>1075.6</ele>
        <time>2022-04-14T07:44:00.000Z</time>
      </trkpt>
      <trkpt lat="39.52968961559236" lon="-4.339411938562989">
        <ele>1075.6</ele>
        <time>2022-04-14T07:44:01.000Z</time>
      </trkpt>
      <trkpt lat="39.52968953177333" lon="-4.339425936341286">
        <ele>1075.6</ele>
        <time>2022-04-14T07:44:09.000Z</time>
      </trkpt>
      <trkpt lat="39.52968969941139" lon="-4.339426942169666">
        <ele>1075.6</ele>
        <time>2022-04-14T07:44:11.000Z</time>
      </trkpt>
      <trkpt lat="39.5296891964972" lon="-4.339430797845125">
        <ele>1076.2</ele>
        <time>2022-04-14T07:44:18.000Z</time>
      </trkpt>
      <trkpt lat="39.52968626283109" lon="-4.339430211111903">
        <ele>1075.8</ele>
        <time>2022-04-14T07:44:22.000Z</time>
      </trkpt>
      <trkpt lat="39.529683412984014" lon="-4.33943054638803">
        <ele>1075.4</ele>
        <time>2022-04-14T07:44:26.000Z</time>
      </trkpt>
      <trkpt lat="39.5296770427376" lon="-4.339430211111903">
        <ele>1075.8</ele>
        <time>2022-04-14T07:44:31.000Z</time>
      </trkpt>
      <trkpt lat="39.52967293560505" lon="-4.339431216940284">
        <ele>1076.2</ele>
        <time>2022-04-14T07:44:36.000Z</time>
      </trkpt>
      <trkpt lat="39.52966572716832" lon="-4.339431216940284">
        <ele>1076.6</ele>
        <time>2022-04-14T07:44:41.000Z</time>
      </trkpt>
      <trkpt lat="39.529649298638105" lon="-4.33942467905581">
        <ele>1077</ele>
        <time>2022-04-14T07:44:47.000Z</time>
      </trkpt>
      <trkpt lat="39.529630523175" lon="-4.339416464790702">
        <ele>1077</ele>
        <time>2022-04-14T07:44:49.000Z</time>
      </trkpt>
      <trkpt lat="39.529624320566654" lon="-4.339409088715911">
        <ele>1077.2</ele>
        <time>2022-04-14T07:44:50.000Z</time>
      </trkpt>
      <trkpt lat="39.5296186208725" lon="-4.339405484497547">
        <ele>1077.2</ele>
        <time>2022-04-14T07:44:51.000Z</time>
      </trkpt>
      <trkpt lat="39.52960596419871" lon="-4.339398192241788">
        <ele>1077.6</ele>
        <time>2022-04-14T07:44:53.000Z</time>
      </trkpt>
      <trkpt lat="39.52959515154362" lon="-4.339389391243458">
        <ele>1077.6</ele>
        <time>2022-04-14T07:44:55.000Z</time>
      </trkpt>
      <trkpt lat="39.52958199195564" lon="-4.3393859546631575">
        <ele>1077.8</ele>
        <time>2022-04-14T07:44:57.000Z</time>
      </trkpt>
      <trkpt lat="39.529567155987024" lon="-4.339380003511906">
        <ele>1077.8</ele>
        <time>2022-04-14T07:44:59.000Z</time>
      </trkpt>
      <trkpt lat="39.52955039218068" lon="-4.339370196685195">
        <ele>1078</ele>
        <time>2022-04-14T07:45:01.000Z</time>
      </trkpt>
      <trkpt lat="39.52953413128853" lon="-4.339364999905229">
        <ele>1078.2</ele>
        <time>2022-04-14T07:45:03.000Z</time>
      </trkpt>
      <trkpt lat="39.529492389410734" lon="-4.339334489777684">
        <ele>1079</ele>
        <time>2022-04-14T07:45:10.000Z</time>
      </trkpt>
      <trkpt lat="39.52947420068085" lon="-4.3393229227513075">
        <ele>1079.2</ele>
        <time>2022-04-14T07:45:12.000Z</time>
      </trkpt>
      <trkpt lat="39.52946539968252" lon="-4.33931915089488">
        <ele>1079.2</ele>
        <time>2022-04-14T07:45:13.000Z</time>
      </trkpt>
      <trkpt lat="39.52943262644112" lon="-4.339305153116584">
        <ele>1079.8</ele>
        <time>2022-04-14T07:45:18.000Z</time>
      </trkpt>
      <trkpt lat="39.529405385255814" lon="-4.33929517865181">
        <ele>1080.2</ele>
        <time>2022-04-14T07:45:21.000Z</time>
      </trkpt>
      <trkpt lat="39.52937479130924" lon="-4.339295011013746">
        <ele>1080.6</ele>
        <time>2022-04-14T07:45:25.000Z</time>
      </trkpt>
      <trkpt lat="39.52935333363712" lon="-4.339292999356985">
        <ele>1080.8</ele>
        <time>2022-04-14T07:45:28.000Z</time>
      </trkpt>
      <trkpt lat="39.529317962005734" lon="-4.339294005185366">
        <ele>1081</ele>
        <time>2022-04-14T07:45:34.000Z</time>
      </trkpt>
      <trkpt lat="39.52928703278303" lon="-4.339299537241459">
        <ele>1081.4</ele>
        <time>2022-04-14T07:45:38.000Z</time>
      </trkpt>
      <trkpt lat="39.52925962395966" lon="-4.339300710707903">
        <ele>1081.6</ele>
        <time>2022-04-14T07:45:41.000Z</time>
      </trkpt>
      <trkpt lat="39.52925032004714" lon="-4.339299453422427">
        <ele>1081.8</ele>
        <time>2022-04-14T07:45:42.000Z</time>
      </trkpt>
      <trkpt lat="39.52924068085849" lon="-4.33929618448019">
        <ele>1081.8</ele>
        <time>2022-04-14T07:45:43.000Z</time>
      </trkpt>
      <trkpt lat="39.529209081083536" lon="-4.339297106489539">
        <ele>1082.4</ele>
        <time>2022-04-14T07:45:47.000Z</time>
      </trkpt>
      <trkpt lat="39.529178235679865" lon="-4.339292915537953">
        <ele>1083</ele>
        <time>2022-04-14T07:45:51.000Z</time>
      </trkpt>
      <trkpt lat="39.529160130769014" lon="-4.339272379875183">
        <ele>1083.2</ele>
        <time>2022-04-14T07:45:53.000Z</time>
      </trkpt>
      <trkpt lat="39.52915250323713" lon="-4.339273553341627">
        <ele>1083.4</ele>
        <time>2022-04-14T07:45:55.000Z</time>
      </trkpt>
      <trkpt lat="39.529141606763005" lon="-4.339259220287204">
        <ele>1083.6</ele>
        <time>2022-04-14T07:45:57.000Z</time>
      </trkpt>
      <trkpt lat="39.52911511994898" lon="-4.33924337849021">
        <ele>1084</ele>
        <time>2022-04-14T07:46:01.000Z</time>
      </trkpt>
      <trkpt lat="39.52910279855132" lon="-4.339232817292213">
        <ele>1084.2</ele>
        <time>2022-04-14T07:46:03.000Z</time>
      </trkpt>
      <trkpt lat="39.529095673933625" lon="-4.339226530864835">
        <ele>1084.2</ele>
        <time>2022-04-14T07:46:04.000Z</time>
      </trkpt>
      <trkpt lat="39.52906692400575" lon="-4.339231057092547">
        <ele>1084.6</ele>
        <time>2022-04-14T07:46:08.000Z</time>
      </trkpt>
      <trkpt lat="39.52902560122311" lon="-4.3392307218164206">
        <ele>1084.8</ele>
        <time>2022-04-14T07:46:14.000Z</time>
      </trkpt>
      <trkpt lat="39.529018392786384" lon="-4.339231308549643">
        <ele>1084.8</ele>
        <time>2022-04-14T07:46:15.000Z</time>
      </trkpt>
      <trkpt lat="39.529011100530624" lon="-4.339230889454484">
        <ele>1084.8</ele>
        <time>2022-04-14T07:46:16.000Z</time>
      </trkpt>
      <trkpt lat="39.52898880466819" lon="-4.3392334040254354">
        <ele>1085.4</ele>
        <time>2022-04-14T07:46:20.000Z</time>
      </trkpt>
      <trkpt lat="39.528984697535634" lon="-4.33922971598804">
        <ele>1085.4</ele>
        <time>2022-04-14T07:46:21.000Z</time>
      </trkpt>
      <trkpt lat="39.528975477442145" lon="-4.339225105941296">
        <ele>1085.6</ele>
        <time>2022-04-14T07:46:23.000Z</time>
      </trkpt>
      <trkpt lat="39.528943374753" lon="-4.339218903332949">
        <ele>1086.2</ele>
        <time>2022-04-14T07:46:28.000Z</time>
      </trkpt>
      <trkpt lat="39.52893717214465" lon="-4.339218735694885">
        <ele>1086.4</ele>
        <time>2022-04-14T07:46:29.000Z</time>
      </trkpt>
      <trkpt lat="39.52892208471894" lon="-4.33921848423779">
        <ele>1086.6</ele>
        <time>2022-04-14T07:46:31.000Z</time>
      </trkpt>
      <trkpt lat="39.52887606807053" lon="-4.339200211688876">
        <ele>1086.8</ele>
        <time>2022-04-14T07:46:37.000Z</time>
      </trkpt>
      <trkpt lat="39.52881169505417" lon="-4.339197864755988">
        <ele>1087.4</ele>
        <time>2022-04-14T07:46:44.000Z</time>
      </trkpt>
      <trkpt lat="39.52874866314232" lon="-4.339174227789044">
        <ele>1087.4</ele>
        <time>2022-04-14T07:46:51.000Z</time>
      </trkpt>
      <trkpt lat="39.52874170616269" lon="-4.33917012065649">
        <ele>1087.6</ele>
        <time>2022-04-14T07:46:52.000Z</time>
      </trkpt>
      <trkpt lat="39.528732569888234" lon="-4.339164337143302">
        <ele>1087.6</ele>
        <time>2022-04-14T07:46:53.000Z</time>
      </trkpt>
      <trkpt lat="39.528691498562694" lon="-4.339157128706574">
        <ele>1088</ele>
        <time>2022-04-14T07:46:58.000Z</time>
      </trkpt>
      <trkpt lat="39.52868001535535" lon="-4.339153356850147">
        <ele>1088</ele>
        <time>2022-04-14T07:46:59.000Z</time>
      </trkpt>
      <trkpt lat="39.52865269035101" lon="-4.33914422057569">
        <ele>1088.2</ele>
        <time>2022-04-14T07:47:02.000Z</time>
      </trkpt>
      <trkpt lat="39.52861991710961" lon="-4.339135671034455">
        <ele>1088.4</ele>
        <time>2022-04-14T07:47:07.000Z</time>
      </trkpt>
      <trkpt lat="39.528582617640495" lon="-4.3391194101423025">
        <ele>1088.8</ele>
        <time>2022-04-14T07:47:12.000Z</time>
      </trkpt>
      <trkpt lat="39.52855160459876" lon="-4.339114129543304">
        <ele>1089</ele>
        <time>2022-04-14T07:47:16.000Z</time>
      </trkpt>
      <trkpt lat="39.52850550413132" lon="-4.339106418192387">
        <ele>1089.2</ele>
        <time>2022-04-14T07:47:22.000Z</time>
      </trkpt>
      <trkpt lat="39.52848421409726" lon="-4.339103987440467">
        <ele>1089.4</ele>
        <time>2022-04-14T07:47:25.000Z</time>
      </trkpt>
      <trkpt lat="39.52843367122114" lon="-4.339089822024107">
        <ele>1089.8</ele>
        <time>2022-04-14T07:47:31.000Z</time>
      </trkpt>
      <trkpt lat="39.52842704951763" lon="-4.3390849605202675">
        <ele>1089.8</ele>
        <time>2022-04-14T07:47:32.000Z</time>
      </trkpt>
      <trkpt lat="39.52841422520578" lon="-4.339082781225443">
        <ele>1089.8</ele>
        <time>2022-04-14T07:47:34.000Z</time>
      </trkpt>
      <trkpt lat="39.52839586883783" lon="-4.33908068574965">
        <ele>1090</ele>
        <time>2022-04-14T07:47:36.000Z</time>
      </trkpt>
      <trkpt lat="39.528375416994095" lon="-4.339074483141303">
        <ele>1090.2</ele>
        <time>2022-04-14T07:47:38.000Z</time>
      </trkpt>
      <trkpt lat="39.52836879529059" lon="-4.339070878922939">
        <ele>1090.2</ele>
        <time>2022-04-14T07:47:39.000Z</time>
      </trkpt>
      <trkpt lat="39.5283611677587" lon="-4.339069034904242">
        <ele>1090.4</ele>
        <time>2022-04-14T07:47:40.000Z</time>
      </trkpt>
      <trkpt lat="39.52832831069827" lon="-4.339059479534626">
        <ele>1090.8</ele>
        <time>2022-04-14T07:47:44.000Z</time>
      </trkpt>
      <trkpt lat="39.52832143753767" lon="-4.339055540040135">
        <ele>1090.8</ele>
        <time>2022-04-14T07:47:45.000Z</time>
      </trkpt>
      <trkpt lat="39.52831506729126" lon="-4.339053276926279">
        <ele>1091</ele>
        <time>2022-04-14T07:47:46.000Z</time>
      </trkpt>
      <trkpt lat="39.5283024944365" lon="-4.3390499241650105">
        <ele>1091.2</ele>
        <time>2022-04-14T07:47:48.000Z</time>
      </trkpt>
      <trkpt lat="39.528233259916306" lon="-4.339016899466515">
        <ele>1091.8</ele>
        <time>2022-04-14T07:47:55.000Z</time>
      </trkpt>
      <trkpt lat="39.52822647057474" lon="-4.339015893638134">
        <ele>1092</ele>
        <time>2022-04-14T07:47:56.000Z</time>
      </trkpt>
      <trkpt lat="39.52822077088058" lon="-4.339017318561673">
        <ele>1092.2</ele>
        <time>2022-04-14T07:47:57.000Z</time>
      </trkpt>
      <trkpt lat="39.528208281844854" lon="-4.339015809819102">
        <ele>1092.4</ele>
        <time>2022-04-14T07:47:59.000Z</time>
      </trkpt>
      <trkpt lat="39.5281920209527" lon="-4.3390139658004045">
        <ele>1092.8</ele>
        <time>2022-04-14T07:48:02.000Z</time>
      </trkpt>
      <trkpt lat="39.52818053774536" lon="-4.339006086811423">
        <ele>1093</ele>
        <time>2022-04-14T07:48:05.000Z</time>
      </trkpt>
      <trkpt lat="39.528156565502286" lon="-4.338955879211426">
        <ele>1093.4</ele>
        <time>2022-04-14T07:48:10.000Z</time>
      </trkpt>
      <trkpt lat="39.52813049778342" lon="-4.338935595005751">
        <ele>1093.8</ele>
        <time>2022-04-14T07:48:14.000Z</time>
      </trkpt>
      <trkpt lat="39.528116500005126" lon="-4.338926374912262">
        <ele>1093.8</ele>
        <time>2022-04-14T07:48:16.000Z</time>
      </trkpt>
      <trkpt lat="39.52809973619878" lon="-4.338913634419441">
        <ele>1093.6</ele>
        <time>2022-04-14T07:48:18.000Z</time>
      </trkpt>
      <trkpt lat="39.52806880697608" lon="-4.338881615549326">
        <ele>1094</ele>
        <time>2022-04-14T07:48:22.000Z</time>
      </trkpt>
      <trkpt lat="39.528062269091606" lon="-4.338872227817774">
        <ele>1094.2</ele>
        <time>2022-04-14T07:48:23.000Z</time>
      </trkpt>
      <trkpt lat="39.52804449945688" lon="-4.33883928693831">
        <ele>1094.4</ele>
        <time>2022-04-14T07:48:27.000Z</time>
      </trkpt>
      <trkpt lat="39.52803544700146" lon="-4.33882855810225">
        <ele>1094.2</ele>
        <time>2022-04-14T07:48:29.000Z</time>
      </trkpt>
      <trkpt lat="39.52800963073969" lon="-4.338800981640816">
        <ele>1094.2</ele>
        <time>2022-04-14T07:48:34.000Z</time>
      </trkpt>
      <trkpt lat="39.5279935374856" lon="-4.338785642758012">
        <ele>1094.2</ele>
        <time>2022-04-14T07:48:37.000Z</time>
      </trkpt>
      <trkpt lat="39.5279626082629" lon="-4.338758485391736">
        <ele>1095</ele>
        <time>2022-04-14T07:48:41.000Z</time>
      </trkpt>
      <trkpt lat="39.52795439399779" lon="-4.33875429444015">
        <ele>1095.2</ele>
        <time>2022-04-14T07:48:42.000Z</time>
      </trkpt>
      <trkpt lat="39.52792572788894" lon="-4.338728059083223">
        <ele>1095.4</ele>
        <time>2022-04-14T07:48:46.000Z</time>
      </trkpt>
      <trkpt lat="39.52791525050998" lon="-4.3387071043252945">
        <ele>1095.6</ele>
        <time>2022-04-14T07:48:48.000Z</time>
      </trkpt>
      <trkpt lat="39.527906784787774" lon="-4.338690089061856">
        <ele>1095.8</ele>
        <time>2022-04-14T07:48:50.000Z</time>
      </trkpt>
      <trkpt lat="39.5279002469033" lon="-4.338680449873209">
        <ele>1095.8</ele>
        <time>2022-04-14T07:48:52.000Z</time>
      </trkpt>
      <trkpt lat="39.52788130380213" lon="-4.338653711602092">
        <ele>1096.2</ele>
        <time>2022-04-14T07:48:56.000Z</time>
      </trkpt>
      <trkpt lat="39.527872586622834" lon="-4.33863845653832">
        <ele>1096.6</ele>
        <time>2022-04-14T07:48:58.000Z</time>
      </trkpt>
      <trkpt lat="39.52786227688193" lon="-4.338621944189072">
        <ele>1097.2</ele>
        <time>2022-04-14T07:49:02.000Z</time>
      </trkpt>
      <trkpt lat="39.52785833738744" lon="-4.338614651933312">
        <ele>1097.2</ele>
        <time>2022-04-14T07:49:03.000Z</time>
      </trkpt>
      <trkpt lat="39.52784107066691" lon="-4.338590512052178">
        <ele>1097.6</ele>
        <time>2022-04-14T07:49:06.000Z</time>
      </trkpt>
      <trkpt lat="39.52780452556908" lon="-4.338562097400427">
        <ele>1098.2</ele>
        <time>2022-04-14T07:49:12.000Z</time>
      </trkpt>
      <trkpt lat="39.52780016697943" lon="-4.338559750467539">
        <ele>1098.4</ele>
        <time>2022-04-14T07:49:13.000Z</time>
      </trkpt>
      <trkpt lat="39.52779622748494" lon="-4.338548770174384">
        <ele>1098.6</ele>
        <time>2022-04-14T07:49:15.000Z</time>
      </trkpt>
      <trkpt lat="39.527775356546044" lon="-4.338517002761364">
        <ele>1099.4</ele>
        <time>2022-04-14T07:49:20.000Z</time>
      </trkpt>
      <trkpt lat="39.5277723390609" lon="-4.338509123772383">
        <ele>1099.6</ele>
        <time>2022-04-14T07:49:22.000Z</time>
      </trkpt>
      <trkpt lat="39.52776974067092" lon="-4.338497053831816">
        <ele>1100</ele>
        <time>2022-04-14T07:49:26.000Z</time>
      </trkpt>
      <trkpt lat="39.52778005041182" lon="-4.338493449613452">
        <ele>1100.4</ele>
        <time>2022-04-14T07:49:28.000Z</time>
      </trkpt>
      <trkpt lat="39.52778281643987" lon="-4.338494203984737">
        <ele>1100.4</ele>
        <time>2022-04-14T07:49:29.000Z</time>
      </trkpt>
      <trkpt lat="39.52774157747626" lon="-4.338471991941333">
        <ele>1101</ele>
        <time>2022-04-14T07:49:40.000Z</time>
      </trkpt>
      <trkpt lat="39.52771601267159" lon="-4.338449779897928">
        <ele>1101.4</ele>
        <time>2022-04-14T07:49:46.000Z</time>
      </trkpt>
      <trkpt lat="39.52771324664354" lon="-4.3384467624127865">
        <ele>1101.4</ele>
        <time>2022-04-14T07:49:47.000Z</time>
      </trkpt>
      <trkpt lat="39.52771073207259" lon="-4.338441900908947">
        <ele>1101.6</ele>
        <time>2022-04-14T07:49:48.000Z</time>
      </trkpt>
      <trkpt lat="39.52770167961717" lon="-4.338427232578397">
        <ele>1102</ele>
        <time>2022-04-14T07:49:50.000Z</time>
      </trkpt>
      <trkpt lat="39.5276843290776" lon="-4.338412648066878">
        <ele>1102.6</ele>
        <time>2022-04-14T07:49:54.000Z</time>
      </trkpt>
      <trkpt lat="39.527677204459906" lon="-4.338408038020134">
        <ele>1102.6</ele>
        <time>2022-04-14T07:49:55.000Z</time>
      </trkpt>
      <trkpt lat="39.527657087892294" lon="-4.33838146738708">
        <ele>1103.2</ele>
        <time>2022-04-14T07:50:00.000Z</time>
      </trkpt>
      <trkpt lat="39.52764912508428" lon="-4.338373839855194">
        <ele>1103.4</ele>
        <time>2022-04-14T07:50:02.000Z</time>
      </trkpt>
      <trkpt lat="39.52763772569597" lon="-4.338365541771054">
        <ele>1103.6</ele>
        <time>2022-04-14T07:50:04.000Z</time>
      </trkpt>
      <trkpt lat="39.527619034051895" lon="-4.338344084098935">
        <ele>1104.4</ele>
        <time>2022-04-14T07:50:08.000Z</time>
      </trkpt>
      <trkpt lat="39.52761400490999" lon="-4.3383269011974335">
        <ele>1104.6</ele>
        <time>2022-04-14T07:50:10.000Z</time>
      </trkpt>
      <trkpt lat="39.52759732492268" lon="-4.338303431868553">
        <ele>1104.8</ele>
        <time>2022-04-14T07:50:13.000Z</time>
      </trkpt>
      <trkpt lat="39.52756027691066" lon="-4.338275268673897">
        <ele>1105.6</ele>
        <time>2022-04-14T07:50:18.000Z</time>
      </trkpt>
      <trkpt lat="39.52753663994372" lon="-4.338258672505617">
        <ele>1105.8</ele>
        <time>2022-04-14T07:50:23.000Z</time>
      </trkpt>
      <trkpt lat="39.527515433728695" lon="-4.338240986689925">
        <ele>1106.2</ele>
        <time>2022-04-14T07:50:27.000Z</time>
      </trkpt>
      <trkpt lat="39.527501268312335" lon="-4.338227491825819">
        <ele>1107</ele>
        <time>2022-04-14T07:50:31.000Z</time>
      </trkpt>
      <trkpt lat="39.52749573625624" lon="-4.338208548724651">
        <ele>1107</ele>
        <time>2022-04-14T07:50:33.000Z</time>
      </trkpt>
      <trkpt lat="39.527484588325024" lon="-4.338190779089928">
        <ele>1107.2</ele>
        <time>2022-04-14T07:50:35.000Z</time>
      </trkpt>
      <trkpt lat="39.52745592221618" lon="-4.3381601851433516">
        <ele>1107.2</ele>
        <time>2022-04-14T07:50:40.000Z</time>
      </trkpt>
      <trkpt lat="39.52744033187628" lon="-4.338139984756708">
        <ele>1107</ele>
        <time>2022-04-14T07:50:43.000Z</time>
      </trkpt>
      <trkpt lat="39.52743547037244" lon="-4.338134033605456">
        <ele>1107.2</ele>
        <time>2022-04-14T07:50:44.000Z</time>
      </trkpt>
      <trkpt lat="39.52743421308696" lon="-4.338127411901951">
        <ele>1107.2</ele>
        <time>2022-04-14T07:50:45.000Z</time>
      </trkpt>
      <trkpt lat="39.52743102796376" lon="-4.338121544569731">
        <ele>1107</ele>
        <time>2022-04-14T07:50:46.000Z</time>
      </trkpt>
      <trkpt lat="39.527424992993474" lon="-4.338117269799113">
        <ele>1107.2</ele>
        <time>2022-04-14T07:50:47.000Z</time>
      </trkpt>
      <trkpt lat="39.5274200476706" lon="-4.338111570104957">
        <ele>1107.2</ele>
        <time>2022-04-14T07:50:48.000Z</time>
      </trkpt>
      <trkpt lat="39.52740730717778" lon="-4.338094051927328">
        <ele>1107.4</ele>
        <time>2022-04-14T07:50:50.000Z</time>
      </trkpt>
      <trkpt lat="39.52739498578012" lon="-4.338075863197446">
        <ele>1107.4</ele>
        <time>2022-04-14T07:50:52.000Z</time>
      </trkpt>
      <trkpt lat="39.527378808707" lon="-4.338048957288265">
        <ele>1107.4</ele>
        <time>2022-04-14T07:50:55.000Z</time>
      </trkpt>
      <trkpt lat="39.527366403490305" lon="-4.338030768558383">
        <ele>1107.4</ele>
        <time>2022-04-14T07:50:57.000Z</time>
      </trkpt>
      <trkpt lat="39.527359027415514" lon="-4.338019285351038">
        <ele>1107.4</ele>
        <time>2022-04-14T07:50:58.000Z</time>
      </trkpt>
      <trkpt lat="39.52735299244523" lon="-4.338013669475913">
        <ele>1107.6</ele>
        <time>2022-04-14T07:50:59.000Z</time>
      </trkpt>
      <trkpt lat="39.52734771184623" lon="-4.338007466867566">
        <ele>1107.8</ele>
        <time>2022-04-14T07:51:00.000Z</time>
      </trkpt>
      <trkpt lat="39.52733798883855" lon="-4.337993133813143">
        <ele>1108</ele>
        <time>2022-04-14T07:51:02.000Z</time>
      </trkpt>
      <trkpt lat="39.52733497135341" lon="-4.3379840813577175">
        <ele>1108.2</ele>
        <time>2022-04-14T07:51:03.000Z</time>
      </trkpt>
      <trkpt lat="39.52732273377478" lon="-4.337963545694947">
        <ele>1108.6</ele>
        <time>2022-04-14T07:51:05.000Z</time>
      </trkpt>
      <trkpt lat="39.52730647288263" lon="-4.3379508052021265">
        <ele>1109</ele>
        <time>2022-04-14T07:51:07.000Z</time>
      </trkpt>
      <trkpt lat="39.527301946654916" lon="-4.337928844615817">
        <ele>1109.2</ele>
        <time>2022-04-14T07:51:08.000Z</time>
      </trkpt>
      <trkpt lat="39.527282919734716" lon="-4.337889365851879">
        <ele>1110.4</ele>
        <time>2022-04-14T07:51:12.000Z</time>
      </trkpt>
      <trkpt lat="39.527267245575786" lon="-4.337858017534018">
        <ele>1110.8</ele>
        <time>2022-04-14T07:51:15.000Z</time>
      </trkpt>
      <trkpt lat="39.52725073322654" lon="-4.337846953421831">
        <ele>1111.2</ele>
        <time>2022-04-14T07:51:18.000Z</time>
      </trkpt>
      <trkpt lat="39.527243776246905" lon="-4.3378406669944525">
        <ele>1111.4</ele>
        <time>2022-04-14T07:51:19.000Z</time>
      </trkpt>
      <trkpt lat="39.52723614871502" lon="-4.337839661166072">
        <ele>1111.6</ele>
        <time>2022-04-14T07:51:21.000Z</time>
      </trkpt>
      <trkpt lat="39.52722919173539" lon="-4.337832955643535">
        <ele>1111.8</ele>
        <time>2022-04-14T07:51:24.000Z</time>
      </trkpt>
      <trkpt lat="39.52722642570734" lon="-4.33783027343452">
        <ele>1112.4</ele>
        <time>2022-04-14T07:51:25.000Z</time>
      </trkpt>
      <trkpt lat="39.52721720561385" lon="-4.337824238464236">
        <ele>1112.4</ele>
        <time>2022-04-14T07:51:26.000Z</time>
      </trkpt>
      <trkpt lat="39.527190048247576" lon="-4.337810659781098">
        <ele>1112.8</ele>
        <time>2022-04-14T07:51:29.000Z</time>
      </trkpt>
      <trkpt lat="39.52717009931803" lon="-4.337793057784438">
        <ele>1112.8</ele>
        <time>2022-04-14T07:51:31.000Z</time>
      </trkpt>
      <trkpt lat="39.52713506296277" lon="-4.337783586233854">
        <ele>1113.2</ele>
        <time>2022-04-14T07:51:35.000Z</time>
      </trkpt>
      <trkpt lat="39.5271285250783" lon="-4.337777802720666">
        <ele>1113.2</ele>
        <time>2022-04-14T07:51:37.000Z</time>
      </trkpt>
      <trkpt lat="39.52712232246995" lon="-4.33777361176908">
        <ele>1113.2</ele>
        <time>2022-04-14T07:51:38.000Z</time>
      </trkpt>
      <trkpt lat="39.527112767100334" lon="-4.337764140218496">
        <ele>1113.6</ele>
        <time>2022-04-14T07:51:41.000Z</time>
      </trkpt>
      <trkpt lat="39.52710656449199" lon="-4.337763302028179">
        <ele>1113.8</ele>
        <time>2022-04-14T07:51:42.000Z</time>
      </trkpt>
      <trkpt lat="39.52707747928798" lon="-4.337748885154724">
        <ele>1114.4</ele>
        <time>2022-04-14T07:51:45.000Z</time>
      </trkpt>
      <trkpt lat="39.52706574462354" lon="-4.337749890983105">
        <ele>1114.6</ele>
        <time>2022-04-14T07:51:47.000Z</time>
      </trkpt>
      <trkpt lat="39.52704546041787" lon="-4.337745700031519">
        <ele>1115.2</ele>
        <time>2022-04-14T07:51:51.000Z</time>
      </trkpt>
      <trkpt lat="39.52702559530735" lon="-4.337746202945709">
        <ele>1115.4</ele>
        <time>2022-04-14T07:51:54.000Z</time>
      </trkpt>
      <trkpt lat="39.5270093344152" lon="-4.337729020044208">
        <ele>1115.6</ele>
        <time>2022-04-14T07:51:57.000Z</time>
      </trkpt>
      <trkpt lat="39.52697915956378" lon="-4.33771938085556">
        <ele>1116</ele>
        <time>2022-04-14T07:52:00.000Z</time>
      </trkpt>
      <trkpt lat="39.5269728731364" lon="-4.3377151899039745">
        <ele>1116</ele>
        <time>2022-04-14T07:52:01.000Z</time>
      </trkpt>
      <trkpt lat="39.526948146522045" lon="-4.3377019464969635">
        <ele>1116.4</ele>
        <time>2022-04-14T07:52:06.000Z</time>
      </trkpt>
      <trkpt lat="39.52693942934275" lon="-4.3376978393644094">
        <ele>1116.4</ele>
        <time>2022-04-14T07:52:08.000Z</time>
      </trkpt>
      <trkpt lat="39.52693356201053" lon="-4.337694905698299">
        <ele>1116.6</ele>
        <time>2022-04-14T07:52:10.000Z</time>
      </trkpt>
      <trkpt lat="39.52692258171737" lon="-4.337687864899635">
        <ele>1116.6</ele>
        <time>2022-04-14T07:52:12.000Z</time>
      </trkpt>
      <trkpt lat="39.52691755257547" lon="-4.337683757767081">
        <ele>1116.8</ele>
        <time>2022-04-14T07:52:13.000Z</time>
      </trkpt>
      <trkpt lat="39.526914367452264" lon="-4.337676884606481">
        <ele>1116.8</ele>
        <time>2022-04-14T07:52:14.000Z</time>
      </trkpt>
      <trkpt lat="39.52690430916846" lon="-4.337663054466248">
        <ele>1117.4</ele>
        <time>2022-04-14T07:52:19.000Z</time>
      </trkpt>
      <trkpt lat="39.526900453493" lon="-4.337648134678602">
        <ele>1117.8</ele>
        <time>2022-04-14T07:52:21.000Z</time>
      </trkpt>
      <trkpt lat="39.526900202035904" lon="-4.3376445304602385">
        <ele>1118</ele>
        <time>2022-04-14T07:52:23.000Z</time>
      </trkpt>
      <trkpt lat="39.52689559198916" lon="-4.337641512975097">
        <ele>1118.4</ele>
        <time>2022-04-14T07:52:32.000Z</time>
      </trkpt>
      <trkpt lat="39.526891401037574" lon="-4.337631287053227">
        <ele>1118.8</ele>
        <time>2022-04-14T07:52:35.000Z</time>
      </trkpt>
      <trkpt lat="39.52687656506896" lon="-4.337604297325015">
        <ele>1119.2</ele>
        <time>2022-04-14T07:52:39.000Z</time>
      </trkpt>
      <trkpt lat="39.52687128446996" lon="-4.337598094716668">
        <ele>1119.4</ele>
        <time>2022-04-14T07:52:40.000Z</time>
      </trkpt>
      <trkpt lat="39.52685795724392" lon="-4.337581247091293">
        <ele>1119.8</ele>
        <time>2022-04-14T07:52:43.000Z</time>
      </trkpt>
      <trkpt lat="39.526854269206524" lon="-4.337571859359741">
        <ele>1119.8</ele>
        <time>2022-04-14T07:52:44.000Z</time>
      </trkpt>
      <trkpt lat="39.52683758921921" lon="-4.337521651759744">
        <ele>1120.4</ele>
        <time>2022-04-14T07:52:49.000Z</time>
      </trkpt>
      <trkpt lat="39.52683247625828" lon="-4.337507737800479">
        <ele>1120.6</ele>
        <time>2022-04-14T07:52:51.000Z</time>
      </trkpt>
      <trkpt lat="39.52682769857347" lon="-4.337494075298309">
        <ele>1121</ele>
        <time>2022-04-14T07:52:53.000Z</time>
      </trkpt>
      <trkpt lat="39.526820154860616" lon="-4.337456775829196">
        <ele>1121.6</ele>
        <time>2022-04-14T07:52:56.000Z</time>
      </trkpt>
      <trkpt lat="39.52681881375611" lon="-4.337448058649898">
        <ele>1121.8</ele>
        <time>2022-04-14T07:52:57.000Z</time>
      </trkpt>
      <trkpt lat="39.526819568127394" lon="-4.337441688403487">
        <ele>1121.8</ele>
        <time>2022-04-14T07:52:58.000Z</time>
      </trkpt>
      <trkpt lat="39.52682392671704" lon="-4.337411429733038">
        <ele>1122</ele>
        <time>2022-04-14T07:53:01.000Z</time>
      </trkpt>
      <trkpt lat="39.52683540992439" lon="-4.337395587936044">
        <ele>1122.2</ele>
        <time>2022-04-14T07:53:03.000Z</time>
      </trkpt>
      <trkpt lat="39.52683390118182" lon="-4.337336327880621">
        <ele>1123</ele>
        <time>2022-04-14T07:53:09.000Z</time>
      </trkpt>
      <trkpt lat="39.52683457173407" lon="-4.337296094745398">
        <ele>1123.4</ele>
        <time>2022-04-14T07:53:12.000Z</time>
      </trkpt>
      <trkpt lat="39.5268383435905" lon="-4.337227363139391">
        <ele>1123.4</ele>
        <time>2022-04-14T07:53:19.000Z</time>
      </trkpt>
      <trkpt lat="39.52684370800853" lon="-4.33722292073071">
        <ele>1123.6</ele>
        <time>2022-04-14T07:53:20.000Z</time>
      </trkpt>
      <trkpt lat="39.52684446237981" lon="-4.337194003164768">
        <ele>1124</ele>
        <time>2022-04-14T07:53:23.000Z</time>
      </trkpt>
      <trkpt lat="39.526838259771466" lon="-4.337182268500328">
        <ele>1124.2</ele>
        <time>2022-04-14T07:53:24.000Z</time>
      </trkpt>
      <trkpt lat="39.52683205716312" lon="-4.337170114740729">
        <ele>1124.2</ele>
        <time>2022-04-14T07:53:25.000Z</time>
      </trkpt>
      <trkpt lat="39.52682241797447" lon="-4.337145555764437">
        <ele>1124.4</ele>
        <time>2022-04-14T07:53:27.000Z</time>
      </trkpt>
      <trkpt lat="39.52682174742222" lon="-4.337133737280965">
        <ele>1124.6</ele>
        <time>2022-04-14T07:53:28.000Z</time>
      </trkpt>
      <trkpt lat="39.526813281700015" lon="-4.337106999009848">
        <ele>1124.6</ele>
        <time>2022-04-14T07:53:30.000Z</time>
      </trkpt>
      <trkpt lat="39.52680230140686" lon="-4.337072130292654">
        <ele>1124.8</ele>
        <time>2022-04-14T07:53:33.000Z</time>
      </trkpt>
      <trkpt lat="39.52679601497948" lon="-4.337060563266277">
        <ele>1125</ele>
        <time>2022-04-14T07:53:34.000Z</time>
      </trkpt>
      <trkpt lat="39.526793751865625" lon="-4.337050253525376">
        <ele>1125.2</ele>
        <time>2022-04-14T07:53:35.000Z</time>
      </trkpt>
      <trkpt lat="39.52676667831838" lon="-4.336995519697666">
        <ele>1125.8</ele>
        <time>2022-04-14T07:53:40.000Z</time>
      </trkpt>
      <trkpt lat="39.52675385400653" lon="-4.336968865245581">
        <ele>1126</ele>
        <time>2022-04-14T07:53:43.000Z</time>
      </trkpt>
      <trkpt lat="39.52674941159785" lon="-4.336964171379805">
        <ele>1126.2</ele>
        <time>2022-04-14T07:53:44.000Z</time>
      </trkpt>
      <trkpt lat="39.526741951704025" lon="-4.336948664858937">
        <ele>1126.6</ele>
        <time>2022-04-14T07:53:46.000Z</time>
      </trkpt>
      <trkpt lat="39.52673080377281" lon="-4.336906922981143">
        <ele>1127</ele>
        <time>2022-04-14T07:53:50.000Z</time>
      </trkpt>
      <trkpt lat="39.52672812156379" lon="-4.336902145296335">
        <ele>1127.2</ele>
        <time>2022-04-14T07:53:51.000Z</time>
      </trkpt>
      <trkpt lat="39.52672309242189" lon="-4.336893009021878">
        <ele>1127.6</ele>
        <time>2022-04-14T07:53:53.000Z</time>
      </trkpt>
      <trkpt lat="39.52670406550169" lon="-4.3368711322546005">
        <ele>1127.8</ele>
        <time>2022-04-14T07:53:56.000Z</time>
      </trkpt>
      <trkpt lat="39.526696940883994" lon="-4.336863672360778">
        <ele>1128</ele>
        <time>2022-04-14T07:53:57.000Z</time>
      </trkpt>
      <trkpt lat="39.526691157370806" lon="-4.336857218295336">
        <ele>1128</ele>
        <time>2022-04-14T07:53:58.000Z</time>
      </trkpt>
      <trkpt lat="39.52667774632573" lon="-4.336836514994502">
        <ele>1128.4</ele>
        <time>2022-04-14T07:54:01.000Z</time>
      </trkpt>
      <trkpt lat="39.526668190956116" lon="-4.336823606863618">
        <ele>1128.8</ele>
        <time>2022-04-14T07:54:03.000Z</time>
      </trkpt>
      <trkpt lat="39.5266570430249" lon="-4.336805669590831">
        <ele>1129.2</ele>
        <time>2022-04-14T07:54:06.000Z</time>
      </trkpt>
      <trkpt lat="39.526647152379155" lon="-4.3367863073945045">
        <ele>1129.4</ele>
        <time>2022-04-14T07:54:09.000Z</time>
      </trkpt>
      <trkpt lat="39.52662535943091" lon="-4.336739955469966">
        <ele>1129.6</ele>
        <time>2022-04-14T07:54:14.000Z</time>
      </trkpt>
      <trkpt lat="39.52661664225161" lon="-4.3366864789277315">
        <ele>1129.6</ele>
        <time>2022-04-14T07:54:18.000Z</time>
      </trkpt>
      <trkpt lat="39.52661504969001" lon="-4.336678767576814">
        <ele>1129.8</ele>
        <time>2022-04-14T07:54:20.000Z</time>
      </trkpt>
      <trkpt lat="39.526611948385835" lon="-4.336672984063625">
        <ele>1130</ele>
        <time>2022-04-14T07:54:21.000Z</time>
      </trkpt>
      <trkpt lat="39.52659300528467" lon="-4.336628559976816">
        <ele>1130.4</ele>
        <time>2022-04-14T07:54:28.000Z</time>
      </trkpt>
      <trkpt lat="39.52657892368734" lon="-4.336607605218887">
        <ele>1130.4</ele>
        <time>2022-04-14T07:54:30.000Z</time>
      </trkpt>
      <trkpt lat="39.52657029032707" lon="-4.336602576076984">
        <ele>1130.4</ele>
        <time>2022-04-14T07:54:31.000Z</time>
      </trkpt>
      <trkpt lat="39.526547491550446" lon="-4.336556810885668">
        <ele>1130.8</ele>
        <time>2022-04-14T07:54:35.000Z</time>
      </trkpt>
      <trkpt lat="39.52653902582824" lon="-4.3365424778312445">
        <ele>1131</ele>
        <time>2022-04-14T07:54:37.000Z</time>
      </trkpt>
      <trkpt lat="39.52653299085796" lon="-4.336527893319726">
        <ele>1131.2</ele>
        <time>2022-04-14T07:54:39.000Z</time>
      </trkpt>
      <trkpt lat="39.526530392467976" lon="-4.336513141170144">
        <ele>1131.6</ele>
        <time>2022-04-14T07:54:41.000Z</time>
      </trkpt>
      <trkpt lat="39.526526033878326" lon="-4.336506435647607">
        <ele>1131.6</ele>
        <time>2022-04-14T07:54:42.000Z</time>
      </trkpt>
      <trkpt lat="39.52648747712374" lon="-4.336492773145437">
        <ele>1132.2</ele>
        <time>2022-04-14T07:54:49.000Z</time>
      </trkpt>
      <trkpt lat="39.526482531800866" lon="-4.336492018774152">
        <ele>1132.2</ele>
        <time>2022-04-14T07:54:50.000Z</time>
      </trkpt>
      <trkpt lat="39.52645084820688" lon="-4.336471064016223">
        <ele>1132.2</ele>
        <time>2022-04-14T07:54:53.000Z</time>
      </trkpt>
      <trkpt lat="39.52643483877182" lon="-4.336473578587174">
        <ele>1132.4</ele>
        <time>2022-04-14T07:54:56.000Z</time>
      </trkpt>
      <trkpt lat="39.52643349766731" lon="-4.336473578587174">
        <ele>1132.6</ele>
        <time>2022-04-14T07:54:57.000Z</time>
      </trkpt>
      <trkpt lat="39.52643098309636" lon="-4.336474584415555">
        <ele>1132.6</ele>
        <time>2022-04-14T07:54:58.000Z</time>
      </trkpt>
      <trkpt lat="39.526422852650285" lon="-4.336474249139428">
        <ele>1132.6</ele>
        <time>2022-04-14T07:55:00.000Z</time>
      </trkpt>
      <trkpt lat="39.52641002833843" lon="-4.336473997682333">
        <ele>1132.8</ele>
        <time>2022-04-14T07:55:02.000Z</time>
      </trkpt>
      <trkpt lat="39.526367112994194" lon="-4.336467208340764">
        <ele>1133.2</ele>
        <time>2022-04-14T07:55:06.000Z</time>
      </trkpt>
      <trkpt lat="39.52634263783693" lon="-4.336467543616891">
        <ele>1133.6</ele>
        <time>2022-04-14T07:55:10.000Z</time>
      </trkpt>
      <trkpt lat="39.526321683079004" lon="-4.3364601675421">
        <ele>1134.4</ele>
        <time>2022-04-14T07:55:15.000Z</time>
      </trkpt>
      <trkpt lat="39.526314809918404" lon="-4.336458658799529">
        <ele>1134.6</ele>
        <time>2022-04-14T07:55:16.000Z</time>
      </trkpt>
      <trkpt lat="39.52627910301089" lon="-4.33645237237215">
        <ele>1135.2</ele>
        <time>2022-04-14T07:55:22.000Z</time>
      </trkpt>
      <trkpt lat="39.52627130784094" lon="-4.336451953276992">
        <ele>1135.4</ele>
        <time>2022-04-14T07:55:23.000Z</time>
      </trkpt>
      <trkpt lat="39.52625261619687" lon="-4.336454216390848">
        <ele>1135.8</ele>
        <time>2022-04-14T07:55:26.000Z</time>
      </trkpt>
      <trkpt lat="39.52623400837183" lon="-4.336443739011884">
        <ele>1136.6</ele>
        <time>2022-04-14T07:55:30.000Z</time>
      </trkpt>
      <trkpt lat="39.526228811591864" lon="-4.336442397907376">
        <ele>1136.8</ele>
        <time>2022-04-14T07:55:31.000Z</time>
      </trkpt>
      <trkpt lat="39.52620718628168" lon="-4.3364382069557905">
        <ele>1137.2</ele>
        <time>2022-04-14T07:55:35.000Z</time>
      </trkpt>
      <trkpt lat="39.5261940266937" lon="-4.336432674899697">
        <ele>1137.4</ele>
        <time>2022-04-14T07:55:38.000Z</time>
      </trkpt>
      <trkpt lat="39.526183884590864" lon="-4.336429908871651">
        <ele>1137.8</ele>
        <time>2022-04-14T07:55:40.000Z</time>
      </trkpt>
      <trkpt lat="39.52617818489671" lon="-4.336431166157126">
        <ele>1137.8</ele>
        <time>2022-04-14T07:55:41.000Z</time>
      </trkpt>
      <trkpt lat="39.52613837085664" lon="-4.336435105651617">
        <ele>1138.8</ele>
        <time>2022-04-14T07:55:50.000Z</time>
      </trkpt>
      <trkpt lat="39.52612420544028" lon="-4.33641373179853">
        <ele>1139</ele>
        <time>2022-04-14T07:55:57.000Z</time>
      </trkpt>
      <trkpt lat="39.52608053572476" lon="-4.3363796174526215">
        <ele>1139.2</ele>
        <time>2022-04-14T07:56:02.000Z</time>
      </trkpt>
      <trkpt lat="39.5260766800493" lon="-4.336375594139099">
        <ele>1139.4</ele>
        <time>2022-04-14T07:56:03.000Z</time>
      </trkpt>
      <trkpt lat="39.52606284990907" lon="-4.336367547512054">
        <ele>1139.8</ele>
        <time>2022-04-14T07:56:05.000Z</time>
      </trkpt>
      <trkpt lat="39.52605379745364" lon="-4.3363516218960285">
        <ele>1140.4</ele>
        <time>2022-04-14T07:56:07.000Z</time>
      </trkpt>
      <trkpt lat="39.52605748549104" lon="-4.336353214457631">
        <ele>1140.8</ele>
        <time>2022-04-14T07:56:10.000Z</time>
      </trkpt>
      <trkpt lat="39.52604969032109" lon="-4.336352627724409">
        <ele>1140.4</ele>
        <time>2022-04-14T07:56:15.000Z</time>
      </trkpt>
      <trkpt lat="39.526041308417916" lon="-4.336353130638599">
        <ele>1140.6</ele>
        <time>2022-04-14T07:56:19.000Z</time>
      </trkpt>
      <trkpt lat="39.52603711746633" lon="-4.3363802041858435">
        <ele>1140.8</ele>
        <time>2022-04-14T07:56:24.000Z</time>
      </trkpt>
      <trkpt lat="39.52602747827768" lon="-4.336405852809548">
        <ele>1141.2</ele>
        <time>2022-04-14T07:56:29.000Z</time>
      </trkpt>
      <trkpt lat="39.52601691707969" lon="-4.33642890304327">
        <ele>1140.8</ele>
        <time>2022-04-14T07:56:33.000Z</time>
      </trkpt>
      <trkpt lat="39.526017252355814" lon="-4.336432088166475">
        <ele>1140.2</ele>
        <time>2022-04-14T07:56:37.000Z</time>
      </trkpt>
      <trkpt lat="39.52601741999388" lon="-4.336431669071317">
        <ele>1140.2</ele>
        <time>2022-04-14T07:56:38.000Z</time>
      </trkpt>
      <trkpt lat="39.52600291930139" lon="-4.336414318531752">
        <ele>1139.8</ele>
        <time>2022-04-14T07:56:43.000Z</time>
      </trkpt>
      <trkpt lat="39.52598732896149" lon="-4.336403422057629">
        <ele>1140</ele>
        <time>2022-04-14T07:56:45.000Z</time>
      </trkpt>
      <trkpt lat="39.52598908916116" lon="-4.336376097053289">
        <ele>1140.8</ele>
        <time>2022-04-14T07:56:52.000Z</time>
      </trkpt>
      <trkpt lat="39.52598984353244" lon="-4.336375426501036">
        <ele>1140.8</ele>
        <time>2022-04-14T07:56:53.000Z</time>
      </trkpt>
      <trkpt lat="39.5259905140847" lon="-4.336375091224909">
        <ele>1141</ele>
        <time>2022-04-14T07:56:54.000Z</time>
      </trkpt>
      <trkpt lat="39.525990849360824" lon="-4.3363745883107185">
        <ele>1141</ele>
        <time>2022-04-14T07:56:55.000Z</time>
      </trkpt>
      <trkpt lat="39.525991352275014" lon="-4.336375258862972">
        <ele>1141.2</ele>
        <time>2022-04-14T07:56:57.000Z</time>
      </trkpt>
      <trkpt lat="39.525994285941124" lon="-4.336378108710051">
        <ele>1141.4</ele>
        <time>2022-04-14T07:57:03.000Z</time>
      </trkpt>
      <trkpt lat="39.52597877942026" lon="-4.336373917758465">
        <ele>1142</ele>
        <time>2022-04-14T07:57:07.000Z</time>
      </trkpt>
      <trkpt lat="39.52596629038453" lon="-4.3363734148442745">
        <ele>1142.2</ele>
        <time>2022-04-14T07:57:09.000Z</time>
      </trkpt>
      <trkpt lat="39.525948353111744" lon="-4.336366709321737">
        <ele>1142.6</ele>
        <time>2022-04-14T07:57:12.000Z</time>
      </trkpt>
      <trkpt lat="39.52592924237251" lon="-4.336355142295361">
        <ele>1143.2</ele>
        <time>2022-04-14T07:57:15.000Z</time>
      </trkpt>
      <trkpt lat="39.5259194355458" lon="-4.336338462308049">
        <ele>1143.4</ele>
        <time>2022-04-14T07:57:17.000Z</time>
      </trkpt>
      <trkpt lat="39.5259004086256" lon="-4.336329577490687">
        <ele>1143.8</ele>
        <time>2022-04-14T07:57:20.000Z</time>
      </trkpt>
      <trkpt lat="39.52588750049472" lon="-4.336325637996197">
        <ele>1143.8</ele>
        <time>2022-04-14T07:57:22.000Z</time>
      </trkpt>
      <trkpt lat="39.52587442472577" lon="-4.336324632167816">
        <ele>1144.2</ele>
        <time>2022-04-14T07:57:24.000Z</time>
      </trkpt>
      <trkpt lat="39.52585808001459" lon="-4.336320860311389">
        <ele>1144.4</ele>
        <time>2022-04-14T07:57:26.000Z</time>
      </trkpt>
      <trkpt lat="39.525844836607575" lon="-4.336324715986848">
        <ele>1144.6</ele>
        <time>2022-04-14T07:57:28.000Z</time>
      </trkpt>
      <trkpt lat="39.52582488767803" lon="-4.3363292422145605">
        <ele>1145.2</ele>
        <time>2022-04-14T07:57:31.000Z</time>
      </trkpt>
      <trkpt lat="39.52577970921993" lon="-4.336327314376831">
        <ele>1146.2</ele>
        <time>2022-04-14T07:57:37.000Z</time>
      </trkpt>
      <trkpt lat="39.525772919878364" lon="-4.33632823638618">
        <ele>1146.4</ele>
        <time>2022-04-14T07:57:38.000Z</time>
      </trkpt>
      <trkpt lat="39.52572237700224" lon="-4.336327314376831">
        <ele>1147.2</ele>
        <time>2022-04-14T07:57:45.000Z</time>
      </trkpt>
      <trkpt lat="39.52571818605065" lon="-4.336327146738768">
        <ele>1147.4</ele>
        <time>2022-04-14T07:57:46.000Z</time>
      </trkpt>
      <trkpt lat="39.525707038119435" lon="-4.336340054869652">
        <ele>1147.8</ele>
        <time>2022-04-14T07:57:53.000Z</time>
      </trkpt>
      <trkpt lat="39.52570963650942" lon="-4.33634240180254">
        <ele>1148.2</ele>
        <time>2022-04-14T07:58:03.000Z</time>
      </trkpt>
      <trkpt lat="39.52568138949573" lon="-4.336358746513724">
        <ele>1148.4</ele>
        <time>2022-04-14T07:58:07.000Z</time>
      </trkpt>
      <trkpt lat="39.52567694708705" lon="-4.336367128416896">
        <ele>1148.6</ele>
        <time>2022-04-14T07:58:08.000Z</time>
      </trkpt>
      <trkpt lat="39.52565632760525" lon="-4.336438458412886">
        <ele>1149.2</ele>
        <time>2022-04-14T07:58:16.000Z</time>
      </trkpt>
      <trkpt lat="39.52564861625433" lon="-4.336460418999195">
        <ele>1149.6</ele>
        <time>2022-04-14T07:58:19.000Z</time>
      </trkpt>
      <trkpt lat="39.52564819715917" lon="-4.336469974368811">
        <ele>1149.8</ele>
        <time>2022-04-14T07:58:22.000Z</time>
      </trkpt>
      <trkpt lat="39.52560410834849" lon="-4.336505010724068">
        <ele>1150.4</ele>
        <time>2022-04-14T07:58:29.000Z</time>
      </trkpt>
      <trkpt lat="39.5255967322737" lon="-4.336519259959459">
        <ele>1150.4</ele>
        <time>2022-04-14T07:58:30.000Z</time>
      </trkpt>
      <trkpt lat="39.525582399219275" lon="-4.336537532508373">
        <ele>1150.6</ele>
        <time>2022-04-14T07:58:32.000Z</time>
      </trkpt>
      <trkpt lat="39.525558426976204" lon="-4.336567707359791">
        <ele>1151</ele>
        <time>2022-04-14T07:58:37.000Z</time>
      </trkpt>
      <trkpt lat="39.52554392628372" lon="-4.3365810345858335">
        <ele>1151.8</ele>
        <time>2022-04-14T07:58:40.000Z</time>
      </trkpt>
      <trkpt lat="39.52551073394716" lon="-4.336597630754113">
        <ele>1152.6</ele>
        <time>2022-04-14T07:58:45.000Z</time>
      </trkpt>
      <trkpt lat="39.52549707144499" lon="-4.336601318791509">
        <ele>1152.8</ele>
        <time>2022-04-14T07:58:47.000Z</time>
      </trkpt>
      <trkpt lat="39.52547418884933" lon="-4.336590506136417">
        <ele>1153.4</ele>
        <time>2022-04-14T07:58:53.000Z</time>
      </trkpt>
      <trkpt lat="39.525473937392235" lon="-4.336586901918054">
        <ele>1153.6</ele>
        <time>2022-04-14T07:58:54.000Z</time>
      </trkpt>
      <trkpt lat="39.52547259628773" lon="-4.336588075384498">
        <ele>1153.6</ele>
        <time>2022-04-14T07:58:57.000Z</time>
      </trkpt>
      <trkpt lat="39.52547209337354" lon="-4.336589081212878">
        <ele>1153.8</ele>
        <time>2022-04-14T07:58:58.000Z</time>
      </trkpt>
      <trkpt lat="39.525471506640315" lon="-4.336592182517052">
        <ele>1153.8</ele>
        <time>2022-04-14T07:58:59.000Z</time>
      </trkpt>
      <trkpt lat="39.52546019107103" lon="-4.3366004806011915">
        <ele>1154</ele>
        <time>2022-04-14T07:59:01.000Z</time>
      </trkpt>
      <trkpt lat="39.52545256353915" lon="-4.33660576120019">
        <ele>1154.2</ele>
        <time>2022-04-14T07:59:02.000Z</time>
      </trkpt>
      <trkpt lat="39.52540419995785" lon="-4.336631158366799">
        <ele>1154.8</ele>
        <time>2022-04-14T07:59:08.000Z</time>
      </trkpt>
      <trkpt lat="39.525390872731805" lon="-4.336634511128068">
        <ele>1155</ele>
        <time>2022-04-14T07:59:10.000Z</time>
      </trkpt>
      <trkpt lat="39.525370839983225" lon="-4.336638953536749">
        <ele>1156</ele>
        <time>2022-04-14T07:59:15.000Z</time>
      </trkpt>
      <trkpt lat="39.52535985969007" lon="-4.336636690422893">
        <ele>1156.2</ele>
        <time>2022-04-14T07:59:17.000Z</time>
      </trkpt>
      <trkpt lat="39.52533697709441" lon="-4.336622189730406">
        <ele>1157</ele>
        <time>2022-04-14T07:59:21.000Z</time>
      </trkpt>
      <trkpt lat="39.525301521643996" lon="-4.336592433974147">
        <ele>1158</ele>
        <time>2022-04-14T07:59:27.000Z</time>
      </trkpt>
      <trkpt lat="39.52527612447739" lon="-4.336557146161795">
        <ele>1158.8</ele>
        <time>2022-04-14T07:59:32.000Z</time>
      </trkpt>
      <trkpt lat="39.52527059242129" lon="-4.336537616327405">
        <ele>1158.8</ele>
        <time>2022-04-14T07:59:34.000Z</time>
      </trkpt>
      <trkpt lat="39.52526958659291" lon="-4.336528060957789">
        <ele>1159.2</ele>
        <time>2022-04-14T07:59:37.000Z</time>
      </trkpt>
      <trkpt lat="39.525275537744164" lon="-4.33654323220253">
        <ele>1159.2</ele>
        <time>2022-04-14T07:59:43.000Z</time>
      </trkpt>
      <trkpt lat="39.52527738176286" lon="-4.3365689646452665">
        <ele>1159.4</ele>
        <time>2022-04-14T07:59:49.000Z</time>
      </trkpt>
      <trkpt lat="39.525280483067036" lon="-4.336584554985166">
        <ele>1159.6</ele>
        <time>2022-04-14T07:59:51.000Z</time>
      </trkpt>
      <trkpt lat="39.52527930960059" lon="-4.336587069556117">
        <ele>1159.4</ele>
        <time>2022-04-14T07:59:56.000Z</time>
      </trkpt>
      <trkpt lat="39.52527092769742" lon="-4.336580615490675">
        <ele>1159.2</ele>
        <time>2022-04-14T08:00:00.000Z</time>
      </trkpt>
      <trkpt lat="39.52527076005936" lon="-4.3365804478526115">
        <ele>1159.2</ele>
        <time>2022-04-14T08:00:03.000Z</time>
      </trkpt>
      <trkpt lat="39.525271179154515" lon="-4.336580950766802">
        <ele>1158.8</ele>
        <time>2022-04-14T08:00:10.000Z</time>
      </trkpt>
      <trkpt lat="39.52527184970677" lon="-4.336572485044599">
        <ele>1159</ele>
        <time>2022-04-14T08:00:13.000Z</time>
      </trkpt>
      <trkpt lat="39.52527335844934" lon="-4.336567623540759">
        <ele>1159</ele>
        <time>2022-04-14T08:00:17.000Z</time>
      </trkpt>
      <trkpt lat="39.52527520246804" lon="-4.336571311578155">
        <ele>1159</ele>
        <time>2022-04-14T08:00:18.000Z</time>
      </trkpt>
      <trkpt lat="39.52527662739158" lon="-4.3365739937871695">
        <ele>1158.8</ele>
        <time>2022-04-14T08:00:20.000Z</time>
      </trkpt>
      <trkpt lat="39.52527637593448" lon="-4.336568294093013">
        <ele>1158.6</ele>
        <time>2022-04-14T08:00:26.000Z</time>
      </trkpt>
      <trkpt lat="39.52524452470243" lon="-4.3365442380309105">
        <ele>1158.4</ele>
        <time>2022-04-14T08:00:32.000Z</time>
      </trkpt>
      <trkpt lat="39.52523513697088" lon="-4.336523534730077">
        <ele>1158.6</ele>
        <time>2022-04-14T08:00:33.000Z</time>
      </trkpt>
      <trkpt lat="39.5252148527652" lon="-4.336496377363801">
        <ele>1159</ele>
        <time>2022-04-14T08:00:36.000Z</time>
      </trkpt>
      <trkpt lat="39.52520932070911" lon="-4.336492605507374">
        <ele>1159.2</ele>
        <time>2022-04-14T08:00:37.000Z</time>
      </trkpt>
      <trkpt lat="39.525204710662365" lon="-4.33648849837482">
        <ele>1159.6</ele>
        <time>2022-04-14T08:00:38.000Z</time>
      </trkpt>
      <trkpt lat="39.52520093880594" lon="-4.336485983803868">
        <ele>1159.6</ele>
        <time>2022-04-14T08:00:39.000Z</time>
      </trkpt>
      <trkpt lat="39.52519708313048" lon="-4.336483972147107">
        <ele>1159.8</ele>
        <time>2022-04-14T08:00:40.000Z</time>
      </trkpt>
      <trkpt lat="39.525197418406606" lon="-4.336485816165805">
        <ele>1160</ele>
        <time>2022-04-14T08:00:41.000Z</time>
      </trkpt>
      <trkpt lat="39.52519725076854" lon="-4.33648313395679">
        <ele>1160.2</ele>
        <time>2022-04-14T08:00:42.000Z</time>
      </trkpt>
      <trkpt lat="39.525188030675054" lon="-4.336471734568477">
        <ele>1161</ele>
        <time>2022-04-14T08:00:45.000Z</time>
      </trkpt>
      <trkpt lat="39.525174954906106" lon="-4.336457317695022">
        <ele>1161.2</ele>
        <time>2022-04-14T08:00:47.000Z</time>
      </trkpt>
      <trkpt lat="39.525167997926474" lon="-4.336452456191182">
        <ele>1161.4</ele>
        <time>2022-04-14T08:00:48.000Z</time>
      </trkpt>
      <trkpt lat="39.52515232376754" lon="-4.336438542231917">
        <ele>1161.6</ele>
        <time>2022-04-14T08:00:50.000Z</time>
      </trkpt>
      <trkpt lat="39.525148551911116" lon="-4.336433093994856">
        <ele>1161.8</ele>
        <time>2022-04-14T08:00:51.000Z</time>
      </trkpt>
      <trkpt lat="39.525147043168545" lon="-4.336420018225908">
        <ele>1162.4</ele>
        <time>2022-04-14T08:00:54.000Z</time>
      </trkpt>
      <trkpt lat="39.52514645643532" lon="-4.336416078731418">
        <ele>1162.4</ele>
        <time>2022-04-14T08:00:55.000Z</time>
      </trkpt>
      <trkpt lat="39.52513497322798" lon="-4.336409792304039">
        <ele>1162.4</ele>
        <time>2022-04-14T08:00:58.000Z</time>
      </trkpt>
      <trkpt lat="39.52511318027973" lon="-4.33639763854444">
        <ele>1163.2</ele>
        <time>2022-04-14T08:01:03.000Z</time>
      </trkpt>
      <trkpt lat="39.52510915696621" lon="-4.336392525583506">
        <ele>1163.4</ele>
        <time>2022-04-14T08:01:04.000Z</time>
      </trkpt>
      <trkpt lat="39.52507361769676" lon="-4.336345000192523">
        <ele>1164.4</ele>
        <time>2022-04-14T08:01:10.000Z</time>
      </trkpt>
      <trkpt lat="39.52507269568741" lon="-4.33633117005229">
        <ele>1164.8</ele>
        <time>2022-04-14T08:01:12.000Z</time>
      </trkpt>
      <trkpt lat="39.52507445588708" lon="-4.336293367668986">
        <ele>1165.6</ele>
        <time>2022-04-14T08:01:16.000Z</time>
      </trkpt>
      <trkpt lat="39.5250871963799" lon="-4.3362724129110575">
        <ele>1165.8</ele>
        <time>2022-04-14T08:01:18.000Z</time>
      </trkpt>
      <trkpt lat="39.5251146890223" lon="-4.3362529668956995">
        <ele>1166.4</ele>
        <time>2022-04-14T08:01:23.000Z</time>
      </trkpt>
      <trkpt lat="39.525124998763204" lon="-4.3362506199628115">
        <ele>1166.6</ele>
        <time>2022-04-14T08:01:24.000Z</time>
      </trkpt>
      <trkpt lat="39.5251337159425" lon="-4.336244249716401">
        <ele>1166.8</ele>
        <time>2022-04-14T08:01:25.000Z</time>
      </trkpt>
      <trkpt lat="39.52515743672848" lon="-4.336205190047622">
        <ele>1167.4</ele>
        <time>2022-04-14T08:01:32.000Z</time>
      </trkpt>
      <trkpt lat="39.52516355551779" lon="-4.336195969954133">
        <ele>1167.8</ele>
        <time>2022-04-14T08:01:34.000Z</time>
      </trkpt>
      <trkpt lat="39.52516682446003" lon="-4.336170237511396">
        <ele>1168</ele>
        <time>2022-04-14T08:01:38.000Z</time>
      </trkpt>
      <trkpt lat="39.52516741119325" lon="-4.336158167570829">
        <ele>1168</ele>
        <time>2022-04-14T08:01:40.000Z</time>
      </trkpt>
      <trkpt lat="39.52515508979559" lon="-4.336140984669328">
        <ele>1168.2</ele>
        <time>2022-04-14T08:01:42.000Z</time>
      </trkpt>
      <trkpt lat="39.5251252502203" lon="-4.3360724207013845">
        <ele>1168.8</ele>
        <time>2022-04-14T08:01:49.000Z</time>
      </trkpt>
      <trkpt lat="39.52511946670711" lon="-4.336061188951135">
        <ele>1169</ele>
        <time>2022-04-14T08:01:51.000Z</time>
      </trkpt>
      <trkpt lat="39.5251043792814" lon="-4.336030762642622">
        <ele>1169.4</ele>
        <time>2022-04-14T08:01:56.000Z</time>
      </trkpt>
      <trkpt lat="39.52509549446404" lon="-4.336023973301053">
        <ele>1169.6</ele>
        <time>2022-04-14T08:01:58.000Z</time>
      </trkpt>
      <trkpt lat="39.525084933266044" lon="-4.3360046949237585">
        <ele>1169.8</ele>
        <time>2022-04-14T08:02:01.000Z</time>
      </trkpt>
      <trkpt lat="39.52508929185569" lon="-4.3359823152422905">
        <ele>1170.8</ele>
        <time>2022-04-14T08:02:06.000Z</time>
      </trkpt>
      <trkpt lat="39.525086525827646" lon="-4.335979884490371">
        <ele>1170.8</ele>
        <time>2022-04-14T08:02:07.000Z</time>
      </trkpt>
      <trkpt lat="39.52507856301963" lon="-4.335979884490371">
        <ele>1170.8</ele>
        <time>2022-04-14T08:02:17.000Z</time>
      </trkpt>
      <trkpt lat="39.525080658495426" lon="-4.335975358262658">
        <ele>1170.8</ele>
        <time>2022-04-14T08:02:22.000Z</time>
      </trkpt>
      <trkpt lat="39.525085017085075" lon="-4.335974436253309">
        <ele>1170.8</ele>
        <time>2022-04-14T08:02:27.000Z</time>
      </trkpt>
      <trkpt lat="39.52508686110377" lon="-4.335966138169169">
        <ele>1171</ele>
        <time>2022-04-14T08:02:30.000Z</time>
      </trkpt>
      <trkpt lat="39.525080658495426" lon="-4.335965383797884">
        <ele>1171.2</ele>
        <time>2022-04-14T08:02:35.000Z</time>
      </trkpt>
      <trkpt lat="39.52508074231446" lon="-4.335964880883694">
        <ele>1171.4</ele>
        <time>2022-04-14T08:02:40.000Z</time>
      </trkpt>
      <trkpt lat="39.525078143924475" lon="-4.335960606113076">
        <ele>1171.4</ele>
        <time>2022-04-14T08:02:44.000Z</time>
      </trkpt>
      <trkpt lat="39.525073282420635" lon="-4.335942165926099">
        <ele>1171.4</ele>
        <time>2022-04-14T08:02:48.000Z</time>
      </trkpt>
      <trkpt lat="39.52507269568741" lon="-4.335940405726433">
        <ele>1171.6</ele>
        <time>2022-04-14T08:02:50.000Z</time>
      </trkpt>
      <trkpt lat="39.52507403679192" lon="-4.335933784022927">
        <ele>1172</ele>
        <time>2022-04-14T08:02:52.000Z</time>
      </trkpt>
      <trkpt lat="39.52507361769676" lon="-4.335919450968504">
        <ele>1172.2</ele>
        <time>2022-04-14T08:02:54.000Z</time>
      </trkpt>
      <trkpt lat="39.52506557106972" lon="-4.335873769596219">
        <ele>1172.8</ele>
        <time>2022-04-14T08:03:00.000Z</time>
      </trkpt>
      <trkpt lat="39.52506758272648" lon="-4.33586941100657">
        <ele>1173</ele>
        <time>2022-04-14T08:03:01.000Z</time>
      </trkpt>
      <trkpt lat="39.52506758272648" lon="-4.335863124579191">
        <ele>1173</ele>
        <time>2022-04-14T08:03:02.000Z</time>
      </trkpt>
      <trkpt lat="39.525076216086745" lon="-4.335837140679359">
        <ele>1174</ele>
        <time>2022-04-14T08:03:09.000Z</time>
      </trkpt>
      <trkpt lat="39.525079065933824" lon="-4.335831357166171">
        <ele>1174.2</ele>
        <time>2022-04-14T08:03:10.000Z</time>
      </trkpt>
      <trkpt lat="39.525075210258365" lon="-4.335791962221265">
        <ele>1175</ele>
        <time>2022-04-14T08:03:15.000Z</time>
      </trkpt>
      <trkpt lat="39.52507881447673" lon="-4.335785508155823">
        <ele>1175.2</ele>
        <time>2022-04-14T08:03:16.000Z</time>
      </trkpt>
      <trkpt lat="39.52507487498224" lon="-4.335761116817594">
        <ele>1176.2</ele>
        <time>2022-04-14T08:03:21.000Z</time>
      </trkpt>
      <trkpt lat="39.52505827881396" lon="-4.335737396031618">
        <ele>1176.8</ele>
        <time>2022-04-14T08:03:24.000Z</time>
      </trkpt>
      <trkpt lat="39.525050735101104" lon="-4.33572574518621">
        <ele>1177</ele>
        <time>2022-04-14T08:03:25.000Z</time>
      </trkpt>
      <trkpt lat="39.52504034154117" lon="-4.3357110768556595">
        <ele>1177.4</ele>
        <time>2022-04-14T08:03:26.000Z</time>
      </trkpt>
      <trkpt lat="39.524996085092425" lon="-4.335661036893725">
        <ele>1178.4</ele>
        <time>2022-04-14T08:03:32.000Z</time>
      </trkpt>
      <trkpt lat="39.52499038539827" lon="-4.335652990266681">
        <ele>1178.6</ele>
        <time>2022-04-14T08:03:33.000Z</time>
      </trkpt>
      <trkpt lat="39.52498099766672" lon="-4.335638992488384">
        <ele>1178.8</ele>
        <time>2022-04-14T08:03:34.000Z</time>
      </trkpt>
      <trkpt lat="39.52497781254351" lon="-4.335635807365179">
        <ele>1179.4</ele>
        <time>2022-04-14T08:03:36.000Z</time>
      </trkpt>
      <trkpt lat="39.524960462003946" lon="-4.33561728335917">
        <ele>1179.8</ele>
        <time>2022-04-14T08:03:38.000Z</time>
      </trkpt>
      <trkpt lat="39.52494805678725" lon="-4.3355742841959">
        <ele>1180.4</ele>
        <time>2022-04-14T08:03:44.000Z</time>
      </trkpt>
      <trkpt lat="39.524949146434665" lon="-4.335565147921443">
        <ele>1180.8</ele>
        <time>2022-04-14T08:03:46.000Z</time>
      </trkpt>
      <trkpt lat="39.52494311146438" lon="-4.335542265325785">
        <ele>1181.4</ele>
        <time>2022-04-14T08:03:50.000Z</time>
      </trkpt>
      <trkpt lat="39.52493674121797" lon="-4.335530614480376">
        <ele>1182</ele>
        <time>2022-04-14T08:03:52.000Z</time>
      </trkpt>
      <trkpt lat="39.524925677105784" lon="-4.3355190474539995">
        <ele>1182.2</ele>
        <time>2022-04-14T08:03:54.000Z</time>
      </trkpt>
      <trkpt lat="39.52490782365203" lon="-4.335504546761513">
        <ele>1182.6</ele>
        <time>2022-04-14T08:03:57.000Z</time>
      </trkpt>
      <trkpt lat="39.5248887129128" lon="-4.335490548983216">
        <ele>1183.2</ele>
        <time>2022-04-14T08:04:01.000Z</time>
      </trkpt>
      <trkpt lat="39.524874882772565" lon="-4.335478227585554">
        <ele>1183.6</ele>
        <time>2022-04-14T08:04:05.000Z</time>
      </trkpt>
      <trkpt lat="39.524870524182916" lon="-4.335475042462349">
        <ele>1184</ele>
        <time>2022-04-14T08:04:07.000Z</time>
      </trkpt>
      <trkpt lat="39.52486289665103" lon="-4.335471522063017">
        <ele>1184.4</ele>
        <time>2022-04-14T08:04:10.000Z</time>
      </trkpt>
      <trkpt lat="39.52486356720328" lon="-4.335461799055338">
        <ele>1184.8</ele>
        <time>2022-04-14T08:04:13.000Z</time>
      </trkpt>
      <trkpt lat="39.52487278729677" lon="-4.335461547598243">
        <ele>1184.6</ele>
        <time>2022-04-14T08:04:21.000Z</time>
      </trkpt>
      <trkpt lat="39.52486985363066" lon="-4.335433132946491">
        <ele>1184.8</ele>
        <time>2022-04-14T08:04:31.000Z</time>
      </trkpt>
      <trkpt lat="39.524868596345186" lon="-4.335432210937142">
        <ele>1184</ele>
        <time>2022-04-14T08:04:37.000Z</time>
      </trkpt>
      <trkpt lat="39.524887036532164" lon="-4.335444699972868">
        <ele>1183.8</ele>
        <time>2022-04-14T08:04:40.000Z</time>
      </trkpt>
      <trkpt lat="39.524889970198274" lon="-4.335488537326455">
        <ele>1184</ele>
        <time>2022-04-14T08:04:47.000Z</time>
      </trkpt>
      <trkpt lat="39.52489416114986" lon="-4.335463140159845">
        <ele>1184</ele>
        <time>2022-04-14T08:04:53.000Z</time>
      </trkpt>
      <trkpt lat="39.52488820999861" lon="-4.335443275049329">
        <ele>1183.6</ele>
        <time>2022-04-14T08:04:55.000Z</time>
      </trkpt>
      <trkpt lat="39.52488133683801" lon="-4.335431456565857">
        <ele>1183.6</ele>
        <time>2022-04-14T08:04:57.000Z</time>
      </trkpt>
      <trkpt lat="39.52487823553383" lon="-4.335431037470698">
        <ele>1183.6</ele>
        <time>2022-04-14T08:04:58.000Z</time>
      </trkpt>
      <trkpt lat="39.524885108694434" lon="-4.335433216765523">
        <ele>1183.8</ele>
        <time>2022-04-14T08:05:00.000Z</time>
      </trkpt>
      <trkpt lat="39.52488351613283" lon="-4.335429444909096">
        <ele>1184</ele>
        <time>2022-04-14T08:05:02.000Z</time>
      </trkpt>
      <trkpt lat="39.52487756498158" lon="-4.335395582020283">
        <ele>1185</ele>
        <time>2022-04-14T08:05:07.000Z</time>
      </trkpt>
      <trkpt lat="39.524869518354535" lon="-4.335392396897078">
        <ele>1185.2</ele>
        <time>2022-04-14T08:05:08.000Z</time>
      </trkpt>
      <trkpt lat="39.524862226098776" lon="-4.335357611998916">
        <ele>1186</ele>
        <time>2022-04-14T08:05:15.000Z</time>
      </trkpt>
      <trkpt lat="39.52486398629844" lon="-4.335321402177215">
        <ele>1186.2</ele>
        <time>2022-04-14T08:05:18.000Z</time>
      </trkpt>
      <trkpt lat="39.52486373484135" lon="-4.335316875949502">
        <ele>1186.6</ele>
        <time>2022-04-14T08:05:22.000Z</time>
      </trkpt>
      <trkpt lat="39.5248784031719" lon="-4.335322408005595">
        <ele>1186.8</ele>
        <time>2022-04-14T08:05:28.000Z</time>
      </trkpt>
      <trkpt lat="39.524882175028324" lon="-4.33532458730042">
        <ele>1187</ele>
        <time>2022-04-14T08:05:30.000Z</time>
      </trkpt>
      <trkpt lat="39.52488837763667" lon="-4.3353361543267965">
        <ele>1187.2</ele>
        <time>2022-04-14T08:05:32.000Z</time>
      </trkpt>
      <trkpt lat="39.52490162104368" lon="-4.335337998345494">
        <ele>1187.2</ele>
        <time>2022-04-14T08:05:42.000Z</time>
      </trkpt>
      <trkpt lat="39.524900782853365" lon="-4.335328191518784">
        <ele>1187</ele>
        <time>2022-04-14T08:05:48.000Z</time>
      </trkpt>
      <trkpt lat="39.52489960938692" lon="-4.335321066901088">
        <ele>1187</ele>
        <time>2022-04-14T08:05:49.000Z</time>
      </trkpt>
      <trkpt lat="39.5248937420547" lon="-4.335283013060689">
        <ele>1187</ele>
        <time>2022-04-14T08:05:52.000Z</time>
      </trkpt>
      <trkpt lat="39.5248799957335" lon="-4.335251748561859">
        <ele>1187.4</ele>
        <time>2022-04-14T08:05:55.000Z</time>
      </trkpt>
      <trkpt lat="39.52487186528742" lon="-4.335245043039322">
        <ele>1188</ele>
        <time>2022-04-14T08:05:57.000Z</time>
      </trkpt>
      <trkpt lat="39.52486960217357" lon="-4.335249317809939">
        <ele>1188.6</ele>
        <time>2022-04-14T08:06:01.000Z</time>
      </trkpt>
      <trkpt lat="39.52484680339694" lon="-4.3352242559194565">
        <ele>1188.8</ele>
        <time>2022-04-14T08:06:05.000Z</time>
      </trkpt>
      <trkpt lat="39.52483884058893" lon="-4.33520782738924">
        <ele>1189</ele>
        <time>2022-04-14T08:06:07.000Z</time>
      </trkpt>
      <trkpt lat="39.52483590692282" lon="-4.335197601467371">
        <ele>1189.2</ele>
        <time>2022-04-14T08:06:08.000Z</time>
      </trkpt>
      <trkpt lat="39.524806486442685" lon="-4.335139347240329">
        <ele>1190</ele>
        <time>2022-04-14T08:06:13.000Z</time>
      </trkpt>
      <trkpt lat="39.52480372041464" lon="-4.335129875689745">
        <ele>1190.2</ele>
        <time>2022-04-14T08:06:14.000Z</time>
      </trkpt>
      <trkpt lat="39.52480078674853" lon="-4.3351205717772245">
        <ele>1190.6</ele>
        <time>2022-04-14T08:06:15.000Z</time>
      </trkpt>
      <trkpt lat="39.52479785308242" lon="-4.335114369168878">
        <ele>1190.8</ele>
        <time>2022-04-14T08:06:16.000Z</time>
      </trkpt>
      <trkpt lat="39.52480481006205" lon="-4.335100036114454">
        <ele>1191.2</ele>
        <time>2022-04-14T08:06:18.000Z</time>
      </trkpt>
      <trkpt lat="39.52481294050813" lon="-4.3350959289819">
        <ele>1191.4</ele>
        <time>2022-04-14T08:06:19.000Z</time>
      </trkpt>
      <trkpt lat="39.52480925247073" lon="-4.3350872956216335">
        <ele>1191.6</ele>
        <time>2022-04-14T08:06:20.000Z</time>
      </trkpt>
      <trkpt lat="39.52479802072048" lon="-4.335072040557861">
        <ele>1191.8</ele>
        <time>2022-04-14T08:06:22.000Z</time>
      </trkpt>
      <trkpt lat="39.52479793690145" lon="-4.335068520158529">
        <ele>1192</ele>
        <time>2022-04-14T08:06:23.000Z</time>
      </trkpt>
      <trkpt lat="39.5248022954911" lon="-4.335063407197595">
        <ele>1192.2</ele>
        <time>2022-04-14T08:06:25.000Z</time>
      </trkpt>
      <trkpt lat="39.524805983528495" lon="-4.335046811029315">
        <ele>1192.6</ele>
        <time>2022-04-14T08:06:27.000Z</time>
      </trkpt>
      <trkpt lat="39.52480531297624" lon="-4.335038177669048">
        <ele>1192.6</ele>
        <time>2022-04-14T08:06:28.000Z</time>
      </trkpt>
      <trkpt lat="39.52478997409344" lon="-4.334990652278066">
        <ele>1193.4</ele>
        <time>2022-04-14T08:06:35.000Z</time>
      </trkpt>
      <trkpt lat="39.52479072846472" lon="-4.33497472666204">
        <ele>1193.6</ele>
        <time>2022-04-14T08:06:36.000Z</time>
      </trkpt>
      <trkpt lat="39.524812772870064" lon="-4.334961818531156">
        <ele>1193.8</ele>
        <time>2022-04-14T08:06:38.000Z</time>
      </trkpt>
      <trkpt lat="39.52481470070779" lon="-4.334957543760538">
        <ele>1194.4</ele>
        <time>2022-04-14T08:06:40.000Z</time>
      </trkpt>
      <trkpt lat="39.524815706536174" lon="-4.334951927885413">
        <ele>1194.6</ele>
        <time>2022-04-14T08:06:41.000Z</time>
      </trkpt>
      <trkpt lat="39.524816209450364" lon="-4.3349432945251465">
        <ele>1194.8</ele>
        <time>2022-04-14T08:06:42.000Z</time>
      </trkpt>
      <trkpt lat="39.52481059357524" lon="-4.334918819367886">
        <ele>1195</ele>
        <time>2022-04-14T08:06:45.000Z</time>
      </trkpt>
      <trkpt lat="39.52480900101364" lon="-4.334910772740841">
        <ele>1195.2</ele>
        <time>2022-04-14T08:06:46.000Z</time>
      </trkpt>
      <trkpt lat="39.524807324633" lon="-4.334900127723813">
        <ele>1195.4</ele>
        <time>2022-04-14T08:06:47.000Z</time>
      </trkpt>
      <trkpt lat="39.52480196021497" lon="-4.334881938993931">
        <ele>1195.6</ele>
        <time>2022-04-14T08:06:49.000Z</time>
      </trkpt>
      <trkpt lat="39.52479592524469" lon="-4.334871042519808">
        <ele>1195.8</ele>
        <time>2022-04-14T08:06:51.000Z</time>
      </trkpt>
      <trkpt lat="39.524797266349196" lon="-4.334858721122146">
        <ele>1196</ele>
        <time>2022-04-14T08:06:53.000Z</time>
      </trkpt>
      <trkpt lat="39.52479399740696" lon="-4.334839442744851">
        <ele>1196.2</ele>
        <time>2022-04-14T08:06:56.000Z</time>
      </trkpt>
      <trkpt lat="39.524792740121484" lon="-4.334831647574902">
        <ele>1196.4</ele>
        <time>2022-04-14T08:06:57.000Z</time>
      </trkpt>
      <trkpt lat="39.52479097992182" lon="-4.334799041971564">
        <ele>1196.6</ele>
        <time>2022-04-14T08:07:01.000Z</time>
      </trkpt>
      <trkpt lat="39.52479248866439" lon="-4.334781523793936">
        <ele>1196.8</ele>
        <time>2022-04-14T08:07:04.000Z</time>
      </trkpt>
      <trkpt lat="39.52479341067374" lon="-4.3347780872136354">
        <ele>1197</ele>
        <time>2022-04-14T08:07:05.000Z</time>
      </trkpt>
      <trkpt lat="39.524817718192935" lon="-4.3347598146647215">
        <ele>1198</ele>
        <time>2022-04-14T08:07:10.000Z</time>
      </trkpt>
      <trkpt lat="39.52483255416155" lon="-4.334738524630666">
        <ele>1198.4</ele>
        <time>2022-04-14T08:07:13.000Z</time>
      </trkpt>
      <trkpt lat="39.5248229149729" lon="-4.334722012281418">
        <ele>1199.2</ele>
        <time>2022-04-14T08:07:18.000Z</time>
      </trkpt>
      <trkpt lat="39.52482425607741" lon="-4.334724610671401">
        <ele>1199.2</ele>
        <time>2022-04-14T08:07:20.000Z</time>
      </trkpt>
      <trkpt lat="39.52479315921664" lon="-4.334715558215976">
        <ele>1199</ele>
        <time>2022-04-14T08:07:24.000Z</time>
      </trkpt>
      <trkpt lat="39.52479265630245" lon="-4.334715809673071">
        <ele>1199</ele>
        <time>2022-04-14T08:07:25.000Z</time>
      </trkpt>
      <trkpt lat="39.52479265630245" lon="-4.334716061130166">
        <ele>1198.8</ele>
        <time>2022-04-14T08:07:26.000Z</time>
      </trkpt>
      <trkpt lat="39.524792321026325" lon="-4.334716983139515">
        <ele>1198.8</ele>
        <time>2022-04-14T08:07:28.000Z</time>
      </trkpt>
      <trkpt lat="39.524792740121484" lon="-4.334703655913472">
        <ele>1199.4</ele>
        <time>2022-04-14T08:07:36.000Z</time>
      </trkpt>
      <trkpt lat="39.524789806455374" lon="-4.334694016724825">
        <ele>1199.6</ele>
        <time>2022-04-14T08:07:37.000Z</time>
      </trkpt>
      <trkpt lat="39.52478083781898" lon="-4.334662249311805">
        <ele>1200.2</ele>
        <time>2022-04-14T08:07:41.000Z</time>
      </trkpt>
      <trkpt lat="39.52478469349444" lon="-4.334643641486764">
        <ele>1200.6</ele>
        <time>2022-04-14T08:07:43.000Z</time>
      </trkpt>
      <trkpt lat="39.5247885491699" lon="-4.334634421393275">
        <ele>1200.8</ele>
        <time>2022-04-14T08:07:44.000Z</time>
      </trkpt>
      <trkpt lat="39.524796176701784" lon="-4.334622686728835">
        <ele>1201.2</ele>
        <time>2022-04-14T08:07:46.000Z</time>
      </trkpt>
      <trkpt lat="39.52480145730078" lon="-4.334616735577583">
        <ele>1201.4</ele>
        <time>2022-04-14T08:07:47.000Z</time>
      </trkpt>
      <trkpt lat="39.5248041395098" lon="-4.3345751613378525">
        <ele>1202.2</ele>
        <time>2022-04-14T08:07:52.000Z</time>
      </trkpt>
      <trkpt lat="39.524801038205624" lon="-4.334568539634347">
        <ele>1202.4</ele>
        <time>2022-04-14T08:07:53.000Z</time>
      </trkpt>
      <trkpt lat="39.52478871680796" lon="-4.334575915709138">
        <ele>1202.6</ele>
        <time>2022-04-14T08:07:59.000Z</time>
      </trkpt>
      <trkpt lat="39.524774216115475" lon="-4.3345483392477036">
        <ele>1202.6</ele>
        <time>2022-04-14T08:08:07.000Z</time>
      </trkpt>
      <trkpt lat="39.524771282449365" lon="-4.334539202973247">
        <ele>1203</ele>
        <time>2022-04-14T08:08:10.000Z</time>
      </trkpt>
      <trkpt lat="39.52477773651481" lon="-4.334511458873749">
        <ele>1203.2</ele>
        <time>2022-04-14T08:08:14.000Z</time>
      </trkpt>
      <trkpt lat="39.524794751778245" lon="-4.3345000594854355">
        <ele>1203.6</ele>
        <time>2022-04-14T08:08:18.000Z</time>
      </trkpt>
      <trkpt lat="39.524813359603286" lon="-4.3344862293452024">
        <ele>1204</ele>
        <time>2022-04-14T08:08:22.000Z</time>
      </trkpt>
      <trkpt lat="39.52481461688876" lon="-4.3344496842473745">
        <ele>1204.6</ele>
        <time>2022-04-14T08:08:27.000Z</time>
      </trkpt>
      <trkpt lat="39.52480372041464" lon="-4.334407187998295">
        <ele>1205.2</ele>
        <time>2022-04-14T08:08:32.000Z</time>
      </trkpt>
      <trkpt lat="39.52480682171881" lon="-4.334371229633689">
        <ele>1205.8</ele>
        <time>2022-04-14T08:08:36.000Z</time>
      </trkpt>
      <trkpt lat="39.52480279840529" lon="-4.3343424797058105">
        <ele>1206.4</ele>
        <time>2022-04-14T08:08:40.000Z</time>
      </trkpt>
      <trkpt lat="39.52479047700763" lon="-4.334307694807649">
        <ele>1206.8</ele>
        <time>2022-04-14T08:08:43.000Z</time>
      </trkpt>
      <trkpt lat="39.52478184364736" lon="-4.3342782743275166">
        <ele>1207</ele>
        <time>2022-04-14T08:08:46.000Z</time>
      </trkpt>
      <trkpt lat="39.52478276565671" lon="-4.334261091426015">
        <ele>1207.2</ele>
        <time>2022-04-14T08:08:49.000Z</time>
      </trkpt>
      <trkpt lat="39.524783939123154" lon="-4.334227815270424">
        <ele>1207.8</ele>
        <time>2022-04-14T08:08:54.000Z</time>
      </trkpt>
      <trkpt lat="39.5247798319906" lon="-4.334216834977269">
        <ele>1208.2</ele>
        <time>2022-04-14T08:08:56.000Z</time>
      </trkpt>
      <trkpt lat="39.52476751059294" lon="-4.3342076148837805">
        <ele>1208.8</ele>
        <time>2022-04-14T08:09:03.000Z</time>
      </trkpt>
      <trkpt lat="39.524759547784925" lon="-4.334206860512495">
        <ele>1209.2</ele>
        <time>2022-04-14T08:09:05.000Z</time>
      </trkpt>
      <trkpt lat="39.52475929632783" lon="-4.334177020937204">
        <ele>1209.4</ele>
        <time>2022-04-14T08:09:09.000Z</time>
      </trkpt>
      <trkpt lat="39.524748818948865" lon="-4.334150617942214">
        <ele>1209.4</ele>
        <time>2022-04-14T08:09:12.000Z</time>
      </trkpt>
      <trkpt lat="39.52474161051214" lon="-4.334142152220011">
        <ele>1209.6</ele>
        <time>2022-04-14T08:09:15.000Z</time>
      </trkpt>
      <trkpt lat="39.524739598855376" lon="-4.334132680669427">
        <ele>1209.4</ele>
        <time>2022-04-14T08:09:16.000Z</time>
      </trkpt>
      <trkpt lat="39.52474529854953" lon="-4.33412111364305">
        <ele>1208.8</ele>
        <time>2022-04-14T08:09:24.000Z</time>
      </trkpt>
      <trkpt lat="39.524744879454374" lon="-4.334124131128192">
        <ele>1208</ele>
        <time>2022-04-14T08:09:27.000Z</time>
      </trkpt>
      <trkpt lat="39.52474504709244" lon="-4.334132429212332">
        <ele>1207.8</ele>
        <time>2022-04-14T08:09:29.000Z</time>
      </trkpt>
      <trkpt lat="39.524746388196945" lon="-4.334144666790962">
        <ele>1207.2</ele>
        <time>2022-04-14T08:09:31.000Z</time>
      </trkpt>
      <trkpt lat="39.52474420890212" lon="-4.334154473617673">
        <ele>1206.8</ele>
        <time>2022-04-14T08:09:33.000Z</time>
      </trkpt>
      <trkpt lat="39.52474454417825" lon="-4.334155898541212">
        <ele>1205.6</ele>
        <time>2022-04-14T08:09:34.000Z</time>
      </trkpt>
      <trkpt lat="39.52474580146372" lon="-4.334156317636371">
        <ele>1205.6</ele>
        <time>2022-04-14T08:09:35.000Z</time>
      </trkpt>
      <trkpt lat="39.524762062355876" lon="-4.334200657904148">
        <ele>1205.6</ele>
        <time>2022-04-14T08:09:42.000Z</time>
      </trkpt>
      <trkpt lat="39.524767678231" lon="-4.334203926846385">
        <ele>1205.6</ele>
        <time>2022-04-14T08:09:43.000Z</time>
      </trkpt>
      <trkpt lat="39.524785028770566" lon="-4.334182888269424">
        <ele>1205.6</ele>
        <time>2022-04-14T08:09:49.000Z</time>
      </trkpt>
      <trkpt lat="39.52478469349444" lon="-4.334165621548891">
        <ele>1205.6</ele>
        <time>2022-04-14T08:09:50.000Z</time>
      </trkpt>
      <trkpt lat="39.524815790355206" lon="-4.334122957661748">
        <ele>1205.6</ele>
        <time>2022-04-14T08:09:54.000Z</time>
      </trkpt>
      <trkpt lat="39.52482299879193" lon="-4.334113737568259">
        <ele>1205.6</ele>
        <time>2022-04-14T08:09:55.000Z</time>
      </trkpt>
      <trkpt lat="39.52482668682933" lon="-4.334104852750897">
        <ele>1205.6</ele>
        <time>2022-04-14T08:09:56.000Z</time>
      </trkpt>
      <trkpt lat="39.5248297881335" lon="-4.334095045924187">
        <ele>1205.6</ele>
        <time>2022-04-14T08:09:57.000Z</time>
      </trkpt>
      <trkpt lat="39.524839259684086" lon="-4.334080126136541">
        <ele>1205.6</ele>
        <time>2022-04-14T08:09:59.000Z</time>
      </trkpt>
      <trkpt lat="39.5248731225729" lon="-4.334005191922188">
        <ele>1206.4</ele>
        <time>2022-04-14T08:10:05.000Z</time>
      </trkpt>
      <trkpt lat="39.524887036532164" lon="-4.333982225507498">
        <ele>1206.6</ele>
        <time>2022-04-14T08:10:08.000Z</time>
      </trkpt>
      <trkpt lat="39.52490447089076" lon="-4.333967389538884">
        <ele>1206.4</ele>
        <time>2022-04-14T08:10:10.000Z</time>
      </trkpt>
      <trkpt lat="39.52492827549577" lon="-4.333948194980621">
        <ele>1206.2</ele>
        <time>2022-04-14T08:10:13.000Z</time>
      </trkpt>
      <trkpt lat="39.52493380755186" lon="-4.33394324965775">
        <ele>1206.2</ele>
        <time>2022-04-14T08:10:14.000Z</time>
      </trkpt>
      <trkpt lat="39.52494160272181" lon="-4.333938220515847">
        <ele>1206.2</ele>
        <time>2022-04-14T08:10:15.000Z</time>
      </trkpt>
      <trkpt lat="39.52494059689343" lon="-4.333924725651741">
        <ele>1206.6</ele>
        <time>2022-04-14T08:10:18.000Z</time>
      </trkpt>
      <trkpt lat="39.52493028715253" lon="-4.333912571892142">
        <ele>1206.8</ele>
        <time>2022-04-14T08:10:21.000Z</time>
      </trkpt>
      <trkpt lat="39.52490882948041" lon="-4.333898155018687">
        <ele>1206.8</ele>
        <time>2022-04-14T08:10:28.000Z</time>
      </trkpt>
      <trkpt lat="39.524912517517805" lon="-4.333912404254079">
        <ele>1207</ele>
        <time>2022-04-14T08:10:38.000Z</time>
      </trkpt>
      <trkpt lat="39.52492936514318" lon="-4.333922378718853">
        <ele>1206.8</ele>
        <time>2022-04-14T08:10:44.000Z</time>
      </trkpt>
      <trkpt lat="39.52493229880929" lon="-4.333927743136883">
        <ele>1206.8</ele>
        <time>2022-04-14T08:10:45.000Z</time>
      </trkpt>
      <trkpt lat="39.5249405130744" lon="-4.333931179717183">
        <ele>1207</ele>
        <time>2022-04-14T08:10:47.000Z</time>
      </trkpt>
      <trkpt lat="39.52494981698692" lon="-4.333901591598988">
        <ele>1207.2</ele>
        <time>2022-04-14T08:10:52.000Z</time>
      </trkpt>
      <trkpt lat="39.52495325356722" lon="-4.333889773115516">
        <ele>1207.2</ele>
        <time>2022-04-14T08:10:53.000Z</time>
      </trkpt>
      <trkpt lat="39.52498803846538" lon="-4.333847276866436">
        <ele>1207.2</ele>
        <time>2022-04-14T08:10:57.000Z</time>
      </trkpt>
      <trkpt lat="39.525001868605614" lon="-4.333824729546905">
        <ele>1207</ele>
        <time>2022-04-14T08:10:59.000Z</time>
      </trkpt>
      <trkpt lat="39.525065906345844" lon="-4.333802266046405">
        <ele>1206.2</ele>
        <time>2022-04-14T08:11:04.000Z</time>
      </trkpt>
      <trkpt lat="39.525085436180234" lon="-4.333793548867106">
        <ele>1206</ele>
        <time>2022-04-14T08:11:06.000Z</time>
      </trkpt>
      <trkpt lat="39.525093734264374" lon="-4.333794470876455">
        <ele>1205.8</ele>
        <time>2022-04-14T08:11:07.000Z</time>
      </trkpt>
      <trkpt lat="39.5251046307385" lon="-4.3337970692664385">
        <ele>1205.8</ele>
        <time>2022-04-14T08:11:09.000Z</time>
      </trkpt>
      <trkpt lat="39.525104044005275" lon="-4.333817604929209">
        <ele>1205.8</ele>
        <time>2022-04-14T08:11:12.000Z</time>
      </trkpt>
      <trkpt lat="39.52509608119726" lon="-4.333834955468774">
        <ele>1205.8</ele>
        <time>2022-04-14T08:11:14.000Z</time>
      </trkpt>
      <trkpt lat="39.52502416446805" lon="-4.3338647950440645">
        <ele>1206</ele>
        <time>2022-04-14T08:11:21.000Z</time>
      </trkpt>
      <trkpt lat="39.52499767765403" lon="-4.333868147805333">
        <ele>1206.2</ele>
        <time>2022-04-14T08:11:23.000Z</time>
      </trkpt>
      <trkpt lat="39.52497194521129" lon="-4.333866722881794">
        <ele>1206.4</ele>
        <time>2022-04-14T08:11:25.000Z</time>
      </trkpt>
      <trkpt lat="39.524968173354864" lon="-4.333869321271777">
        <ele>1206.6</ele>
        <time>2022-04-14T08:11:26.000Z</time>
      </trkpt>
      <trkpt lat="39.52496096491814" lon="-4.333889102563262">
        <ele>1206.6</ele>
        <time>2022-04-14T08:11:29.000Z</time>
      </trkpt>
      <trkpt lat="39.52493481338024" lon="-4.33389094658196">
        <ele>1206.6</ele>
        <time>2022-04-14T08:11:31.000Z</time>
      </trkpt>
      <trkpt lat="39.5249212346971" lon="-4.333905950188637">
        <ele>1206.6</ele>
        <time>2022-04-14T08:11:33.000Z</time>
      </trkpt>
      <trkpt lat="39.52491243369877" lon="-4.333913577720523">
        <ele>1206.6</ele>
        <time>2022-04-14T08:11:34.000Z</time>
      </trkpt>
      <trkpt lat="39.52490497380495" lon="-4.333933442831039">
        <ele>1206.6</ele>
        <time>2022-04-14T08:11:36.000Z</time>
      </trkpt>
      <trkpt lat="39.5248644053936" lon="-4.333964707329869">
        <ele>1206.6</ele>
        <time>2022-04-14T08:11:42.000Z</time>
      </trkpt>
      <trkpt lat="39.52484596520662" lon="-4.3340028449893">
        <ele>1207</ele>
        <time>2022-04-14T08:11:47.000Z</time>
      </trkpt>
      <trkpt lat="39.524839259684086" lon="-4.33400871232152">
        <ele>1207</ele>
        <time>2022-04-14T08:11:48.000Z</time>
      </trkpt>
      <trkpt lat="39.524794751778245" lon="-4.334115078672767">
        <ele>1207</ele>
        <time>2022-04-14T08:11:56.000Z</time>
      </trkpt>
      <trkpt lat="39.524776143953204" lon="-4.334145085886121">
        <ele>1206.8</ele>
        <time>2022-04-14T08:11:59.000Z</time>
      </trkpt>
      <trkpt lat="39.524756614118814" lon="-4.334187749773264">
        <ele>1206.8</ele>
        <time>2022-04-14T08:12:02.000Z</time>
      </trkpt>
      <trkpt lat="39.524692157283425" lon="-4.334271484985948">
        <ele>1207.2</ele>
        <time>2022-04-14T08:12:10.000Z</time>
      </trkpt>
      <trkpt lat="39.52468411065638" lon="-4.334278693422675">
        <ele>1207.4</ele>
        <time>2022-04-14T08:12:11.000Z</time>
      </trkpt>
      <trkpt lat="39.524639351293445" lon="-4.334340216591954">
        <ele>1207.2</ele>
        <time>2022-04-14T08:12:17.000Z</time>
      </trkpt>
      <trkpt lat="39.52463482506573" lon="-4.334349688142538">
        <ele>1207.2</ele>
        <time>2022-04-14T08:12:18.000Z</time>
      </trkpt>
      <trkpt lat="39.52462828718126" lon="-4.334358824416995">
        <ele>1207.2</ele>
        <time>2022-04-14T08:12:19.000Z</time>
      </trkpt>
      <trkpt lat="39.52458746731281" lon="-4.334393190219998">
        <ele>1207.4</ele>
        <time>2022-04-14T08:12:24.000Z</time>
      </trkpt>
      <trkpt lat="39.52458000741899" lon="-4.334401907399297">
        <ele>1207.4</ele>
        <time>2022-04-14T08:12:25.000Z</time>
      </trkpt>
      <trkpt lat="39.52457061968744" lon="-4.334428897127509">
        <ele>1207.8</ele>
        <time>2022-04-14T08:12:28.000Z</time>
      </trkpt>
      <trkpt lat="39.52454631216824" lon="-4.334460664540529">
        <ele>1207.8</ele>
        <time>2022-04-14T08:12:32.000Z</time>
      </trkpt>
      <trkpt lat="39.524509850889444" lon="-4.334485558792949">
        <ele>1208</ele>
        <time>2022-04-14T08:12:36.000Z</time>
      </trkpt>
      <trkpt lat="39.52448923140764" lon="-4.334492515772581">
        <ele>1208.2</ele>
        <time>2022-04-14T08:12:40.000Z</time>
      </trkpt>
      <trkpt lat="39.52449291944504" lon="-4.334486396983266">
        <ele>1208.4</ele>
        <time>2022-04-14T08:12:42.000Z</time>
      </trkpt>
      <trkpt lat="39.52448629774153" lon="-4.334491761401296">
        <ele>1208.4</ele>
        <time>2022-04-14T08:12:47.000Z</time>
      </trkpt>
      <trkpt lat="39.524469785392284" lon="-4.334501316770911">
        <ele>1209</ele>
        <time>2022-04-14T08:12:52.000Z</time>
      </trkpt>
      <trkpt lat="39.524452770128846" lon="-4.334518667310476">
        <ele>1210</ele>
        <time>2022-04-14T08:12:56.000Z</time>
      </trkpt>
      <trkpt lat="39.52444824390113" lon="-4.334518499672413">
        <ele>1211</ele>
        <time>2022-04-14T08:12:59.000Z</time>
      </trkpt>
      <trkpt lat="39.52443248592317" lon="-4.334503328427672">
        <ele>1212</ele>
        <time>2022-04-14T08:13:04.000Z</time>
      </trkpt>
      <trkpt lat="39.524424439296126" lon="-4.334501149132848">
        <ele>1212.2</ele>
        <time>2022-04-14T08:13:05.000Z</time>
      </trkpt>
      <trkpt lat="39.5244085136801" lon="-4.334506597369909">
        <ele>1213.4</ele>
        <time>2022-04-14T08:13:09.000Z</time>
      </trkpt>
      <trkpt lat="39.52439091168344" lon="-4.334507351741195">
        <ele>1213.8</ele>
        <time>2022-04-14T08:13:13.000Z</time>
      </trkpt>
      <trkpt lat="39.524380434304476" lon="-4.334506681188941">
        <ele>1213.8</ele>
        <time>2022-04-14T08:13:15.000Z</time>
      </trkpt>
      <trkpt lat="39.524385714903474" lon="-4.33451103977859">
        <ele>1213.6</ele>
        <time>2022-04-14T08:13:23.000Z</time>
      </trkpt>
      <trkpt lat="39.52439535409212" lon="-4.334510872140527">
        <ele>1213.6</ele>
        <time>2022-04-14T08:13:26.000Z</time>
      </trkpt>
      <trkpt lat="39.52439719811082" lon="-4.334511877968907">
        <ele>1213.6</ele>
        <time>2022-04-14T08:13:28.000Z</time>
      </trkpt>
      <trkpt lat="39.52438596636057" lon="-4.334515230730176">
        <ele>1213.6</ele>
        <time>2022-04-14T08:13:32.000Z</time>
      </trkpt>
      <trkpt lat="39.52437716536224" lon="-4.334513638168573">
        <ele>1214</ele>
        <time>2022-04-14T08:13:35.000Z</time>
      </trkpt>
      <trkpt lat="39.524377919733524" lon="-4.334512548521161">
        <ele>1214</ele>
        <time>2022-04-14T08:13:41.000Z</time>
      </trkpt>
      <trkpt lat="39.52438881620765" lon="-4.33453006669879">
        <ele>1214.4</ele>
        <time>2022-04-14T08:13:47.000Z</time>
      </trkpt>
      <trkpt lat="39.524390157312155" lon="-4.334532245993614">
        <ele>1214.6</ele>
        <time>2022-04-14T08:13:50.000Z</time>
      </trkpt>
      <trkpt lat="39.52438487671316" lon="-4.334531323984265">
        <ele>1214.8</ele>
        <time>2022-04-14T08:13:57.000Z</time>
      </trkpt>
      <trkpt lat="39.52438646927476" lon="-4.3345189187675714">
        <ele>1214.4</ele>
        <time>2022-04-14T08:14:02.000Z</time>
      </trkpt>
      <trkpt lat="39.52438613399863" lon="-4.334517577663064">
        <ele>1214.2</ele>
        <time>2022-04-14T08:14:06.000Z</time>
      </trkpt>
      <trkpt lat="39.52438244596124" lon="-4.334516823291779">
        <ele>1214.2</ele>
        <time>2022-04-14T08:14:08.000Z</time>
      </trkpt>
      <trkpt lat="39.52438202686608" lon="-4.334516320377588">
        <ele>1214.2</ele>
        <time>2022-04-14T08:14:10.000Z</time>
      </trkpt>
      <trkpt lat="39.52438487671316" lon="-4.334514141082764">
        <ele>1214</ele>
        <time>2022-04-14T08:14:13.000Z</time>
      </trkpt>
      <trkpt lat="39.52439141459763" lon="-4.334513386711478">
        <ele>1214</ele>
        <time>2022-04-14T08:14:21.000Z</time>
      </trkpt>
      <trkpt lat="39.52434263192117" lon="-4.334492599591613">
        <ele>1214.2</ele>
        <time>2022-04-14T08:14:28.000Z</time>
      </trkpt>
      <trkpt lat="39.52433651313186" lon="-4.334487486630678">
        <ele>1214.4</ele>
        <time>2022-04-14T08:14:30.000Z</time>
      </trkpt>
      <trkpt lat="39.524342715740204" lon="-4.33448270894587">
        <ele>1215.2</ele>
        <time>2022-04-14T08:14:34.000Z</time>
      </trkpt>
      <trkpt lat="39.52434070408344" lon="-4.334475249052048">
        <ele>1215.4</ele>
        <time>2022-04-14T08:14:36.000Z</time>
      </trkpt>
      <trkpt lat="39.5243376865983" lon="-4.334462927654386">
        <ele>1215.8</ele>
        <time>2022-04-14T08:14:38.000Z</time>
      </trkpt>
      <trkpt lat="39.52435922808945" lon="-4.334539957344532">
        <ele>1216</ele>
        <time>2022-04-14T08:14:46.000Z</time>
      </trkpt>
      <trkpt lat="39.52437171712518" lon="-4.334548087790608">
        <ele>1216</ele>
        <time>2022-04-14T08:14:49.000Z</time>
      </trkpt>
      <trkpt lat="39.52438361942768" lon="-4.334555380046368">
        <ele>1216</ele>
        <time>2022-04-14T08:14:55.000Z</time>
      </trkpt>
      <trkpt lat="39.52440155670047" lon="-4.334532665088773">
        <ele>1216.2</ele>
        <time>2022-04-14T08:14:57.000Z</time>
      </trkpt>
      <trkpt lat="39.524404322728515" lon="-4.334518248215318">
        <ele>1216.4</ele>
        <time>2022-04-14T08:14:58.000Z</time>
      </trkpt>
      <trkpt lat="39.52441144734621" lon="-4.334505423903465">
        <ele>1216.4</ele>
        <time>2022-04-14T08:14:59.000Z</time>
      </trkpt>
      <trkpt lat="39.524416560307145" lon="-4.334477176889777">
        <ele>1216.4</ele>
        <time>2022-04-14T08:15:01.000Z</time>
      </trkpt>
      <trkpt lat="39.52441295608878" lon="-4.334448594599962">
        <ele>1216.8</ele>
        <time>2022-04-14T08:15:03.000Z</time>
      </trkpt>
      <trkpt lat="39.52440608292818" lon="-4.3344267178326845">
        <ele>1216.8</ele>
        <time>2022-04-14T08:15:04.000Z</time>
      </trkpt>
      <trkpt lat="39.524400383234024" lon="-4.334410289302468">
        <ele>1217</ele>
        <time>2022-04-14T08:15:05.000Z</time>
      </trkpt>
      <trkpt lat="39.52439677901566" lon="-4.334390172734857">
        <ele>1217.2</ele>
        <time>2022-04-14T08:15:06.000Z</time>
      </trkpt>
      <trkpt lat="39.52439351007342" lon="-4.334372486919165">
        <ele>1217.4</ele>
        <time>2022-04-14T08:15:07.000Z</time>
      </trkpt>
      <trkpt lat="39.524386217817664" lon="-4.334357734769583">
        <ele>1217.6</ele>
        <time>2022-04-14T08:15:08.000Z</time>
      </trkpt>
      <trkpt lat="39.52438269741833" lon="-4.334334433078766">
        <ele>1218.4</ele>
        <time>2022-04-14T08:15:10.000Z</time>
      </trkpt>
      <trkpt lat="39.52438294887543" lon="-4.334324793890119">
        <ele>1218.8</ele>
        <time>2022-04-14T08:15:11.000Z</time>
      </trkpt>
      <trkpt lat="39.52438839711249" lon="-4.334316328167915">
        <ele>1219.4</ele>
        <time>2022-04-14T08:15:12.000Z</time>
      </trkpt>
      <trkpt lat="39.524394012987614" lon="-4.334305850788951">
        <ele>1219.8</ele>
        <time>2022-04-14T08:15:13.000Z</time>
      </trkpt>
      <trkpt lat="39.52438856475055" lon="-4.334285231307149">
        <ele>1220.8</ele>
        <time>2022-04-14T08:15:15.000Z</time>
      </trkpt>
      <trkpt lat="39.524387307465076" lon="-4.33425891213119">
        <ele>1222</ele>
        <time>2022-04-14T08:15:18.000Z</time>
      </trkpt>
      <trkpt lat="39.52438470907509" lon="-4.334250446408987">
        <ele>1222.4</ele>
        <time>2022-04-14T08:15:19.000Z</time>
      </trkpt>
      <trkpt lat="39.524382362142205" lon="-4.33424181304872">
        <ele>1222.6</ele>
        <time>2022-04-14T08:15:20.000Z</time>
      </trkpt>
      <trkpt lat="39.524363838136196" lon="-4.33421247638762">
        <ele>1223.2</ele>
        <time>2022-04-14T08:15:24.000Z</time>
      </trkpt>
      <trkpt lat="39.52436601743102" lon="-4.3341990653425455">
        <ele>1223.6</ele>
        <time>2022-04-14T08:15:26.000Z</time>
      </trkpt>
      <trkpt lat="39.524367190897465" lon="-4.334195461124182">
        <ele>1223.8</ele>
        <time>2022-04-14T08:15:27.000Z</time>
      </trkpt>
      <trkpt lat="39.52436987310648" lon="-4.334174674004316">
        <ele>1224.4</ele>
        <time>2022-04-14T08:15:30.000Z</time>
      </trkpt>
      <trkpt lat="39.524371549487114" lon="-4.334150031208992">
        <ele>1225</ele>
        <time>2022-04-14T08:15:33.000Z</time>
      </trkpt>
      <trkpt lat="39.524375572800636" lon="-4.33413184247911">
        <ele>1225.6</ele>
        <time>2022-04-14T08:15:34.000Z</time>
      </trkpt>
      <trkpt lat="39.52438068576157" lon="-4.334116168320179">
        <ele>1226</ele>
        <time>2022-04-14T08:15:37.000Z</time>
      </trkpt>
      <trkpt lat="39.52438839711249" lon="-4.334101835265756">
        <ele>1226.4</ele>
        <time>2022-04-14T08:15:39.000Z</time>
      </trkpt>
      <trkpt lat="39.52438781037927" lon="-4.334097057580948">
        <ele>1226.6</ele>
        <time>2022-04-14T08:15:40.000Z</time>
      </trkpt>
      <trkpt lat="39.52439242042601" lon="-4.334088256582618">
        <ele>1226.8</ele>
        <time>2022-04-14T08:15:42.000Z</time>
      </trkpt>
      <trkpt lat="39.52438747510314" lon="-4.33403461240232">
        <ele>1227.6</ele>
        <time>2022-04-14T08:15:47.000Z</time>
      </trkpt>
      <trkpt lat="39.52437867410481" lon="-4.334010556340218">
        <ele>1228</ele>
        <time>2022-04-14T08:15:50.000Z</time>
      </trkpt>
      <trkpt lat="39.52437875792384" lon="-4.333973927423358">
        <ele>1228.6</ele>
        <time>2022-04-14T08:15:54.000Z</time>
      </trkpt>
      <trkpt lat="39.52437716536224" lon="-4.333942076191306">
        <ele>1229.4</ele>
        <time>2022-04-14T08:15:57.000Z</time>
      </trkpt>
      <trkpt lat="39.52437364496291" lon="-4.333926485851407">
        <ele>1229.8</ele>
        <time>2022-04-14T08:15:59.000Z</time>
      </trkpt>
      <trkpt lat="39.52437465079129" lon="-4.3339072074741125">
        <ele>1230</ele>
        <time>2022-04-14T08:16:01.000Z</time>
      </trkpt>
      <trkpt lat="39.52437238767743" lon="-4.333894634619355">
        <ele>1230.4</ele>
        <time>2022-04-14T08:16:02.000Z</time>
      </trkpt>
      <trkpt lat="39.52436752617359" lon="-4.333873428404331">
        <ele>1231</ele>
        <time>2022-04-14T08:16:04.000Z</time>
      </trkpt>
      <trkpt lat="39.52435914427042" lon="-4.333853982388973">
        <ele>1231.6</ele>
        <time>2022-04-14T08:16:06.000Z</time>
      </trkpt>
      <trkpt lat="39.52435386367142" lon="-4.333834955468774">
        <ele>1231.8</ele>
        <time>2022-04-14T08:16:08.000Z</time>
      </trkpt>
      <trkpt lat="39.52434774488211" lon="-4.333824310451746">
        <ele>1232</ele>
        <time>2022-04-14T08:16:09.000Z</time>
      </trkpt>
      <trkpt lat="39.52434355393052" lon="-4.333811234682798">
        <ele>1232.4</ele>
        <time>2022-04-14T08:16:12.000Z</time>
      </trkpt>
      <trkpt lat="39.52434020116925" lon="-4.333812324330211">
        <ele>1232.4</ele>
        <time>2022-04-14T08:16:14.000Z</time>
      </trkpt>
      <trkpt lat="39.5243411231786" lon="-4.333821041509509">
        <ele>1232.4</ele>
        <time>2022-04-14T08:16:17.000Z</time>
      </trkpt>
      <trkpt lat="39.524341290816665" lon="-4.333825316280127">
        <ele>1232</ele>
        <time>2022-04-14T08:16:22.000Z</time>
      </trkpt>
      <trkpt lat="39.524340787902474" lon="-4.333835458382964">
        <ele>1232</ele>
        <time>2022-04-14T08:16:24.000Z</time>
      </trkpt>
      <trkpt lat="39.52434238046408" lon="-4.333837302401662">
        <ele>1231.6</ele>
        <time>2022-04-14T08:16:28.000Z</time>
      </trkpt>
      <trkpt lat="39.52434305101633" lon="-4.333837302401662">
        <ele>1231.6</ele>
        <time>2022-04-14T08:16:30.000Z</time>
      </trkpt>
      <trkpt lat="39.524342799559236" lon="-4.33383671566844">
        <ele>1231.2</ele>
        <time>2022-04-14T08:16:34.000Z</time>
      </trkpt>
      <trkpt lat="39.52434363774955" lon="-4.333835877478123">
        <ele>1231.2</ele>
        <time>2022-04-14T08:16:35.000Z</time>
      </trkpt>
      <trkpt lat="39.524341290816665" lon="-4.333837302401662">
        <ele>1231.2</ele>
        <time>2022-04-14T08:16:37.000Z</time>
      </trkpt>
      <trkpt lat="39.5243360940367" lon="-4.333841744810343">
        <ele>1231</ele>
        <time>2022-04-14T08:16:40.000Z</time>
      </trkpt>
      <trkpt lat="39.52433508820832" lon="-4.333840319886804">
        <ele>1230.8</ele>
        <time>2022-04-14T08:16:41.000Z</time>
      </trkpt>
      <trkpt lat="39.524336429312825" lon="-4.333841660991311">
        <ele>1230.6</ele>
        <time>2022-04-14T08:16:42.000Z</time>
      </trkpt>
      <trkpt lat="39.5243411231786" lon="-4.333845684304833">
        <ele>1230.4</ele>
        <time>2022-04-14T08:16:44.000Z</time>
      </trkpt>
      <trkpt lat="39.52434464357793" lon="-4.333851048722863">
        <ele>1230.4</ele>
        <time>2022-04-14T08:16:45.000Z</time>
      </trkpt>
      <trkpt lat="39.52436593361199" lon="-4.3338521383702755">
        <ele>1231.2</ele>
        <time>2022-04-14T08:16:55.000Z</time>
      </trkpt>
      <trkpt lat="39.52436928637326" lon="-4.3338508810848">
        <ele>1231.6</ele>
        <time>2022-04-14T08:16:57.000Z</time>
      </trkpt>
      <trkpt lat="39.524370627477765" lon="-4.333850797265768">
        <ele>1231.6</ele>
        <time>2022-04-14T08:16:58.000Z</time>
      </trkpt>
      <trkpt lat="39.52437054365873" lon="-4.333853060379624">
        <ele>1232</ele>
        <time>2022-04-14T08:17:00.000Z</time>
      </trkpt>
      <trkpt lat="39.524377500638366" lon="-4.33385917916894">
        <ele>1233</ele>
        <time>2022-04-14T08:17:05.000Z</time>
      </trkpt>
      <trkpt lat="39.52437775209546" lon="-4.333858173340559">
        <ele>1233.2</ele>
        <time>2022-04-14T08:17:06.000Z</time>
      </trkpt>
      <trkpt lat="39.5243860501796" lon="-4.333855407312512">
        <ele>1233</ele>
        <time>2022-04-14T08:17:12.000Z</time>
      </trkpt>
      <trkpt lat="39.524383870884776" lon="-4.3338533118367195">
        <ele>1232.8</ele>
        <time>2022-04-14T08:17:14.000Z</time>
      </trkpt>
      <trkpt lat="39.52438194304705" lon="-4.333850461989641">
        <ele>1233</ele>
        <time>2022-04-14T08:17:16.000Z</time>
      </trkpt>
      <trkpt lat="39.52438998967409" lon="-4.333833446726203">
        <ele>1233.8</ele>
        <time>2022-04-14T08:17:22.000Z</time>
      </trkpt>
      <trkpt lat="39.52440113760531" lon="-4.333803104236722">
        <ele>1233.6</ele>
        <time>2022-04-14T08:17:29.000Z</time>
      </trkpt>
      <trkpt lat="39.52442360110581" lon="-4.33377712033689">
        <ele>1233.4</ele>
        <time>2022-04-14T08:17:33.000Z</time>
      </trkpt>
      <trkpt lat="39.524431144818664" lon="-4.333751974627376">
        <ele>1233</ele>
        <time>2022-04-14T08:17:36.000Z</time>
      </trkpt>
      <trkpt lat="39.52443650923669" lon="-4.3337431736290455">
        <ele>1232.4</ele>
        <time>2022-04-14T08:17:37.000Z</time>
      </trkpt>
      <trkpt lat="39.52444070018828" lon="-4.333735462278128">
        <ele>1232.2</ele>
        <time>2022-04-14T08:17:38.000Z</time>
      </trkpt>
      <trkpt lat="39.5244534406811" lon="-4.333716770634055">
        <ele>1232</ele>
        <time>2022-04-14T08:17:40.000Z</time>
      </trkpt>
      <trkpt lat="39.524468779563904" lon="-4.333699168637395">
        <ele>1232</ele>
        <time>2022-04-14T08:17:42.000Z</time>
      </trkpt>
      <trkpt lat="39.52448369935155" lon="-4.33368282392621">
        <ele>1231.6</ele>
        <time>2022-04-14T08:17:44.000Z</time>
      </trkpt>
      <trkpt lat="39.52449141070247" lon="-4.333674525842071">
        <ele>1231.4</ele>
        <time>2022-04-14T08:17:45.000Z</time>
      </trkpt>
      <trkpt lat="39.524499624967575" lon="-4.333664299920201">
        <ele>1231.2</ele>
        <time>2022-04-14T08:17:46.000Z</time>
      </trkpt>
      <trkpt lat="39.524508845061064" lon="-4.333652229979634">
        <ele>1231</ele>
        <time>2022-04-14T08:17:47.000Z</time>
      </trkpt>
      <trkpt lat="39.52451856806874" lon="-4.333642506971955">
        <ele>1230.8</ele>
        <time>2022-04-14T08:17:48.000Z</time>
      </trkpt>
      <trkpt lat="39.5245261117816" lon="-4.333633789792657">
        <ele>1230.8</ele>
        <time>2022-04-14T08:17:49.000Z</time>
      </trkpt>
      <trkpt lat="39.52460146509111" lon="-4.333569500595331">
        <ele>1230</ele>
        <time>2022-04-14T08:17:57.000Z</time>
      </trkpt>
      <trkpt lat="39.52460926026106" lon="-4.333557682111859">
        <ele>1230</ele>
        <time>2022-04-14T08:17:58.000Z</time>
      </trkpt>
      <trkpt lat="39.52464538626373" lon="-4.333488531410694">
        <ele>1229.2</ele>
        <time>2022-04-14T08:18:04.000Z</time>
      </trkpt>
      <trkpt lat="39.52464823611081" lon="-4.333478137850761">
        <ele>1229</ele>
        <time>2022-04-14T08:18:05.000Z</time>
      </trkpt>
      <trkpt lat="39.524658378213644" lon="-4.333458775654435">
        <ele>1229.2</ele>
        <time>2022-04-14T08:18:07.000Z</time>
      </trkpt>
      <trkpt lat="39.52467673458159" lon="-4.333442933857441">
        <ele>1229.2</ele>
        <time>2022-04-14T08:18:09.000Z</time>
      </trkpt>
      <trkpt lat="39.524686289951205" lon="-4.3334348034113646">
        <ele>1229.4</ele>
        <time>2022-04-14T08:18:10.000Z</time>
      </trkpt>
      <trkpt lat="39.52470565214753" lon="-4.333418877795339">
        <ele>1229.6</ele>
        <time>2022-04-14T08:18:12.000Z</time>
      </trkpt>
      <trkpt lat="39.52475460246205" lon="-4.333352576941252">
        <ele>1229</ele>
        <time>2022-04-14T08:18:18.000Z</time>
      </trkpt>
      <trkpt lat="39.52476063743234" lon="-4.33334025554359">
        <ele>1229</ele>
        <time>2022-04-14T08:18:19.000Z</time>
      </trkpt>
      <trkpt lat="39.52479651197791" lon="-4.333279989659786">
        <ele>1229</ele>
        <time>2022-04-14T08:18:24.000Z</time>
      </trkpt>
      <trkpt lat="39.52480564825237" lon="-4.333263393491507">
        <ele>1229</ele>
        <time>2022-04-14T08:18:26.000Z</time>
      </trkpt>
      <trkpt lat="39.52484420500696" lon="-4.33323179371655">
        <ele>1229.2</ele>
        <time>2022-04-14T08:18:30.000Z</time>
      </trkpt>
      <trkpt lat="39.52486532740295" lon="-4.333216622471809">
        <ele>1228.8</ele>
        <time>2022-04-14T08:18:32.000Z</time>
      </trkpt>
      <trkpt lat="39.524882677942514" lon="-4.333196338266134">
        <ele>1228.4</ele>
        <time>2022-04-14T08:18:34.000Z</time>
      </trkpt>
      <trkpt lat="39.52493531629443" lon="-4.3331462983042">
        <ele>1227.8</ele>
        <time>2022-04-14T08:18:39.000Z</time>
      </trkpt>
      <trkpt lat="39.52497420832515" lon="-4.333114363253117">
        <ele>1227.2</ele>
        <time>2022-04-14T08:18:42.000Z</time>
      </trkpt>
      <trkpt lat="39.5249939057976" lon="-4.333094917237759">
        <ele>1226.6</ele>
        <time>2022-04-14T08:18:44.000Z</time>
      </trkpt>
      <trkpt lat="39.525025840848684" lon="-4.333065748214722">
        <ele>1226</ele>
        <time>2022-04-14T08:18:49.000Z</time>
      </trkpt>
      <trkpt lat="39.52503992244601" lon="-4.333049152046442">
        <ele>1225.8</ele>
        <time>2022-04-14T08:18:51.000Z</time>
      </trkpt>
      <trkpt lat="39.52504620887339" lon="-4.333038255572319">
        <ele>1225.8</ele>
        <time>2022-04-14T08:18:52.000Z</time>
      </trkpt>
      <trkpt lat="39.525063056498766" lon="-4.333012271672487">
        <ele>1225.6</ele>
        <time>2022-04-14T08:18:55.000Z</time>
      </trkpt>
      <trkpt lat="39.52507051639259" lon="-4.333003051578999">
        <ele>1225.4</ele>
        <time>2022-04-14T08:18:56.000Z</time>
      </trkpt>
      <trkpt lat="39.52509842813015" lon="-4.332980755716562">
        <ele>1225</ele>
        <time>2022-04-14T08:18:59.000Z</time>
      </trkpt>
      <trkpt lat="39.52511753886938" lon="-4.332969943061471">
        <ele>1224.8</ele>
        <time>2022-04-14T08:19:01.000Z</time>
      </trkpt>
      <trkpt lat="39.52512726187706" lon="-4.332965835928917">
        <ele>1224.8</ele>
        <time>2022-04-14T08:19:02.000Z</time>
      </trkpt>
      <trkpt lat="39.52515400014818" lon="-4.332933649420738">
        <ele>1224.6</ele>
        <time>2022-04-14T08:19:05.000Z</time>
      </trkpt>
      <trkpt lat="39.52520655468106" lon="-4.332896433770657">
        <ele>1224.8</ele>
        <time>2022-04-14T08:19:12.000Z</time>
      </trkpt>
      <trkpt lat="39.52521946281195" lon="-4.332893332466483">
        <ele>1224.8</ele>
        <time>2022-04-14T08:19:18.000Z</time>
      </trkpt>
      <trkpt lat="39.5252235699445" lon="-4.332886375486851">
        <ele>1224.8</ele>
        <time>2022-04-14T08:19:20.000Z</time>
      </trkpt>
      <trkpt lat="39.52522407285869" lon="-4.332883944734931">
        <ele>1224.8</ele>
        <time>2022-04-14T08:19:21.000Z</time>
      </trkpt>
      <trkpt lat="39.52522164210677" lon="-4.332889057695866">
        <ele>1225</ele>
        <time>2022-04-14T08:19:25.000Z</time>
      </trkpt>
      <trkpt lat="39.52521611005068" lon="-4.3329076655209064">
        <ele>1225.2</ele>
        <time>2022-04-14T08:19:29.000Z</time>
      </trkpt>
      <trkpt lat="39.525244273245335" lon="-4.3328941706568">
        <ele>1226.4</ele>
        <time>2022-04-14T08:19:38.000Z</time>
      </trkpt>
      <trkpt lat="39.5252650603652" lon="-4.332861984148622">
        <ele>1226.4</ele>
        <time>2022-04-14T08:19:41.000Z</time>
      </trkpt>
      <trkpt lat="39.52530965209007" lon="-4.332804651930928">
        <ele>1225.6</ele>
        <time>2022-04-14T08:19:46.000Z</time>
      </trkpt>
      <trkpt lat="39.52534661628306" lon="-4.332745727151632">
        <ele>1225.2</ele>
        <time>2022-04-14T08:19:51.000Z</time>
      </trkpt>
      <trkpt lat="39.5253617875278" lon="-4.332728125154972">
        <ele>1225.2</ele>
        <time>2022-04-14T08:19:53.000Z</time>
      </trkpt>
      <trkpt lat="39.52541325241327" lon="-4.33272460475564">
        <ele>1224.6</ele>
        <time>2022-04-14T08:19:57.000Z</time>
      </trkpt>
      <trkpt lat="39.52543940395117" lon="-4.332714211195707">
        <ele>1223.8</ele>
        <time>2022-04-14T08:20:00.000Z</time>
      </trkpt>
      <trkpt lat="39.52544845640659" lon="-4.332711612805724">
        <ele>1223.4</ele>
        <time>2022-04-14T08:20:01.000Z</time>
      </trkpt>
      <trkpt lat="39.52548583969474" lon="-4.332679761573672">
        <ele>1222.6</ele>
        <time>2022-04-14T08:20:04.000Z</time>
      </trkpt>
      <trkpt lat="39.525495395064354" lon="-4.332673558965325">
        <ele>1222</ele>
        <time>2022-04-14T08:20:05.000Z</time>
      </trkpt>
      <trkpt lat="39.52550511807203" lon="-4.332667859271169">
        <ele>1221.8</ele>
        <time>2022-04-14T08:20:06.000Z</time>
      </trkpt>
      <trkpt lat="39.52553386799991" lon="-4.332646150141954">
        <ele>1221</ele>
        <time>2022-04-14T08:20:10.000Z</time>
      </trkpt>
      <trkpt lat="39.52553479000926" lon="-4.332642629742622">
        <ele>1221</ele>
        <time>2022-04-14T08:20:11.000Z</time>
      </trkpt>
      <trkpt lat="39.52553822658956" lon="-4.332631062716246">
        <ele>1221</ele>
        <time>2022-04-14T08:20:12.000Z</time>
      </trkpt>
      <trkpt lat="39.52554166316986" lon="-4.332602731883526">
        <ele>1221</ele>
        <time>2022-04-14T08:20:14.000Z</time>
      </trkpt>
      <trkpt lat="39.52557963319123" lon="-4.332558894529939">
        <ele>1221.2</ele>
        <time>2022-04-14T08:20:18.000Z</time>
      </trkpt>
      <trkpt lat="39.525632774457335" lon="-4.3324753269553185">
        <ele>1222</ele>
        <time>2022-04-14T08:20:25.000Z</time>
      </trkpt>
      <trkpt lat="39.52563679777086" lon="-4.332462251186371">
        <ele>1222.2</ele>
        <time>2022-04-14T08:20:26.000Z</time>
      </trkpt>
      <trkpt lat="39.5256379712373" lon="-4.332448588684201">
        <ele>1222.2</ele>
        <time>2022-04-14T08:20:27.000Z</time>
      </trkpt>
      <trkpt lat="39.52564241364598" lon="-4.3324352614581585">
        <ele>1222.4</ele>
        <time>2022-04-14T08:20:29.000Z</time>
      </trkpt>
      <trkpt lat="39.525650795549154" lon="-4.3324284721165895">
        <ele>1222.8</ele>
        <time>2022-04-14T08:20:32.000Z</time>
      </trkpt>
      <trkpt lat="39.52565414831042" lon="-4.332424784079194">
        <ele>1223</ele>
        <time>2022-04-14T08:20:35.000Z</time>
      </trkpt>
      <trkpt lat="39.52566118910909" lon="-4.332432663068175">
        <ele>1223</ele>
        <time>2022-04-14T08:20:37.000Z</time>
      </trkpt>
      <trkpt lat="39.52567208558321" lon="-4.332422353327274">
        <ele>1223</ele>
        <time>2022-04-14T08:20:40.000Z</time>
      </trkpt>
      <trkpt lat="39.52567879110575" lon="-4.332412714138627">
        <ele>1223</ele>
        <time>2022-04-14T08:20:42.000Z</time>
      </trkpt>
      <trkpt lat="39.52567929401994" lon="-4.33240651153028">
        <ele>1223</ele>
        <time>2022-04-14T08:20:44.000Z</time>
      </trkpt>
      <trkpt lat="39.525668397545815" lon="-4.332399051636457">
        <ele>1223</ele>
        <time>2022-04-14T08:20:47.000Z</time>
      </trkpt>
      <trkpt lat="39.52566680498421" lon="-4.332397961989045">
        <ele>1223</ele>
        <time>2022-04-14T08:20:49.000Z</time>
      </trkpt>
      <trkpt lat="39.525672756135464" lon="-4.332406427711248">
        <ele>1223</ele>
        <time>2022-04-14T08:20:50.000Z</time>
      </trkpt>
      <trkpt lat="39.52569077722728" lon="-4.3324164021760225">
        <ele>1222.6</ele>
        <time>2022-04-14T08:20:53.000Z</time>
      </trkpt>
      <trkpt lat="39.52569890767336" lon="-4.332425119355321">
        <ele>1222.4</ele>
        <time>2022-04-14T08:20:55.000Z</time>
      </trkpt>
      <trkpt lat="39.52569471672177" lon="-4.332427969202399">
        <ele>1222.4</ele>
        <time>2022-04-14T08:20:57.000Z</time>
      </trkpt>
      <trkpt lat="39.525679629296064" lon="-4.332491001114249">
        <ele>1222.2</ele>
        <time>2022-04-14T08:21:04.000Z</time>
      </trkpt>
      <trkpt lat="39.52567585743964" lon="-4.332502735778689">
        <ele>1222</ele>
        <time>2022-04-14T08:21:05.000Z</time>
      </trkpt>
      <trkpt lat="39.52563830651343" lon="-4.3325230199843645">
        <ele>1221.2</ele>
        <time>2022-04-14T08:21:09.000Z</time>
      </trkpt>
      <trkpt lat="39.52563042752445" lon="-4.332516146823764">
        <ele>1221</ele>
        <time>2022-04-14T08:21:12.000Z</time>
      </trkpt>
      <trkpt lat="39.525627326220274" lon="-4.33250960893929">
        <ele>1221</ele>
        <time>2022-04-14T08:21:13.000Z</time>
      </trkpt>
      <trkpt lat="39.525624392554164" lon="-4.332512374967337">
        <ele>1220.8</ele>
        <time>2022-04-14T08:21:19.000Z</time>
      </trkpt>
      <trkpt lat="39.52562271617353" lon="-4.3325127102434635">
        <ele>1221</ele>
        <time>2022-04-14T08:21:21.000Z</time>
      </trkpt>
      <trkpt lat="39.5256226323545" lon="-4.332517152652144">
        <ele>1221.4</ele>
        <time>2022-04-14T08:21:24.000Z</time>
      </trkpt>
      <trkpt lat="39.52562715858221" lon="-4.332525534555316">
        <ele>1221.4</ele>
        <time>2022-04-14T08:21:26.000Z</time>
      </trkpt>
      <trkpt lat="39.52563512139022" lon="-4.332532407715917">
        <ele>1221</ele>
        <time>2022-04-14T08:21:29.000Z</time>
      </trkpt>
      <trkpt lat="39.52566965483129" lon="-4.332518996670842">
        <ele>1220.8</ele>
        <time>2022-04-14T08:21:38.000Z</time>
      </trkpt>
      <trkpt lat="39.525662614032626" lon="-4.332517152652144">
        <ele>1221.8</ele>
        <time>2022-04-14T08:21:47.000Z</time>
      </trkpt>
      <trkpt lat="39.5256466884166" lon="-4.332531737163663">
        <ele>1221.8</ele>
        <time>2022-04-14T08:21:50.000Z</time>
      </trkpt>
      <trkpt lat="39.52565188519657" lon="-4.332537185400724">
        <ele>1221.8</ele>
        <time>2022-04-14T08:21:52.000Z</time>
      </trkpt>
      <trkpt lat="39.52564895153046" lon="-4.332545483484864">
        <ele>1221.8</ele>
        <time>2022-04-14T08:21:54.000Z</time>
      </trkpt>
      <trkpt lat="39.52565113082528" lon="-4.3325453996658325">
        <ele>1221.8</ele>
        <time>2022-04-14T08:21:55.000Z</time>
      </trkpt>
      <trkpt lat="39.52570544555783" lon="-4.332477170974016">
        <ele>1221</ele>
        <time>2022-04-14T08:22:02.000Z</time>
      </trkpt>
      <trkpt lat="39.52571374364197" lon="-4.332485301420093">
        <ele>1221.2</ele>
        <time>2022-04-14T08:22:08.000Z</time>
      </trkpt>
      <trkpt lat="39.52571516856551" lon="-4.332483625039458">
        <ele>1221.2</ele>
        <time>2022-04-14T08:22:09.000Z</time>
      </trkpt>
      <trkpt lat="39.525724137201905" lon="-4.332481613382697">
        <ele>1221.4</ele>
        <time>2022-04-14T08:22:13.000Z</time>
      </trkpt>
      <trkpt lat="39.525734949857" lon="-4.332477506250143">
        <ele>1221.2</ele>
        <time>2022-04-14T08:22:17.000Z</time>
      </trkpt>
      <trkpt lat="39.52574576251209" lon="-4.3324965331703424">
        <ele>1220.4</ele>
        <time>2022-04-14T08:22:26.000Z</time>
      </trkpt>
      <trkpt lat="39.52572832815349" lon="-4.332488067448139">
        <ele>1220.6</ele>
        <time>2022-04-14T08:22:29.000Z</time>
      </trkpt>
      <trkpt lat="39.525704104453325" lon="-4.332473399117589">
        <ele>1220.6</ele>
        <time>2022-04-14T08:22:34.000Z</time>
      </trkpt>
      <trkpt lat="39.52568809501827" lon="-4.3324570544064045">
        <ele>1220.4</ele>
        <time>2022-04-14T08:22:38.000Z</time>
      </trkpt>
      <trkpt lat="39.52568180859089" lon="-4.332453366369009">
        <ele>1220.2</ele>
        <time>2022-04-14T08:22:42.000Z</time>
      </trkpt>
      <trkpt lat="39.525679126381874" lon="-4.332452360540628">
        <ele>1220</ele>
        <time>2022-04-14T08:22:47.000Z</time>
      </trkpt>
      <trkpt lat="39.52567149884999" lon="-4.332462921738625">
        <ele>1219.8</ele>
        <time>2022-04-14T08:22:49.000Z</time>
      </trkpt>
      <trkpt lat="39.525659596547484" lon="-4.3325012270361185">
        <ele>1220</ele>
        <time>2022-04-14T08:22:53.000Z</time>
      </trkpt>
      <trkpt lat="39.525657165795565" lon="-4.332532994449139">
        <ele>1219.8</ele>
        <time>2022-04-14T08:23:02.000Z</time>
      </trkpt>
      <trkpt lat="39.525668481364846" lon="-4.332532323896885">
        <ele>1219.8</ele>
        <time>2022-04-14T08:23:07.000Z</time>
      </trkpt>
      <trkpt lat="39.52567594125867" lon="-4.3325292225927114">
        <ele>1219.8</ele>
        <time>2022-04-14T08:23:08.000Z</time>
      </trkpt>
      <trkpt lat="39.52568231150508" lon="-4.33252327144146">
        <ele>1219.8</ele>
        <time>2022-04-14T08:23:10.000Z</time>
      </trkpt>
      <trkpt lat="39.52568574808538" lon="-4.332516565918922">
        <ele>1219.8</ele>
        <time>2022-04-14T08:23:11.000Z</time>
      </trkpt>
      <trkpt lat="39.52570762485266" lon="-4.332460323348641">
        <ele>1220.8</ele>
        <time>2022-04-14T08:23:16.000Z</time>
      </trkpt>
      <trkpt lat="39.52570301480591" lon="-4.332450935617089">
        <ele>1221</ele>
        <time>2022-04-14T08:23:17.000Z</time>
      </trkpt>
      <trkpt lat="39.52570661902428" lon="-4.332428388297558">
        <ele>1221</ele>
        <time>2022-04-14T08:23:19.000Z</time>
      </trkpt>
      <trkpt lat="39.52570469118655" lon="-4.332368960604072">
        <ele>1221.6</ele>
        <time>2022-04-14T08:23:24.000Z</time>
      </trkpt>
      <trkpt lat="39.52570368535817" lon="-4.332357896491885">
        <ele>1221.8</ele>
        <time>2022-04-14T08:23:25.000Z</time>
      </trkpt>
      <trkpt lat="39.5257087983191" lon="-4.3323601596057415">
        <ele>1222</ele>
        <time>2022-04-14T08:23:26.000Z</time>
      </trkpt>
      <trkpt lat="39.52571986243129" lon="-4.332337947562337">
        <ele>1222.4</ele>
        <time>2022-04-14T08:23:29.000Z</time>
      </trkpt>
      <trkpt lat="39.52572145499289" lon="-4.3323312420398">
        <ele>1222.4</ele>
        <time>2022-04-14T08:23:30.000Z</time>
      </trkpt>
      <trkpt lat="39.5257225446403" lon="-4.332324033603072">
        <ele>1222.6</ele>
        <time>2022-04-14T08:23:31.000Z</time>
      </trkpt>
      <trkpt lat="39.52572732232511" lon="-4.332315484061837">
        <ele>1223</ele>
        <time>2022-04-14T08:23:35.000Z</time>
      </trkpt>
      <trkpt lat="39.525728495791554" lon="-4.332311963662505">
        <ele>1223.2</ele>
        <time>2022-04-14T08:23:36.000Z</time>
      </trkpt>
      <trkpt lat="39.5257331058383" lon="-4.332305761054158">
        <ele>1223.2</ele>
        <time>2022-04-14T08:23:37.000Z</time>
      </trkpt>
      <trkpt lat="39.525730926543474" lon="-4.332294696941972">
        <ele>1223.4</ele>
        <time>2022-04-14T08:23:39.000Z</time>
      </trkpt>
      <trkpt lat="39.525728579610586" lon="-4.3322827108204365">
        <ele>1223.8</ele>
        <time>2022-04-14T08:23:40.000Z</time>
      </trkpt>
      <trkpt lat="39.52573159709573" lon="-4.332263013347983">
        <ele>1224.2</ele>
        <time>2022-04-14T08:23:43.000Z</time>
      </trkpt>
      <trkpt lat="39.52573503367603" lon="-4.332252703607082">
        <ele>1224.4</ele>
        <time>2022-04-14T08:23:44.000Z</time>
      </trkpt>
      <trkpt lat="39.52573008835316" lon="-4.332219511270523">
        <ele>1225</ele>
        <time>2022-04-14T08:23:48.000Z</time>
      </trkpt>
      <trkpt lat="39.52572866342962" lon="-4.332211967557669">
        <ele>1225</ele>
        <time>2022-04-14T08:23:49.000Z</time>
      </trkpt>
      <trkpt lat="39.525730507448316" lon="-4.332207273691893">
        <ele>1225.6</ele>
        <time>2022-04-14T08:23:50.000Z</time>
      </trkpt>
      <trkpt lat="39.525732435286045" lon="-4.332199394702911">
        <ele>1225.8</ele>
        <time>2022-04-14T08:23:51.000Z</time>
      </trkpt>
      <trkpt lat="39.52574919909239" lon="-4.332171650603414">
        <ele>1226.6</ele>
        <time>2022-04-14T08:23:56.000Z</time>
      </trkpt>
      <trkpt lat="39.52574576251209" lon="-4.332139296457171">
        <ele>1227</ele>
        <time>2022-04-14T08:23:59.000Z</time>
      </trkpt>
      <trkpt lat="39.5257521327585" lon="-4.332126639783382">
        <ele>1227.6</ele>
        <time>2022-04-14T08:24:02.000Z</time>
      </trkpt>
      <trkpt lat="39.52575112693012" lon="-4.332114988937974">
        <ele>1228.2</ele>
        <time>2022-04-14T08:24:04.000Z</time>
      </trkpt>
      <trkpt lat="39.52575129456818" lon="-4.332114569842815">
        <ele>1228.8</ele>
        <time>2022-04-14T08:24:07.000Z</time>
      </trkpt>
      <trkpt lat="39.525742661207914" lon="-4.332109373062849">
        <ele>1228.8</ele>
        <time>2022-04-14T08:24:08.000Z</time>
      </trkpt>
      <trkpt lat="39.52572916634381" lon="-4.332104176282883">
        <ele>1229.2</ele>
        <time>2022-04-14T08:24:10.000Z</time>
      </trkpt>
      <trkpt lat="39.525726987048984" lon="-4.332070397213101">
        <ele>1229.6</ele>
        <time>2022-04-14T08:24:13.000Z</time>
      </trkpt>
      <trkpt lat="39.52573201619089" lon="-4.3320603389292955">
        <ele>1229.8</ele>
        <time>2022-04-14T08:24:14.000Z</time>
      </trkpt>
      <trkpt lat="39.52573017217219" lon="-4.332052459940314">
        <ele>1230</ele>
        <time>2022-04-14T08:24:15.000Z</time>
      </trkpt>
      <trkpt lat="39.52572983689606" lon="-4.332041312009096">
        <ele>1230.2</ele>
        <time>2022-04-14T08:24:17.000Z</time>
      </trkpt>
      <trkpt lat="39.52572908252478" lon="-4.332037288695574">
        <ele>1230.4</ele>
        <time>2022-04-14T08:24:18.000Z</time>
      </trkpt>
      <trkpt lat="39.52573168091476" lon="-4.332034774124622">
        <ele>1230.4</ele>
        <time>2022-04-14T08:24:19.000Z</time>
      </trkpt>
      <trkpt lat="39.525734446942806" lon="-4.332028655335307">
        <ele>1230.6</ele>
        <time>2022-04-14T08:24:20.000Z</time>
      </trkpt>
      <trkpt lat="39.525745594874024" lon="-4.332009712234139">
        <ele>1231.2</ele>
        <time>2022-04-14T08:24:22.000Z</time>
      </trkpt>
      <trkpt lat="39.52575850300491" lon="-4.3320035096257925">
        <ele>1231.4</ele>
        <time>2022-04-14T08:24:23.000Z</time>
      </trkpt>
      <trkpt lat="39.52576931566" lon="-4.331994289532304">
        <ele>1231.4</ele>
        <time>2022-04-14T08:24:24.000Z</time>
      </trkpt>
      <trkpt lat="39.525797395035625" lon="-4.3319823034107685">
        <ele>1231.6</ele>
        <time>2022-04-14T08:24:26.000Z</time>
      </trkpt>
      <trkpt lat="39.525809213519096" lon="-4.331950871273875">
        <ele>1231.6</ele>
        <time>2022-04-14T08:24:29.000Z</time>
      </trkpt>
      <trkpt lat="39.52582756988704" lon="-4.331914745271206">
        <ele>1231.6</ele>
        <time>2022-04-14T08:24:32.000Z</time>
      </trkpt>
      <trkpt lat="39.52590082772076" lon="-4.331830507144332">
        <ele>1231.8</ele>
        <time>2022-04-14T08:24:39.000Z</time>
      </trkpt>
      <trkpt lat="39.52591432258487" lon="-4.331808965653181">
        <ele>1231.6</ele>
        <time>2022-04-14T08:24:41.000Z</time>
      </trkpt>
      <trkpt lat="39.525923961773515" lon="-4.331792453303933">
        <ele>1231.6</ele>
        <time>2022-04-14T08:24:43.000Z</time>
      </trkpt>
      <trkpt lat="39.52593930065632" lon="-4.331780299544334">
        <ele>1231.6</ele>
        <time>2022-04-14T08:24:45.000Z</time>
      </trkpt>
      <trkpt lat="39.525939552113414" lon="-4.331768732517958">
        <ele>1231.8</ele>
        <time>2022-04-14T08:24:46.000Z</time>
      </trkpt>
      <trkpt lat="39.525944078341126" lon="-4.331751214340329">
        <ele>1232</ele>
        <time>2022-04-14T08:24:47.000Z</time>
      </trkpt>
      <trkpt lat="39.525942485779524" lon="-4.331735540181398">
        <ele>1232.2</ele>
        <time>2022-04-14T08:24:48.000Z</time>
      </trkpt>
      <trkpt lat="39.52593896538019" lon="-4.331687092781067">
        <ele>1233</ele>
        <time>2022-04-14T08:24:51.000Z</time>
      </trkpt>
      <trkpt lat="39.52594273723662" lon="-4.331672759726644">
        <ele>1233.4</ele>
        <time>2022-04-14T08:24:52.000Z</time>
      </trkpt>
      <trkpt lat="39.52594324015081" lon="-4.331658175215125">
        <ele>1233.8</ele>
        <time>2022-04-14T08:24:53.000Z</time>
      </trkpt>
      <trkpt lat="39.525966960936785" lon="-4.331615008413792">
        <ele>1234.4</ele>
        <time>2022-04-14T08:24:57.000Z</time>
      </trkpt>
      <trkpt lat="39.52597115188837" lon="-4.331604698672891">
        <ele>1234.4</ele>
        <time>2022-04-14T08:24:58.000Z</time>
      </trkpt>
      <trkpt lat="39.52597257681191" lon="-4.331594808027148">
        <ele>1234.6</ele>
        <time>2022-04-14T08:24:59.000Z</time>
      </trkpt>
      <trkpt lat="39.52597257681191" lon="-4.3315844144672155">
        <ele>1234.6</ele>
        <time>2022-04-14T08:25:00.000Z</time>
      </trkpt>
      <trkpt lat="39.52596863731742" lon="-4.331504870206118">
        <ele>1235.4</ele>
        <time>2022-04-14T08:25:05.000Z</time>
      </trkpt>
      <trkpt lat="39.52597877942026" lon="-4.331451561301947">
        <ele>1236.6</ele>
        <time>2022-04-14T08:25:10.000Z</time>
      </trkpt>
      <trkpt lat="39.52598481439054" lon="-4.331446532160044">
        <ele>1236.8</ele>
        <time>2022-04-14T08:25:11.000Z</time>
      </trkpt>
      <trkpt lat="39.52599696815014" lon="-4.331417279317975">
        <ele>1237.4</ele>
        <time>2022-04-14T08:25:14.000Z</time>
      </trkpt>
      <trkpt lat="39.52600342221558" lon="-4.331408394500613">
        <ele>1237.8</ele>
        <time>2022-04-14T08:25:15.000Z</time>
      </trkpt>
      <trkpt lat="39.5260195992887" lon="-4.331376710906625">
        <ele>1238.6</ele>
        <time>2022-04-14T08:25:18.000Z</time>
      </trkpt>
      <trkpt lat="39.526019683107734" lon="-4.3313567619770765">
        <ele>1239</ele>
        <time>2022-04-14T08:25:20.000Z</time>
      </trkpt>
      <trkpt lat="39.52601700089872" lon="-4.331349553540349">
        <ele>1239</ele>
        <time>2022-04-14T08:25:21.000Z</time>
      </trkpt>
      <trkpt lat="39.5260145701468" lon="-4.331323653459549">
        <ele>1239.6</ele>
        <time>2022-04-14T08:25:24.000Z</time>
      </trkpt>
      <trkpt lat="39.526013899594545" lon="-4.331315858289599">
        <ele>1239.8</ele>
        <time>2022-04-14T08:25:25.000Z</time>
      </trkpt>
      <trkpt lat="39.52601918019354" lon="-4.331306386739016">
        <ele>1240</ele>
        <time>2022-04-14T08:25:26.000Z</time>
      </trkpt>
      <trkpt lat="39.526022700592875" lon="-4.331270679831505">
        <ele>1240.4</ele>
        <time>2022-04-14T08:25:29.000Z</time>
      </trkpt>
      <trkpt lat="39.52602177858353" lon="-4.331240672618151">
        <ele>1240.8</ele>
        <time>2022-04-14T08:25:31.000Z</time>
      </trkpt>
      <trkpt lat="39.52602881938219" lon="-4.3312224838882685">
        <ele>1241</ele>
        <time>2022-04-14T08:25:33.000Z</time>
      </trkpt>
      <trkpt lat="39.52603208832443" lon="-4.33121133595705">
        <ele>1241</ele>
        <time>2022-04-14T08:25:34.000Z</time>
      </trkpt>
      <trkpt lat="39.52604147605598" lon="-4.331178730353713">
        <ele>1241.2</ele>
        <time>2022-04-14T08:25:37.000Z</time>
      </trkpt>
      <trkpt lat="39.526071064174175" lon="-4.331164229661226">
        <ele>1241.6</ele>
        <time>2022-04-14T08:25:39.000Z</time>
      </trkpt>
      <trkpt lat="39.526090594008565" lon="-4.3311411794275045">
        <ele>1242</ele>
        <time>2022-04-14T08:25:41.000Z</time>
      </trkpt>
      <trkpt lat="39.52609486877918" lon="-4.33113070204854">
        <ele>1242.2</ele>
        <time>2022-04-14T08:25:42.000Z</time>
      </trkpt>
      <trkpt lat="39.526109620928764" lon="-4.331121817231178">
        <ele>1242.4</ele>
        <time>2022-04-14T08:25:44.000Z</time>
      </trkpt>
      <trkpt lat="39.52611330896616" lon="-4.331115614622831">
        <ele>1242.6</ele>
        <time>2022-04-14T08:25:46.000Z</time>
      </trkpt>
      <trkpt lat="39.52610509470105" lon="-4.331104466691613">
        <ele>1242.8</ele>
        <time>2022-04-14T08:25:49.000Z</time>
      </trkpt>
      <trkpt lat="39.52611825428903" lon="-4.331102706491947">
        <ele>1242.8</ele>
        <time>2022-04-14T08:25:53.000Z</time>
      </trkpt>
      <trkpt lat="39.52612219378352" lon="-4.33110429905355">
        <ele>1242.8</ele>
        <time>2022-04-14T08:25:54.000Z</time>
      </trkpt>
      <trkpt lat="39.52618614770472" lon="-4.331047888845205">
        <ele>1242.4</ele>
        <time>2022-04-14T08:26:02.000Z</time>
      </trkpt>
      <trkpt lat="39.526226967573166" lon="-4.33102517388761">
        <ele>1242</ele>
        <time>2022-04-14T08:26:05.000Z</time>
      </trkpt>
      <trkpt lat="39.52623400837183" lon="-4.3310121819376945">
        <ele>1241.8</ele>
        <time>2022-04-14T08:26:07.000Z</time>
      </trkpt>
      <trkpt lat="39.52622277662158" lon="-4.33099826797843">
        <ele>1241.8</ele>
        <time>2022-04-14T08:26:09.000Z</time>
      </trkpt>
      <trkpt lat="39.526214227080345" lon="-4.330987287685275">
        <ele>1241.8</ele>
        <time>2022-04-14T08:26:10.000Z</time>
      </trkpt>
      <trkpt lat="39.52621364034712" lon="-4.330927021801472">
        <ele>1241.8</ele>
        <time>2022-04-14T08:26:18.000Z</time>
      </trkpt>
      <trkpt lat="39.52621313743293" lon="-4.330916041508317">
        <ele>1241.6</ele>
        <time>2022-04-14T08:26:19.000Z</time>
      </trkpt>
      <trkpt lat="39.52621095813811" lon="-4.330871952697635">
        <ele>1241.6</ele>
        <time>2022-04-14T08:26:23.000Z</time>
      </trkpt>
      <trkpt lat="39.52620425261557" lon="-4.330847980454564">
        <ele>1241.8</ele>
        <time>2022-04-14T08:26:25.000Z</time>
      </trkpt>
      <trkpt lat="39.52620500698686" lon="-4.330834234133363">
        <ele>1242.2</ele>
        <time>2022-04-14T08:26:27.000Z</time>
      </trkpt>
      <trkpt lat="39.526204001158476" lon="-4.330789726227522">
        <ele>1243.2</ele>
        <time>2022-04-14T08:26:31.000Z</time>
      </trkpt>
      <trkpt lat="39.52620266005397" lon="-4.330776231363416">
        <ele>1243.6</ele>
        <time>2022-04-14T08:26:32.000Z</time>
      </trkpt>
      <trkpt lat="39.52620064839721" lon="-4.330754689872265">
        <ele>1244.2</ele>
        <time>2022-04-14T08:26:34.000Z</time>
      </trkpt>
      <trkpt lat="39.5262148976326" lon="-4.330707332119346">
        <ele>1245</ele>
        <time>2022-04-14T08:26:38.000Z</time>
      </trkpt>
      <trkpt lat="39.526228895410895" lon="-4.330684784799814">
        <ele>1245.2</ele>
        <time>2022-04-14T08:26:40.000Z</time>
      </trkpt>
      <trkpt lat="39.526235181838274" lon="-4.330674223601818">
        <ele>1245.2</ele>
        <time>2022-04-14T08:26:41.000Z</time>
      </trkpt>
      <trkpt lat="39.52623602002859" lon="-4.330663662403822">
        <ele>1245.2</ele>
        <time>2022-04-14T08:26:42.000Z</time>
      </trkpt>
      <trkpt lat="39.52624046243727" lon="-4.330606749281287">
        <ele>1245.4</ele>
        <time>2022-04-14T08:26:46.000Z</time>
      </trkpt>
      <trkpt lat="39.526250855997205" lon="-4.330571880564094">
        <ele>1245.4</ele>
        <time>2022-04-14T08:26:49.000Z</time>
      </trkpt>
      <trkpt lat="39.52624783851206" lon="-4.330517146736383">
        <ele>1245.6</ele>
        <time>2022-04-14T08:26:53.000Z</time>
      </trkpt>
      <trkpt lat="39.52627658843994" lon="-4.330493006855249">
        <ele>1245.6</ele>
        <time>2022-04-14T08:26:55.000Z</time>
      </trkpt>
      <trkpt lat="39.52627935446799" lon="-4.330481356009841">
        <ele>1245.8</ele>
        <time>2022-04-14T08:26:57.000Z</time>
      </trkpt>
      <trkpt lat="39.52627600170672" lon="-4.330485127866268">
        <ele>1246</ele>
        <time>2022-04-14T08:26:58.000Z</time>
      </trkpt>
      <trkpt lat="39.52628396451473" lon="-4.33050281368196">
        <ele>1246</ele>
        <time>2022-04-14T08:27:00.000Z</time>
      </trkpt>
      <trkpt lat="39.52629033476114" lon="-4.330507339909673">
        <ele>1246.2</ele>
        <time>2022-04-14T08:27:02.000Z</time>
      </trkpt>
      <trkpt lat="39.526277258992195" lon="-4.330500802025199">
        <ele>1246.2</ele>
        <time>2022-04-14T08:27:04.000Z</time>
      </trkpt>
      <trkpt lat="39.52626242302358" lon="-4.330496694892645">
        <ele>1246.4</ele>
        <time>2022-04-14T08:27:06.000Z</time>
      </trkpt>
      <trkpt lat="39.52624658122659" lon="-4.3304897379130125">
        <ele>1246.4</ele>
        <time>2022-04-14T08:27:10.000Z</time>
      </trkpt>
      <trkpt lat="39.52624465338886" lon="-4.330485966056585">
        <ele>1246.4</ele>
        <time>2022-04-14T08:27:11.000Z</time>
      </trkpt>
      <trkpt lat="39.52624574303627" lon="-4.330494683235884">
        <ele>1246.4</ele>
        <time>2022-04-14T08:27:13.000Z</time>
      </trkpt>
      <trkpt lat="39.52625395730138" lon="-4.330524606630206">
        <ele>1246.8</ele>
        <time>2022-04-14T08:27:21.000Z</time>
      </trkpt>
      <trkpt lat="39.526256220415235" lon="-4.330546483397484">
        <ele>1246.8</ele>
        <time>2022-04-14T08:27:23.000Z</time>
      </trkpt>
      <trkpt lat="39.526296788826585" lon="-4.330549836158752">
        <ele>1246.6</ele>
        <time>2022-04-14T08:27:29.000Z</time>
      </trkpt>
      <trkpt lat="39.52628329396248" lon="-4.330539694055915">
        <ele>1246.4</ele>
        <time>2022-04-14T08:27:33.000Z</time>
      </trkpt>
      <trkpt lat="39.526278683915734" lon="-4.330536928027868">
        <ele>1246.4</ele>
        <time>2022-04-14T08:27:36.000Z</time>
      </trkpt>
      <trkpt lat="39.526278264820576" lon="-4.330535838380456">
        <ele>1246.4</ele>
        <time>2022-04-14T08:27:37.000Z</time>
      </trkpt>
      <trkpt lat="39.5262754149735" lon="-4.330548997968435">
        <ele>1245.6</ele>
        <time>2022-04-14T08:27:46.000Z</time>
      </trkpt>
      <trkpt lat="39.52628522180021" lon="-4.330548997968435">
        <ele>1245.4</ele>
        <time>2022-04-14T08:27:49.000Z</time>
      </trkpt>
      <trkpt lat="39.52629544772208" lon="-4.330514129251242">
        <ele>1245.2</ele>
        <time>2022-04-14T08:27:52.000Z</time>
      </trkpt>
      <trkpt lat="39.526298800483346" lon="-4.330509016290307">
        <ele>1245.2</ele>
        <time>2022-04-14T08:27:53.000Z</time>
      </trkpt>
      <trkpt lat="39.52629838138819" lon="-4.330497030168772">
        <ele>1245</ele>
        <time>2022-04-14T08:27:57.000Z</time>
      </trkpt>
      <trkpt lat="39.52630030922592" lon="-4.3304932583123446">
        <ele>1245</ele>
        <time>2022-04-14T08:27:59.000Z</time>
      </trkpt>
      <trkpt lat="39.526296285912395" lon="-4.330490408465266">
        <ele>1245</ele>
        <time>2022-04-14T08:28:03.000Z</time>
      </trkpt>
      <trkpt lat="39.52629519626498" lon="-4.330485379323363">
        <ele>1245</ele>
        <time>2022-04-14T08:28:09.000Z</time>
      </trkpt>
      <trkpt lat="39.526295866817236" lon="-4.330483367666602">
        <ele>1244.8</ele>
        <time>2022-04-14T08:28:10.000Z</time>
      </trkpt>
      <trkpt lat="39.526293352246284" lon="-4.330475153401494">
        <ele>1245</ele>
        <time>2022-04-14T08:28:14.000Z</time>
      </trkpt>
      <trkpt lat="39.526305086910725" lon="-4.330460485070944">
        <ele>1244.4</ele>
        <time>2022-04-14T08:28:21.000Z</time>
      </trkpt>
      <trkpt lat="39.526307014748454" lon="-4.330465430393815">
        <ele>1244.4</ele>
        <time>2022-04-14T08:28:23.000Z</time>
      </trkpt>
      <trkpt lat="39.5263132173568" lon="-4.3304702918976545">
        <ele>1244.8</ele>
        <time>2022-04-14T08:28:27.000Z</time>
      </trkpt>
      <trkpt lat="39.52631380409002" lon="-4.330469034612179">
        <ele>1244.6</ele>
        <time>2022-04-14T08:28:30.000Z</time>
      </trkpt>
      <trkpt lat="39.526316402480006" lon="-4.330464843660593">
        <ele>1244.4</ele>
        <time>2022-04-14T08:28:32.000Z</time>
      </trkpt>
      <trkpt lat="39.52631816267967" lon="-4.330454031005502">
        <ele>1244.2</ele>
        <time>2022-04-14T08:28:34.000Z</time>
      </trkpt>
      <trkpt lat="39.526335932314396" lon="-4.330432405695319">
        <ele>1244</ele>
        <time>2022-04-14T08:28:39.000Z</time>
      </trkpt>
      <trkpt lat="39.52636652626097" lon="-4.330389238893986">
        <ele>1243.8</ele>
        <time>2022-04-14T08:28:43.000Z</time>
      </trkpt>
      <trkpt lat="39.526425367221236" lon="-4.330328218638897">
        <ele>1243.6</ele>
        <time>2022-04-14T08:28:49.000Z</time>
      </trkpt>
      <trkpt lat="39.52644883655012" lon="-4.33031614869833">
        <ele>1243.4</ele>
        <time>2022-04-14T08:28:52.000Z</time>
      </trkpt>
      <trkpt lat="39.526450261473656" lon="-4.330314723774791">
        <ele>1243</ele>
        <time>2022-04-14T08:28:53.000Z</time>
      </trkpt>
      <trkpt lat="39.52643936499953" lon="-4.330316064879298">
        <ele>1242.8</ele>
        <time>2022-04-14T08:28:54.000Z</time>
      </trkpt>
      <trkpt lat="39.52641958370805" lon="-4.33031128719449">
        <ele>1242.8</ele>
        <time>2022-04-14T08:28:57.000Z</time>
      </trkpt>
      <trkpt lat="39.52641086652875" lon="-4.330291170626879">
        <ele>1242.6</ele>
        <time>2022-04-14T08:28:59.000Z</time>
      </trkpt>
      <trkpt lat="39.526412542909384" lon="-4.330278430134058">
        <ele>1242.8</ele>
        <time>2022-04-14T08:29:00.000Z</time>
      </trkpt>
      <trkpt lat="39.526415476575494" lon="-4.330266527831554">
        <ele>1242.8</ele>
        <time>2022-04-14T08:29:01.000Z</time>
      </trkpt>
      <trkpt lat="39.52642226591706" lon="-4.330248003825545">
        <ele>1243</ele>
        <time>2022-04-14T08:29:03.000Z</time>
      </trkpt>
      <trkpt lat="39.52643198892474" lon="-4.330245824530721">
        <ele>1243.8</ele>
        <time>2022-04-14T08:29:06.000Z</time>
      </trkpt>
      <trkpt lat="39.52643198892474" lon="-4.330238113179803">
        <ele>1243.8</ele>
        <time>2022-04-14T08:29:07.000Z</time>
      </trkpt>
      <trkpt lat="39.5264305640012" lon="-4.3302288092672825">
        <ele>1243.8</ele>
        <time>2022-04-14T08:29:08.000Z</time>
      </trkpt>
      <trkpt lat="39.52643391676247" lon="-4.330210033804178">
        <ele>1244</ele>
        <time>2022-04-14T08:29:10.000Z</time>
      </trkpt>
      <trkpt lat="39.526439448818564" lon="-4.330183798447251">
        <ele>1244.2</ele>
        <time>2022-04-14T08:29:12.000Z</time>
      </trkpt>
      <trkpt lat="39.52643391676247" lon="-4.3301743268966675">
        <ele>1244.2</ele>
        <time>2022-04-14T08:29:13.000Z</time>
      </trkpt>
      <trkpt lat="39.526431653648615" lon="-4.3301663640886545">
        <ele>1244.6</ele>
        <time>2022-04-14T08:29:14.000Z</time>
      </trkpt>
      <trkpt lat="39.52642268501222" lon="-4.33013048954308">
        <ele>1245.2</ele>
        <time>2022-04-14T08:29:17.000Z</time>
      </trkpt>
      <trkpt lat="39.52641279436648" lon="-4.330117329955101">
        <ele>1246</ele>
        <time>2022-04-14T08:29:19.000Z</time>
      </trkpt>
      <trkpt lat="39.52641187235713" lon="-4.33010752312839">
        <ele>1246.4</ele>
        <time>2022-04-14T08:29:20.000Z</time>
      </trkpt>
      <trkpt lat="39.526409609243274" lon="-4.330102996900678">
        <ele>1246.6</ele>
        <time>2022-04-14T08:29:21.000Z</time>
      </trkpt>
      <trkpt lat="39.52640315517783" lon="-4.330099057406187">
        <ele>1247</ele>
        <time>2022-04-14T08:29:22.000Z</time>
      </trkpt>
      <trkpt lat="39.52640248462558" lon="-4.330082796514034">
        <ele>1247.6</ele>
        <time>2022-04-14T08:29:24.000Z</time>
      </trkpt>
      <trkpt lat="39.52638898976147" lon="-4.330057483166456">
        <ele>1248.8</ele>
        <time>2022-04-14T08:29:27.000Z</time>
      </trkpt>
      <trkpt lat="39.52636920846999" lon="-4.330033762380481">
        <ele>1249.8</ele>
        <time>2022-04-14T08:29:31.000Z</time>
      </trkpt>
      <trkpt lat="39.52633760869503" lon="-4.330028733238578">
        <ele>1251</ele>
        <time>2022-04-14T08:29:35.000Z</time>
      </trkpt>
      <trkpt lat="39.52632780186832" lon="-4.3300235364586115">
        <ele>1252.4</ele>
        <time>2022-04-14T08:29:37.000Z</time>
      </trkpt>
      <trkpt lat="39.52630273997784" lon="-4.329995959997177">
        <ele>1253.4</ele>
        <time>2022-04-14T08:29:42.000Z</time>
      </trkpt>
      <trkpt lat="39.52628094702959" lon="-4.329974418506026">
        <ele>1253.8</ele>
        <time>2022-04-14T08:29:46.000Z</time>
      </trkpt>
      <trkpt lat="39.52626535668969" lon="-4.329950949177146">
        <ele>1254.4</ele>
        <time>2022-04-14T08:29:49.000Z</time>
      </trkpt>
      <trkpt lat="39.52626686543226" lon="-4.32994139380753">
        <ele>1254.4</ele>
        <time>2022-04-14T08:29:50.000Z</time>
      </trkpt>
      <trkpt lat="39.52627030201256" lon="-4.329932341352105">
        <ele>1254.6</ele>
        <time>2022-04-14T08:29:51.000Z</time>
      </trkpt>
      <trkpt lat="39.526283545419574" lon="-4.3299032561481">
        <ele>1254.8</ele>
        <time>2022-04-14T08:29:55.000Z</time>
      </trkpt>
      <trkpt lat="39.52628614380956" lon="-4.329894706606865">
        <ele>1254.8</ele>
        <time>2022-04-14T08:29:56.000Z</time>
      </trkpt>
      <trkpt lat="39.526301650330424" lon="-4.329862855374813">
        <ele>1254.6</ele>
        <time>2022-04-14T08:30:04.000Z</time>
      </trkpt>
      <trkpt lat="39.52630969695747" lon="-4.329830668866634">
        <ele>1254.4</ele>
        <time>2022-04-14T08:30:11.000Z</time>
      </trkpt>
      <trkpt lat="39.52631154097617" lon="-4.329783730208874">
        <ele>1254.4</ele>
        <time>2022-04-14T08:30:14.000Z</time>
      </trkpt>
      <trkpt lat="39.52631078660488" lon="-4.329767050221562">
        <ele>1254.4</ele>
        <time>2022-04-14T08:30:15.000Z</time>
      </trkpt>
      <trkpt lat="39.526307098567486" lon="-4.329724386334419">
        <ele>1254.4</ele>
        <time>2022-04-14T08:30:18.000Z</time>
      </trkpt>
      <trkpt lat="39.52629812993109" lon="-4.32969362474978">
        <ele>1254.8</ele>
        <time>2022-04-14T08:30:21.000Z</time>
      </trkpt>
      <trkpt lat="39.5262941904366" lon="-4.329660935327411">
        <ele>1255.4</ele>
        <time>2022-04-14T08:30:24.000Z</time>
      </trkpt>
      <trkpt lat="39.526292933151126" lon="-4.32965163141489">
        <ele>1255.4</ele>
        <time>2022-04-14T08:30:25.000Z</time>
      </trkpt>
      <trkpt lat="39.52629452571273" lon="-4.329617768526077">
        <ele>1255.6</ele>
        <time>2022-04-14T08:30:28.000Z</time>
      </trkpt>
      <trkpt lat="39.526297878474" lon="-4.329564459621906">
        <ele>1256</ele>
        <time>2022-04-14T08:30:31.000Z</time>
      </trkpt>
      <trkpt lat="39.52631221152842" lon="-4.329532776027918">
        <ele>1256.2</ele>
        <time>2022-04-14T08:30:34.000Z</time>
      </trkpt>
      <trkpt lat="39.52631204389036" lon="-4.329478293657303">
        <ele>1256.2</ele>
        <time>2022-04-14T08:30:38.000Z</time>
      </trkpt>
      <trkpt lat="39.52631983906031" lon="-4.329431019723415">
        <ele>1256.4</ele>
        <time>2022-04-14T08:30:42.000Z</time>
      </trkpt>
      <trkpt lat="39.52633987180889" lon="-4.329361701384187">
        <ele>1256.4</ele>
        <time>2022-04-14T08:30:47.000Z</time>
      </trkpt>
      <trkpt lat="39.526370046660304" lon="-4.329274697229266">
        <ele>1255.8</ele>
        <time>2022-04-14T08:30:54.000Z</time>
      </trkpt>
      <trkpt lat="39.52636920846999" lon="-4.329219460487366">
        <ele>1255.4</ele>
        <time>2022-04-14T08:30:58.000Z</time>
      </trkpt>
      <trkpt lat="39.526383792981505" lon="-4.329169001430273">
        <ele>1255.4</ele>
        <time>2022-04-14T08:31:02.000Z</time>
      </trkpt>
      <trkpt lat="39.52638312242925" lon="-4.329122062772512">
        <ele>1255.6</ele>
        <time>2022-04-14T08:31:06.000Z</time>
      </trkpt>
      <trkpt lat="39.526374489068985" lon="-4.329098425805569">
        <ele>1255.6</ele>
        <time>2022-04-14T08:31:08.000Z</time>
      </trkpt>
      <trkpt lat="39.52635512687266" lon="-4.329030616208911">
        <ele>1256.2</ele>
        <time>2022-04-14T08:31:14.000Z</time>
      </trkpt>
      <trkpt lat="39.526355881243944" lon="-4.329019300639629">
        <ele>1256.2</ele>
        <time>2022-04-14T08:31:15.000Z</time>
      </trkpt>
      <trkpt lat="39.526362754404545" lon="-4.328986192122102">
        <ele>1256.4</ele>
        <time>2022-04-14T08:31:18.000Z</time>
      </trkpt>
      <trkpt lat="39.52636107802391" lon="-4.328976888209581">
        <ele>1256.4</ele>
        <time>2022-04-14T08:31:19.000Z</time>
      </trkpt>
      <trkpt lat="39.52636837027967" lon="-4.328947886824608">
        <ele>1256.8</ele>
        <time>2022-04-14T08:31:21.000Z</time>
      </trkpt>
      <trkpt lat="39.526372058317065" lon="-4.328888291493058">
        <ele>1257.6</ele>
        <time>2022-04-14T08:31:26.000Z</time>
      </trkpt>
      <trkpt lat="39.526361832395196" lon="-4.32885711081326">
        <ele>1257.8</ele>
        <time>2022-04-14T08:31:29.000Z</time>
      </trkpt>
      <trkpt lat="39.52635143883526" lon="-4.328828696161509">
        <ele>1259</ele>
        <time>2022-04-14T08:31:33.000Z</time>
      </trkpt>
      <trkpt lat="39.52633677050471" lon="-4.3288136087358">
        <ele>1259.4</ele>
        <time>2022-04-14T08:31:36.000Z</time>
      </trkpt>
      <trkpt lat="39.52631648629904" lon="-4.328808076679707">
        <ele>1260.4</ele>
        <time>2022-04-14T08:31:39.000Z</time>
      </trkpt>
      <trkpt lat="39.52630894258618" lon="-4.328823247924447">
        <ele>1260.8</ele>
        <time>2022-04-14T08:31:41.000Z</time>
      </trkpt>
      <trkpt lat="39.52630349434912" lon="-4.32882777415216">
        <ele>1261</ele>
        <time>2022-04-14T08:31:42.000Z</time>
      </trkpt>
      <trkpt lat="39.52630491927266" lon="-4.328835150226951">
        <ele>1261</ele>
        <time>2022-04-14T08:31:43.000Z</time>
      </trkpt>
      <trkpt lat="39.52630156651139" lon="-4.328847220167518">
        <ele>1261</ele>
        <time>2022-04-14T08:31:46.000Z</time>
      </trkpt>
      <trkpt lat="39.52630014158785" lon="-4.32883364148438">
        <ele>1260.8</ele>
        <time>2022-04-14T08:31:48.000Z</time>
      </trkpt>
      <trkpt lat="39.52629301697016" lon="-4.328791731968522">
        <ele>1260.8</ele>
        <time>2022-04-14T08:31:56.000Z</time>
      </trkpt>
      <trkpt lat="39.526297291740775" lon="-4.328788882121444">
        <ele>1260.8</ele>
        <time>2022-04-14T08:31:59.000Z</time>
      </trkpt>
      <trkpt lat="39.526306092739105" lon="-4.3287907261401415">
        <ele>1261</ele>
        <time>2022-04-14T08:32:01.000Z</time>
      </trkpt>
      <trkpt lat="39.52631816267967" lon="-4.32879650965333">
        <ele>1261.4</ele>
        <time>2022-04-14T08:32:05.000Z</time>
      </trkpt>
      <trkpt lat="39.526312965899706" lon="-4.328765496611595">
        <ele>1261.4</ele>
        <time>2022-04-14T08:32:07.000Z</time>
      </trkpt>
      <trkpt lat="39.52630299143493" lon="-4.328734902665019">
        <ele>1261.6</ele>
        <time>2022-04-14T08:32:10.000Z</time>
      </trkpt>
      <trkpt lat="39.52629016712308" lon="-4.328711684793234">
        <ele>1262.6</ele>
        <time>2022-04-14T08:32:13.000Z</time>
      </trkpt>
      <trkpt lat="39.52628279104829" lon="-4.328690646216273">
        <ele>1263.2</ele>
        <time>2022-04-14T08:32:16.000Z</time>
      </trkpt>
      <trkpt lat="39.52628036029637" lon="-4.3286876287311316">
        <ele>1263.4</ele>
        <time>2022-04-14T08:32:17.000Z</time>
      </trkpt>
      <trkpt lat="39.52627566643059" lon="-4.328685197979212">
        <ele>1263.8</ele>
        <time>2022-04-14T08:32:18.000Z</time>
      </trkpt>
      <trkpt lat="39.526267452165484" lon="-4.328674720600247">
        <ele>1264.4</ele>
        <time>2022-04-14T08:32:21.000Z</time>
      </trkpt>
      <trkpt lat="39.52627005055547" lon="-4.328667931258678">
        <ele>1264.4</ele>
        <time>2022-04-14T08:32:22.000Z</time>
      </trkpt>
      <trkpt lat="39.52627600170672" lon="-4.328660471364856">
        <ele>1264.6</ele>
        <time>2022-04-14T08:32:23.000Z</time>
      </trkpt>
      <trkpt lat="39.52628874219954" lon="-4.328651335090399">
        <ele>1264.6</ele>
        <time>2022-04-14T08:32:24.000Z</time>
      </trkpt>
      <trkpt lat="39.526301650330424" lon="-4.328641025349498">
        <ele>1264.4</ele>
        <time>2022-04-14T08:32:25.000Z</time>
      </trkpt>
      <trkpt lat="39.526305086910725" lon="-4.3286364153027534">
        <ele>1264.4</ele>
        <time>2022-04-14T08:32:26.000Z</time>
      </trkpt>
      <trkpt lat="39.52630885876715" lon="-4.32863038033247">
        <ele>1264.2</ele>
        <time>2022-04-14T08:32:27.000Z</time>
      </trkpt>
      <trkpt lat="39.526309948414564" lon="-4.328622501343489">
        <ele>1264.2</ele>
        <time>2022-04-14T08:32:28.000Z</time>
      </trkpt>
      <trkpt lat="39.52630785293877" lon="-4.328606743365526">
        <ele>1264.2</ele>
        <time>2022-04-14T08:32:30.000Z</time>
      </trkpt>
      <trkpt lat="39.52630349434912" lon="-4.328601798042655">
        <ele>1264.4</ele>
        <time>2022-04-14T08:32:31.000Z</time>
      </trkpt>
      <trkpt lat="39.52629997394979" lon="-4.3285945896059275">
        <ele>1264.4</ele>
        <time>2022-04-14T08:32:32.000Z</time>
      </trkpt>
      <trkpt lat="39.526288993656635" lon="-4.328570868819952">
        <ele>1264.8</ele>
        <time>2022-04-14T08:32:36.000Z</time>
      </trkpt>
      <trkpt lat="39.52633157372475" lon="-4.3285733833909035">
        <ele>1265.4</ele>
        <time>2022-04-14T08:32:40.000Z</time>
      </trkpt>
      <trkpt lat="39.52629134058952" lon="-4.328581430017948">
        <ele>1265.6</ele>
        <time>2022-04-14T08:32:47.000Z</time>
      </trkpt>
      <trkpt lat="39.52630030922592" lon="-4.328529294580221">
        <ele>1265.2</ele>
        <time>2022-04-14T08:32:53.000Z</time>
      </trkpt>
      <trkpt lat="39.526296285912395" lon="-4.328504065051675">
        <ele>1264.8</ele>
        <time>2022-04-14T08:32:55.000Z</time>
      </trkpt>
      <trkpt lat="39.52628773637116" lon="-4.328485121950507">
        <ele>1264.8</ele>
        <time>2022-04-14T08:32:57.000Z</time>
      </trkpt>
      <trkpt lat="39.52628186903894" lon="-4.328466430306435">
        <ele>1264.6</ele>
        <time>2022-04-14T08:32:59.000Z</time>
      </trkpt>
      <trkpt lat="39.526280695572495" lon="-4.328451594337821">
        <ele>1264.6</ele>
        <time>2022-04-14T08:33:00.000Z</time>
      </trkpt>
      <trkpt lat="39.5263029076159" lon="-4.328413205221295">
        <ele>1264.4</ele>
        <time>2022-04-14T08:33:06.000Z</time>
      </trkpt>
      <trkpt lat="39.52632000669837" lon="-4.328413708135486">
        <ele>1265</ele>
        <time>2022-04-14T08:33:15.000Z</time>
      </trkpt>
      <trkpt lat="39.52629854902625" lon="-4.32839828543365">
        <ele>1265</ele>
        <time>2022-04-14T08:33:20.000Z</time>
      </trkpt>
      <trkpt lat="39.52627105638385" lon="-4.328385377302766">
        <ele>1265</ele>
        <time>2022-04-14T08:33:24.000Z</time>
      </trkpt>
      <trkpt lat="39.52626426704228" lon="-4.328382359817624">
        <ele>1265</ele>
        <time>2022-04-14T08:33:25.000Z</time>
      </trkpt>
      <trkpt lat="39.52625932171941" lon="-4.328381437808275">
        <ele>1265.2</ele>
        <time>2022-04-14T08:33:27.000Z</time>
      </trkpt>
      <trkpt lat="39.52624431811273" lon="-4.328373055905104">
        <ele>1265.8</ele>
        <time>2022-04-14T08:33:30.000Z</time>
      </trkpt>
      <trkpt lat="39.52624130062759" lon="-4.32836358435452">
        <ele>1265.8</ele>
        <time>2022-04-14T08:33:32.000Z</time>
      </trkpt>
      <trkpt lat="39.52624532394111" lon="-4.328360818326473">
        <ele>1266</ele>
        <time>2022-04-14T08:33:36.000Z</time>
      </trkpt>
      <trkpt lat="39.526284132152796" lon="-4.328362829983234">
        <ele>1266</ele>
        <time>2022-04-14T08:33:39.000Z</time>
      </trkpt>
      <trkpt lat="39.526290921494365" lon="-4.328365931287408">
        <ele>1265.4</ele>
        <time>2022-04-14T08:33:44.000Z</time>
      </trkpt>
      <trkpt lat="39.52628237195313" lon="-4.328373475000262">
        <ele>1265.2</ele>
        <time>2022-04-14T08:33:46.000Z</time>
      </trkpt>
      <trkpt lat="39.52627784572542" lon="-4.32837531901896">
        <ele>1265</ele>
        <time>2022-04-14T08:33:48.000Z</time>
      </trkpt>
      <trkpt lat="39.52627566643059" lon="-4.328373642638326">
        <ele>1264.8</ele>
        <time>2022-04-14T08:33:50.000Z</time>
      </trkpt>
      <trkpt lat="39.52626954764128" lon="-4.328343886882067">
        <ele>1264.6</ele>
        <time>2022-04-14T08:33:55.000Z</time>
      </trkpt>
      <trkpt lat="39.526275247335434" lon="-4.328340534120798">
        <ele>1264.6</ele>
        <time>2022-04-14T08:33:56.000Z</time>
      </trkpt>
      <trkpt lat="39.52630282379687" lon="-4.328325446695089">
        <ele>1264.2</ele>
        <time>2022-04-14T08:34:00.000Z</time>
      </trkpt>
      <trkpt lat="39.52630911022425" lon="-4.328314969316125">
        <ele>1263.8</ele>
        <time>2022-04-14T08:34:02.000Z</time>
      </trkpt>
      <trkpt lat="39.52631707303226" lon="-4.3283085990697145">
        <ele>1263.6</ele>
        <time>2022-04-14T08:34:03.000Z</time>
      </trkpt>
      <trkpt lat="39.526326628401875" lon="-4.328288985416293">
        <ele>1263</ele>
        <time>2022-04-14T08:34:06.000Z</time>
      </trkpt>
      <trkpt lat="39.52634020708501" lon="-4.32826585136354">
        <ele>1262.8</ele>
        <time>2022-04-14T08:34:10.000Z</time>
      </trkpt>
      <trkpt lat="39.52634263783693" lon="-4.328252775594592">
        <ele>1262.6</ele>
        <time>2022-04-14T08:34:11.000Z</time>
      </trkpt>
      <trkpt lat="39.52635185793042" lon="-4.328193850815296">
        <ele>1262.6</ele>
        <time>2022-04-14T08:34:16.000Z</time>
      </trkpt>
      <trkpt lat="39.52634724788368" lon="-4.328184798359871">
        <ele>1262.8</ele>
        <time>2022-04-14T08:34:17.000Z</time>
      </trkpt>
      <trkpt lat="39.52631112188101" lon="-4.328109696507454">
        <ele>1263.4</ele>
        <time>2022-04-14T08:34:23.000Z</time>
      </trkpt>
      <trkpt lat="39.52631279826164" lon="-4.328083461150527">
        <ele>1263.6</ele>
        <time>2022-04-14T08:34:25.000Z</time>
      </trkpt>
      <trkpt lat="39.52629167586565" lon="-4.328018501400948">
        <ele>1263.6</ele>
        <time>2022-04-14T08:34:30.000Z</time>
      </trkpt>
      <trkpt lat="39.52628924511373" lon="-4.327974496409297">
        <ele>1263.6</ele>
        <time>2022-04-14T08:34:33.000Z</time>
      </trkpt>
      <trkpt lat="39.52628924511373" lon="-4.327957900241017">
        <ele>1263.8</ele>
        <time>2022-04-14T08:34:34.000Z</time>
      </trkpt>
      <trkpt lat="39.52629561536014" lon="-4.3278974667191505">
        <ele>1264.6</ele>
        <time>2022-04-14T08:34:38.000Z</time>
      </trkpt>
      <trkpt lat="39.52631070278585" lon="-4.327867878600955">
        <ele>1264.8</ele>
        <time>2022-04-14T08:34:40.000Z</time>
      </trkpt>
      <trkpt lat="39.52632604166865" lon="-4.327815407887101">
        <ele>1264.6</ele>
        <time>2022-04-14T08:34:44.000Z</time>
      </trkpt>
      <trkpt lat="39.52632252126932" lon="-4.327785652130842">
        <ele>1264.6</ele>
        <time>2022-04-14T08:34:46.000Z</time>
      </trkpt>
      <trkpt lat="39.526330484077334" lon="-4.327784478664398">
        <ele>1264.6</ele>
        <time>2022-04-14T08:34:47.000Z</time>
      </trkpt>
      <trkpt lat="39.52633333392441" lon="-4.327775007113814">
        <ele>1264.6</ele>
        <time>2022-04-14T08:34:50.000Z</time>
      </trkpt>
      <trkpt lat="39.526334842666984" lon="-4.327763020992279">
        <ele>1264.8</ele>
        <time>2022-04-14T08:34:51.000Z</time>
      </trkpt>
      <trkpt lat="39.52634506858885" lon="-4.327753633260727">
        <ele>1265</ele>
        <time>2022-04-14T08:34:53.000Z</time>
      </trkpt>
      <trkpt lat="39.52632545493543" lon="-4.327769055962563">
        <ele>1265</ele>
        <time>2022-04-14T08:34:58.000Z</time>
      </trkpt>
      <trkpt lat="39.52632134780288" lon="-4.327808870002627">
        <ele>1264.4</ele>
        <time>2022-04-14T08:35:07.000Z</time>
      </trkpt>
      <trkpt lat="39.52633333392441" lon="-4.327817503362894">
        <ele>1264.4</ele>
        <time>2022-04-14T08:35:11.000Z</time>
      </trkpt>
      <trkpt lat="39.52633844688535" lon="-4.327829070389271">
        <ele>1264.4</ele>
        <time>2022-04-14T08:35:16.000Z</time>
      </trkpt>
      <trkpt lat="39.526329478248954" lon="-4.327832590788603">
        <ele>1264.4</ele>
        <time>2022-04-14T08:35:20.000Z</time>
      </trkpt>
      <trkpt lat="39.526330064982176" lon="-4.327833512797952">
        <ele>1264.4</ele>
        <time>2022-04-14T08:35:21.000Z</time>
      </trkpt>
      <trkpt lat="39.52632210217416" lon="-4.327829908579588">
        <ele>1264.4</ele>
        <time>2022-04-14T08:35:25.000Z</time>
      </trkpt>
      <trkpt lat="39.52628564089537" lon="-4.327826639637351">
        <ele>1264.4</ele>
        <time>2022-04-14T08:35:32.000Z</time>
      </trkpt>
      <trkpt lat="39.52626334503293" lon="-4.327797889709473">
        <ele>1264.4</ele>
        <time>2022-04-14T08:35:35.000Z</time>
      </trkpt>
      <trkpt lat="39.52624616213143" lon="-4.327771402895451">
        <ele>1264.4</ele>
        <time>2022-04-14T08:35:39.000Z</time>
      </trkpt>
      <trkpt lat="39.52623853459954" lon="-4.327752627432346">
        <ele>1264.4</ele>
        <time>2022-04-14T08:35:45.000Z</time>
      </trkpt>
      <trkpt lat="39.52623107470572" lon="-4.32775380089879">
        <ele>1264.4</ele>
        <time>2022-04-14T08:35:46.000Z</time>
      </trkpt>
      <trkpt lat="39.52619201503694" lon="-4.327780120074749">
        <ele>1264.4</ele>
        <time>2022-04-14T08:35:53.000Z</time>
      </trkpt>
      <trkpt lat="39.526151698082685" lon="-4.327782467007637">
        <ele>1264.4</ele>
        <time>2022-04-14T08:36:01.000Z</time>
      </trkpt>
      <trkpt lat="39.52614641748369" lon="-4.3277672957628965">
        <ele>1264.4</ele>
        <time>2022-04-14T08:36:09.000Z</time>
      </trkpt>
      <trkpt lat="39.52616184018552" lon="-4.327784143388271">
        <ele>1271.2</ele>
        <time>2022-04-14T08:36:16.000Z</time>
      </trkpt>
      <trkpt lat="39.52615471556783" lon="-4.32779336348176">
        <ele>1271.2</ele>
        <time>2022-04-14T08:36:17.000Z</time>
      </trkpt>
      <trkpt lat="39.526126217097044" lon="-4.327814402058721">
        <ele>1271.4</ele>
        <time>2022-04-14T08:36:20.000Z</time>
      </trkpt>
      <trkpt lat="39.52610207721591" lon="-4.327834350988269">
        <ele>1271.4</ele>
        <time>2022-04-14T08:36:23.000Z</time>
      </trkpt>
      <trkpt lat="39.52609771862626" lon="-4.32785396464169">
        <ele>1272.2</ele>
        <time>2022-04-14T08:36:27.000Z</time>
      </trkpt>
      <trkpt lat="39.526100317016244" lon="-4.327862346544862">
        <ele>1272.4</ele>
        <time>2022-04-14T08:36:30.000Z</time>
      </trkpt>
      <trkpt lat="39.526090091094375" lon="-4.3278848100453615">
        <ele>1272.8</ele>
        <time>2022-04-14T08:36:36.000Z</time>
      </trkpt>
      <trkpt lat="39.52608397230506" lon="-4.327898724004626">
        <ele>1273.2</ele>
        <time>2022-04-14T08:36:39.000Z</time>
      </trkpt>
      <trkpt lat="39.52608590014279" lon="-4.327904591336846">
        <ele>1273.6</ele>
        <time>2022-04-14T08:36:41.000Z</time>
      </trkpt>
      <trkpt lat="39.52608464285731" lon="-4.3279054295271635">
        <ele>1273.6</ele>
        <time>2022-04-14T08:36:42.000Z</time>
      </trkpt>
      <trkpt lat="39.526094030588865" lon="-4.3279060162603855">
        <ele>1273.8</ele>
        <time>2022-04-14T08:36:48.000Z</time>
      </trkpt>
      <trkpt lat="39.526091599836946" lon="-4.327904926612973">
        <ele>1273.8</ele>
        <time>2022-04-14T08:36:50.000Z</time>
      </trkpt>
      <trkpt lat="39.52603326179087" lon="-4.327920600771904">
        <ele>1273.8</ele>
        <time>2022-04-14T08:36:58.000Z</time>
      </trkpt>
      <trkpt lat="39.52602337114513" lon="-4.327923618257046">
        <ele>1274</ele>
        <time>2022-04-14T08:37:01.000Z</time>
      </trkpt>
      <trkpt lat="39.5260299090296" lon="-4.327929485589266">
        <ele>1274.2</ele>
        <time>2022-04-14T08:37:03.000Z</time>
      </trkpt>
      <trkpt lat="39.5260301604867" lon="-4.327933844178915">
        <ele>1274.4</ele>
        <time>2022-04-14T08:37:04.000Z</time>
      </trkpt>
      <trkpt lat="39.526022616773844" lon="-4.327939627692103">
        <ele>1274.6</ele>
        <time>2022-04-14T08:37:05.000Z</time>
      </trkpt>
      <trkpt lat="39.526023119688034" lon="-4.327949266880751">
        <ele>1274.8</ele>
        <time>2022-04-14T08:37:06.000Z</time>
      </trkpt>
      <trkpt lat="39.526023706421256" lon="-4.327957145869732">
        <ele>1275</ele>
        <time>2022-04-14T08:37:08.000Z</time>
      </trkpt>
      <trkpt lat="39.52601398341358" lon="-4.327983213588595">
        <ele>1275.4</ele>
        <time>2022-04-14T08:37:10.000Z</time>
      </trkpt>
      <trkpt lat="39.52601398341358" lon="-4.327983213588595">
        <ele>1275.4</ele>
        <time>2022-04-14T08:37:11.000Z</time>
      </trkpt>
      <trkpt lat="39.52600937336683" lon="-4.327988997101784">
        <ele>1275.6</ele>
        <time>2022-04-14T08:37:13.000Z</time>
      </trkpt>
      <trkpt lat="39.52599604614079" lon="-4.32799176312983">
        <ele>1276</ele>
        <time>2022-04-14T08:37:15.000Z</time>
      </trkpt>
      <trkpt lat="39.52599277719855" lon="-4.327997043728828">
        <ele>1276.4</ele>
        <time>2022-04-14T08:37:17.000Z</time>
      </trkpt>
      <trkpt lat="39.52598582021892" lon="-4.328003078699112">
        <ele>1276.6</ele>
        <time>2022-04-14T08:37:18.000Z</time>
      </trkpt>
      <trkpt lat="39.52597894705832" lon="-4.328005509451032">
        <ele>1277</ele>
        <time>2022-04-14T08:37:19.000Z</time>
      </trkpt>
      <trkpt lat="39.525970900431275" lon="-4.328001486137509">
        <ele>1277.2</ele>
        <time>2022-04-14T08:37:20.000Z</time>
      </trkpt>
      <trkpt lat="39.52597014605999" lon="-4.327996959909797">
        <ele>1277.6</ele>
        <time>2022-04-14T08:37:22.000Z</time>
      </trkpt>
      <trkpt lat="39.52597031369805" lon="-4.327974328771234">
        <ele>1277.8</ele>
        <time>2022-04-14T08:37:23.000Z</time>
      </trkpt>
      <trkpt lat="39.5259902626276" lon="-4.327955301851034">
        <ele>1278.4</ele>
        <time>2022-04-14T08:37:25.000Z</time>
      </trkpt>
      <trkpt lat="39.52599260956049" lon="-4.327952200546861">
        <ele>1278.4</ele>
        <time>2022-04-14T08:37:26.000Z</time>
      </trkpt>
      <trkpt lat="39.52600878663361" lon="-4.327952787280083">
        <ele>1278.4</ele>
        <time>2022-04-14T08:37:27.000Z</time>
      </trkpt>
      <trkpt lat="39.52601758763194" lon="-4.327953541651368">
        <ele>1278.6</ele>
        <time>2022-04-14T08:37:28.000Z</time>
      </trkpt>
      <trkpt lat="39.5260195992887" lon="-4.327980112284422">
        <ele>1278.6</ele>
        <time>2022-04-14T08:37:31.000Z</time>
      </trkpt>
      <trkpt lat="39.525974839925766" lon="-4.328018836677074">
        <ele>1278.8</ele>
        <time>2022-04-14T08:37:35.000Z</time>
      </trkpt>
      <trkpt lat="39.525978108868" lon="-4.328027302399278">
        <ele>1279</ele>
        <time>2022-04-14T08:37:37.000Z</time>
      </trkpt>
      <trkpt lat="39.52597592957318" lon="-4.328036271035671">
        <ele>1279</ele>
        <time>2022-04-14T08:37:39.000Z</time>
      </trkpt>
      <trkpt lat="39.52597400173545" lon="-4.328047586604953">
        <ele>1279</ele>
        <time>2022-04-14T08:37:42.000Z</time>
      </trkpt>
      <trkpt lat="39.525969391688704" lon="-4.328052531927824">
        <ele>1278.8</ele>
        <time>2022-04-14T08:37:48.000Z</time>
      </trkpt>
      <trkpt lat="39.52597693540156" lon="-4.32804255746305">
        <ele>1278.6</ele>
        <time>2022-04-14T08:37:50.000Z</time>
      </trkpt>
      <trkpt lat="39.526026053354144" lon="-4.327996373176575">
        <ele>1278.8</ele>
        <time>2022-04-14T08:37:58.000Z</time>
      </trkpt>
      <trkpt lat="39.52603896148503" lon="-4.3279811181128025">
        <ele>1279.2</ele>
        <time>2022-04-14T08:38:00.000Z</time>
      </trkpt>
      <trkpt lat="39.52607072889805" lon="-4.327954966574907">
        <ele>1279.8</ele>
        <time>2022-04-14T08:38:05.000Z</time>
      </trkpt>
      <trkpt lat="39.5260888338089" lon="-4.327949853613973">
        <ele>1279.6</ele>
        <time>2022-04-14T08:38:07.000Z</time>
      </trkpt>
      <trkpt lat="39.52609051018953" lon="-4.32795119471848">
        <ele>1279.6</ele>
        <time>2022-04-14T08:38:08.000Z</time>
      </trkpt>
      <trkpt lat="39.52614650130272" lon="-4.327952200546861">
        <ele>1279.4</ele>
        <time>2022-04-14T08:38:14.000Z</time>
      </trkpt>
      <trkpt lat="39.5261802803725" lon="-4.327941974624991">
        <ele>1279.8</ele>
        <time>2022-04-14T08:38:18.000Z</time>
      </trkpt>
      <trkpt lat="39.52617541886866" lon="-4.327944153919816">
        <ele>1279.8</ele>
        <time>2022-04-14T08:38:20.000Z</time>
      </trkpt>
      <trkpt lat="39.52616477385163" lon="-4.327949350699782">
        <ele>1279.8</ele>
        <time>2022-04-14T08:38:23.000Z</time>
      </trkpt>
      <trkpt lat="39.526093946769834" lon="-4.327964521944523">
        <ele>1279.4</ele>
        <time>2022-04-14T08:38:29.000Z</time>
      </trkpt>
      <trkpt lat="39.52604935504496" lon="-4.327971143648028">
        <ele>1279.2</ele>
        <time>2022-04-14T08:38:31.000Z</time>
      </trkpt>
      <trkpt lat="39.526018258184195" lon="-4.327997546643019">
        <ele>1279</ele>
        <time>2022-04-14T08:38:37.000Z</time>
      </trkpt>
      <trkpt lat="39.52598229981959" lon="-4.327994529157877">
        <ele>1278.8</ele>
        <time>2022-04-14T08:38:44.000Z</time>
      </trkpt>
      <trkpt lat="39.52592723071575" lon="-4.328033588826656">
        <ele>1279</ele>
        <time>2022-04-14T08:38:47.000Z</time>
      </trkpt>
      <trkpt lat="39.52584005892277" lon="-4.328028056770563">
        <ele>1278.6</ele>
        <time>2022-04-14T08:38:53.000Z</time>
      </trkpt>
      <trkpt lat="39.52583586797118" lon="-4.328027470037341">
        <ele>1278.6</ele>
        <time>2022-04-14T08:38:54.000Z</time>
      </trkpt>
      <trkpt lat="39.525966541841626" lon="-4.327981369569898">
        <ele>1278.6</ele>
        <time>2022-04-14T08:38:57.000Z</time>
      </trkpt>
      <trkpt lat="39.526008451357484" lon="-4.327932838350534">
        <ele>1278.8</ele>
        <time>2022-04-14T08:39:02.000Z</time>
      </trkpt>
      <trkpt lat="39.526032926514745" lon="-4.327924372628331">
        <ele>1278.2</ele>
        <time>2022-04-14T08:39:11.000Z</time>
      </trkpt>
      <trkpt lat="39.526051450520754" lon="-4.32791599072516">
        <ele>1278</ele>
        <time>2022-04-14T08:39:13.000Z</time>
      </trkpt>
      <trkpt lat="39.52605036087334" lon="-4.327914649620652">
        <ele>1277.8</ele>
        <time>2022-04-14T08:39:14.000Z</time>
      </trkpt>
      <trkpt lat="39.52602395787835" lon="-4.327908782288432">
        <ele>1278</ele>
        <time>2022-04-14T08:39:19.000Z</time>
      </trkpt>
      <trkpt lat="39.52601054683328" lon="-4.327917750924826">
        <ele>1278</ele>
        <time>2022-04-14T08:39:20.000Z</time>
      </trkpt>
      <trkpt lat="39.52597944997251" lon="-4.327956223860383">
        <ele>1278</ele>
        <time>2022-04-14T08:39:24.000Z</time>
      </trkpt>
      <trkpt lat="39.525980623438954" lon="-4.3279610853642225">
        <ele>1278.2</ele>
        <time>2022-04-14T08:39:26.000Z</time>
      </trkpt>
      <trkpt lat="39.52599126845598" lon="-4.327987655997276">
        <ele>1278.2</ele>
        <time>2022-04-14T08:39:34.000Z</time>
      </trkpt>
      <trkpt lat="39.52598297037184" lon="-4.327992768958211">
        <ele>1278</ele>
        <time>2022-04-14T08:39:38.000Z</time>
      </trkpt>
      <trkpt lat="39.52598389238119" lon="-4.327995954081416">
        <ele>1277.8</ele>
        <time>2022-04-14T08:39:40.000Z</time>
      </trkpt>
      <trkpt lat="39.525981629267335" lon="-4.327998468652368">
        <ele>1277.6</ele>
        <time>2022-04-14T08:39:42.000Z</time>
      </trkpt>
      <trkpt lat="39.52598590403795" lon="-4.328005341812968">
        <ele>1277.6</ele>
        <time>2022-04-14T08:39:43.000Z</time>
      </trkpt>
      <trkpt lat="39.52594567090273" lon="-4.3280532862991095">
        <ele>1278</ele>
        <time>2022-04-14T08:39:52.000Z</time>
      </trkpt>
      <trkpt lat="39.525937708094716" lon="-4.328050939366221">
        <ele>1278</ele>
        <time>2022-04-14T08:39:53.000Z</time>
      </trkpt>
      <trkpt lat="39.525916585698724" lon="-4.328045407310128">
        <ele>1278.2</ele>
        <time>2022-04-14T08:39:55.000Z</time>
      </trkpt>
      <trkpt lat="39.525922955945134" lon="-4.328031660988927">
        <ele>1279</ele>
        <time>2022-04-14T08:39:59.000Z</time>
      </trkpt>
      <trkpt lat="39.52593142166734" lon="-4.32802252471447">
        <ele>1279.2</ele>
        <time>2022-04-14T08:40:01.000Z</time>
      </trkpt>
      <trkpt lat="39.525946509093046" lon="-4.328019758686423">
        <ele>1279.6</ele>
        <time>2022-04-14T08:40:04.000Z</time>
      </trkpt>
      <trkpt lat="39.52595145441592" lon="-4.328023111447692">
        <ele>1280.2</ele>
        <time>2022-04-14T08:40:06.000Z</time>
      </trkpt>
      <trkpt lat="39.5259471796453" lon="-4.328021937981248">
        <ele>1280.6</ele>
        <time>2022-04-14T08:40:07.000Z</time>
      </trkpt>
      <trkpt lat="39.52593360096216" lon="-4.328024536371231">
        <ele>1281.2</ele>
        <time>2022-04-14T08:40:09.000Z</time>
      </trkpt>
      <trkpt lat="39.52593041583896" lon="-4.328026799485087">
        <ele>1281.4</ele>
        <time>2022-04-14T08:40:12.000Z</time>
      </trkpt>
      <trkpt lat="39.52593552879989" lon="-4.32802596129477">
        <ele>1281.6</ele>
        <time>2022-04-14T08:40:13.000Z</time>
      </trkpt>
      <trkpt lat="39.525961177423596" lon="-4.32800592854619">
        <ele>1282.2</ele>
        <time>2022-04-14T08:40:18.000Z</time>
      </trkpt>
      <trkpt lat="39.52594382688403" lon="-4.328009868040681">
        <ele>1282.2</ele>
        <time>2022-04-14T08:40:21.000Z</time>
      </trkpt>
      <trkpt lat="39.5258694794029" lon="-4.327980447560549">
        <ele>1282.2</ele>
        <time>2022-04-14T08:40:28.000Z</time>
      </trkpt>
      <trkpt lat="39.52585053630173" lon="-4.3279920145869255">
        <ele>1281.8</ele>
        <time>2022-04-14T08:40:32.000Z</time>
      </trkpt>
      <trkpt lat="39.52585908584297" lon="-4.327993439510465">
        <ele>1281.8</ele>
        <time>2022-04-14T08:40:34.000Z</time>
      </trkpt>
      <trkpt lat="39.525859002023935" lon="-4.327998887747526">
        <ele>1281.8</ele>
        <time>2022-04-14T08:40:37.000Z</time>
      </trkpt>
      <trkpt lat="39.525864785537124" lon="-4.328004419803619">
        <ele>1281.8</ele>
        <time>2022-04-14T08:40:40.000Z</time>
      </trkpt>
      <trkpt lat="39.525863360613585" lon="-4.327977430075407">
        <ele>1283.2</ele>
        <time>2022-04-14T08:40:45.000Z</time>
      </trkpt>
      <trkpt lat="39.525847770273685" lon="-4.32797416113317">
        <ele>1283.6</ele>
        <time>2022-04-14T08:40:47.000Z</time>
      </trkpt>
      <trkpt lat="39.52579312026501" lon="-4.327975837513804">
        <ele>1284</ele>
        <time>2022-04-14T08:40:51.000Z</time>
      </trkpt>
      <trkpt lat="39.52577727846801" lon="-4.327977681532502">
        <ele>1284.4</ele>
        <time>2022-04-14T08:40:53.000Z</time>
      </trkpt>
      <trkpt lat="39.525768142193556" lon="-4.327978854998946">
        <ele>1284.4</ele>
        <time>2022-04-14T08:40:54.000Z</time>
      </trkpt>
      <trkpt lat="39.525754395872355" lon="-4.3279840517789125">
        <ele>1284.6</ele>
        <time>2022-04-14T08:40:55.000Z</time>
      </trkpt>
      <trkpt lat="39.52573696151376" lon="-4.327983967959881">
        <ele>1285</ele>
        <time>2022-04-14T08:40:57.000Z</time>
      </trkpt>
      <trkpt lat="39.52571843750775" lon="-4.327985644340515">
        <ele>1285.4</ele>
        <time>2022-04-14T08:40:59.000Z</time>
      </trkpt>
      <trkpt lat="39.52570301480591" lon="-4.327981537207961">
        <ele>1285.8</ele>
        <time>2022-04-14T08:41:01.000Z</time>
      </trkpt>
      <trkpt lat="39.52569521963596" lon="-4.327976927161217">
        <ele>1286.4</ele>
        <time>2022-04-14T08:41:04.000Z</time>
      </trkpt>
      <trkpt lat="39.52569999732077" lon="-4.327970054000616">
        <ele>1286.6</ele>
        <time>2022-04-14T08:41:05.000Z</time>
      </trkpt>
      <trkpt lat="39.525715839117765" lon="-4.32796586304903">
        <ele>1287</ele>
        <time>2022-04-14T08:41:07.000Z</time>
      </trkpt>
      <trkpt lat="39.525714833289385" lon="-4.327962761744857">
        <ele>1287.2</ele>
        <time>2022-04-14T08:41:08.000Z</time>
      </trkpt>
      <trkpt lat="39.52570737339556" lon="-4.327960330992937">
        <ele>1287.8</ele>
        <time>2022-04-14T08:41:10.000Z</time>
      </trkpt>
      <trkpt lat="39.52570326626301" lon="-4.327958235517144">
        <ele>1288.2</ele>
        <time>2022-04-14T08:41:12.000Z</time>
      </trkpt>
      <trkpt lat="39.525700248777866" lon="-4.327962510287762">
        <ele>1288.6</ele>
        <time>2022-04-14T08:41:13.000Z</time>
      </trkpt>
      <trkpt lat="39.525692788884044" lon="-4.327955134212971">
        <ele>1288.8</ele>
        <time>2022-04-14T08:41:16.000Z</time>
      </trkpt>
      <trkpt lat="39.52568935230374" lon="-4.327961588278413">
        <ele>1289</ele>
        <time>2022-04-14T08:41:19.000Z</time>
      </trkpt>
      <trkpt lat="39.52574148774147" lon="-4.32793359272182">
        <ele>1288.8</ele>
        <time>2022-04-14T08:41:27.000Z</time>
      </trkpt>
      <trkpt lat="39.52579504810274" lon="-4.327884055674076">
        <ele>1289.2</ele>
        <time>2022-04-14T08:41:34.000Z</time>
      </trkpt>
      <trkpt lat="39.5258108060807" lon="-4.327856982126832">
        <ele>1289</ele>
        <time>2022-04-14T08:41:38.000Z</time>
      </trkpt>
      <trkpt lat="39.525782810524106" lon="-4.3278491869568825">
        <ele>1288.8</ele>
        <time>2022-04-14T08:41:42.000Z</time>
      </trkpt>
      <trkpt lat="39.525775937363505" lon="-4.327848516404629">
        <ele>1288.8</ele>
        <time>2022-04-14T08:41:45.000Z</time>
      </trkpt>
      <trkpt lat="39.52575263567269" lon="-4.327856311574578">
        <ele>1288.8</ele>
        <time>2022-04-14T08:41:51.000Z</time>
      </trkpt>
      <trkpt lat="39.52577040530741" lon="-4.327858658507466">
        <ele>1289</ele>
        <time>2022-04-14T08:41:56.000Z</time>
      </trkpt>
      <trkpt lat="39.525774512439966" lon="-4.327857065945864">
        <ele>1289</ele>
        <time>2022-04-14T08:41:59.000Z</time>
      </trkpt>
      <trkpt lat="39.52577954158187" lon="-4.327862011268735">
        <ele>1288.8</ele>
        <time>2022-04-14T08:42:06.000Z</time>
      </trkpt>
      <trkpt lat="39.52577174641192" lon="-4.327874248847365">
        <ele>1289</ele>
        <time>2022-04-14T08:42:09.000Z</time>
      </trkpt>
      <trkpt lat="39.52576344832778" lon="-4.3278715666383505">
        <ele>1290</ele>
        <time>2022-04-14T08:42:12.000Z</time>
      </trkpt>
      <trkpt lat="39.525760347023606" lon="-4.32787299156189">
        <ele>1290.2</ele>
        <time>2022-04-14T08:42:13.000Z</time>
      </trkpt>
      <trkpt lat="39.525767555460334" lon="-4.327868465334177">
        <ele>1290.8</ele>
        <time>2022-04-14T08:42:15.000Z</time>
      </trkpt>
      <trkpt lat="39.52576738782227" lon="-4.327869303524494">
        <ele>1291.2</ele>
        <time>2022-04-14T08:42:16.000Z</time>
      </trkpt>
      <trkpt lat="39.52575573697686" lon="-4.327864442020655">
        <ele>1292.4</ele>
        <time>2022-04-14T08:42:20.000Z</time>
      </trkpt>
      <trkpt lat="39.52574836090207" lon="-4.327868800610304">
        <ele>1292.6</ele>
        <time>2022-04-14T08:42:21.000Z</time>
      </trkpt>
      <trkpt lat="39.52574450522661" lon="-4.327875003218651">
        <ele>1293.4</ele>
        <time>2022-04-14T08:42:25.000Z</time>
      </trkpt>
      <trkpt lat="39.525747522711754" lon="-4.327869638800621">
        <ele>1294.4</ele>
        <time>2022-04-14T08:42:28.000Z</time>
      </trkpt>
      <trkpt lat="39.525742158293724" lon="-4.327868465334177">
        <ele>1294.8</ele>
        <time>2022-04-14T08:42:29.000Z</time>
      </trkpt>
      <trkpt lat="39.525735871866345" lon="-4.327868297696114">
        <ele>1295.2</ele>
        <time>2022-04-14T08:42:30.000Z</time>
      </trkpt>
      <trkpt lat="39.525721706449986" lon="-4.327879277989268">
        <ele>1296</ele>
        <time>2022-04-14T08:42:32.000Z</time>
      </trkpt>
      <trkpt lat="39.52570963650942" lon="-4.327894868329167">
        <ele>1296.6</ele>
        <time>2022-04-14T08:42:34.000Z</time>
      </trkpt>
      <trkpt lat="39.525707541033626" lon="-4.32790283113718">
        <ele>1296.8</ele>
        <time>2022-04-14T08:42:36.000Z</time>
      </trkpt>
      <trkpt lat="39.52569119632244" lon="-4.327904507517815">
        <ele>1297</ele>
        <time>2022-04-14T08:42:44.000Z</time>
      </trkpt>
      <trkpt lat="39.52569069340825" lon="-4.32789939455688">
        <ele>1297</ele>
        <time>2022-04-14T08:42:45.000Z</time>
      </trkpt>
      <trkpt lat="39.525717766955495" lon="-4.327881708741188">
        <ele>1296.4</ele>
        <time>2022-04-14T08:42:53.000Z</time>
      </trkpt>
      <trkpt lat="39.52575431205332" lon="-4.327888833358884">
        <ele>1296.2</ele>
        <time>2022-04-14T08:42:58.000Z</time>
      </trkpt>
      <trkpt lat="39.525765627622604" lon="-4.327886737883091">
        <ele>1296.4</ele>
        <time>2022-04-14T08:43:03.000Z</time>
      </trkpt>
      <trkpt lat="39.52579781413078" lon="-4.32789989747107">
        <ele>1296.2</ele>
        <time>2022-04-14T08:43:10.000Z</time>
      </trkpt>
      <trkpt lat="39.52577677555382" lon="-4.327904339879751">
        <ele>1296</ele>
        <time>2022-04-14T08:43:17.000Z</time>
      </trkpt>
      <trkpt lat="39.525681557133794" lon="-4.328002827242017">
        <ele>1297.6</ele>
        <time>2022-04-14T08:43:23.000Z</time>
      </trkpt>
      <trkpt lat="39.52565238811076" lon="-4.328020345419645">
        <ele>1299</ele>
        <time>2022-04-14T08:43:25.000Z</time>
      </trkpt>
      <trkpt lat="39.525628415867686" lon="-4.328022776171565">
        <ele>1299.4</ele>
        <time>2022-04-14T08:43:27.000Z</time>
      </trkpt>
      <trkpt lat="39.52563344500959" lon="-4.32801766321063">
        <ele>1299.6</ele>
        <time>2022-04-14T08:43:28.000Z</time>
      </trkpt>
      <trkpt lat="39.525645431131124" lon="-4.328005006536841">
        <ele>1299.8</ele>
        <time>2022-04-14T08:43:32.000Z</time>
      </trkpt>
      <trkpt lat="39.525636211037636" lon="-4.328009616583586">
        <ele>1300</ele>
        <time>2022-04-14T08:43:33.000Z</time>
      </trkpt>
      <trkpt lat="39.52561835758388" lon="-4.3279908411204815">
        <ele>1300</ele>
        <time>2022-04-14T08:43:35.000Z</time>
      </trkpt>
      <trkpt lat="39.525603437796235" lon="-4.328004587441683">
        <ele>1300</ele>
        <time>2022-04-14T08:43:37.000Z</time>
      </trkpt>
      <trkpt lat="39.52559891156852" lon="-4.328007604926825">
        <ele>1300</ele>
        <time>2022-04-14T08:43:43.000Z</time>
      </trkpt>
      <trkpt lat="39.52559891156852" lon="-4.328007102012634">
        <ele>1299.8</ele>
        <time>2022-04-14T08:43:45.000Z</time>
      </trkpt>
      <trkpt lat="39.5254704169929" lon="-4.327916661277413">
        <ele>1306.6</ele>
        <time>2022-04-14T08:45:55.000Z</time>
      </trkpt>
      <trkpt lat="39.52543990686536" lon="-4.327903753146529">
        <ele>1308</ele>
        <time>2022-04-14T08:45:58.000Z</time>
      </trkpt>
      <trkpt lat="39.52542616054416" lon="-4.327890258282423">
        <ele>1308.2</ele>
        <time>2022-04-14T08:45:59.000Z</time>
      </trkpt>
      <trkpt lat="39.52540738508105" lon="-4.327887240797281">
        <ele>1308.2</ele>
        <time>2022-04-14T08:46:02.000Z</time>
      </trkpt>
      <trkpt lat="39.52539690770209" lon="-4.327890174463391">
        <ele>1308.4</ele>
        <time>2022-04-14T08:46:03.000Z</time>
      </trkpt>
      <trkpt lat="39.52538383193314" lon="-4.327895538881421">
        <ele>1308.6</ele>
        <time>2022-04-14T08:46:04.000Z</time>
      </trkpt>
      <trkpt lat="39.52537536621094" lon="-4.327894197776914">
        <ele>1308.6</ele>
        <time>2022-04-14T08:46:05.000Z</time>
      </trkpt>
      <trkpt lat="39.52536530792713" lon="-4.3279048427939415">
        <ele>1308.8</ele>
        <time>2022-04-14T08:46:06.000Z</time>
      </trkpt>
      <trkpt lat="39.52535793185234" lon="-4.327912554144859">
        <ele>1309</ele>
        <time>2022-04-14T08:46:07.000Z</time>
      </trkpt>
      <trkpt lat="39.52534192241728" lon="-4.327921438962221">
        <ele>1309.6</ele>
        <time>2022-04-14T08:46:09.000Z</time>
      </trkpt>
      <trkpt lat="39.52532356604934" lon="-4.327923366799951">
        <ele>1310</ele>
        <time>2022-04-14T08:46:11.000Z</time>
      </trkpt>
      <trkpt lat="39.52531593851745" lon="-4.327927557751536">
        <ele>1310</ele>
        <time>2022-04-14T08:46:12.000Z</time>
      </trkpt>
      <trkpt lat="39.52530789189041" lon="-4.327932922169566">
        <ele>1310.2</ele>
        <time>2022-04-14T08:46:13.000Z</time>
      </trkpt>
      <trkpt lat="39.52529959380627" lon="-4.327938538044691">
        <ele>1310.2</ele>
        <time>2022-04-14T08:46:14.000Z</time>
      </trkpt>
      <trkpt lat="39.52529590576887" lon="-4.327943651005626">
        <ele>1310.4</ele>
        <time>2022-04-14T08:46:15.000Z</time>
      </trkpt>
      <trkpt lat="39.52527000568807" lon="-4.3279737420380116">
        <ele>1311.4</ele>
        <time>2022-04-14T08:46:19.000Z</time>
      </trkpt>
      <trkpt lat="39.52525969594717" lon="-4.32798488996923">
        <ele>1311.8</ele>
        <time>2022-04-14T08:46:20.000Z</time>
      </trkpt>
      <trkpt lat="39.52524745836854" lon="-4.328013136982918">
        <ele>1312.2</ele>
        <time>2022-04-14T08:46:23.000Z</time>
      </trkpt>
      <trkpt lat="39.52524745836854" lon="-4.328013136982918">
        <ele>1312.2</ele>
        <time>2022-04-14T08:46:24.000Z</time>
      </trkpt>
      <trkpt lat="39.52524745836854" lon="-4.328013136982918">
        <ele>1312.6</ele>
        <time>2022-04-14T08:46:25.000Z</time>
      </trkpt>
      <trkpt lat="39.52523857355118" lon="-4.328017411753535">
        <ele>1313</ele>
        <time>2022-04-14T08:46:26.000Z</time>
      </trkpt>
      <trkpt lat="39.52522533014417" lon="-4.32801766321063">
        <ele>1313.4</ele>
        <time>2022-04-14T08:46:27.000Z</time>
      </trkpt>
      <trkpt lat="39.52522533014417" lon="-4.32801766321063">
        <ele>1313.4</ele>
        <time>2022-04-14T08:46:28.000Z</time>
      </trkpt>
      <trkpt lat="39.52520739287138" lon="-4.328037025406957">
        <ele>1315.4</ele>
        <time>2022-04-14T08:46:34.000Z</time>
      </trkpt>
      <trkpt lat="39.52520739287138" lon="-4.328037025406957">
        <ele>1315.4</ele>
        <time>2022-04-14T08:46:35.000Z</time>
      </trkpt>
      <trkpt lat="39.52518157660961" lon="-4.32804012671113">
        <ele>1316.2</ele>
        <time>2022-04-14T08:46:41.000Z</time>
      </trkpt>
      <trkpt lat="39.52516573481262" lon="-4.328031158074737">
        <ele>1316.2</ele>
        <time>2022-04-14T08:46:45.000Z</time>
      </trkpt>
      <trkpt lat="39.52516456134617" lon="-4.32802596129477">
        <ele>1316.2</ele>
        <time>2022-04-14T08:46:47.000Z</time>
      </trkpt>
      <trkpt lat="39.52516623772681" lon="-4.32802545838058">
        <ele>1316</ele>
        <time>2022-04-14T08:46:48.000Z</time>
      </trkpt>
      <trkpt lat="39.52516783028841" lon="-4.328024536371231">
        <ele>1316</ele>
        <time>2022-04-14T08:46:50.000Z</time>
      </trkpt>
      <trkpt lat="39.52517034485936" lon="-4.328013891354203">
        <ele>1316</ele>
        <time>2022-04-14T08:46:55.000Z</time>
      </trkpt>
      <trkpt lat="39.525172440335155" lon="-4.3280114606022835">
        <ele>1316</ele>
        <time>2022-04-14T08:46:57.000Z</time>
      </trkpt>
      <trkpt lat="39.52517428435385" lon="-4.3280088622123">
        <ele>1315.8</ele>
        <time>2022-04-14T08:47:00.000Z</time>
      </trkpt>
      <trkpt lat="39.52517059631646" lon="-4.328008107841015">
        <ele>1315.6</ele>
        <time>2022-04-14T08:47:05.000Z</time>
      </trkpt>
      <trkpt lat="39.525164226070046" lon="-4.328020429238677">
        <ele>1315.8</ele>
        <time>2022-04-14T08:47:09.000Z</time>
      </trkpt>
      <trkpt lat="39.52516187913716" lon="-4.328032750636339">
        <ele>1316.2</ele>
        <time>2022-04-14T08:47:13.000Z</time>
      </trkpt>
      <trkpt lat="39.5252251625061" lon="-4.327984554693103">
        <ele>1316.2</ele>
        <time>2022-04-14T08:47:20.000Z</time>
      </trkpt>
      <trkpt lat="39.52526296488941" lon="-4.32795655913651">
        <ele>1316.2</ele>
        <time>2022-04-14T08:47:22.000Z</time>
      </trkpt>
      <trkpt lat="39.52532331459224" lon="-4.32791942730546">
        <ele>1316.2</ele>
        <time>2022-04-14T08:47:26.000Z</time>
      </trkpt>
      <trkpt lat="39.52527184970677" lon="-4.327971562743187">
        <ele>1316.4</ele>
        <time>2022-04-14T08:47:31.000Z</time>
      </trkpt>
      <trkpt lat="39.52525625936687" lon="-4.327988745644689">
        <ele>1316.6</ele>
        <time>2022-04-14T08:47:33.000Z</time>
      </trkpt>
      <trkpt lat="39.52524410560727" lon="-4.328006347641349">
        <ele>1317.4</ele>
        <time>2022-04-14T08:47:35.000Z</time>
      </trkpt>
      <trkpt lat="39.52523530460894" lon="-4.32800249196589">
        <ele>1317.6</ele>
        <time>2022-04-14T08:47:36.000Z</time>
      </trkpt>
      <trkpt lat="39.525214433670044" lon="-4.328001821413636">
        <ele>1316.4</ele>
        <time>2022-04-14T08:47:39.000Z</time>
      </trkpt>
      <trkpt lat="39.52516430988908" lon="-4.328022189438343">
        <ele>1317.4</ele>
        <time>2022-04-14T08:47:44.000Z</time>
      </trkpt>
      <trkpt lat="39.525154922157526" lon="-4.328028308227658">
        <ele>1318</ele>
        <time>2022-04-14T08:47:45.000Z</time>
      </trkpt>
      <trkpt lat="39.52515123412013" lon="-4.328039539977908">
        <ele>1316</ele>
        <time>2022-04-14T08:47:46.000Z</time>
      </trkpt>
      <trkpt lat="39.52514008618891" lon="-4.328056387603283">
        <ele>1316.6</ele>
        <time>2022-04-14T08:47:48.000Z</time>
      </trkpt>
      <trkpt lat="39.52512432821095" lon="-4.3280744925141335">
        <ele>1316.8</ele>
        <time>2022-04-14T08:47:50.000Z</time>
      </trkpt>
      <trkpt lat="39.52510530129075" lon="-4.328093100339174">
        <ele>1316.8</ele>
        <time>2022-04-14T08:47:53.000Z</time>
      </trkpt>
      <trkpt lat="39.52509708702564" lon="-4.328112043440342">
        <ele>1317</ele>
        <time>2022-04-14T08:47:55.000Z</time>
      </trkpt>
      <trkpt lat="39.525084011256695" lon="-4.328128304332495">
        <ele>1317.6</ele>
        <time>2022-04-14T08:47:57.000Z</time>
      </trkpt>
      <trkpt lat="39.52507738955319" lon="-4.328134004026651">
        <ele>1317.6</ele>
        <time>2022-04-14T08:47:58.000Z</time>
      </trkpt>
      <trkpt lat="39.52507839538157" lon="-4.32814079336822">
        <ele>1317.8</ele>
        <time>2022-04-14T08:47:59.000Z</time>
      </trkpt>
      <trkpt lat="39.52507596462965" lon="-4.328149342909455">
        <ele>1318</ele>
        <time>2022-04-14T08:48:00.000Z</time>
      </trkpt>
      <trkpt lat="39.525073785334826" lon="-4.328156551346183">
        <ele>1318</ele>
        <time>2022-04-14T08:48:01.000Z</time>
      </trkpt>
      <trkpt lat="39.52506682835519" lon="-4.328170381486416">
        <ele>1318.4</ele>
        <time>2022-04-14T08:48:03.000Z</time>
      </trkpt>
      <trkpt lat="39.52506188303232" lon="-4.328196030110121">
        <ele>1319</ele>
        <time>2022-04-14T08:48:06.000Z</time>
      </trkpt>
      <trkpt lat="39.525063056498766" lon="-4.328210866078734">
        <ele>1319.2</ele>
        <time>2022-04-14T08:48:08.000Z</time>
      </trkpt>
      <trkpt lat="39.52503992244601" lon="-4.328245399519801">
        <ele>1319.8</ele>
        <time>2022-04-14T08:48:12.000Z</time>
      </trkpt>
      <trkpt lat="39.52503103762865" lon="-4.328257301822305">
        <ele>1320</ele>
        <time>2022-04-14T08:48:14.000Z</time>
      </trkpt>
      <trkpt lat="39.52502206899226" lon="-4.328260570764542">
        <ele>1320.2</ele>
        <time>2022-04-14T08:48:15.000Z</time>
      </trkpt>
      <trkpt lat="39.52501284889877" lon="-4.328259397298098">
        <ele>1320.6</ele>
        <time>2022-04-14T08:48:17.000Z</time>
      </trkpt>
      <trkpt lat="39.525014190003276" lon="-4.3282688688486814">
        <ele>1321.4</ele>
        <time>2022-04-14T08:48:20.000Z</time>
      </trkpt>
      <trkpt lat="39.52501159161329" lon="-4.328269874677062">
        <ele>1321.4</ele>
        <time>2022-04-14T08:48:30.000Z</time>
      </trkpt>
      <trkpt lat="39.52498837374151" lon="-4.328295774757862">
        <ele>1321.8</ele>
        <time>2022-04-14T08:48:39.000Z</time>
      </trkpt>
      <trkpt lat="39.52498569153249" lon="-4.328307257965207">
        <ele>1322.4</ele>
        <time>2022-04-14T08:48:42.000Z</time>
      </trkpt>
      <trkpt lat="39.52496155165136" lon="-4.328329134732485">
        <ele>1322.6</ele>
        <time>2022-04-14T08:48:46.000Z</time>
      </trkpt>
      <trkpt lat="39.524948727339506" lon="-4.32836702093482">
        <ele>1323.6</ele>
        <time>2022-04-14T08:48:50.000Z</time>
      </trkpt>
      <trkpt lat="39.524940848350525" lon="-4.328379761427641">
        <ele>1324.2</ele>
        <time>2022-04-14T08:48:52.000Z</time>
      </trkpt>
      <trkpt lat="39.524924755096436" lon="-4.328390657901764">
        <ele>1324.6</ele>
        <time>2022-04-14T08:48:59.000Z</time>
      </trkpt>
      <trkpt lat="39.52492416836321" lon="-4.328393675386906">
        <ele>1324.6</ele>
        <time>2022-04-14T08:49:00.000Z</time>
      </trkpt>
      <trkpt lat="39.52492400072515" lon="-4.3283957708626986">
        <ele>1325.4</ele>
        <time>2022-04-14T08:49:05.000Z</time>
      </trkpt>
      <trkpt lat="39.52489072456956" lon="-4.328398369252682">
        <ele>1325.6</ele>
        <time>2022-04-14T08:49:14.000Z</time>
      </trkpt>
      <trkpt lat="39.52487790025771" lon="-4.328391747549176">
        <ele>1325.8</ele>
        <time>2022-04-14T08:49:17.000Z</time>
      </trkpt>
      <trkpt lat="39.52486423775554" lon="-4.328384706750512">
        <ele>1326.2</ele>
        <time>2022-04-14T08:49:19.000Z</time>
      </trkpt>
      <trkpt lat="39.52485174871981" lon="-4.328370206058025">
        <ele>1326.8</ele>
        <time>2022-04-14T08:49:21.000Z</time>
      </trkpt>
      <trkpt lat="39.5248490665108" lon="-4.328365009278059">
        <ele>1327</ele>
        <time>2022-04-14T08:49:22.000Z</time>
      </trkpt>
      <trkpt lat="39.52483791857958" lon="-4.328353609889746">
        <ele>1327.6</ele>
        <time>2022-04-14T08:49:24.000Z</time>
      </trkpt>
      <trkpt lat="39.524836828932166" lon="-4.328349754214287">
        <ele>1328</ele>
        <time>2022-04-14T08:49:25.000Z</time>
      </trkpt>
      <trkpt lat="39.52483599074185" lon="-4.328341539949179">
        <ele>1328.2</ele>
        <time>2022-04-14T08:49:26.000Z</time>
      </trkpt>
      <trkpt lat="39.52482442371547" lon="-4.328321758657694">
        <ele>1329</ele>
        <time>2022-04-14T08:49:30.000Z</time>
      </trkpt>
      <trkpt lat="39.52482685446739" lon="-4.32831865735352">
        <ele>1329.2</ele>
        <time>2022-04-14T08:49:31.000Z</time>
      </trkpt>
      <trkpt lat="39.52482836320996" lon="-4.3283171486109495">
        <ele>1329.6</ele>
        <time>2022-04-14T08:49:37.000Z</time>
      </trkpt>
      <trkpt lat="39.52482006512582" lon="-4.328314131125808">
        <ele>1329.4</ele>
        <time>2022-04-14T08:49:44.000Z</time>
      </trkpt>
      <trkpt lat="39.524819226935506" lon="-4.328312622383237">
        <ele>1329</ele>
        <time>2022-04-14T08:49:49.000Z</time>
      </trkpt>
      <trkpt lat="39.524816712364554" lon="-4.32829518802464">
        <ele>1329.2</ele>
        <time>2022-04-14T08:49:53.000Z</time>
      </trkpt>
      <trkpt lat="39.52480765990913" lon="-4.328273730352521">
        <ele>1329.8</ele>
        <time>2022-04-14T08:49:56.000Z</time>
      </trkpt>
      <trkpt lat="39.524806486442685" lon="-4.3282650131732225">
        <ele>1330</ele>
        <time>2022-04-14T08:49:57.000Z</time>
      </trkpt>
      <trkpt lat="39.52480531297624" lon="-4.328254284337163">
        <ele>1330.4</ele>
        <time>2022-04-14T08:49:58.000Z</time>
      </trkpt>
      <trkpt lat="39.52480271458626" lon="-4.328223522752523">
        <ele>1331.4</ele>
        <time>2022-04-14T08:50:01.000Z</time>
      </trkpt>
      <trkpt lat="39.52479877509177" lon="-4.328200723975897">
        <ele>1332</ele>
        <time>2022-04-14T08:50:03.000Z</time>
      </trkpt>
      <trkpt lat="39.52479408122599" lon="-4.328194772824645">
        <ele>1332.4</ele>
        <time>2022-04-14T08:50:04.000Z</time>
      </trkpt>
      <trkpt lat="39.52477974817157" lon="-4.328175578266382">
        <ele>1334</ele>
        <time>2022-04-14T08:50:07.000Z</time>
      </trkpt>
      <trkpt lat="39.52475946396589" lon="-4.32816912420094">
        <ele>1335</ele>
        <time>2022-04-14T08:50:09.000Z</time>
      </trkpt>
      <trkpt lat="39.524743873625994" lon="-4.328166441991925">
        <ele>1335.2</ele>
        <time>2022-04-14T08:50:10.000Z</time>
      </trkpt>
      <trkpt lat="39.52470615506172" lon="-4.328162167221308">
        <ele>1336</ele>
        <time>2022-04-14T08:50:13.000Z</time>
      </trkpt>
      <trkpt lat="39.52469634823501" lon="-4.328158143907785">
        <ele>1336.4</ele>
        <time>2022-04-14T08:50:14.000Z</time>
      </trkpt>
      <trkpt lat="39.52467732131481" lon="-4.328156299889088">
        <ele>1337.2</ele>
        <time>2022-04-14T08:50:16.000Z</time>
      </trkpt>
      <trkpt lat="39.52466273680329" lon="-4.3281572218984365">
        <ele>1337.4</ele>
        <time>2022-04-14T08:50:17.000Z</time>
      </trkpt>
      <trkpt lat="39.52463138848543" lon="-4.32815495878458">
        <ele>1338.2</ele>
        <time>2022-04-14T08:50:20.000Z</time>
      </trkpt>
      <trkpt lat="39.52462250366807" lon="-4.328153030946851">
        <ele>1338.6</ele>
        <time>2022-04-14T08:50:21.000Z</time>
      </trkpt>
      <trkpt lat="39.524604147300124" lon="-4.328153366222978">
        <ele>1339.4</ele>
        <time>2022-04-14T08:50:24.000Z</time>
      </trkpt>
      <trkpt lat="39.52460045926273" lon="-4.328150432556868">
        <ele>1339.8</ele>
        <time>2022-04-14T08:50:25.000Z</time>
      </trkpt>
      <trkpt lat="39.52458403073251" lon="-4.328154791146517">
        <ele>1340.4</ele>
        <time>2022-04-14T08:50:27.000Z</time>
      </trkpt>
      <trkpt lat="39.52457799576223" lon="-4.328154372051358">
        <ele>1340.6</ele>
        <time>2022-04-14T08:50:28.000Z</time>
      </trkpt>
      <trkpt lat="39.52457154169679" lon="-4.328153198584914">
        <ele>1341</ele>
        <time>2022-04-14T08:50:29.000Z</time>
      </trkpt>
      <trkpt lat="39.5245639141649" lon="-4.328152779489756">
        <ele>1341.2</ele>
        <time>2022-04-14T08:50:30.000Z</time>
      </trkpt>
      <trkpt lat="39.52454186975956" lon="-4.3281542882323265">
        <ele>1342</ele>
        <time>2022-04-14T08:50:33.000Z</time>
      </trkpt>
      <trkpt lat="39.52453365549445" lon="-4.328155042603612">
        <ele>1342.2</ele>
        <time>2022-04-14T08:50:34.000Z</time>
      </trkpt>
      <trkpt lat="39.52451169490814" lon="-4.328154791146517">
        <ele>1342.6</ele>
        <time>2022-04-14T08:50:36.000Z</time>
      </trkpt>
      <trkpt lat="39.52449300326407" lon="-4.328148253262043">
        <ele>1343.4</ele>
        <time>2022-04-14T08:50:38.000Z</time>
      </trkpt>
      <trkpt lat="39.52447942458093" lon="-4.328150935471058">
        <ele>1343.8</ele>
        <time>2022-04-14T08:50:40.000Z</time>
      </trkpt>
      <trkpt lat="39.52446961775422" lon="-4.328153366222978">
        <ele>1344.6</ele>
        <time>2022-04-14T08:50:42.000Z</time>
      </trkpt>
      <trkpt lat="39.52446358278394" lon="-4.328154204413295">
        <ele>1344.8</ele>
        <time>2022-04-14T08:50:43.000Z</time>
      </trkpt>
      <trkpt lat="39.52443986199796" lon="-4.328142134472728">
        <ele>1345.6</ele>
        <time>2022-04-14T08:50:47.000Z</time>
      </trkpt>
      <trkpt lat="39.52441136352718" lon="-4.328116402029991">
        <ele>1346.2</ele>
        <time>2022-04-14T08:50:50.000Z</time>
      </trkpt>
      <trkpt lat="39.5243876427412" lon="-4.328100811690092">
        <ele>1346.8</ele>
        <time>2022-04-14T08:50:53.000Z</time>
      </trkpt>
      <trkpt lat="39.5243826135993" lon="-4.3280889093875885">
        <ele>1347</ele>
        <time>2022-04-14T08:50:54.000Z</time>
      </trkpt>
      <trkpt lat="39.52437146566808" lon="-4.328040210530162">
        <ele>1347.8</ele>
        <time>2022-04-14T08:50:57.000Z</time>
      </trkpt>
      <trkpt lat="39.52436945401132" lon="-4.328025626018643">
        <ele>1347.8</ele>
        <time>2022-04-14T08:50:58.000Z</time>
      </trkpt>
      <trkpt lat="39.5243516843766" lon="-4.327957313507795">
        <ele>1348.4</ele>
        <time>2022-04-14T08:51:03.000Z</time>
      </trkpt>
      <trkpt lat="39.524324191734195" lon="-4.327925881370902">
        <ele>1349</ele>
        <time>2022-04-14T08:51:07.000Z</time>
      </trkpt>
      <trkpt lat="39.5242961961776" lon="-4.327908530831337">
        <ele>1350.4</ele>
        <time>2022-04-14T08:51:10.000Z</time>
      </trkpt>
      <trkpt lat="39.52426769770682" lon="-4.327897382900119">
        <ele>1351.2</ele>
        <time>2022-04-14T08:51:13.000Z</time>
      </trkpt>
      <trkpt lat="39.52425906434655" lon="-4.327892940491438">
        <ele>1351.8</ele>
        <time>2022-04-14T08:51:14.000Z</time>
      </trkpt>
      <trkpt lat="39.52424297109246" lon="-4.3278842233121395">
        <ele>1353.4</ele>
        <time>2022-04-14T08:51:16.000Z</time>
      </trkpt>
      <trkpt lat="39.524236265569925" lon="-4.327878523617983">
        <ele>1353.8</ele>
        <time>2022-04-14T08:51:17.000Z</time>
      </trkpt>
      <trkpt lat="39.52421648427844" lon="-4.327877853065729">
        <ele>1354.6</ele>
        <time>2022-04-14T08:51:19.000Z</time>
      </trkpt>
      <trkpt lat="39.52418530359864" lon="-4.327874416485429">
        <ele>1355.8</ele>
        <time>2022-04-14T08:51:22.000Z</time>
      </trkpt>
      <trkpt lat="39.524154625833035" lon="-4.327881960198283">
        <ele>1356.2</ele>
        <time>2022-04-14T08:51:25.000Z</time>
      </trkpt>
      <trkpt lat="39.524146327748895" lon="-4.3278836365789175">
        <ele>1356.4</ele>
        <time>2022-04-14T08:51:26.000Z</time>
      </trkpt>
      <trkpt lat="39.52413425780833" lon="-4.327884474769235">
        <ele>1356.8</ele>
        <time>2022-04-14T08:51:28.000Z</time>
      </trkpt>
      <trkpt lat="39.524105256423354" lon="-4.327868549153209">
        <ele>1357.2</ele>
        <time>2022-04-14T08:51:31.000Z</time>
      </trkpt>
      <trkpt lat="39.52407374046743" lon="-4.327837368473411">
        <ele>1358</ele>
        <time>2022-04-14T08:51:35.000Z</time>
      </trkpt>
      <trkpt lat="39.52405798248947" lon="-4.327818425372243">
        <ele>1358</ele>
        <time>2022-04-14T08:51:37.000Z</time>
      </trkpt>
      <trkpt lat="39.52404985204339" lon="-4.327811803668737">
        <ele>1358.2</ele>
        <time>2022-04-14T08:51:38.000Z</time>
      </trkpt>
      <trkpt lat="39.52402546070516" lon="-4.327812725678086">
        <ele>1359</ele>
        <time>2022-04-14T08:51:41.000Z</time>
      </trkpt>
      <trkpt lat="39.52400484122336" lon="-4.327809540554881">
        <ele>1359.6</ele>
        <time>2022-04-14T08:51:43.000Z</time>
      </trkpt>
      <trkpt lat="39.52398765832186" lon="-4.327809875831008">
        <ele>1360.2</ele>
        <time>2022-04-14T08:51:45.000Z</time>
      </trkpt>
      <trkpt lat="39.5239698048681" lon="-4.327796883881092">
        <ele>1360.8</ele>
        <time>2022-04-14T08:51:48.000Z</time>
      </trkpt>
      <trkpt lat="39.52397173270583" lon="-4.327792776748538">
        <ele>1361</ele>
        <time>2022-04-14T08:51:50.000Z</time>
      </trkpt>
      <trkpt lat="39.5239732414484" lon="-4.32778699323535">
        <ele>1361</ele>
        <time>2022-04-14T08:51:52.000Z</time>
      </trkpt>
      <trkpt lat="39.52400978654623" lon="-4.327786657959223">
        <ele>1360.4</ele>
        <time>2022-04-14T08:51:59.000Z</time>
      </trkpt>
      <trkpt lat="39.52403551898897" lon="-4.32779629714787">
        <ele>1358.2</ele>
        <time>2022-04-14T08:52:01.000Z</time>
      </trkpt>
      <trkpt lat="39.52406292781234" lon="-4.327801577746868">
        <ele>1359.4</ele>
        <time>2022-04-14T08:52:03.000Z</time>
      </trkpt>
      <trkpt lat="39.5240926835686" lon="-4.327805517241359">
        <ele>1358</ele>
        <time>2022-04-14T08:52:05.000Z</time>
      </trkpt>
      <trkpt lat="39.524130653589964" lon="-4.327806271612644">
        <ele>1357.8</ele>
        <time>2022-04-14T08:52:08.000Z</time>
      </trkpt>
      <trkpt lat="39.52415429055691" lon="-4.327817419543862">
        <ele>1357.2</ele>
        <time>2022-04-14T08:52:12.000Z</time>
      </trkpt>
      <trkpt lat="39.52415579929948" lon="-4.327819934114814">
        <ele>1357</ele>
        <time>2022-04-14T08:52:13.000Z</time>
      </trkpt>
      <trkpt lat="39.52415395528078" lon="-4.327817503362894">
        <ele>1356.6</ele>
        <time>2022-04-14T08:52:15.000Z</time>
      </trkpt>
      <trkpt lat="39.52416761778295" lon="-4.327795710414648">
        <ele>1356</ele>
        <time>2022-04-14T08:52:22.000Z</time>
      </trkpt>
      <trkpt lat="39.52419117093086" lon="-4.327765619382262">
        <ele>1356</ele>
        <time>2022-04-14T08:52:25.000Z</time>
      </trkpt>
      <trkpt lat="39.5242013130337" lon="-4.327754806727171">
        <ele>1356</ele>
        <time>2022-04-14T08:52:26.000Z</time>
      </trkpt>
      <trkpt lat="39.52423609793186" lon="-4.327715998515487">
        <ele>1355.6</ele>
        <time>2022-04-14T08:52:30.000Z</time>
      </trkpt>
      <trkpt lat="39.52424766495824" lon="-4.32768196798861">
        <ele>1354.8</ele>
        <time>2022-04-14T08:52:33.000Z</time>
      </trkpt>
      <trkpt lat="39.52424858696759" lon="-4.327637460082769">
        <ele>1354</ele>
        <time>2022-04-14T08:52:36.000Z</time>
      </trkpt>
      <trkpt lat="39.52423291280866" lon="-4.327616756781936">
        <ele>1354.2</ele>
        <time>2022-04-14T08:52:38.000Z</time>
      </trkpt>
      <trkpt lat="39.524217238649726" lon="-4.327575853094459">
        <ele>1354.6</ele>
        <time>2022-04-14T08:52:42.000Z</time>
      </trkpt>
      <trkpt lat="39.52421832829714" lon="-4.32756177149713">
        <ele>1354.8</ele>
        <time>2022-04-14T08:52:43.000Z</time>
      </trkpt>
      <trkpt lat="39.52421983703971" lon="-4.327541906386614">
        <ele>1354.8</ele>
        <time>2022-04-14T08:52:45.000Z</time>
      </trkpt>
      <trkpt lat="39.5242097787559" lon="-4.327542241662741">
        <ele>1356.6</ele>
        <time>2022-04-14T08:52:48.000Z</time>
      </trkpt>
      <trkpt lat="39.524208856746554" lon="-4.327541906386614">
        <ele>1357.2</ele>
        <time>2022-04-14T08:52:49.000Z</time>
      </trkpt>
      <trkpt lat="39.52420667745173" lon="-4.3275367096066475">
        <ele>1357.6</ele>
        <time>2022-04-14T08:52:51.000Z</time>
      </trkpt>
      <trkpt lat="39.52419687062502" lon="-4.327520364895463">
        <ele>1357.4</ele>
        <time>2022-04-14T08:52:59.000Z</time>
      </trkpt>
      <trkpt lat="39.524194272235036" lon="-4.3275246396660805">
        <ele>1357.2</ele>
        <time>2022-04-14T08:53:00.000Z</time>
      </trkpt>
      <trkpt lat="39.524188907817006" lon="-4.327572667971253">
        <ele>1356.8</ele>
        <time>2022-04-14T08:53:05.000Z</time>
      </trkpt>
      <trkpt lat="39.5242187473923" lon="-4.327660845592618">
        <ele>1356.8</ele>
        <time>2022-04-14T08:53:12.000Z</time>
      </trkpt>
      <trkpt lat="39.52423123642802" lon="-4.3276886735111475">
        <ele>1355.6</ele>
        <time>2022-04-14T08:53:14.000Z</time>
      </trkpt>
      <trkpt lat="39.52423601411283" lon="-4.32770392857492">
        <ele>1355.4</ele>
        <time>2022-04-14T08:53:15.000Z</time>
      </trkpt>
      <trkpt lat="39.5242324937135" lon="-4.327748436480761">
        <ele>1355.6</ele>
        <time>2022-04-14T08:53:18.000Z</time>
      </trkpt>
      <trkpt lat="39.52422386035323" lon="-4.327771067619324">
        <ele>1356.2</ele>
        <time>2022-04-14T08:53:20.000Z</time>
      </trkpt>
      <trkpt lat="39.52422528527677" lon="-4.327798057347536">
        <ele>1355.4</ele>
        <time>2022-04-14T08:53:24.000Z</time>
      </trkpt>
      <trkpt lat="39.52422578819096" lon="-4.327792692929506">
        <ele>1355.8</ele>
        <time>2022-04-14T08:53:27.000Z</time>
      </trkpt>
      <trkpt lat="39.524226458743215" lon="-4.327789423987269">
        <ele>1356.2</ele>
        <time>2022-04-14T08:53:38.000Z</time>
      </trkpt>
      <trkpt lat="39.52422444708645" lon="-4.3277873285114765">
        <ele>1356.8</ele>
        <time>2022-04-14T08:53:41.000Z</time>
      </trkpt>
      <trkpt lat="39.524223608896136" lon="-4.327784646302462">
        <ele>1357.2</ele>
        <time>2022-04-14T08:53:48.000Z</time>
      </trkpt>
      <trkpt lat="39.52422243542969" lon="-4.327783305197954">
        <ele>1357</ele>
        <time>2022-04-14T08:53:49.000Z</time>
      </trkpt>
      <trkpt lat="39.5242221839726" lon="-4.327785400673747">
        <ele>1356.8</ele>
        <time>2022-04-14T08:53:56.000Z</time>
      </trkpt>
      <trkpt lat="39.52422243542969" lon="-4.327787412330508">
        <ele>1356.8</ele>
        <time>2022-04-14T08:54:00.000Z</time>
      </trkpt>
      <trkpt lat="39.5242237765342" lon="-4.327788250520825">
        <ele>1356.8</ele>
        <time>2022-04-14T08:54:03.000Z</time>
      </trkpt>
      <trkpt lat="39.52421790920198" lon="-4.32778506539762">
        <ele>1357.2</ele>
        <time>2022-04-14T08:54:07.000Z</time>
      </trkpt>
      <trkpt lat="39.52419385313988" lon="-4.327792525291443">
        <ele>1357.8</ele>
        <time>2022-04-14T08:54:10.000Z</time>
      </trkpt>
      <trkpt lat="39.52418848872185" lon="-4.327799146994948">
        <ele>1357.8</ele>
        <time>2022-04-14T08:54:11.000Z</time>
      </trkpt>
      <trkpt lat="39.52418329194188" lon="-4.327807696536183">
        <ele>1358</ele>
        <time>2022-04-14T08:54:12.000Z</time>
      </trkpt>
      <trkpt lat="39.52418144792318" lon="-4.327815156430006">
        <ele>1355.8</ele>
        <time>2022-04-14T08:54:13.000Z</time>
      </trkpt>
      <trkpt lat="39.52418144792318" lon="-4.3278176710009575">
        <ele>1355.4</ele>
        <time>2022-04-14T08:54:14.000Z</time>
      </trkpt>
      <trkpt lat="39.524181531742215" lon="-4.3278170842677355">
        <ele>1355.8</ele>
        <time>2022-04-14T08:54:15.000Z</time>
      </trkpt>
      <trkpt lat="39.52418329194188" lon="-4.327816162258387">
        <ele>1355.8</ele>
        <time>2022-04-14T08:54:16.000Z</time>
      </trkpt>
      <trkpt lat="39.524182956665754" lon="-4.327816162258387">
        <ele>1356</ele>
        <time>2022-04-14T08:54:17.000Z</time>
      </trkpt>
      <trkpt lat="39.52418136410415" lon="-4.327818676829338">
        <ele>1355.8</ele>
        <time>2022-04-14T08:54:19.000Z</time>
      </trkpt>
      <trkpt lat="39.52418563887477" lon="-4.327819095924497">
        <ele>1355.6</ele>
        <time>2022-04-14T08:54:26.000Z</time>
      </trkpt>
      <trkpt lat="39.524178598076105" lon="-4.327822616323829">
        <ele>1356</ele>
        <time>2022-04-14T08:54:33.000Z</time>
      </trkpt>
      <trkpt lat="39.524164432659745" lon="-4.327820437029004">
        <ele>1356</ele>
        <time>2022-04-14T08:54:41.000Z</time>
      </trkpt>
      <trkpt lat="39.52415831387043" lon="-4.327825298532844">
        <ele>1356</ele>
        <time>2022-04-14T08:54:48.000Z</time>
      </trkpt>
      <trkpt lat="39.52415831387043" lon="-4.327831082046032">
        <ele>1356</ele>
        <time>2022-04-14T08:54:53.000Z</time>
      </trkpt>
      <trkpt lat="39.524165941402316" lon="-4.327847510576248">
        <ele>1356</ele>
        <time>2022-04-14T08:54:57.000Z</time>
      </trkpt>
      <trkpt lat="39.52416124753654" lon="-4.327849438413978">
        <ele>1356</ele>
        <time>2022-04-14T08:55:00.000Z</time>
      </trkpt>
      <trkpt lat="39.52415554784238" lon="-4.327850444242358">
        <ele>1356</ele>
        <time>2022-04-14T08:55:03.000Z</time>
      </trkpt>
      <trkpt lat="39.524155128747225" lon="-4.327850611880422">
        <ele>1356</ele>
        <time>2022-04-14T08:55:07.000Z</time>
      </trkpt>
      <trkpt lat="39.52413501217961" lon="-4.327873829752207">
        <ele>1356</ele>
        <time>2022-04-14T08:55:12.000Z</time>
      </trkpt>
      <trkpt lat="39.52412948012352" lon="-4.327879780903459">
        <ele>1356</ele>
        <time>2022-04-14T08:55:13.000Z</time>
      </trkpt>
      <trkpt lat="39.52412470243871" lon="-4.327888749539852">
        <ele>1356</ele>
        <time>2022-04-14T08:55:14.000Z</time>
      </trkpt>
      <trkpt lat="39.524120008572936" lon="-4.327898975461721">
        <ele>1356</ele>
        <time>2022-04-14T08:55:15.000Z</time>
      </trkpt>
      <trkpt lat="39.524113051593304" lon="-4.327905932441354">
        <ele>1356</ele>
        <time>2022-04-14T08:55:16.000Z</time>
      </trkpt>
      <trkpt lat="39.52410374768078" lon="-4.32791012339294">
        <ele>1356</ele>
        <time>2022-04-14T08:55:17.000Z</time>
      </trkpt>
      <trkpt lat="39.524090671911836" lon="-4.327929820865393">
        <ele>1356</ele>
        <time>2022-04-14T08:55:19.000Z</time>
      </trkpt>
      <trkpt lat="39.524077428504825" lon="-4.327946584671736">
        <ele>1356</ele>
        <time>2022-04-14T08:55:21.000Z</time>
      </trkpt>
      <trkpt lat="39.524068711325526" lon="-4.327955972403288">
        <ele>1356</ele>
        <time>2022-04-14T08:55:22.000Z</time>
      </trkpt>
      <trkpt lat="39.52403208240867" lon="-4.327995618805289">
        <ele>1356.2</ele>
        <time>2022-04-14T08:55:26.000Z</time>
      </trkpt>
      <trkpt lat="39.523985646665096" lon="-4.328049598261714">
        <ele>1356.4</ele>
        <time>2022-04-14T08:55:31.000Z</time>
      </trkpt>
      <trkpt lat="39.52396963723004" lon="-4.328065859153867">
        <ele>1356.8</ele>
        <time>2022-04-14T08:55:33.000Z</time>
      </trkpt>
      <trkpt lat="39.52396100386977" lon="-4.328071475028992">
        <ele>1356.8</ele>
        <time>2022-04-14T08:55:34.000Z</time>
      </trkpt>
      <trkpt lat="39.523953292518854" lon="-4.328084550797939">
        <ele>1357.2</ele>
        <time>2022-04-14T08:55:36.000Z</time>
      </trkpt>
      <trkpt lat="39.52393267303705" lon="-4.328100057318807">
        <ele>1357.2</ele>
        <time>2022-04-14T08:55:39.000Z</time>
      </trkpt>
      <trkpt lat="39.523928482085466" lon="-4.328102320432663">
        <ele>1357.2</ele>
        <time>2022-04-14T08:55:40.000Z</time>
      </trkpt>
      <trkpt lat="39.52392093837261" lon="-4.328112127259374">
        <ele>1357.2</ele>
        <time>2022-04-14T08:55:44.000Z</time>
      </trkpt>
      <trkpt lat="39.52389939688146" lon="-4.3281422182917595">
        <ele>1357.2</ele>
        <time>2022-04-14T08:55:47.000Z</time>
      </trkpt>
      <trkpt lat="39.5238403044641" lon="-4.3282099440693855">
        <ele>1358</ele>
        <time>2022-04-14T08:55:52.000Z</time>
      </trkpt>
      <trkpt lat="39.5238403044641" lon="-4.3282099440693855">
        <ele>1358.2</ele>
        <time>2022-04-14T08:55:53.000Z</time>
      </trkpt>
      <trkpt lat="39.52378414571285" lon="-4.328277669847012">
        <ele>1359</ele>
        <time>2022-04-14T08:56:00.000Z</time>
      </trkpt>
      <trkpt lat="39.52377442270517" lon="-4.328288314864039">
        <ele>1359</ele>
        <time>2022-04-14T08:56:01.000Z</time>
      </trkpt>
      <trkpt lat="39.52369898557663" lon="-4.328349586576223">
        <ele>1360.2</ele>
        <time>2022-04-14T08:56:08.000Z</time>
      </trkpt>
      <trkpt lat="39.523692363873124" lon="-4.328354615718126">
        <ele>1360.2</ele>
        <time>2022-04-14T08:56:09.000Z</time>
      </trkpt>
      <trkpt lat="39.523690436035395" lon="-4.328358303755522">
        <ele>1360.2</ele>
        <time>2022-04-14T08:56:10.000Z</time>
      </trkpt>
      <trkpt lat="39.52368440106511" lon="-4.328359644860029">
        <ele>1360.2</ele>
        <time>2022-04-14T08:56:12.000Z</time>
      </trkpt>
      <trkpt lat="39.52368272468448" lon="-4.3283566273748875">
        <ele>1360.2</ele>
        <time>2022-04-14T08:56:13.000Z</time>
      </trkpt>
      <trkpt lat="39.523686077445745" lon="-4.328354867175221">
        <ele>1359.8</ele>
        <time>2022-04-14T08:56:16.000Z</time>
      </trkpt>
      <trkpt lat="39.523702673614025" lon="-4.328399794176221">
        <ele>1359.8</ele>
        <time>2022-04-14T08:56:21.000Z</time>
      </trkpt>
      <trkpt lat="39.523705104365945" lon="-4.328438518568873">
        <ele>1359.6</ele>
        <time>2022-04-14T08:56:24.000Z</time>
      </trkpt>
      <trkpt lat="39.52371524646878" lon="-4.328440614044666">
        <ele>1359.4</ele>
        <time>2022-04-14T08:56:26.000Z</time>
      </trkpt>
      <trkpt lat="39.523719269782305" lon="-4.328421670943499">
        <ele>1359.2</ele>
        <time>2022-04-14T08:56:28.000Z</time>
      </trkpt>
      <trkpt lat="39.523713905364275" lon="-4.328390322625637">
        <ele>1359.2</ele>
        <time>2022-04-14T08:56:30.000Z</time>
      </trkpt>
      <trkpt lat="39.5237110555172" lon="-4.328377917408943">
        <ele>1359</ele>
        <time>2022-04-14T08:56:31.000Z</time>
      </trkpt>
      <trkpt lat="39.52370292507112" lon="-4.328351765871048">
        <ele>1360.4</ele>
        <time>2022-04-14T08:56:33.000Z</time>
      </trkpt>
      <trkpt lat="39.523701667785645" lon="-4.328342964872718">
        <ele>1360.6</ele>
        <time>2022-04-14T08:56:34.000Z</time>
      </trkpt>
      <trkpt lat="39.52369797974825" lon="-4.328339863568544">
        <ele>1361.4</ele>
        <time>2022-04-14T08:56:35.000Z</time>
      </trkpt>
      <trkpt lat="39.52368783764541" lon="-4.328342461958528">
        <ele>1361</ele>
        <time>2022-04-14T08:56:38.000Z</time>
      </trkpt>
      <trkpt lat="39.52368624508381" lon="-4.328347239643335">
        <ele>1362.2</ele>
        <time>2022-04-14T08:56:46.000Z</time>
      </trkpt>
      <trkpt lat="39.52368088066578" lon="-4.3283504247665405">
        <ele>1362.4</ele>
        <time>2022-04-14T08:56:47.000Z</time>
      </trkpt>
      <trkpt lat="39.52367593534291" lon="-4.328350927680731">
        <ele>1362.6</ele>
        <time>2022-04-14T08:56:48.000Z</time>
      </trkpt>
      <trkpt lat="39.52367082238197" lon="-4.32834891602397">
        <ele>1362.8</ele>
        <time>2022-04-14T08:56:49.000Z</time>
      </trkpt>
      <trkpt lat="39.52366814017296" lon="-4.328346652910113">
        <ele>1362.8</ele>
        <time>2022-04-14T08:56:54.000Z</time>
      </trkpt>
      <trkpt lat="39.523681215941906" lon="-4.328359141945839">
        <ele>1362.6</ele>
        <time>2022-04-14T08:56:56.000Z</time>
      </trkpt>
      <trkpt lat="39.52367635443807" lon="-4.32846718467772">
        <ele>1362</ele>
        <time>2022-04-14T08:57:03.000Z</time>
      </trkpt>
      <trkpt lat="39.52365120872855" lon="-4.32851068675518">
        <ele>1362</ele>
        <time>2022-04-14T08:57:06.000Z</time>
      </trkpt>
      <trkpt lat="39.523612735792994" lon="-4.328540023416281">
        <ele>1361.4</ele>
        <time>2022-04-14T08:57:10.000Z</time>
      </trkpt>
      <trkpt lat="39.52358851209283" lon="-4.328549159690738">
        <ele>1361.4</ele>
        <time>2022-04-14T08:57:12.000Z</time>
      </trkpt>
      <trkpt lat="39.52353000640869" lon="-4.328579166904092">
        <ele>1361</ele>
        <time>2022-04-14T08:57:18.000Z</time>
      </trkpt>
      <trkpt lat="39.52348214574158" lon="-4.328605821356177">
        <ele>1360.4</ele>
        <time>2022-04-14T08:57:23.000Z</time>
      </trkpt>
      <trkpt lat="39.52347359620035" lon="-4.328613448888063">
        <ele>1360.4</ele>
        <time>2022-04-14T08:57:24.000Z</time>
      </trkpt>
      <trkpt lat="39.523440320044756" lon="-4.328657872974873">
        <ele>1360</ele>
        <time>2022-04-14T08:57:28.000Z</time>
      </trkpt>
      <trkpt lat="39.52340620569885" lon="-4.328688634559512">
        <ele>1359.8</ele>
        <time>2022-04-14T08:57:31.000Z</time>
      </trkpt>
      <trkpt lat="39.523369409143925" lon="-4.328712522983551">
        <ele>1359.6</ele>
        <time>2022-04-14T08:57:34.000Z</time>
      </trkpt>
      <trkpt lat="39.52334954403341" lon="-4.328723670914769">
        <ele>1359.2</ele>
        <time>2022-04-14T08:57:36.000Z</time>
      </trkpt>
      <trkpt lat="39.523265305906534" lon="-4.328805897384882">
        <ele>1358.2</ele>
        <time>2022-04-14T08:57:44.000Z</time>
      </trkpt>
      <trkpt lat="39.52325390651822" lon="-4.328816123306751">
        <ele>1358.2</ele>
        <time>2022-04-14T08:57:45.000Z</time>
      </trkpt>
      <trkpt lat="39.52324267476797" lon="-4.328826684504747">
        <ele>1358.2</ele>
        <time>2022-04-14T08:57:46.000Z</time>
      </trkpt>
      <trkpt lat="39.52321241609752" lon="-4.3288434483110905">
        <ele>1357.4</ele>
        <time>2022-04-14T08:57:49.000Z</time>
      </trkpt>
      <trkpt lat="39.523203279823065" lon="-4.3288475554436445">
        <ele>1357</ele>
        <time>2022-04-14T08:57:50.000Z</time>
      </trkpt>
      <trkpt lat="39.52319473028183" lon="-4.328863313421607">
        <ele>1356.6</ele>
        <time>2022-04-14T08:57:52.000Z</time>
      </trkpt>
      <trkpt lat="39.52318551018834" lon="-4.328903378918767">
        <ele>1356.4</ele>
        <time>2022-04-14T08:57:59.000Z</time>
      </trkpt>
      <trkpt lat="39.52317679300904" lon="-4.3289135210216045">
        <ele>1356</ele>
        <time>2022-04-14T08:58:03.000Z</time>
      </trkpt>
      <trkpt lat="39.52317670919001" lon="-4.328911593183875">
        <ele>1355.6</ele>
        <time>2022-04-14T08:58:07.000Z</time>
      </trkpt>
      <trkpt lat="39.52318198978901" lon="-4.328909246250987">
        <ele>1356</ele>
        <time>2022-04-14T08:58:19.000Z</time>
      </trkpt>
      <trkpt lat="39.523179894313216" lon="-4.328905725851655">
        <ele>1356</ele>
        <time>2022-04-14T08:58:22.000Z</time>
      </trkpt>
      <trkpt lat="39.523185258731246" lon="-4.328906396403909">
        <ele>1356.6</ele>
        <time>2022-04-14T08:58:27.000Z</time>
      </trkpt>
      <trkpt lat="39.5231980830431" lon="-4.328912682831287">
        <ele>1356.4</ele>
        <time>2022-04-14T08:58:34.000Z</time>
      </trkpt>
      <trkpt lat="39.523195400834084" lon="-4.328918047249317">
        <ele>1356</ele>
        <time>2022-04-14T08:58:43.000Z</time>
      </trkpt>
      <trkpt lat="39.5231943950057" lon="-4.328865660354495">
        <ele>1357.6</ele>
        <time>2022-04-14T08:58:49.000Z</time>
      </trkpt>
      <trkpt lat="39.52316313050687" lon="-4.328843615949154">
        <ele>1358.6</ele>
        <time>2022-04-14T08:58:55.000Z</time>
      </trkpt>
      <trkpt lat="39.52316254377365" lon="-4.3288452085107565">
        <ele>1358.6</ele>
        <time>2022-04-14T08:58:56.000Z</time>
      </trkpt>
      <trkpt lat="39.52316313050687" lon="-4.328846633434296">
        <ele>1358.6</ele>
        <time>2022-04-14T08:58:57.000Z</time>
      </trkpt>
      <trkpt lat="39.52316639944911" lon="-4.3288475554436445">
        <ele>1358.8</ele>
        <time>2022-04-14T08:58:59.000Z</time>
      </trkpt>
      <trkpt lat="39.52317712828517" lon="-4.3288646545261145">
        <ele>1359</ele>
        <time>2022-04-14T08:59:03.000Z</time>
      </trkpt>
      <trkpt lat="39.52318307943642" lon="-4.328863145783544">
        <ele>1358.8</ele>
        <time>2022-04-14T08:59:12.000Z</time>
      </trkpt>
      <trkpt lat="39.523184252902865" lon="-4.328870102763176">
        <ele>1358.8</ele>
        <time>2022-04-14T08:59:13.000Z</time>
      </trkpt>
      <trkpt lat="39.52318836003542" lon="-4.328883178532124">
        <ele>1359</ele>
        <time>2022-04-14T08:59:14.000Z</time>
      </trkpt>
      <trkpt lat="39.52321073971689" lon="-4.328957945108414">
        <ele>1358.4</ele>
        <time>2022-04-14T08:59:18.000Z</time>
      </trkpt>
      <trkpt lat="39.52322406694293" lon="-4.329008152708411">
        <ele>1358</ele>
        <time>2022-04-14T08:59:20.000Z</time>
      </trkpt>
      <trkpt lat="39.52322783879936" lon="-4.3290401715785265">
        <ele>1357.6</ele>
        <time>2022-04-14T08:59:21.000Z</time>
      </trkpt>
      <trkpt lat="39.523241333663464" lon="-4.329102952033281">
        <ele>1357</ele>
        <time>2022-04-14T08:59:23.000Z</time>
      </trkpt>
      <trkpt lat="39.52324502170086" lon="-4.329134887084365">
        <ele>1356.8</ele>
        <time>2022-04-14T08:59:24.000Z</time>
      </trkpt>
      <trkpt lat="39.52324653044343" lon="-4.329158021137118">
        <ele>1356</ele>
        <time>2022-04-14T08:59:25.000Z</time>
      </trkpt>
      <trkpt lat="39.52324359677732" lon="-4.329181993380189">
        <ele>1354.6</ele>
        <time>2022-04-14T08:59:27.000Z</time>
      </trkpt>
      <trkpt lat="39.52323873527348" lon="-4.329196242615581">
        <ele>1354</ele>
        <time>2022-04-14T08:59:28.000Z</time>
      </trkpt>
      <trkpt lat="39.52323202975094" lon="-4.32920940220356">
        <ele>1353.6</ele>
        <time>2022-04-14T08:59:29.000Z</time>
      </trkpt>
      <trkpt lat="39.52322448603809" lon="-4.329217951744795">
        <ele>1353</ele>
        <time>2022-04-14T08:59:30.000Z</time>
      </trkpt>
      <trkpt lat="39.523219456896186" lon="-4.329222729429603">
        <ele>1352.8</ele>
        <time>2022-04-14T08:59:31.000Z</time>
      </trkpt>
      <trkpt lat="39.523218367248774" lon="-4.3292236514389515">
        <ele>1352.6</ele>
        <time>2022-04-14T08:59:32.000Z</time>
      </trkpt>
      <trkpt lat="39.523217026144266" lon="-4.329221555963159">
        <ele>1352.4</ele>
        <time>2022-04-14T08:59:33.000Z</time>
      </trkpt>
      <trkpt lat="39.52322004362941" lon="-4.329208061099052">
        <ele>1352.2</ele>
        <time>2022-04-14T08:59:37.000Z</time>
      </trkpt>
      <trkpt lat="39.523230101913214" lon="-4.329186771064997">
        <ele>1352.2</ele>
        <time>2022-04-14T08:59:41.000Z</time>
      </trkpt>
      <trkpt lat="39.52326253987849" lon="-4.329100772738457">
        <ele>1353</ele>
        <time>2022-04-14T08:59:45.000Z</time>
      </trkpt>
      <trkpt lat="39.523272179067135" lon="-4.3290802370756865">
        <ele>1353.4</ele>
        <time>2022-04-14T08:59:46.000Z</time>
      </trkpt>
      <trkpt lat="39.523311741650105" lon="-4.329027011990547">
        <ele>1354.2</ele>
        <time>2022-04-14T08:59:49.000Z</time>
      </trkpt>
      <trkpt lat="39.52334803529084" lon="-4.328959286212921">
        <ele>1355.6</ele>
        <time>2022-04-14T08:59:52.000Z</time>
      </trkpt>
      <trkpt lat="39.52335557900369" lon="-4.328915365040302">
        <ele>1356.6</ele>
        <time>2022-04-14T08:59:54.000Z</time>
      </trkpt>
      <trkpt lat="39.523352310061455" lon="-4.3288743775337934">
        <ele>1357.8</ele>
        <time>2022-04-14T08:59:57.000Z</time>
      </trkpt>
      <trkpt lat="39.52334870584309" lon="-4.32886297814548">
        <ele>1358.2</ele>
        <time>2022-04-14T08:59:58.000Z</time>
      </trkpt>
      <trkpt lat="39.5233394857496" lon="-4.328812183812261">
        <ele>1358.6</ele>
        <time>2022-04-14T09:00:03.000Z</time>
      </trkpt>
      <trkpt lat="39.5233413297683" lon="-4.328814027830958">
        <ele>1358.6</ele>
        <time>2022-04-14T09:00:05.000Z</time>
      </trkpt>
      <trkpt lat="39.52331283129752" lon="-4.328810591250658">
        <ele>1358.4</ele>
        <time>2022-04-14T09:00:10.000Z</time>
      </trkpt>
      <trkpt lat="39.5233119931072" lon="-4.328803466632962">
        <ele>1358.2</ele>
        <time>2022-04-14T09:00:13.000Z</time>
      </trkpt>
      <trkpt lat="39.52332808636129" lon="-4.328782595694065">
        <ele>1359.2</ele>
        <time>2022-04-14T09:00:17.000Z</time>
      </trkpt>
      <trkpt lat="39.523349879309535" lon="-4.328758371993899">
        <ele>1359.2</ele>
        <time>2022-04-14T09:00:20.000Z</time>
      </trkpt>
      <trkpt lat="39.52342154458165" lon="-4.328688299283385">
        <ele>1358.8</ele>
        <time>2022-04-14T09:00:29.000Z</time>
      </trkpt>
      <trkpt lat="39.52346756123006" lon="-4.328650161623955">
        <ele>1358.6</ele>
        <time>2022-04-14T09:00:35.000Z</time>
      </trkpt>
      <trkpt lat="39.52347602695227" lon="-4.3286411091685295">
        <ele>1358.8</ele>
        <time>2022-04-14T09:00:37.000Z</time>
      </trkpt>
      <trkpt lat="39.523541908711195" lon="-4.32856684550643">
        <ele>1359.2</ele>
        <time>2022-04-14T09:00:45.000Z</time>
      </trkpt>
      <trkpt lat="39.52355649322271" lon="-4.328536000102758">
        <ele>1359.2</ele>
        <time>2022-04-14T09:00:49.000Z</time>
      </trkpt>
      <trkpt lat="39.52356856316328" lon="-4.328536503016949">
        <ele>1359.4</ele>
        <time>2022-04-14T09:00:52.000Z</time>
      </trkpt>
      <trkpt lat="39.523632852360606" lon="-4.32852728292346">
        <ele>1360.4</ele>
        <time>2022-04-14T09:00:57.000Z</time>
      </trkpt>
      <trkpt lat="39.52365590259433" lon="-4.328517476096749">
        <ele>1360.4</ele>
        <time>2022-04-14T09:00:59.000Z</time>
      </trkpt>
      <trkpt lat="39.523720191791654" lon="-4.328470034524798">
        <ele>1360.4</ele>
        <time>2022-04-14T09:01:05.000Z</time>
      </trkpt>
      <trkpt lat="39.52374743297696" lon="-4.328392166644335">
        <ele>1359.4</ele>
        <time>2022-04-14T09:01:11.000Z</time>
      </trkpt>
      <trkpt lat="39.523727148771286" lon="-4.328383952379227">
        <ele>1359.4</ele>
        <time>2022-04-14T09:01:12.000Z</time>
      </trkpt>
      <trkpt lat="39.523715833202004" lon="-4.328381773084402">
        <ele>1359.4</ele>
        <time>2022-04-14T09:01:13.000Z</time>
      </trkpt>
      <trkpt lat="39.52369010075927" lon="-4.328357465565205">
        <ele>1359.4</ele>
        <time>2022-04-14T09:01:22.000Z</time>
      </trkpt>
      <trkpt lat="39.52367149293423" lon="-4.328336426988244">
        <ele>1358.2</ele>
        <time>2022-04-14T09:01:24.000Z</time>
      </trkpt>
      <trkpt lat="39.523621117696166" lon="-4.328276328742504">
        <ele>1357.8</ele>
        <time>2022-04-14T09:01:30.000Z</time>
      </trkpt>
      <trkpt lat="39.52361650764942" lon="-4.328271299600601">
        <ele>1357.8</ele>
        <time>2022-04-14T09:01:31.000Z</time>
      </trkpt>
      <trkpt lat="39.52360619790852" lon="-4.328252775594592">
        <ele>1357.4</ele>
        <time>2022-04-14T09:01:33.000Z</time>
      </trkpt>
      <trkpt lat="39.523603934794664" lon="-4.32824045419693">
        <ele>1357.2</ele>
        <time>2022-04-14T09:01:34.000Z</time>
      </trkpt>
      <trkpt lat="39.52360611408949" lon="-4.328199550509453">
        <ele>1356.6</ele>
        <time>2022-04-14T09:01:37.000Z</time>
      </trkpt>
      <trkpt lat="39.52359681017697" lon="-4.328173063695431">
        <ele>1356.2</ele>
        <time>2022-04-14T09:01:39.000Z</time>
      </trkpt>
      <trkpt lat="39.5235797110945" lon="-4.328100895509124">
        <ele>1354.8</ele>
        <time>2022-04-14T09:01:44.000Z</time>
      </trkpt>
      <trkpt lat="39.52357652597129" lon="-4.328065691515803">
        <ele>1353.8</ele>
        <time>2022-04-14T09:01:46.000Z</time>
      </trkpt>
      <trkpt lat="39.52354358509183" lon="-4.328028811141849">
        <ele>1352.6</ele>
        <time>2022-04-14T09:01:50.000Z</time>
      </trkpt>
      <trkpt lat="39.523540483787656" lon="-4.328022859990597">
        <ele>1352.4</ele>
        <time>2022-04-14T09:01:51.000Z</time>
      </trkpt>
      <trkpt lat="39.52353235334158" lon="-4.328022776171565">
        <ele>1351.6</ele>
        <time>2022-04-14T09:01:55.000Z</time>
      </trkpt>
      <trkpt lat="39.523529754951596" lon="-4.3280309066176414">
        <ele>1351.2</ele>
        <time>2022-04-14T09:01:59.000Z</time>
      </trkpt>
      <trkpt lat="39.52351969666779" lon="-4.328030319884419">
        <ele>1351.6</ele>
        <time>2022-04-14T09:02:08.000Z</time>
      </trkpt>
      <trkpt lat="39.523518942296505" lon="-4.328029900789261">
        <ele>1351.4</ele>
        <time>2022-04-14T09:02:16.000Z</time>
      </trkpt>
      <trkpt lat="39.52352011576295" lon="-4.328035349026322">
        <ele>1351.6</ele>
        <time>2022-04-14T09:02:18.000Z</time>
      </trkpt>
      <trkpt lat="39.5235210377723" lon="-4.328036354854703">
        <ele>1351.6</ele>
        <time>2022-04-14T09:02:19.000Z</time>
      </trkpt>
      <trkpt lat="39.523515086621046" lon="-4.328036438673735">
        <ele>1352.4</ele>
        <time>2022-04-14T09:02:27.000Z</time>
      </trkpt>
      <trkpt lat="39.523509135469794" lon="-4.328032499179244">
        <ele>1352.4</ele>
        <time>2022-04-14T09:02:29.000Z</time>
      </trkpt>
      <trkpt lat="39.52350469306111" lon="-4.328036271035671">
        <ele>1352.2</ele>
        <time>2022-04-14T09:02:35.000Z</time>
      </trkpt>
      <trkpt lat="39.523500837385654" lon="-4.3280367739498615">
        <ele>1352</ele>
        <time>2022-04-14T09:02:37.000Z</time>
      </trkpt>
      <trkpt lat="39.523514499887824" lon="-4.3280270509421825">
        <ele>1351.8</ele>
        <time>2022-04-14T09:02:42.000Z</time>
      </trkpt>
      <trkpt lat="39.523516511544585" lon="-4.328023781999946">
        <ele>1351.4</ele>
        <time>2022-04-14T09:02:47.000Z</time>
      </trkpt>
      <trkpt lat="39.52351290732622" lon="-4.328013388440013">
        <ele>1351.4</ele>
        <time>2022-04-14T09:02:49.000Z</time>
      </trkpt>
      <trkpt lat="39.52351248823106" lon="-4.3279879074543715">
        <ele>1351.2</ele>
        <time>2022-04-14T09:02:52.000Z</time>
      </trkpt>
      <trkpt lat="39.52350737527013" lon="-4.327960163354874">
        <ele>1351.4</ele>
        <time>2022-04-14T09:02:54.000Z</time>
      </trkpt>
      <trkpt lat="39.523508716374636" lon="-4.32795655913651">
        <ele>1351.2</ele>
        <time>2022-04-14T09:02:55.000Z</time>
      </trkpt>
      <trkpt lat="39.52352598309517" lon="-4.327940968796611">
        <ele>1351</ele>
        <time>2022-04-14T09:03:04.000Z</time>
      </trkpt>
      <trkpt lat="39.52351969666779" lon="-4.327931329607964">
        <ele>1351</ele>
        <time>2022-04-14T09:03:05.000Z</time>
      </trkpt>
      <trkpt lat="39.52352061867714" lon="-4.327912637963891">
        <ele>1351</ele>
        <time>2022-04-14T09:03:07.000Z</time>
      </trkpt>
      <trkpt lat="39.523522378876805" lon="-4.3278641905635595">
        <ele>1351</ele>
        <time>2022-04-14T09:03:10.000Z</time>
      </trkpt>
      <trkpt lat="39.52352908439934" lon="-4.327828735113144">
        <ele>1350.4</ele>
        <time>2022-04-14T09:03:12.000Z</time>
      </trkpt>
      <trkpt lat="39.52353352680802" lon="-4.327809624373913">
        <ele>1349.6</ele>
        <time>2022-04-14T09:03:14.000Z</time>
      </trkpt>
      <trkpt lat="39.52353034168482" lon="-4.3278091214597225">
        <ele>1349.2</ele>
        <time>2022-04-14T09:03:16.000Z</time>
      </trkpt>
      <trkpt lat="39.52354216016829" lon="-4.3277781922370195">
        <ele>1349.2</ele>
        <time>2022-04-14T09:03:22.000Z</time>
      </trkpt>
      <trkpt lat="39.52354660257697" lon="-4.3277431558817625">
        <ele>1348.4</ele>
        <time>2022-04-14T09:03:29.000Z</time>
      </trkpt>
      <trkpt lat="39.52359136193991" lon="-4.327622540295124">
        <ele>1348.2</ele>
        <time>2022-04-14T09:03:37.000Z</time>
      </trkpt>
      <trkpt lat="39.523602006956935" lon="-4.327592449262738">
        <ele>1348.2</ele>
        <time>2022-04-14T09:03:39.000Z</time>
      </trkpt>
      <trkpt lat="39.52362673357129" lon="-4.3275137431919575">
        <ele>1347</ele>
        <time>2022-04-14T09:03:45.000Z</time>
      </trkpt>
      <trkpt lat="39.52362899668515" lon="-4.327506702393293">
        <ele>1346.8</ele>
        <time>2022-04-14T09:03:46.000Z</time>
      </trkpt>
      <trkpt lat="39.523639641702175" lon="-4.327488429844379">
        <ele>1346.2</ele>
        <time>2022-04-14T09:03:48.000Z</time>
      </trkpt>
      <trkpt lat="39.52364978380501" lon="-4.327466385439038">
        <ele>1345.8</ele>
        <time>2022-04-14T09:03:50.000Z</time>
      </trkpt>
      <trkpt lat="39.52367149293423" lon="-4.327406203374267">
        <ele>1345.4</ele>
        <time>2022-04-14T09:03:55.000Z</time>
      </trkpt>
      <trkpt lat="39.52367501333356" lon="-4.327357755973935">
        <ele>1345</ele>
        <time>2022-04-14T09:03:59.000Z</time>
      </trkpt>
      <trkpt lat="39.523677695542574" lon="-4.327346859499812">
        <ele>1344.8</ele>
        <time>2022-04-14T09:04:00.000Z</time>
      </trkpt>
      <trkpt lat="39.523681215941906" lon="-4.327313248068094">
        <ele>1344.4</ele>
        <time>2022-04-14T09:04:03.000Z</time>
      </trkpt>
      <trkpt lat="39.523681635037065" lon="-4.3273028545081615">
        <ele>1344.4</ele>
        <time>2022-04-14T09:04:04.000Z</time>
      </trkpt>
      <trkpt lat="39.523694375529885" lon="-4.327254742383957">
        <ele>1344.4</ele>
        <time>2022-04-14T09:04:08.000Z</time>
      </trkpt>
      <trkpt lat="39.52370300889015" lon="-4.327217442914844">
        <ele>1344.2</ele>
        <time>2022-04-14T09:04:11.000Z</time>
      </trkpt>
      <trkpt lat="39.52370795421302" lon="-4.327178383246064">
        <ele>1343.8</ele>
        <time>2022-04-14T09:04:14.000Z</time>
      </trkpt>
      <trkpt lat="39.52371256425977" lon="-4.327167235314846">
        <ele>1343.8</ele>
        <time>2022-04-14T09:04:15.000Z</time>
      </trkpt>
      <trkpt lat="39.52371700666845" lon="-4.327156841754913">
        <ele>1343.6</ele>
        <time>2022-04-14T09:04:16.000Z</time>
      </trkpt>
      <trkpt lat="39.523736955598" lon="-4.327069418504834">
        <ele>1342.8</ele>
        <time>2022-04-14T09:04:23.000Z</time>
      </trkpt>
      <trkpt lat="39.523740224540234" lon="-4.327057348564267">
        <ele>1342.6</ele>
        <time>2022-04-14T09:04:24.000Z</time>
      </trkpt>
      <trkpt lat="39.523750534281135" lon="-4.326990963891149">
        <ele>1341.6</ele>
        <time>2022-04-14T09:04:30.000Z</time>
      </trkpt>
      <trkpt lat="39.52372740022838" lon="-4.326988784596324">
        <ele>1341.6</ele>
        <time>2022-04-14T09:04:31.000Z</time>
      </trkpt>
      <trkpt lat="39.523721784353256" lon="-4.326985431835055">
        <ele>1341.6</ele>
        <time>2022-04-14T09:04:32.000Z</time>
      </trkpt>
      <trkpt lat="39.52372228726745" lon="-4.3269856832921505">
        <ele>1341.4</ele>
        <time>2022-04-14T09:04:33.000Z</time>
      </trkpt>
      <trkpt lat="39.52373276464641" lon="-4.326970931142569">
        <ele>1341.4</ele>
        <time>2022-04-14T09:04:36.000Z</time>
      </trkpt>
      <trkpt lat="39.52373821288347" lon="-4.326959867030382">
        <ele>1341.2</ele>
        <time>2022-04-14T09:04:38.000Z</time>
      </trkpt>
      <trkpt lat="39.52378171496093" lon="-4.3268870282918215">
        <ele>1341</ele>
        <time>2022-04-14T09:04:46.000Z</time>
      </trkpt>
      <trkpt lat="39.52381038106978" lon="-4.326823744922876">
        <ele>1340.4</ele>
        <time>2022-04-14T09:04:51.000Z</time>
      </trkpt>
      <trkpt lat="39.52384072355926" lon="-4.326772196218371">
        <ele>1339.8</ele>
        <time>2022-04-14T09:04:55.000Z</time>
      </trkpt>
      <trkpt lat="39.52384835109115" lon="-4.3267483077943325">
        <ele>1339.6</ele>
        <time>2022-04-14T09:04:57.000Z</time>
      </trkpt>
      <trkpt lat="39.52385723590851" lon="-4.326715115457773">
        <ele>1339.2</ele>
        <time>2022-04-14T09:05:00.000Z</time>
      </trkpt>
      <trkpt lat="39.523860923945904" lon="-4.326695334166288">
        <ele>1338.8</ele>
        <time>2022-04-14T09:05:02.000Z</time>
      </trkpt>
      <trkpt lat="39.52383728697896" lon="-4.326699860394001">
        <ele>1338.4</ele>
        <time>2022-04-14T09:05:04.000Z</time>
      </trkpt>
      <trkpt lat="39.52382706105709" lon="-4.326711427420378">
        <ele>1338.4</ele>
        <time>2022-04-14T09:05:08.000Z</time>
      </trkpt>
      <trkpt lat="39.523816080763936" lon="-4.326698267832398">
        <ele>1338.2</ele>
        <time>2022-04-14T09:05:17.000Z</time>
      </trkpt>
      <trkpt lat="39.523814991116524" lon="-4.326689299196005">
        <ele>1338.2</ele>
        <time>2022-04-14T09:05:18.000Z</time>
      </trkpt>
      <trkpt lat="39.52384273521602" lon="-4.326633978635073">
        <ele>1338.4</ele>
        <time>2022-04-14T09:05:24.000Z</time>
      </trkpt>
      <trkpt lat="39.523851703852415" lon="-4.32655761949718">
        <ele>1338.2</ele>
        <time>2022-04-14T09:05:30.000Z</time>
      </trkpt>
      <trkpt lat="39.5238627679646" lon="-4.326525432989001">
        <ele>1337.4</ele>
        <time>2022-04-14T09:05:33.000Z</time>
      </trkpt>
      <trkpt lat="39.523866372182965" lon="-4.3265138659626245">
        <ele>1337</ele>
        <time>2022-04-14T09:05:34.000Z</time>
      </trkpt>
      <trkpt lat="39.52386888675392" lon="-4.326503723859787">
        <ele>1336.6</ele>
        <time>2022-04-14T09:05:35.000Z</time>
      </trkpt>
      <trkpt lat="39.52389202080667" lon="-4.326420072466135">
        <ele>1336</ele>
        <time>2022-04-14T09:05:42.000Z</time>
      </trkpt>
      <trkpt lat="39.523902498185635" lon="-4.326393334195018">
        <ele>1336</ele>
        <time>2022-04-14T09:05:45.000Z</time>
      </trkpt>
      <trkpt lat="39.52391993254423" lon="-4.326327787712216">
        <ele>1335.2</ele>
        <time>2022-04-14T09:05:50.000Z</time>
      </trkpt>
      <trkpt lat="39.523922028020024" lon="-4.326307587325573">
        <ele>1335</ele>
        <time>2022-04-14T09:05:52.000Z</time>
      </trkpt>
      <trkpt lat="39.52392906881869" lon="-4.326256541535258">
        <ele>1334.2</ele>
        <time>2022-04-14T09:05:57.000Z</time>
      </trkpt>
      <trkpt lat="39.52393602579832" lon="-4.32623315602541">
        <ele>1333.8</ele>
        <time>2022-04-14T09:05:59.000Z</time>
      </trkpt>
      <trkpt lat="39.52393560670316" lon="-4.32617993094027">
        <ele>1333.2</ele>
        <time>2022-04-14T09:06:05.000Z</time>
      </trkpt>
      <trkpt lat="39.52393208630383" lon="-4.326178589835763">
        <ele>1333</ele>
        <time>2022-04-14T09:06:06.000Z</time>
      </trkpt>
      <trkpt lat="39.52392973937094" lon="-4.326179595664144">
        <ele>1332.8</ele>
        <time>2022-04-14T09:06:07.000Z</time>
      </trkpt>
      <trkpt lat="39.523929907009006" lon="-4.326183870434761">
        <ele>1332.6</ele>
        <time>2022-04-14T09:06:11.000Z</time>
      </trkpt>
      <trkpt lat="39.52393292449415" lon="-4.326189402490854">
        <ele>1333</ele>
        <time>2022-04-14T09:06:15.000Z</time>
      </trkpt>
      <trkpt lat="39.52393066138029" lon="-4.326185630634427">
        <ele>1333</ele>
        <time>2022-04-14T09:06:16.000Z</time>
      </trkpt>
      <trkpt lat="39.52392588369548" lon="-4.326180350035429">
        <ele>1333</ele>
        <time>2022-04-14T09:06:17.000Z</time>
      </trkpt>
      <trkpt lat="39.52391875907779" lon="-4.326180517673492">
        <ele>1333.2</ele>
        <time>2022-04-14T09:06:20.000Z</time>
      </trkpt>
      <trkpt lat="39.52391532249749" lon="-4.326170543208718">
        <ele>1333.4</ele>
        <time>2022-04-14T09:06:22.000Z</time>
      </trkpt>
      <trkpt lat="39.52392630279064" lon="-4.326155874878168">
        <ele>1333.2</ele>
        <time>2022-04-14T09:06:25.000Z</time>
      </trkpt>
      <trkpt lat="39.52394977211952" lon="-4.326067781075835">
        <ele>1332.4</ele>
        <time>2022-04-14T09:06:33.000Z</time>
      </trkpt>
      <trkpt lat="39.52396494336426" lon="-4.326046323403716">
        <ele>1332.4</ele>
        <time>2022-04-14T09:06:35.000Z</time>
      </trkpt>
      <trkpt lat="39.523978689685464" lon="-4.3259896617382765">
        <ele>1331.8</ele>
        <time>2022-04-14T09:06:40.000Z</time>
      </trkpt>
      <trkpt lat="39.5239993929863" lon="-4.325922355055809">
        <ele>1331.2</ele>
        <time>2022-04-14T09:06:46.000Z</time>
      </trkpt>
      <trkpt lat="39.5240078587085" lon="-4.325910955667496">
        <ele>1331</ele>
        <time>2022-04-14T09:06:47.000Z</time>
      </trkpt>
      <trkpt lat="39.52401800081134" lon="-4.3258898332715034">
        <ele>1330.4</ele>
        <time>2022-04-14T09:06:49.000Z</time>
      </trkpt>
      <trkpt lat="39.52404297888279" lon="-4.325818419456482">
        <ele>1329.4</ele>
        <time>2022-04-14T09:06:55.000Z</time>
      </trkpt>
      <trkpt lat="39.52407876960933" lon="-4.325702833011746">
        <ele>1328.4</ele>
        <time>2022-04-14T09:07:04.000Z</time>
      </trkpt>
      <trkpt lat="39.52408731915057" lon="-4.325631419196725">
        <ele>1327.4</ele>
        <time>2022-04-14T09:07:10.000Z</time>
      </trkpt>
      <trkpt lat="39.524092599749565" lon="-4.3255997356027365">
        <ele>1326.6</ele>
        <time>2022-04-14T09:07:13.000Z</time>
      </trkpt>
      <trkpt lat="39.52409829944372" lon="-4.325577607378364">
        <ele>1326.2</ele>
        <time>2022-04-14T09:07:15.000Z</time>
      </trkpt>
      <trkpt lat="39.5240995567292" lon="-4.325568052008748">
        <ele>1326.2</ele>
        <time>2022-04-14T09:07:16.000Z</time>
      </trkpt>
      <trkpt lat="39.52409293502569" lon="-4.3255402240902185">
        <ele>1325.8</ele>
        <time>2022-04-14T09:07:19.000Z</time>
      </trkpt>
      <trkpt lat="39.524066699668765" lon="-4.325541313737631">
        <ele>1325.6</ele>
        <time>2022-04-14T09:07:21.000Z</time>
      </trkpt>
      <trkpt lat="39.52406091615558" lon="-4.325544498860836">
        <ele>1325.2</ele>
        <time>2022-04-14T09:07:25.000Z</time>
      </trkpt>
      <trkpt lat="39.52406167052686" lon="-4.325543744489551">
        <ele>1325.2</ele>
        <time>2022-04-14T09:07:26.000Z</time>
      </trkpt>
      <trkpt lat="39.52407265082002" lon="-4.325540894642472">
        <ele>1325.2</ele>
        <time>2022-04-14T09:07:29.000Z</time>
      </trkpt>
      <trkpt lat="39.52407969161868" lon="-4.325532093644142">
        <ele>1325.2</ele>
        <time>2022-04-14T09:07:30.000Z</time>
      </trkpt>
      <trkpt lat="39.52411824837327" lon="-4.32542011141777">
        <ele>1324.2</ele>
        <time>2022-04-14T09:07:39.000Z</time>
      </trkpt>
      <trkpt lat="39.524124870076776" lon="-4.325392283499241">
        <ele>1323.4</ele>
        <time>2022-04-14T09:07:41.000Z</time>
      </trkpt>
      <trkpt lat="39.52412897720933" lon="-4.32536437176168">
        <ele>1323</ele>
        <time>2022-04-14T09:07:43.000Z</time>
      </trkpt>
      <trkpt lat="39.52413928695023" lon="-4.325336460024118">
        <ele>1322.8</ele>
        <time>2022-04-14T09:07:46.000Z</time>
      </trkpt>
      <trkpt lat="39.524141885340214" lon="-4.3253193609416485">
        <ele>1322.6</ele>
        <time>2022-04-14T09:07:48.000Z</time>
      </trkpt>
      <trkpt lat="39.52414498664439" lon="-4.3252969812601805">
        <ele>1322</ele>
        <time>2022-04-14T09:07:50.000Z</time>
      </trkpt>
      <trkpt lat="39.524146327748895" lon="-4.3252913653850555">
        <ele>1321.6</ele>
        <time>2022-04-14T09:07:51.000Z</time>
      </trkpt>
      <trkpt lat="39.52415781095624" lon="-4.325281642377377">
        <ele>1321.4</ele>
        <time>2022-04-14T09:07:54.000Z</time>
      </trkpt>
      <trkpt lat="39.52416870743036" lon="-4.325243420898914">
        <ele>1321.4</ele>
        <time>2022-04-14T09:07:57.000Z</time>
      </trkpt>
      <trkpt lat="39.52417164109647" lon="-4.325213832780719">
        <ele>1321.4</ele>
        <time>2022-04-14T09:07:59.000Z</time>
      </trkpt>
      <trkpt lat="39.52417650260031" lon="-4.3252000864595175">
        <ele>1321.4</ele>
        <time>2022-04-14T09:08:00.000Z</time>
      </trkpt>
      <trkpt lat="39.52417650260031" lon="-4.3252000864595175">
        <ele>1321.4</ele>
        <time>2022-04-14T09:08:00.000Z</time>
      </trkpt>
      <trkpt lat="39.52417507767677" lon="-4.32517577894032">
        <ele>1320.8</ele>
        <time>2022-04-14T09:08:02.000Z</time>
      </trkpt>
      <trkpt lat="39.524188907817006" lon="-4.325140323489904">
        <ele>1320.2</ele>
        <time>2022-04-14T09:08:05.000Z</time>
      </trkpt>
      <trkpt lat="39.52419150620699" lon="-4.325115596875548">
        <ele>1319.6</ele>
        <time>2022-04-14T09:08:08.000Z</time>
      </trkpt>
      <trkpt lat="39.52419251203537" lon="-4.325110232457519">
        <ele>1319.2</ele>
        <time>2022-04-14T09:08:09.000Z</time>
      </trkpt>
      <trkpt lat="39.52419485896826" lon="-4.325091456994414">
        <ele>1318.6</ele>
        <time>2022-04-14T09:08:12.000Z</time>
      </trkpt>
      <trkpt lat="39.524196702986956" lon="-4.32508341036737">
        <ele>1318.6</ele>
        <time>2022-04-14T09:08:13.000Z</time>
      </trkpt>
      <trkpt lat="39.52421514317393" lon="-4.325035717338324">
        <ele>1318.4</ele>
        <time>2022-04-14T09:08:17.000Z</time>
      </trkpt>
      <trkpt lat="39.52422293834388" lon="-4.325024820864201">
        <ele>1318.2</ele>
        <time>2022-04-14T09:08:18.000Z</time>
      </trkpt>
      <trkpt lat="39.524233331903815" lon="-4.325005374848843">
        <ele>1317.8</ele>
        <time>2022-04-14T09:08:20.000Z</time>
      </trkpt>
      <trkpt lat="39.52422293834388" lon="-4.32500084862113">
        <ele>1317.6</ele>
        <time>2022-04-14T09:08:21.000Z</time>
      </trkpt>
      <trkpt lat="39.524214304983616" lon="-4.3249995075166225">
        <ele>1317.2</ele>
        <time>2022-04-14T09:08:23.000Z</time>
      </trkpt>
      <trkpt lat="39.524210365489125" lon="-4.3249989207834005">
        <ele>1317</ele>
        <time>2022-04-14T09:08:24.000Z</time>
      </trkpt>
      <trkpt lat="39.52420952729881" lon="-4.324999088421464">
        <ele>1317</ele>
        <time>2022-04-14T09:08:25.000Z</time>
      </trkpt>
      <trkpt lat="39.52423098497093" lon="-4.32496715337038">
        <ele>1316.8</ele>
        <time>2022-04-14T09:08:30.000Z</time>
      </trkpt>
      <trkpt lat="39.52423651702702" lon="-4.324957765638828">
        <ele>1316.8</ele>
        <time>2022-04-14T09:08:31.000Z</time>
      </trkpt>
      <trkpt lat="39.524262165650725" lon="-4.324911497533321">
        <ele>1316.6</ele>
        <time>2022-04-14T09:08:35.000Z</time>
      </trkpt>
      <trkpt lat="39.52427658252418" lon="-4.32488601654768">
        <ele>1316.2</ele>
        <time>2022-04-14T09:08:37.000Z</time>
      </trkpt>
      <trkpt lat="39.524280689656734" lon="-4.324852908030152">
        <ele>1315</ele>
        <time>2022-04-14T09:08:40.000Z</time>
      </trkpt>
      <trkpt lat="39.52428882010281" lon="-4.324824661016464">
        <ele>1314.8</ele>
        <time>2022-04-14T09:08:42.000Z</time>
      </trkpt>
      <trkpt lat="39.524293933063745" lon="-4.324812926352024">
        <ele>1314.8</ele>
        <time>2022-04-14T09:08:43.000Z</time>
      </trkpt>
      <trkpt lat="39.52432930469513" lon="-4.324715444818139">
        <ele>1314.2</ele>
        <time>2022-04-14T09:08:50.000Z</time>
      </trkpt>
      <trkpt lat="39.52433316037059" lon="-4.324704632163048">
        <ele>1314</ele>
        <time>2022-04-14T09:08:51.000Z</time>
      </trkpt>
      <trkpt lat="39.52434003353119" lon="-4.324693903326988">
        <ele>1313.8</ele>
        <time>2022-04-14T09:08:52.000Z</time>
      </trkpt>
      <trkpt lat="39.5243482477963" lon="-4.324683593586087">
        <ele>1313.4</ele>
        <time>2022-04-14T09:08:53.000Z</time>
      </trkpt>
      <trkpt lat="39.52437808737159" lon="-4.324625674635172">
        <ele>1312.8</ele>
        <time>2022-04-14T09:08:59.000Z</time>
      </trkpt>
      <trkpt lat="39.52440063469112" lon="-4.324573539197445">
        <ele>1311.8</ele>
        <time>2022-04-14T09:09:05.000Z</time>
      </trkpt>
      <trkpt lat="39.52440792694688" lon="-4.324567588046193">
        <ele>1311.6</ele>
        <time>2022-04-14T09:09:06.000Z</time>
      </trkpt>
      <trkpt lat="39.52441647648811" lon="-4.324553506448865">
        <ele>1311.4</ele>
        <time>2022-04-14T09:09:08.000Z</time>
      </trkpt>
      <trkpt lat="39.5244362577796" lon="-4.3245200626552105">
        <ele>1310.6</ele>
        <time>2022-04-14T09:09:12.000Z</time>
      </trkpt>
      <trkpt lat="39.524411698803306" lon="-4.324505561962724">
        <ele>1310.4</ele>
        <time>2022-04-14T09:09:14.000Z</time>
      </trkpt>
      <trkpt lat="39.52438009902835" lon="-4.324494581669569">
        <ele>1309.8</ele>
        <time>2022-04-14T09:09:19.000Z</time>
      </trkpt>
      <trkpt lat="39.52437381260097" lon="-4.324498102068901">
        <ele>1309.8</ele>
        <time>2022-04-14T09:09:20.000Z</time>
      </trkpt>
      <trkpt lat="39.52437716536224" lon="-4.324491648003459">
        <ele>1309.8</ele>
        <time>2022-04-14T09:09:25.000Z</time>
      </trkpt>
      <trkpt lat="39.52437657862902" lon="-4.324471112340689">
        <ele>1309.6</ele>
        <time>2022-04-14T09:09:28.000Z</time>
      </trkpt>
      <trkpt lat="39.52438311651349" lon="-4.3244535103440285">
        <ele>1309.2</ele>
        <time>2022-04-14T09:09:31.000Z</time>
      </trkpt>
      <trkpt lat="39.52438110485673" lon="-4.324447559192777">
        <ele>1309</ele>
        <time>2022-04-14T09:09:32.000Z</time>
      </trkpt>
      <trkpt lat="39.524383284151554" lon="-4.324440602213144">
        <ele>1308.6</ele>
        <time>2022-04-14T09:09:34.000Z</time>
      </trkpt>
      <trkpt lat="39.5244000479579" lon="-4.324420485645533">
        <ele>1308</ele>
        <time>2022-04-14T09:09:37.000Z</time>
      </trkpt>
      <trkpt lat="39.5244000479579" lon="-4.324420485645533">
        <ele>1308</ele>
        <time>2022-04-14T09:09:38.000Z</time>
      </trkpt>
      <trkpt lat="39.52440935187042" lon="-4.324401542544365">
        <ele>1307.6</ele>
        <time>2022-04-14T09:09:41.000Z</time>
      </trkpt>
      <trkpt lat="39.52442552894354" lon="-4.324392909184098">
        <ele>1307.4</ele>
        <time>2022-04-14T09:09:42.000Z</time>
      </trkpt>
      <trkpt lat="39.52443231828511" lon="-4.324388299137354">
        <ele>1307</ele>
        <time>2022-04-14T09:09:43.000Z</time>
      </trkpt>
      <trkpt lat="39.52446660026908" lon="-4.32434999383986">
        <ele>1306.2</ele>
        <time>2022-04-14T09:09:48.000Z</time>
      </trkpt>
      <trkpt lat="39.52446810901165" lon="-4.32434412650764">
        <ele>1306</ele>
        <time>2022-04-14T09:09:49.000Z</time>
      </trkpt>
      <trkpt lat="39.52446458861232" lon="-4.324341025203466">
        <ele>1306</ele>
        <time>2022-04-14T09:09:50.000Z</time>
      </trkpt>
      <trkpt lat="39.524479089304805" lon="-4.32428352534771">
        <ele>1305.2</ele>
        <time>2022-04-14T09:09:58.000Z</time>
      </trkpt>
      <trkpt lat="39.5244930870831" lon="-4.324233150109649">
        <ele>1304</ele>
        <time>2022-04-14T09:10:04.000Z</time>
      </trkpt>
      <trkpt lat="39.52449928969145" lon="-4.324219319969416">
        <ele>1303.6</ele>
        <time>2022-04-14T09:10:06.000Z</time>
      </trkpt>
      <trkpt lat="39.524521669372916" lon="-4.324196185916662">
        <ele>1303.4</ele>
        <time>2022-04-14T09:10:10.000Z</time>
      </trkpt>
      <trkpt lat="39.52452477067709" lon="-4.324188558384776">
        <ele>1303.4</ele>
        <time>2022-04-14T09:10:11.000Z</time>
      </trkpt>
      <trkpt lat="39.524535750970244" lon="-4.324167435988784">
        <ele>1303.4</ele>
        <time>2022-04-14T09:10:13.000Z</time>
      </trkpt>
      <trkpt lat="39.52454966492951" lon="-4.3241301365196705">
        <ele>1302.6</ele>
        <time>2022-04-14T09:10:17.000Z</time>
      </trkpt>
      <trkpt lat="39.52455008402467" lon="-4.324123514816165">
        <ele>1302.4</ele>
        <time>2022-04-14T09:10:18.000Z</time>
      </trkpt>
      <trkpt lat="39.5245432946831" lon="-4.324118569493294">
        <ele>1302</ele>
        <time>2022-04-14T09:10:19.000Z</time>
      </trkpt>
      <trkpt lat="39.524556789547205" lon="-4.324095519259572">
        <ele>1301.6</ele>
        <time>2022-04-14T09:10:22.000Z</time>
      </trkpt>
      <trkpt lat="39.5245779119432" lon="-4.324075235053897">
        <ele>1300.6</ele>
        <time>2022-04-14T09:10:25.000Z</time>
      </trkpt>
      <trkpt lat="39.52458428218961" lon="-4.324064673855901">
        <ele>1300.2</ele>
        <time>2022-04-14T09:10:26.000Z</time>
      </trkpt>
      <trkpt lat="39.52461705543101" lon="-4.323997031897306">
        <ele>1299.2</ele>
        <time>2022-04-14T09:10:32.000Z</time>
      </trkpt>
      <trkpt lat="39.52462694607675" lon="-4.32397373020649">
        <ele>1299.2</ele>
        <time>2022-04-14T09:10:35.000Z</time>
      </trkpt>
      <trkpt lat="39.52464806847274" lon="-4.323939112946391">
        <ele>1298.8</ele>
        <time>2022-04-14T09:10:38.000Z</time>
      </trkpt>
      <trkpt lat="39.524647733196616" lon="-4.323923354968429">
        <ele>1298.4</ele>
        <time>2022-04-14T09:10:40.000Z</time>
      </trkpt>
      <trkpt lat="39.52465393580496" lon="-4.323910949751735">
        <ele>1298.2</ele>
        <time>2022-04-14T09:10:42.000Z</time>
      </trkpt>
      <trkpt lat="39.524672627449036" lon="-4.323887061327696">
        <ele>1297.8</ele>
        <time>2022-04-14T09:10:45.000Z</time>
      </trkpt>
      <trkpt lat="39.52467740513384" lon="-4.323877925053239">
        <ele>1297.8</ele>
        <time>2022-04-14T09:10:46.000Z</time>
      </trkpt>
      <trkpt lat="39.52472627162933" lon="-4.323805924504995">
        <ele>1297</ele>
        <time>2022-04-14T09:10:52.000Z</time>
      </trkpt>
      <trkpt lat="39.52474479563534" lon="-4.323787232860923">
        <ele>1296.8</ele>
        <time>2022-04-14T09:10:54.000Z</time>
      </trkpt>
      <trkpt lat="39.5247748028487" lon="-4.32372503913939">
        <ele>1296</ele>
        <time>2022-04-14T09:11:00.000Z</time>
      </trkpt>
      <trkpt lat="39.524778574705124" lon="-4.3237166572362185">
        <ele>1295.8</ele>
        <time>2022-04-14T09:11:01.000Z</time>
      </trkpt>
      <trkpt lat="39.52477103099227" lon="-4.323703665286303">
        <ele>1295.4</ele>
        <time>2022-04-14T09:11:03.000Z</time>
      </trkpt>
      <trkpt lat="39.524765415117145" lon="-4.3236771784722805">
        <ele>1295</ele>
        <time>2022-04-14T09:11:06.000Z</time>
      </trkpt>
      <trkpt lat="39.52476457692683" lon="-4.323667790740728">
        <ele>1294.8</ele>
        <time>2022-04-14T09:11:07.000Z</time>
      </trkpt>
      <trkpt lat="39.524780586361885" lon="-4.323623618111014">
        <ele>1294.2</ele>
        <time>2022-04-14T09:11:11.000Z</time>
      </trkpt>
      <trkpt lat="39.52479458414018" lon="-4.32359260506928">
        <ele>1293.8</ele>
        <time>2022-04-14T09:11:14.000Z</time>
      </trkpt>
      <trkpt lat="39.52481805346906" lon="-4.323520017787814">
        <ele>1292.8</ele>
        <time>2022-04-14T09:11:20.000Z</time>
      </trkpt>
      <trkpt lat="39.524826519191265" lon="-4.323493950068951">
        <ele>1292.6</ele>
        <time>2022-04-14T09:11:22.000Z</time>
      </trkpt>
      <trkpt lat="39.524845043197274" lon="-4.32345530949533">
        <ele>1291.4</ele>
        <time>2022-04-14T09:11:25.000Z</time>
      </trkpt>
      <trkpt lat="39.52485795132816" lon="-4.323405185714364">
        <ele>1290.4</ele>
        <time>2022-04-14T09:11:30.000Z</time>
      </trkpt>
      <trkpt lat="39.52487261965871" lon="-4.323374340310693">
        <ele>1289.6</ele>
        <time>2022-04-14T09:11:33.000Z</time>
      </trkpt>
      <trkpt lat="39.5248903054744" lon="-4.323351122438908">
        <ele>1289.2</ele>
        <time>2022-04-14T09:11:35.000Z</time>
      </trkpt>
      <trkpt lat="39.52490162104368" lon="-4.323331927880645">
        <ele>1288.8</ele>
        <time>2022-04-14T09:11:37.000Z</time>
      </trkpt>
      <trkpt lat="39.524903297424316" lon="-4.323304016143084">
        <ele>1288.2</ele>
        <time>2022-04-14T09:11:40.000Z</time>
      </trkpt>
      <trkpt lat="39.52491712756455" lon="-4.3232689797878265">
        <ele>1288</ele>
        <time>2022-04-14T09:11:43.000Z</time>
      </trkpt>
      <trkpt lat="39.524932969361544" lon="-4.323245845735073">
        <ele>1287.6</ele>
        <time>2022-04-14T09:11:45.000Z</time>
      </trkpt>
      <trkpt lat="39.52494696713984" lon="-4.323227154091001">
        <ele>1287</ele>
        <time>2022-04-14T09:11:47.000Z</time>
      </trkpt>
      <trkpt lat="39.524949649348855" lon="-4.323216089978814">
        <ele>1286.8</ele>
        <time>2022-04-14T09:11:48.000Z</time>
      </trkpt>
      <trkpt lat="39.52495375648141" lon="-4.323176695033908">
        <ele>1286.2</ele>
        <time>2022-04-14T09:11:51.000Z</time>
      </trkpt>
      <trkpt lat="39.524958953261375" lon="-4.323162445798516">
        <ele>1286</ele>
        <time>2022-04-14T09:11:52.000Z</time>
      </trkpt>
      <trkpt lat="39.52498158439994" lon="-4.323116010054946">
        <ele>1284.8</ele>
        <time>2022-04-14T09:11:56.000Z</time>
      </trkpt>
      <trkpt lat="39.52498493716121" lon="-4.323098827153444">
        <ele>1284.2</ele>
        <time>2022-04-14T09:11:58.000Z</time>
      </trkpt>
      <trkpt lat="39.52498594298959" lon="-4.32308885268867">
        <ele>1283.8</ele>
        <time>2022-04-14T09:12:00.000Z</time>
      </trkpt>
      <trkpt lat="39.52497479505837" lon="-4.323087176308036">
        <ele>1283.6</ele>
        <time>2022-04-14T09:12:01.000Z</time>
      </trkpt>
      <trkpt lat="39.52497881837189" lon="-4.323072759434581">
        <ele>1283.4</ele>
        <time>2022-04-14T09:12:04.000Z</time>
      </trkpt>
      <trkpt lat="39.524980913847685" lon="-4.323067227378488">
        <ele>1283.4</ele>
        <time>2022-04-14T09:12:05.000Z</time>
      </trkpt>
      <trkpt lat="39.52497730962932" lon="-4.3230637069791555">
        <ele>1283.2</ele>
        <time>2022-04-14T09:12:06.000Z</time>
      </trkpt>
      <trkpt lat="39.524968676269054" lon="-4.323058510199189">
        <ele>1283</ele>
        <time>2022-04-14T09:12:07.000Z</time>
      </trkpt>
      <trkpt lat="39.52496808953583" lon="-4.323045182973146">
        <ele>1282.6</ele>
        <time>2022-04-14T09:12:09.000Z</time>
      </trkpt>
      <trkpt lat="39.524979405105114" lon="-4.323029424995184">
        <ele>1281.4</ele>
        <time>2022-04-14T09:12:14.000Z</time>
      </trkpt>
      <trkpt lat="39.52498275786638" lon="-4.3230239767581224">
        <ele>1281.2</ele>
        <time>2022-04-14T09:12:15.000Z</time>
      </trkpt>
      <trkpt lat="39.52499424107373" lon="-4.322974104434252">
        <ele>1281</ele>
        <time>2022-04-14T09:12:20.000Z</time>
      </trkpt>
      <trkpt lat="39.52501829713583" lon="-4.3229512218385935">
        <ele>1280.6</ele>
        <time>2022-04-14T09:12:22.000Z</time>
      </trkpt>
      <trkpt lat="39.52504763379693" lon="-4.322933871299028">
        <ele>1280.4</ele>
        <time>2022-04-14T09:12:24.000Z</time>
      </trkpt>
      <trkpt lat="39.52506439760327" lon="-4.322899337857962">
        <ele>1279.8</ele>
        <time>2022-04-14T09:12:27.000Z</time>
      </trkpt>
      <trkpt lat="39.52507562935352" lon="-4.322872348129749">
        <ele>1279.6</ele>
        <time>2022-04-14T09:12:29.000Z</time>
      </trkpt>
      <trkpt lat="39.52508635818958" lon="-4.322844184935093">
        <ele>1279.2</ele>
        <time>2022-04-14T09:12:31.000Z</time>
      </trkpt>
      <trkpt lat="39.52509398572147" lon="-4.322824319824576">
        <ele>1278.6</ele>
        <time>2022-04-14T09:12:33.000Z</time>
      </trkpt>
      <trkpt lat="39.52509339898825" lon="-4.3228154350072145">
        <ele>1278.4</ele>
        <time>2022-04-14T09:12:34.000Z</time>
      </trkpt>
      <trkpt lat="39.52509398572147" lon="-4.3228033650666475">
        <ele>1278.2</ele>
        <time>2022-04-14T09:12:35.000Z</time>
      </trkpt>
      <trkpt lat="39.525092812255025" lon="-4.3227924685925245">
        <ele>1278</ele>
        <time>2022-04-14T09:12:36.000Z</time>
      </trkpt>
      <trkpt lat="39.52510773204267" lon="-4.322712756693363">
        <ele>1277.2</ele>
        <time>2022-04-14T09:12:44.000Z</time>
      </trkpt>
      <trkpt lat="39.52510882169008" lon="-4.322701441124082">
        <ele>1276.8</ele>
        <time>2022-04-14T09:12:45.000Z</time>
      </trkpt>
      <trkpt lat="39.52514863573015" lon="-4.322651317343116">
        <ele>1276</ele>
        <time>2022-04-14T09:12:51.000Z</time>
      </trkpt>
      <trkpt lat="39.5251564309001" lon="-4.322641929611564">
        <ele>1275.6</ele>
        <time>2022-04-14T09:12:52.000Z</time>
      </trkpt>
      <trkpt lat="39.52515400014818" lon="-4.322632625699043">
        <ele>1275.4</ele>
        <time>2022-04-14T09:12:53.000Z</time>
      </trkpt>
      <trkpt lat="39.525137823075056" lon="-4.322593314573169">
        <ele>1274.8</ele>
        <time>2022-04-14T09:12:57.000Z</time>
      </trkpt>
      <trkpt lat="39.5251339673996" lon="-4.322583423927426">
        <ele>1274.6</ele>
        <time>2022-04-14T09:12:58.000Z</time>
      </trkpt>
      <trkpt lat="39.52513908036053" lon="-4.322570012882352">
        <ele>1274.2</ele>
        <time>2022-04-14T09:13:00.000Z</time>
      </trkpt>
      <trkpt lat="39.525161208584905" lon="-4.322541514411569">
        <ele>1273.6</ele>
        <time>2022-04-14T09:13:03.000Z</time>
      </trkpt>
      <trkpt lat="39.52517579309642" lon="-4.322517961263657">
        <ele>1273.2</ele>
        <time>2022-04-14T09:13:05.000Z</time>
      </trkpt>
      <trkpt lat="39.525182750076056" lon="-4.3225091602653265">
        <ele>1273.2</ele>
        <time>2022-04-14T09:13:06.000Z</time>
      </trkpt>
      <trkpt lat="39.52518434263766" lon="-4.322490133345127">
        <ele>1272.6</ele>
        <time>2022-04-14T09:13:08.000Z</time>
      </trkpt>
      <trkpt lat="39.52518652193248" lon="-4.322475381195545">
        <ele>1272.4</ele>
        <time>2022-04-14T09:13:10.000Z</time>
      </trkpt>
      <trkpt lat="39.5251907967031" lon="-4.322474459186196">
        <ele>1272</ele>
        <time>2022-04-14T09:13:12.000Z</time>
      </trkpt>
      <trkpt lat="39.52516573481262" lon="-4.3224897142499685">
        <ele>1271.8</ele>
        <time>2022-04-14T09:13:17.000Z</time>
      </trkpt>
      <trkpt lat="39.52516296878457" lon="-4.32248929515481">
        <ele>1271.8</ele>
        <time>2022-04-14T09:13:18.000Z</time>
      </trkpt>
      <trkpt lat="39.525117203593254" lon="-4.322497509419918">
        <ele>1271.6</ele>
        <time>2022-04-14T09:13:22.000Z</time>
      </trkpt>
      <trkpt lat="39.52508728019893" lon="-4.322482421994209">
        <ele>1271.4</ele>
        <time>2022-04-14T09:13:33.000Z</time>
      </trkpt>
      <trkpt lat="39.52514444477856" lon="-4.322491222992539">
        <ele>1271.2</ele>
        <time>2022-04-14T09:13:41.000Z</time>
      </trkpt>
      <trkpt lat="39.52515567652881" lon="-4.32244922965765">
        <ele>1270.6</ele>
        <time>2022-04-14T09:13:47.000Z</time>
      </trkpt>
      <trkpt lat="39.5251630526036" lon="-4.3224328849464655">
        <ele>1270.6</ele>
        <time>2022-04-14T09:13:48.000Z</time>
      </trkpt>
      <trkpt lat="39.52518442645669" lon="-4.322386616840959">
        <ele>1270</ele>
        <time>2022-04-14T09:13:52.000Z</time>
      </trkpt>
      <trkpt lat="39.52519029378891" lon="-4.322377983480692">
        <ele>1270</ele>
        <time>2022-04-14T09:13:53.000Z</time>
      </trkpt>
      <trkpt lat="39.52522549778223" lon="-4.322320315986872">
        <ele>1269.4</ele>
        <time>2022-04-14T09:13:59.000Z</time>
      </trkpt>
      <trkpt lat="39.52522449195385" lon="-4.322317466139793">
        <ele>1269.2</ele>
        <time>2022-04-14T09:14:00.000Z</time>
      </trkpt>
      <trkpt lat="39.52523949556053" lon="-4.322293996810913">
        <ele>1268.8</ele>
        <time>2022-04-14T09:14:04.000Z</time>
      </trkpt>
      <trkpt lat="39.525249134749174" lon="-4.322282178327441">
        <ele>1268.8</ele>
        <time>2022-04-14T09:14:05.000Z</time>
      </trkpt>
      <trkpt lat="39.52526422217488" lon="-4.322248650714755">
        <ele>1268.4</ele>
        <time>2022-04-14T09:14:08.000Z</time>
      </trkpt>
      <trkpt lat="39.525270173326135" lon="-4.322238676249981">
        <ele>1268.2</ele>
        <time>2022-04-14T09:14:09.000Z</time>
      </trkpt>
      <trkpt lat="39.52528358437121" lon="-4.322216548025608">
        <ele>1267.8</ele>
        <time>2022-04-14T09:14:11.000Z</time>
      </trkpt>
      <trkpt lat="39.525291211903095" lon="-4.3221955094486475">
        <ele>1267.2</ele>
        <time>2022-04-14T09:14:13.000Z</time>
      </trkpt>
      <trkpt lat="39.52529188245535" lon="-4.322189055383205">
        <ele>1267</ele>
        <time>2022-04-14T09:14:14.000Z</time>
      </trkpt>
      <trkpt lat="39.5252737775445" lon="-4.322168938815594">
        <ele>1266.6</ele>
        <time>2022-04-14T09:14:18.000Z</time>
      </trkpt>
      <trkpt lat="39.52529347501695" lon="-4.322141529992223">
        <ele>1266</ele>
        <time>2022-04-14T09:14:22.000Z</time>
      </trkpt>
      <trkpt lat="39.52530755661428" lon="-4.322126945480704">
        <ele>1265.6</ele>
        <time>2022-04-14T09:14:24.000Z</time>
      </trkpt>
      <trkpt lat="39.52531090937555" lon="-4.322123005986214">
        <ele>1265.4</ele>
        <time>2022-04-14T09:14:25.000Z</time>
      </trkpt>
      <trkpt lat="39.52531350776553" lon="-4.322111187502742">
        <ele>1265.2</ele>
        <time>2022-04-14T09:14:27.000Z</time>
      </trkpt>
      <trkpt lat="39.5253237336874" lon="-4.322096183896065">
        <ele>1264.8</ele>
        <time>2022-04-14T09:14:29.000Z</time>
      </trkpt>
      <trkpt lat="39.52532624825835" lon="-4.322089143097401">
        <ele>1264.4</ele>
        <time>2022-04-14T09:14:31.000Z</time>
      </trkpt>
      <trkpt lat="39.52532800845802" lon="-4.322088472545147">
        <ele>1264.2</ele>
        <time>2022-04-14T09:14:33.000Z</time>
      </trkpt>
      <trkpt lat="39.525339072570205" lon="-4.322066092863679">
        <ele>1263.8</ele>
        <time>2022-04-14T09:14:36.000Z</time>
      </trkpt>
      <trkpt lat="39.52536220662296" lon="-4.322035918012261">
        <ele>1263.2</ele>
        <time>2022-04-14T09:14:39.000Z</time>
      </trkpt>
      <trkpt lat="39.525377629324794" lon="-4.3220028933137655">
        <ele>1262.8</ele>
        <time>2022-04-14T09:14:42.000Z</time>
      </trkpt>
      <trkpt lat="39.52538391575217" lon="-4.32197967544198">
        <ele>1262.2</ele>
        <time>2022-04-14T09:14:45.000Z</time>
      </trkpt>
      <trkpt lat="39.52541643753648" lon="-4.321939777582884">
        <ele>1261.6</ele>
        <time>2022-04-14T09:14:49.000Z</time>
      </trkpt>
      <trkpt lat="39.52545608393848" lon="-4.321907423436642">
        <ele>1260.8</ele>
        <time>2022-04-14T09:14:53.000Z</time>
      </trkpt>
      <trkpt lat="39.52546295709908" lon="-4.321898957714438">
        <ele>1260.6</ele>
        <time>2022-04-14T09:14:54.000Z</time>
      </trkpt>
      <trkpt lat="39.52546890825033" lon="-4.3218892347067595">
        <ele>1260.6</ele>
        <time>2022-04-14T09:14:55.000Z</time>
      </trkpt>
      <trkpt lat="39.525474859401584" lon="-4.321854617446661">
        <ele>1259.8</ele>
        <time>2022-04-14T09:15:00.000Z</time>
      </trkpt>
      <trkpt lat="39.525475865229964" lon="-4.321845984086394">
        <ele>1259.6</ele>
        <time>2022-04-14T09:15:01.000Z</time>
      </trkpt>
      <trkpt lat="39.525492964312434" lon="-4.321803487837315">
        <ele>1258.4</ele>
        <time>2022-04-14T09:15:06.000Z</time>
      </trkpt>
      <trkpt lat="39.5254965685308" lon="-4.3217970337718725">
        <ele>1258.2</ele>
        <time>2022-04-14T09:15:07.000Z</time>
      </trkpt>
      <trkpt lat="39.525498328730464" lon="-4.321779096499085">
        <ele>1258</ele>
        <time>2022-04-14T09:15:09.000Z</time>
      </trkpt>
      <trkpt lat="39.52551165595651" lon="-4.321716483682394">
        <ele>1257.4</ele>
        <time>2022-04-14T09:15:14.000Z</time>
      </trkpt>
      <trkpt lat="39.52551458962262" lon="-4.321693936362863">
        <ele>1257.2</ele>
        <time>2022-04-14T09:15:17.000Z</time>
      </trkpt>
      <trkpt lat="39.525533113628626" lon="-4.321638029068708">
        <ele>1256.8</ele>
        <time>2022-04-14T09:15:22.000Z</time>
      </trkpt>
      <trkpt lat="39.52555482275784" lon="-4.321627803146839">
        <ele>1256.4</ele>
        <time>2022-04-14T09:15:24.000Z</time>
      </trkpt>
      <trkpt lat="39.52555079944432" lon="-4.321621432900429">
        <ele>1256.2</ele>
        <time>2022-04-14T09:15:26.000Z</time>
      </trkpt>
      <trkpt lat="39.52555289492011" lon="-4.321624366566539">
        <ele>1256</ele>
        <time>2022-04-14T09:15:30.000Z</time>
      </trkpt>
      <trkpt lat="39.52555272728205" lon="-4.321626797318459">
        <ele>1256.2</ele>
        <time>2022-04-14T09:15:32.000Z</time>
      </trkpt>
      <trkpt lat="39.52557041309774" lon="-4.321617158129811">
        <ele>1256.4</ele>
        <time>2022-04-14T09:15:39.000Z</time>
      </trkpt>
      <trkpt lat="39.525622548535466" lon="-4.3215493485331535">
        <ele>1256.2</ele>
        <time>2022-04-14T09:15:45.000Z</time>
      </trkpt>
      <trkpt lat="39.525633696466684" lon="-4.321535769850016">
        <ele>1256.2</ele>
        <time>2022-04-14T09:15:46.000Z</time>
      </trkpt>
      <trkpt lat="39.525684574618936" lon="-4.321441473439336">
        <ele>1256</ele>
        <time>2022-04-14T09:15:53.000Z</time>
      </trkpt>
      <trkpt lat="39.525696309283376" lon="-4.321390595287085">
        <ele>1255.6</ele>
        <time>2022-04-14T09:15:58.000Z</time>
      </trkpt>
      <trkpt lat="39.52569999732077" lon="-4.32136838324368">
        <ele>1255.6</ele>
        <time>2022-04-14T09:16:00.000Z</time>
      </trkpt>
      <trkpt lat="39.52569010667503" lon="-4.3213549721986055">
        <ele>1255.4</ele>
        <time>2022-04-14T09:16:01.000Z</time>
      </trkpt>
      <trkpt lat="39.5256966445595" lon="-4.321348266676068">
        <ele>1255.4</ele>
        <time>2022-04-14T09:16:02.000Z</time>
      </trkpt>
      <trkpt lat="39.525708043947816" lon="-4.32132781483233">
        <ele>1255</ele>
        <time>2022-04-14T09:16:04.000Z</time>
      </trkpt>
      <trkpt lat="39.52573603950441" lon="-4.321285653859377">
        <ele>1254.2</ele>
        <time>2022-04-14T09:16:08.000Z</time>
      </trkpt>
      <trkpt lat="39.525739811360836" lon="-4.321264447644353">
        <ele>1254</ele>
        <time>2022-04-14T09:16:10.000Z</time>
      </trkpt>
      <trkpt lat="39.52576009556651" lon="-4.321210719645023">
        <ele>1253.4</ele>
        <time>2022-04-14T09:16:14.000Z</time>
      </trkpt>
      <trkpt lat="39.52577602118254" lon="-4.321180963888764">
        <ele>1253.4</ele>
        <time>2022-04-14T09:16:17.000Z</time>
      </trkpt>
      <trkpt lat="39.52579471282661" lon="-4.321127403527498">
        <ele>1253.4</ele>
        <time>2022-04-14T09:16:22.000Z</time>
      </trkpt>
      <trkpt lat="39.52579144388437" lon="-4.321120111271739">
        <ele>1253.2</ele>
        <time>2022-04-14T09:16:23.000Z</time>
      </trkpt>
      <trkpt lat="39.52576118521392" lon="-4.321106867864728">
        <ele>1253</ele>
        <time>2022-04-14T09:16:25.000Z</time>
      </trkpt>
      <trkpt lat="39.52576537616551" lon="-4.3210958037525415">
        <ele>1253</ele>
        <time>2022-04-14T09:16:27.000Z</time>
      </trkpt>
      <trkpt lat="39.52577023766935" lon="-4.321084823459387">
        <ele>1252.8</ele>
        <time>2022-04-14T09:16:28.000Z</time>
      </trkpt>
      <trkpt lat="39.525779373943806" lon="-4.321069065481424">
        <ele>1252.8</ele>
        <time>2022-04-14T09:16:30.000Z</time>
      </trkpt>
      <trkpt lat="39.5258020889014" lon="-4.3210533913224936">
        <ele>1252.6</ele>
        <time>2022-04-14T09:16:32.000Z</time>
      </trkpt>
      <trkpt lat="39.52586269006133" lon="-4.320989269763231">
        <ele>1252.4</ele>
        <time>2022-04-14T09:16:38.000Z</time>
      </trkpt>
      <trkpt lat="39.52587576583028" lon="-4.320980049669743">
        <ele>1252.4</ele>
        <time>2022-04-14T09:16:39.000Z</time>
      </trkpt>
      <trkpt lat="39.525951789692044" lon="-4.320924310013652">
        <ele>1252.2</ele>
        <time>2022-04-14T09:16:45.000Z</time>
      </trkpt>
      <trkpt lat="39.52594131231308" lon="-4.320897990837693">
        <ele>1252</ele>
        <time>2022-04-14T09:16:47.000Z</time>
      </trkpt>
      <trkpt lat="39.52594759874046" lon="-4.320870414376259">
        <ele>1252</ele>
        <time>2022-04-14T09:16:49.000Z</time>
      </trkpt>
      <trkpt lat="39.525947850197554" lon="-4.320841832086444">
        <ele>1252</ele>
        <time>2022-04-14T09:16:51.000Z</time>
      </trkpt>
      <trkpt lat="39.52595321461558" lon="-4.32082649320364">
        <ele>1251.8</ele>
        <time>2022-04-14T09:16:52.000Z</time>
      </trkpt>
      <trkpt lat="39.52594290487468" lon="-4.3207629583776">
        <ele>1251.4</ele>
        <time>2022-04-14T09:16:57.000Z</time>
      </trkpt>
      <trkpt lat="39.52595631591976" lon="-4.320738399401307">
        <ele>1251.4</ele>
        <time>2022-04-14T09:16:59.000Z</time>
      </trkpt>
      <trkpt lat="39.52598716132343" lon="-4.320630859583616">
        <ele>1251.6</ele>
        <time>2022-04-14T09:17:07.000Z</time>
      </trkpt>
      <trkpt lat="39.526022616773844" lon="-4.3205751199275255">
        <ele>1251.6</ele>
        <time>2022-04-14T09:17:11.000Z</time>
      </trkpt>
      <trkpt lat="39.52602731063962" lon="-4.3205626308918">
        <ele>1251.6</ele>
        <time>2022-04-14T09:17:12.000Z</time>
      </trkpt>
      <trkpt lat="39.52604005113244" lon="-4.320527845993638">
        <ele>1251.6</ele>
        <time>2022-04-14T09:17:15.000Z</time>
      </trkpt>
      <trkpt lat="39.526073997840285" lon="-4.320404045283794">
        <ele>1251.6</ele>
        <time>2022-04-14T09:17:22.000Z</time>
      </trkpt>
      <trkpt lat="39.52609419822693" lon="-4.320360627025366">
        <ele>1251.2</ele>
        <time>2022-04-14T09:17:25.000Z</time>
      </trkpt>
      <trkpt lat="39.52610199339688" lon="-4.320348473265767">
        <ele>1251.2</ele>
        <time>2022-04-14T09:17:26.000Z</time>
      </trkpt>
      <trkpt lat="39.526092018932104" lon="-4.320337576791644">
        <ele>1251.2</ele>
        <time>2022-04-14T09:17:27.000Z</time>
      </trkpt>
      <trkpt lat="39.526093108579516" lon="-4.320323579013348">
        <ele>1251</ele>
        <time>2022-04-14T09:17:28.000Z</time>
      </trkpt>
      <trkpt lat="39.52610291540623" lon="-4.320234563201666">
        <ele>1251</ele>
        <time>2022-04-14T09:17:34.000Z</time>
      </trkpt>
      <trkpt lat="39.526108698919415" lon="-4.320217212662101">
        <ele>1251.2</ele>
        <time>2022-04-14T09:17:35.000Z</time>
      </trkpt>
      <trkpt lat="39.52612814493477" lon="-4.320165244862437">
        <ele>1251.4</ele>
        <time>2022-04-14T09:17:38.000Z</time>
      </trkpt>
      <trkpt lat="39.526147339493036" lon="-4.320117803290486">
        <ele>1251.4</ele>
        <time>2022-04-14T09:17:42.000Z</time>
      </trkpt>
      <trkpt lat="39.52618271112442" lon="-4.3200532626360655">
        <ele>1251.6</ele>
        <time>2022-04-14T09:17:47.000Z</time>
      </trkpt>
      <trkpt lat="39.526188746094704" lon="-4.32003884576261">
        <ele>1251.6</ele>
        <time>2022-04-14T09:17:48.000Z</time>
      </trkpt>
      <trkpt lat="39.52619679272175" lon="-4.319980004802346">
        <ele>1251</ele>
        <time>2022-04-14T09:17:53.000Z</time>
      </trkpt>
      <trkpt lat="39.526221603155136" lon="-4.319944968447089">
        <ele>1250.6</ele>
        <time>2022-04-14T09:17:56.000Z</time>
      </trkpt>
      <trkpt lat="39.52623652294278" lon="-4.319883277639747">
        <ele>1249.6</ele>
        <time>2022-04-14T09:18:01.000Z</time>
      </trkpt>
      <trkpt lat="39.5262355171144" lon="-4.319876907393336">
        <ele>1249.4</ele>
        <time>2022-04-14T09:18:02.000Z</time>
      </trkpt>
      <trkpt lat="39.526221100240946" lon="-4.319874225184321">
        <ele>1249.2</ele>
        <time>2022-04-14T09:18:03.000Z</time>
      </trkpt>
      <trkpt lat="39.526187824085355" lon="-4.319885624572635">
        <ele>1248.8</ele>
        <time>2022-04-14T09:18:08.000Z</time>
      </trkpt>
      <trkpt lat="39.52618774026632" lon="-4.319884870201349">
        <ele>1248.8</ele>
        <time>2022-04-14T09:18:09.000Z</time>
      </trkpt>
      <trkpt lat="39.52617005445063" lon="-4.319841116666794">
        <ele>1248.6</ele>
        <time>2022-04-14T09:18:17.000Z</time>
      </trkpt>
      <trkpt lat="39.52612361870706" lon="-4.319789903238416">
        <ele>1248</ele>
        <time>2022-04-14T09:18:23.000Z</time>
      </trkpt>
      <trkpt lat="39.526112554594874" lon="-4.319784455001354">
        <ele>1248</ele>
        <time>2022-04-14T09:18:24.000Z</time>
      </trkpt>
      <trkpt lat="39.526079362258315" lon="-4.319783952087164">
        <ele>1247.4</ele>
        <time>2022-04-14T09:18:29.000Z</time>
      </trkpt>
      <trkpt lat="39.526079362258315" lon="-4.319785460829735">
        <ele>1247.4</ele>
        <time>2022-04-14T09:18:30.000Z</time>
      </trkpt>
      <trkpt lat="39.526078356429935" lon="-4.3197843711823225">
        <ele>1247.2</ele>
        <time>2022-04-14T09:18:32.000Z</time>
      </trkpt>
      <trkpt lat="39.52606410719454" lon="-4.319778922945261">
        <ele>1247</ele>
        <time>2022-04-14T09:18:36.000Z</time>
      </trkpt>
      <trkpt lat="39.52601004391909" lon="-4.319747909903526">
        <ele>1246.4</ele>
        <time>2022-04-14T09:18:42.000Z</time>
      </trkpt>
      <trkpt lat="39.52600291930139" lon="-4.31974564678967">
        <ele>1246.2</ele>
        <time>2022-04-14T09:18:43.000Z</time>
      </trkpt>
      <trkpt lat="39.52598439529538" lon="-4.319735169410706">
        <ele>1245.8</ele>
        <time>2022-04-14T09:18:47.000Z</time>
      </trkpt>
      <trkpt lat="39.52594508416951" lon="-4.319737013429403">
        <ele>1245.4</ele>
        <time>2022-04-14T09:18:51.000Z</time>
      </trkpt>
      <trkpt lat="39.525925386697054" lon="-4.319734079763293">
        <ele>1244.6</ele>
        <time>2022-04-14T09:18:54.000Z</time>
      </trkpt>
      <trkpt lat="39.52590275555849" lon="-4.319728799164295">
        <ele>1244.2</ele>
        <time>2022-04-14T09:18:57.000Z</time>
      </trkpt>
      <trkpt lat="39.525885405018926" lon="-4.319712538272142">
        <ele>1243.6</ele>
        <time>2022-04-14T09:19:01.000Z</time>
      </trkpt>
      <trkpt lat="39.52587341889739" lon="-4.319706503301859">
        <ele>1243.2</ele>
        <time>2022-04-14T09:19:04.000Z</time>
      </trkpt>
      <trkpt lat="39.52586009167135" lon="-4.319707592949271">
        <ele>1242.6</ele>
        <time>2022-04-14T09:19:07.000Z</time>
      </trkpt>
      <trkpt lat="39.52585330232978" lon="-4.319705246016383">
        <ele>1242.4</ele>
        <time>2022-04-14T09:19:11.000Z</time>
      </trkpt>
      <trkpt lat="39.52584601007402" lon="-4.319700468331575">
        <ele>1242.4</ele>
        <time>2022-04-14T09:19:12.000Z</time>
      </trkpt>
      <trkpt lat="39.52582974918187" lon="-4.319686386734247">
        <ele>1242.2</ele>
        <time>2022-04-14T09:19:14.000Z</time>
      </trkpt>
      <trkpt lat="39.52581482939422" lon="-4.3196851294487715">
        <ele>1242</ele>
        <time>2022-04-14T09:19:17.000Z</time>
      </trkpt>
      <trkpt lat="39.525802843272686" lon="-4.319682279601693">
        <ele>1241.6</ele>
        <time>2022-04-14T09:19:19.000Z</time>
      </trkpt>
      <trkpt lat="39.525799406692386" lon="-4.319682698696852">
        <ele>1241.2</ele>
        <time>2022-04-14T09:19:21.000Z</time>
      </trkpt>
      <trkpt lat="39.52580125071108" lon="-4.319682279601693">
        <ele>1241</ele>
        <time>2022-04-14T09:19:22.000Z</time>
      </trkpt>
      <trkpt lat="39.52580250799656" lon="-4.319680267944932">
        <ele>1240.2</ele>
        <time>2022-04-14T09:19:28.000Z</time>
      </trkpt>
      <trkpt lat="39.525793958455324" lon="-4.319682447239757">
        <ele>1240</ele>
        <time>2022-04-14T09:19:32.000Z</time>
      </trkpt>
      <trkpt lat="39.52575464732945" lon="-4.319660654291511">
        <ele>1239.4</ele>
        <time>2022-04-14T09:19:36.000Z</time>
      </trkpt>
      <trkpt lat="39.52575070783496" lon="-4.3196542002260685">
        <ele>1239.4</ele>
        <time>2022-04-14T09:19:37.000Z</time>
      </trkpt>
      <trkpt lat="39.52572866342962" lon="-4.319626791402698">
        <ele>1239</ele>
        <time>2022-04-14T09:19:43.000Z</time>
      </trkpt>
      <trkpt lat="39.52569806948304" lon="-4.319603322073817">
        <ele>1238</ele>
        <time>2022-04-14T09:19:50.000Z</time>
      </trkpt>
      <trkpt lat="39.5256968960166" lon="-4.319601226598024">
        <ele>1237.8</ele>
        <time>2022-04-14T09:19:51.000Z</time>
      </trkpt>
      <trkpt lat="39.52568080276251" lon="-4.319601897150278">
        <ele>1237.2</ele>
        <time>2022-04-14T09:19:54.000Z</time>
      </trkpt>
      <trkpt lat="39.525666469708085" lon="-4.319597035646439">
        <ele>1236.8</ele>
        <time>2022-04-14T09:19:56.000Z</time>
      </trkpt>
      <trkpt lat="39.52565590851009" lon="-4.319586390629411">
        <ele>1236.6</ele>
        <time>2022-04-14T09:19:58.000Z</time>
      </trkpt>
      <trkpt lat="39.52563587576151" lon="-4.319575913250446">
        <ele>1236</ele>
        <time>2022-04-14T09:20:02.000Z</time>
      </trkpt>
      <trkpt lat="39.5256260689348" lon="-4.319573566317558">
        <ele>1235.8</ele>
        <time>2022-04-14T09:20:03.000Z</time>
      </trkpt>
      <trkpt lat="39.52559924684465" lon="-4.319562250748277">
        <ele>1235</ele>
        <time>2022-04-14T09:20:06.000Z</time>
      </trkpt>
      <trkpt lat="39.52558918856084" lon="-4.319558814167976">
        <ele>1234.8</ele>
        <time>2022-04-14T09:20:07.000Z</time>
      </trkpt>
      <trkpt lat="39.52555960044265" lon="-4.319544229656458">
        <ele>1233.8</ele>
        <time>2022-04-14T09:20:12.000Z</time>
      </trkpt>
      <trkpt lat="39.52555381692946" lon="-4.319541295990348">
        <ele>1233.4</ele>
        <time>2022-04-14T09:20:13.000Z</time>
      </trkpt>
      <trkpt lat="39.52554711140692" lon="-4.319539200514555">
        <ele>1232.4</ele>
        <time>2022-04-14T09:20:16.000Z</time>
      </trkpt>
      <trkpt lat="39.5255430880934" lon="-4.3195360992103815">
        <ele>1232.2</ele>
        <time>2022-04-14T09:20:17.000Z</time>
      </trkpt>
      <trkpt lat="39.52554300427437" lon="-4.319538278505206">
        <ele>1232</ele>
        <time>2022-04-14T09:20:18.000Z</time>
      </trkpt>
      <trkpt lat="39.52554342336953" lon="-4.31953995488584">
        <ele>1232</ele>
        <time>2022-04-14T09:20:19.000Z</time>
      </trkpt>
      <trkpt lat="39.52554342336953" lon="-4.319541798904538">
        <ele>1232</ele>
        <time>2022-04-14T09:20:20.000Z</time>
      </trkpt>
      <trkpt lat="39.5255430880934" lon="-4.319542469456792">
        <ele>1232</ele>
        <time>2022-04-14T09:20:21.000Z</time>
      </trkpt>
      <trkpt lat="39.52553763985634" lon="-4.319546325132251">
        <ele>1232</ele>
        <time>2022-04-14T09:20:23.000Z</time>
      </trkpt>
      <trkpt lat="39.52552355825901" lon="-4.319536183029413">
        <ele>1231.6</ele>
        <time>2022-04-14T09:20:27.000Z</time>
      </trkpt>
      <trkpt lat="39.52551517635584" lon="-4.3195281364023685">
        <ele>1231.2</ele>
        <time>2022-04-14T09:20:29.000Z</time>
      </trkpt>
      <trkpt lat="39.525504698976874" lon="-4.319509109482169">
        <ele>1230.8</ele>
        <time>2022-04-14T09:20:33.000Z</time>
      </trkpt>
      <trkpt lat="39.52550218440592" lon="-4.319508271291852">
        <ele>1230.6</ele>
        <time>2022-04-14T09:20:38.000Z</time>
      </trkpt>
      <trkpt lat="39.52549606561661" lon="-4.319510366767645">
        <ele>1230.6</ele>
        <time>2022-04-14T09:20:40.000Z</time>
      </trkpt>
      <trkpt lat="39.52550578862429" lon="-4.31953894905746">
        <ele>1230.4</ele>
        <time>2022-04-14T09:20:49.000Z</time>
      </trkpt>
      <trkpt lat="39.525508638471365" lon="-4.319549845531583">
        <ele>1230</ele>
        <time>2022-04-14T09:20:52.000Z</time>
      </trkpt>
      <trkpt lat="39.5255000051111" lon="-4.319537524133921">
        <ele>1229.8</ele>
        <time>2022-04-14T09:20:55.000Z</time>
      </trkpt>
      <trkpt lat="39.525490114465356" lon="-4.319526795297861">
        <ele>1229.6</ele>
        <time>2022-04-14T09:20:57.000Z</time>
      </trkpt>
      <trkpt lat="39.525467650964856" lon="-4.319508941844106">
        <ele>1229.2</ele>
        <time>2022-04-14T09:21:01.000Z</time>
      </trkpt>
      <trkpt lat="39.525462202727795" lon="-4.319509193301201">
        <ele>1228.8</ele>
        <time>2022-04-14T09:21:02.000Z</time>
      </trkpt>
      <trkpt lat="39.52545859850943" lon="-4.31951061822474">
        <ele>1228.6</ele>
        <time>2022-04-14T09:21:03.000Z</time>
      </trkpt>
      <trkpt lat="39.52545859850943" lon="-4.319508858025074">
        <ele>1228.4</ele>
        <time>2022-04-14T09:21:04.000Z</time>
      </trkpt>
      <trkpt lat="39.525453485548496" lon="-4.319501984864473">
        <ele>1228.2</ele>
        <time>2022-04-14T09:21:13.000Z</time>
      </trkpt>
      <trkpt lat="39.52543722465634" lon="-4.319494105875492">
        <ele>1227.6</ele>
        <time>2022-04-14T09:21:17.000Z</time>
      </trkpt>
      <trkpt lat="39.52541710808873" lon="-4.319480275735259">
        <ele>1227.2</ele>
        <time>2022-04-14T09:21:20.000Z</time>
      </trkpt>
      <trkpt lat="39.525401098653674" lon="-4.319465858861804">
        <ele>1226.4</ele>
        <time>2022-04-14T09:21:23.000Z</time>
      </trkpt>
      <trkpt lat="39.525385927408934" lon="-4.319447837769985">
        <ele>1225.8</ele>
        <time>2022-04-14T09:21:27.000Z</time>
      </trkpt>
      <trkpt lat="39.52538198791444" lon="-4.319425877183676">
        <ele>1225.2</ele>
        <time>2022-04-14T09:21:29.000Z</time>
      </trkpt>
      <trkpt lat="39.52536832541227" lon="-4.31941095739603">
        <ele>1224.4</ele>
        <time>2022-04-14T09:21:33.000Z</time>
      </trkpt>
      <trkpt lat="39.52535592019558" lon="-4.319404419511557">
        <ele>1224.2</ele>
        <time>2022-04-14T09:21:35.000Z</time>
      </trkpt>
      <trkpt lat="39.525349298492074" lon="-4.3194047547876835">
        <ele>1224</ele>
        <time>2022-04-14T09:21:37.000Z</time>
      </trkpt>
      <trkpt lat="39.52535089105368" lon="-4.319397211074829">
        <ele>1223.4</ele>
        <time>2022-04-14T09:21:40.000Z</time>
      </trkpt>
      <trkpt lat="39.52535089105368" lon="-4.319396372884512">
        <ele>1223.4</ele>
        <time>2022-04-14T09:21:42.000Z</time>
      </trkpt>
      <trkpt lat="39.52534971758723" lon="-4.319393439218402">
        <ele>1223.2</ele>
        <time>2022-04-14T09:21:45.000Z</time>
      </trkpt>
      <trkpt lat="39.525327840819955" lon="-4.319375837221742">
        <ele>1222.4</ele>
        <time>2022-04-14T09:21:50.000Z</time>
      </trkpt>
      <trkpt lat="39.525320045650005" lon="-4.319373657926917">
        <ele>1222.2</ele>
        <time>2022-04-14T09:21:51.000Z</time>
      </trkpt>
      <trkpt lat="39.525292720645666" lon="-4.319368461146951">
        <ele>1221.2</ele>
        <time>2022-04-14T09:21:57.000Z</time>
      </trkpt>
      <trkpt lat="39.5252859313041" lon="-4.31936988607049">
        <ele>1221</ele>
        <time>2022-04-14T09:21:58.000Z</time>
      </trkpt>
      <trkpt lat="39.52526195906103" lon="-4.3193806149065495">
        <ele>1220.6</ele>
        <time>2022-04-14T09:22:04.000Z</time>
      </trkpt>
      <trkpt lat="39.52526103705168" lon="-4.319379944354296">
        <ele>1220.6</ele>
        <time>2022-04-14T09:22:05.000Z</time>
      </trkpt>
      <trkpt lat="39.525258438661695" lon="-4.319376507773995">
        <ele>1220.4</ele>
        <time>2022-04-14T09:22:07.000Z</time>
      </trkpt>
      <trkpt lat="39.52526120468974" lon="-4.319366533309221">
        <ele>1220</ele>
        <time>2022-04-14T09:22:09.000Z</time>
      </trkpt>
      <trkpt lat="39.52526229433715" lon="-4.319362593814731">
        <ele>1220</ele>
        <time>2022-04-14T09:22:10.000Z</time>
      </trkpt>
      <trkpt lat="39.5252669043839" lon="-4.319351278245449">
        <ele>1219.8</ele>
        <time>2022-04-14T09:22:12.000Z</time>
      </trkpt>
      <trkpt lat="39.525276543572545" lon="-4.31933568790555">
        <ele>1220</ele>
        <time>2022-04-14T09:22:20.000Z</time>
      </trkpt>
      <trkpt lat="39.5253115799278" lon="-4.3193211033940315">
        <ele>1220.2</ele>
        <time>2022-04-14T09:22:29.000Z</time>
      </trkpt>
      <trkpt lat="39.52531476505101" lon="-4.319314565509558">
        <ele>1220.2</ele>
        <time>2022-04-14T09:22:31.000Z</time>
      </trkpt>
      <trkpt lat="39.525320548564196" lon="-4.319278774783015">
        <ele>1220.8</ele>
        <time>2022-04-14T09:22:37.000Z</time>
      </trkpt>
      <trkpt lat="39.52531132847071" lon="-4.31924625299871">
        <ele>1220.2</ele>
        <time>2022-04-14T09:22:42.000Z</time>
      </trkpt>
      <trkpt lat="39.52531912364066" lon="-4.319237871095538">
        <ele>1219.8</ele>
        <time>2022-04-14T09:22:47.000Z</time>
      </trkpt>
      <trkpt lat="39.52531987801194" lon="-4.3192356918007135">
        <ele>1219.8</ele>
        <time>2022-04-14T09:22:49.000Z</time>
      </trkpt>
      <trkpt lat="39.525280985981226" lon="-4.319309368729591">
        <ele>1220.2</ele>
        <time>2022-04-14T09:22:55.000Z</time>
      </trkpt>
      <trkpt lat="39.5252547506243" lon="-4.319353038445115">
        <ele>1220.6</ele>
        <time>2022-04-14T09:22:59.000Z</time>
      </trkpt>
      <trkpt lat="39.525248212739825" lon="-4.319366030395031">
        <ele>1220.8</ele>
        <time>2022-04-14T09:23:02.000Z</time>
      </trkpt>
      <trkpt lat="39.525235472247005" lon="-4.319375669583678">
        <ele>1220.4</ele>
        <time>2022-04-14T09:23:08.000Z</time>
      </trkpt>
      <trkpt lat="39.52521820552647" lon="-4.319378938525915">
        <ele>1219.2</ele>
        <time>2022-04-14T09:23:14.000Z</time>
      </trkpt>
      <trkpt lat="39.52521636150777" lon="-4.319383464753628">
        <ele>1219</ele>
        <time>2022-04-14T09:23:15.000Z</time>
      </trkpt>
      <trkpt lat="39.52518870122731" lon="-4.319389332085848">
        <ele>1218</ele>
        <time>2022-04-14T09:23:21.000Z</time>
      </trkpt>
      <trkpt lat="39.52518534846604" lon="-4.319388661533594">
        <ele>1218</ele>
        <time>2022-04-14T09:23:22.000Z</time>
      </trkpt>
      <trkpt lat="39.52518434263766" lon="-4.319378938525915">
        <ele>1217.8</ele>
        <time>2022-04-14T09:23:23.000Z</time>
      </trkpt>
      <trkpt lat="39.5251855161041" lon="-4.319362509995699">
        <ele>1217.6</ele>
        <time>2022-04-14T09:23:31.000Z</time>
      </trkpt>
      <trkpt lat="39.52517805621028" lon="-4.319347338750958">
        <ele>1217.2</ele>
        <time>2022-04-14T09:23:35.000Z</time>
      </trkpt>
      <trkpt lat="39.52516581863165" lon="-4.319340046495199">
        <ele>1216.8</ele>
        <time>2022-04-14T09:23:37.000Z</time>
      </trkpt>
      <trkpt lat="39.5251633040607" lon="-4.319339292123914">
        <ele>1216.8</ele>
        <time>2022-04-14T09:23:38.000Z</time>
      </trkpt>
      <trkpt lat="39.525156766176224" lon="-4.319335855543613">
        <ele>1216.4</ele>
        <time>2022-04-14T09:23:40.000Z</time>
      </trkpt>
      <trkpt lat="39.52513346448541" lon="-4.319325964897871">
        <ele>1215.8</ele>
        <time>2022-04-14T09:23:44.000Z</time>
      </trkpt>
      <trkpt lat="39.525111922994256" lon="-4.319323534145951">
        <ele>1214.8</ele>
        <time>2022-04-14T09:23:48.000Z</time>
      </trkpt>
      <trkpt lat="39.525108486413956" lon="-4.319317834451795">
        <ele>1214.6</ele>
        <time>2022-04-14T09:23:49.000Z</time>
      </trkpt>
      <trkpt lat="39.525112425908446" lon="-4.319307943806052">
        <ele>1214</ele>
        <time>2022-04-14T09:23:53.000Z</time>
      </trkpt>
      <trkpt lat="39.52511946670711" lon="-4.319303669035435">
        <ele>1213.8</ele>
        <time>2022-04-14T09:23:55.000Z</time>
      </trkpt>
      <trkpt lat="39.52512139454484" lon="-4.319299561902881">
        <ele>1213.6</ele>
        <time>2022-04-14T09:23:56.000Z</time>
      </trkpt>
      <trkpt lat="39.525118712335825" lon="-4.319281037896872">
        <ele>1213.4</ele>
        <time>2022-04-14T09:24:04.000Z</time>
      </trkpt>
      <trkpt lat="39.525113767012954" lon="-4.319286989048123">
        <ele>1212.6</ele>
        <time>2022-04-14T09:24:08.000Z</time>
      </trkpt>
      <trkpt lat="39.52508803457022" lon="-4.319299478083849">
        <ele>1212.4</ele>
        <time>2022-04-14T09:24:10.000Z</time>
      </trkpt>
      <trkpt lat="39.525052243843675" lon="-4.319271650165319">
        <ele>1211.8</ele>
        <time>2022-04-14T09:24:17.000Z</time>
      </trkpt>
      <trkpt lat="39.52504947781563" lon="-4.319264106452465">
        <ele>1211.6</ele>
        <time>2022-04-14T09:24:18.000Z</time>
      </trkpt>
      <trkpt lat="39.52504721470177" lon="-4.3192580714821815">
        <ele>1211.6</ele>
        <time>2022-04-14T09:24:19.000Z</time>
      </trkpt>
      <trkpt lat="39.52503916807473" lon="-4.319221442565322">
        <ele>1210.6</ele>
        <time>2022-04-14T09:24:26.000Z</time>
      </trkpt>
      <trkpt lat="39.52503849752247" lon="-4.319223370403051">
        <ele>1210</ele>
        <time>2022-04-14T09:24:32.000Z</time>
      </trkpt>
      <trkpt lat="39.52503975480795" lon="-4.319219682365656">
        <ele>1209.8</ele>
        <time>2022-04-14T09:24:35.000Z</time>
      </trkpt>
      <trkpt lat="39.52503279782832" lon="-4.319212390109897">
        <ele>1209.6</ele>
        <time>2022-04-14T09:24:37.000Z</time>
      </trkpt>
      <trkpt lat="39.5250301156193" lon="-4.319211049005389">
        <ele>1209.4</ele>
        <time>2022-04-14T09:24:38.000Z</time>
      </trkpt>
      <trkpt lat="39.52501695603132" lon="-4.319218257442117">
        <ele>1208.6</ele>
        <time>2022-04-14T09:24:41.000Z</time>
      </trkpt>
      <trkpt lat="39.52501301653683" lon="-4.319218089804053">
        <ele>1208.4</ele>
        <time>2022-04-14T09:24:42.000Z</time>
      </trkpt>
      <trkpt lat="39.52501016668975" lon="-4.319228399544954">
        <ele>1207.4</ele>
        <time>2022-04-14T09:24:48.000Z</time>
      </trkpt>
      <trkpt lat="39.524999940767884" lon="-4.319231333211064">
        <ele>1207.4</ele>
        <time>2022-04-14T09:24:52.000Z</time>
      </trkpt>
      <trkpt lat="39.524987703189254" lon="-4.319224879145622">
        <ele>1207.4</ele>
        <time>2022-04-14T09:25:01.000Z</time>
      </trkpt>
      <trkpt lat="39.52498669736087" lon="-4.319222196936607">
        <ele>1207.4</ele>
        <time>2022-04-14T09:25:03.000Z</time>
      </trkpt>
      <trkpt lat="39.524967670440674" lon="-4.319225465878844">
        <ele>1207.8</ele>
        <time>2022-04-14T09:25:09.000Z</time>
      </trkpt>
      <trkpt lat="39.524961886927485" lon="-4.3192224483937025">
        <ele>1208</ele>
        <time>2022-04-14T09:25:10.000Z</time>
      </trkpt>
      <trkpt lat="39.52495568431914" lon="-4.3192183412611485">
        <ele>1208</ele>
        <time>2022-04-14T09:25:11.000Z</time>
      </trkpt>
      <trkpt lat="39.52492509037256" lon="-4.319174587726593">
        <ele>1208</ele>
        <time>2022-04-14T09:25:17.000Z</time>
      </trkpt>
      <trkpt lat="39.524928694590926" lon="-4.319171905517578">
        <ele>1208</ele>
        <time>2022-04-14T09:25:18.000Z</time>
      </trkpt>
      <trkpt lat="39.52494638040662" lon="-4.319176096469164">
        <ele>1207.2</ele>
        <time>2022-04-14T09:25:26.000Z</time>
      </trkpt>
      <trkpt lat="39.5249436981976" lon="-4.319176683202386">
        <ele>1207.2</ele>
        <time>2022-04-14T09:25:27.000Z</time>
      </trkpt>
      <trkpt lat="39.524952666834" lon="-4.31917299516499">
        <ele>1206.8</ele>
        <time>2022-04-14T09:25:35.000Z</time>
      </trkpt>
      <trkpt lat="39.52496549114585" lon="-4.3191444128751755">
        <ele>1207</ele>
        <time>2022-04-14T09:25:45.000Z</time>
      </trkpt>
      <trkpt lat="39.524914445355535" lon="-4.319144748151302">
        <ele>1206.6</ele>
        <time>2022-04-14T09:25:53.000Z</time>
      </trkpt>
      <trkpt lat="39.52488837763667" lon="-4.319118680432439">
        <ele>1206.6</ele>
        <time>2022-04-14T09:25:58.000Z</time>
      </trkpt>
      <trkpt lat="39.52488594688475" lon="-4.319118848070502">
        <ele>1206.2</ele>
        <time>2022-04-14T09:26:00.000Z</time>
      </trkpt>
      <trkpt lat="39.5248765591532" lon="-4.319109711796045">
        <ele>1205.2</ele>
        <time>2022-04-14T09:26:06.000Z</time>
      </trkpt>
      <trkpt lat="39.524875888600945" lon="-4.31910946033895">
        <ele>1205</ele>
        <time>2022-04-14T09:26:08.000Z</time>
      </trkpt>
      <trkpt lat="39.524888042360544" lon="-4.319098060950637">
        <ele>1205</ele>
        <time>2022-04-14T09:26:14.000Z</time>
      </trkpt>
      <trkpt lat="39.524858705699444" lon="-4.319081716239452">
        <ele>1204</ele>
        <time>2022-04-14T09:26:21.000Z</time>
      </trkpt>
      <trkpt lat="39.52484982088208" lon="-4.319075010716915">
        <ele>1203.8</ele>
        <time>2022-04-14T09:26:23.000Z</time>
      </trkpt>
      <trkpt lat="39.52484839595854" lon="-4.319067047908902">
        <ele>1203.4</ele>
        <time>2022-04-14T09:26:25.000Z</time>
      </trkpt>
      <trkpt lat="39.52484303154051" lon="-4.3190619349479675">
        <ele>1203.2</ele>
        <time>2022-04-14T09:26:26.000Z</time>
      </trkpt>
      <trkpt lat="39.5248369127512" lon="-4.31906302459538">
        <ele>1202.8</ele>
        <time>2022-04-14T09:26:27.000Z</time>
      </trkpt>
      <trkpt lat="39.524839175865054" lon="-4.31906302459538">
        <ele>1202.4</ele>
        <time>2022-04-14T09:26:30.000Z</time>
      </trkpt>
      <trkpt lat="39.52480824664235" lon="-4.31906939484179">
        <ele>1202</ele>
        <time>2022-04-14T09:26:37.000Z</time>
      </trkpt>
      <trkpt lat="39.52479902654886" lon="-4.3190693110227585">
        <ele>1202</ele>
        <time>2022-04-14T09:26:38.000Z</time>
      </trkpt>
      <trkpt lat="39.524788465350866" lon="-4.319067718461156">
        <ele>1201.6</ele>
        <time>2022-04-14T09:26:40.000Z</time>
      </trkpt>
      <trkpt lat="39.52477463521063" lon="-4.3190601747483015">
        <ele>1200.8</ele>
        <time>2022-04-14T09:26:43.000Z</time>
      </trkpt>
      <trkpt lat="39.524768348783255" lon="-4.3190560676157475">
        <ele>1200.6</ele>
        <time>2022-04-14T09:26:44.000Z</time>
      </trkpt>
      <trkpt lat="39.52474990859628" lon="-4.319050284102559">
        <ele>1200.4</ele>
        <time>2022-04-14T09:26:45.000Z</time>
      </trkpt>
      <trkpt lat="39.52474228106439" lon="-4.3190451711416245">
        <ele>1200.2</ele>
        <time>2022-04-14T09:26:46.000Z</time>
      </trkpt>
      <trkpt lat="39.52472945675254" lon="-4.319030921906233">
        <ele>1199.8</ele>
        <time>2022-04-14T09:26:48.000Z</time>
      </trkpt>
      <trkpt lat="39.52471235767007" lon="-4.3190263118594885">
        <ele>1199.4</ele>
        <time>2022-04-14T09:26:50.000Z</time>
      </trkpt>
      <trkpt lat="39.52468888834119" lon="-4.319012062624097">
        <ele>1199</ele>
        <time>2022-04-14T09:26:53.000Z</time>
      </trkpt>
      <trkpt lat="39.52465997077525" lon="-4.318989850580692">
        <ele>1198.4</ele>
        <time>2022-04-14T09:26:56.000Z</time>
      </trkpt>
      <trkpt lat="39.524647146463394" lon="-4.3189838994294405">
        <ele>1198</ele>
        <time>2022-04-14T09:26:58.000Z</time>
      </trkpt>
      <trkpt lat="39.52464513480663" lon="-4.318981133401394">
        <ele>1197.4</ele>
        <time>2022-04-14T09:27:00.000Z</time>
      </trkpt>
      <trkpt lat="39.52464362606406" lon="-4.318982809782028">
        <ele>1197.2</ele>
        <time>2022-04-14T09:27:01.000Z</time>
      </trkpt>
      <trkpt lat="39.52463909983635" lon="-4.318988593295217">
        <ele>1197</ele>
        <time>2022-04-14T09:27:02.000Z</time>
      </trkpt>
      <trkpt lat="39.52463482506573" lon="-4.319003680720925">
        <ele>1197</ele>
        <time>2022-04-14T09:27:08.000Z</time>
      </trkpt>
      <trkpt lat="39.52462594024837" lon="-4.319007955491543">
        <ele>1197</ele>
        <time>2022-04-14T09:27:10.000Z</time>
      </trkpt>
      <trkpt lat="39.524623174220324" lon="-4.319016672670841">
        <ele>1197.2</ele>
        <time>2022-04-14T09:27:12.000Z</time>
      </trkpt>
      <trkpt lat="39.524634992703795" lon="-4.319024719297886">
        <ele>1197.2</ele>
        <time>2022-04-14T09:27:14.000Z</time>
      </trkpt>
      <trkpt lat="39.52463373541832" lon="-4.319020276889205">
        <ele>1197.2</ele>
        <time>2022-04-14T09:27:16.000Z</time>
      </trkpt>
      <trkpt lat="39.52463868074119" lon="-4.319021534174681">
        <ele>1197.2</ele>
        <time>2022-04-14T09:27:17.000Z</time>
      </trkpt>
      <trkpt lat="39.524652007967234" lon="-4.319028407335281">
        <ele>1196.6</ele>
        <time>2022-04-14T09:27:23.000Z</time>
      </trkpt>
      <trkpt lat="39.52462158165872" lon="-4.319010386243463">
        <ele>1196.6</ele>
        <time>2022-04-14T09:27:32.000Z</time>
      </trkpt>
      <trkpt lat="39.524601213634014" lon="-4.319001249969006">
        <ele>1196.4</ele>
        <time>2022-04-14T09:27:40.000Z</time>
      </trkpt>
      <trkpt lat="39.5246104337275" lon="-4.318983647972345">
        <ele>1196.8</ele>
        <time>2022-04-14T09:27:45.000Z</time>
      </trkpt>
      <trkpt lat="39.52461437322199" lon="-4.318973757326603">
        <ele>1197</ele>
        <time>2022-04-14T09:27:48.000Z</time>
      </trkpt>
      <trkpt lat="39.52463809400797" lon="-4.318949617445469">
        <ele>1197</ele>
        <time>2022-04-14T09:27:56.000Z</time>
      </trkpt>
      <trkpt lat="39.52461219392717" lon="-4.31895456276834">
        <ele>1196.8</ele>
        <time>2022-04-14T09:28:04.000Z</time>
      </trkpt>
      <trkpt lat="39.52462920919061" lon="-4.318980798125267">
        <ele>1196.6</ele>
        <time>2022-04-14T09:28:11.000Z</time>
      </trkpt>
      <trkpt lat="39.52462535351515" lon="-4.318984234705567">
        <ele>1196.6</ele>
        <time>2022-04-14T09:28:18.000Z</time>
      </trkpt>
      <trkpt lat="39.524618815630674" lon="-4.318969398736954">
        <ele>1196.4</ele>
        <time>2022-04-14T09:28:23.000Z</time>
      </trkpt>
      <trkpt lat="39.524613451212645" lon="-4.318971410393715">
        <ele>1196.2</ele>
        <time>2022-04-14T09:28:24.000Z</time>
      </trkpt>
      <trkpt lat="39.524581264704466" lon="-4.318962944671512">
        <ele>1196.2</ele>
        <time>2022-04-14T09:28:28.000Z</time>
      </trkpt>
      <trkpt lat="39.5245551969856" lon="-4.318989180028439">
        <ele>1196.2</ele>
        <time>2022-04-14T09:28:34.000Z</time>
      </trkpt>
      <trkpt lat="39.52455595135689" lon="-4.319001249969006">
        <ele>1196</ele>
        <time>2022-04-14T09:28:36.000Z</time>
      </trkpt>
      <trkpt lat="39.5245570410043" lon="-4.319003513082862">
        <ele>1196.2</ele>
        <time>2022-04-14T09:28:38.000Z</time>
      </trkpt>
      <trkpt lat="39.52455913648009" lon="-4.319003513082862">
        <ele>1196.2</ele>
        <time>2022-04-14T09:28:40.000Z</time>
      </trkpt>
      <trkpt lat="39.52459811232984" lon="-4.318999405950308">
        <ele>1196</ele>
        <time>2022-04-14T09:28:46.000Z</time>
      </trkpt>
      <trkpt lat="39.524617390707135" lon="-4.318996304646134">
        <ele>1196</ele>
        <time>2022-04-14T09:28:48.000Z</time>
      </trkpt>
      <trkpt lat="39.524629041552544" lon="-4.31899756193161">
        <ele>1195.8</ele>
        <time>2022-04-14T09:28:54.000Z</time>
      </trkpt>
      <trkpt lat="39.52462753280997" lon="-4.3190039321780205">
        <ele>1196</ele>
        <time>2022-04-14T09:28:58.000Z</time>
      </trkpt>
      <trkpt lat="39.524626694619656" lon="-4.3190062791109085">
        <ele>1197.2</ele>
        <time>2022-04-14T09:29:00.000Z</time>
      </trkpt>
      <trkpt lat="39.52462191693485" lon="-4.319010386243463">
        <ele>1197</ele>
        <time>2022-04-14T09:29:02.000Z</time>
      </trkpt>
      <trkpt lat="39.52462652698159" lon="-4.319014996290207">
        <ele>1196.6</ele>
        <time>2022-04-14T09:29:11.000Z</time>
      </trkpt>
      <trkpt lat="39.52462778426707" lon="-4.318981636315584">
        <ele>1196.6</ele>
        <time>2022-04-14T09:29:19.000Z</time>
      </trkpt>
      <trkpt lat="39.52463574707508" lon="-4.318987000733614">
        <ele>1196.4</ele>
        <time>2022-04-14T09:29:21.000Z</time>
      </trkpt>
      <trkpt lat="39.524643709883094" lon="-4.318986497819424">
        <ele>1196.6</ele>
        <time>2022-04-14T09:29:24.000Z</time>
      </trkpt>
      <trkpt lat="39.52464706264436" lon="-4.318977696821094">
        <ele>1196.4</ele>
        <time>2022-04-14T09:29:26.000Z</time>
      </trkpt>
      <trkpt lat="39.52464857138693" lon="-4.3189712427556515">
        <ele>1196.4</ele>
        <time>2022-04-14T09:29:27.000Z</time>
      </trkpt>
      <trkpt lat="39.524645218625665" lon="-4.318970404565334">
        <ele>1196.2</ele>
        <time>2022-04-14T09:29:29.000Z</time>
      </trkpt>
      <trkpt lat="39.524634992703795" lon="-4.318968141451478">
        <ele>1195.8</ele>
        <time>2022-04-14T09:29:32.000Z</time>
      </trkpt>
      <trkpt lat="39.52463457360864" lon="-4.318971745669842">
        <ele>1195.8</ele>
        <time>2022-04-14T09:29:33.000Z</time>
      </trkpt>
      <trkpt lat="39.52463700436056" lon="-4.318974427878857">
        <ele>1195.8</ele>
        <time>2022-04-14T09:29:35.000Z</time>
      </trkpt>
      <trkpt lat="39.52463968656957" lon="-4.31897509843111">
        <ele>1195.8</ele>
        <time>2022-04-14T09:29:38.000Z</time>
      </trkpt>
      <trkpt lat="39.52464069239795" lon="-4.318975768983364">
        <ele>1195.8</ele>
        <time>2022-04-14T09:29:39.000Z</time>
      </trkpt>
      <trkpt lat="39.52463666908443" lon="-4.318971494212747">
        <ele>1195.8</ele>
        <time>2022-04-14T09:29:41.000Z</time>
      </trkpt>
      <trkpt lat="39.52463272958994" lon="-4.318990604951978">
        <ele>1195.8</ele>
        <time>2022-04-14T09:29:44.000Z</time>
      </trkpt>
      <trkpt lat="39.52463801018894" lon="-4.318993873894215">
        <ele>1195.8</ele>
        <time>2022-04-14T09:29:49.000Z</time>
      </trkpt>
      <trkpt lat="39.52462845481932" lon="-4.319007620215416">
        <ele>1195.8</ele>
        <time>2022-04-14T09:29:57.000Z</time>
      </trkpt>
      <trkpt lat="39.52462141402066" lon="-4.3189912755042315">
        <ele>1195.8</ele>
        <time>2022-04-14T09:30:00.000Z</time>
      </trkpt>
      <trkpt lat="39.524613032117486" lon="-4.31898239068687">
        <ele>1195.8</ele>
        <time>2022-04-14T09:30:02.000Z</time>
      </trkpt>
      <trkpt lat="39.524609008803964" lon="-4.3189827259629965">
        <ele>1195.8</ele>
        <time>2022-04-14T09:30:05.000Z</time>
      </trkpt>
      <trkpt lat="39.524603644385934" lon="-4.3190142419189215">
        <ele>1195.8</ele>
        <time>2022-04-14T09:30:13.000Z</time>
      </trkpt>
      <trkpt lat="39.52461034990847" lon="-4.319004686549306">
        <ele>1195.8</ele>
        <time>2022-04-14T09:30:21.000Z</time>
      </trkpt>
      <trkpt lat="39.52462292276323" lon="-4.318995214998722">
        <ele>1195.8</ele>
        <time>2022-04-14T09:30:24.000Z</time>
      </trkpt>
      <trkpt lat="39.52462987974286" lon="-4.318983145058155">
        <ele>1195.8</ele>
        <time>2022-04-14T09:30:25.000Z</time>
      </trkpt>
      <trkpt lat="39.52459752559662" lon="-4.318969901651144">
        <ele>1195.8</ele>
        <time>2022-04-14T09:30:29.000Z</time>
      </trkpt>
      <trkpt lat="39.524621246382594" lon="-4.318971494212747">
        <ele>1195.8</ele>
        <time>2022-04-14T09:30:37.000Z</time>
      </trkpt>
      <trkpt lat="39.52463340014219" lon="-4.318963028490543">
        <ele>1195.8</ele>
        <time>2022-04-14T09:30:44.000Z</time>
      </trkpt>
      <trkpt lat="39.52464580535889" lon="-4.3189936224371195">
        <ele>1195.8</ele>
        <time>2022-04-14T09:30:51.000Z</time>
      </trkpt>
      <trkpt lat="39.524644799530506" lon="-4.319000747054815">
        <ele>1195.8</ele>
        <time>2022-04-14T09:30:59.000Z</time>
      </trkpt>
      <trkpt lat="39.524644212797284" lon="-4.318998567759991">
        <ele>1195.8</ele>
        <time>2022-04-14T09:31:01.000Z</time>
      </trkpt>
      <trkpt lat="39.52464412897825" lon="-4.318998400121927">
        <ele>1195.8</ele>
        <time>2022-04-14T09:31:02.000Z</time>
      </trkpt>
      <trkpt lat="39.52465418726206" lon="-4.3189946282655">
        <ele>1195.8</ele>
        <time>2022-04-14T09:31:07.000Z</time>
      </trkpt>
      <trkpt lat="39.52466634102166" lon="-4.318992532789707">
        <ele>1195.8</ele>
        <time>2022-04-14T09:31:10.000Z</time>
      </trkpt>
      <trkpt lat="39.52466893941164" lon="-4.318991778418422">
        <ele>1195.8</ele>
        <time>2022-04-14T09:31:12.000Z</time>
      </trkpt>
      <trkpt lat="39.52467028051615" lon="-4.318991778418422">
        <ele>1195.8</ele>
        <time>2022-04-14T09:31:14.000Z</time>
      </trkpt>
      <trkpt lat="39.52466290444136" lon="-4.318985240533948">
        <ele>1195.8</ele>
        <time>2022-04-14T09:31:17.000Z</time>
      </trkpt>
      <trkpt lat="39.52465829439461" lon="-4.318965375423431">
        <ele>1195.8</ele>
        <time>2022-04-14T09:31:24.000Z</time>
      </trkpt>
      <trkpt lat="39.52465921640396" lon="-4.3189615197479725">
        <ele>1195.8</ele>
        <time>2022-04-14T09:31:27.000Z</time>
      </trkpt>
      <trkpt lat="39.5246590487659" lon="-4.318958837538958">
        <ele>1195.8</ele>
        <time>2022-04-14T09:31:29.000Z</time>
      </trkpt>
      <trkpt lat="39.524661814793944" lon="-4.318955987691879">
        <ele>1195.8</ele>
        <time>2022-04-14T09:31:30.000Z</time>
      </trkpt>
      <trkpt lat="39.524654522538185" lon="-4.3189500365406275">
        <ele>1195.8</ele>
        <time>2022-04-14T09:31:32.000Z</time>
      </trkpt>
      <trkpt lat="39.52467145398259" lon="-4.3189553171396255">
        <ele>1195.8</ele>
        <time>2022-04-14T09:31:41.000Z</time>
      </trkpt>
      <trkpt lat="39.52466449700296" lon="-4.318955820053816">
        <ele>1195.8</ele>
        <time>2022-04-14T09:31:43.000Z</time>
      </trkpt>
      <trkpt lat="39.52466634102166" lon="-4.31895456276834">
        <ele>1195.8</ele>
        <time>2022-04-14T09:31:48.000Z</time>
      </trkpt>
      <trkpt lat="39.524682853370905" lon="-4.31891106069088">
        <ele>1195.8</ele>
        <time>2022-04-14T09:31:53.000Z</time>
      </trkpt>
      <trkpt lat="39.52468855306506" lon="-4.318901589140296">
        <ele>1195.8</ele>
        <time>2022-04-14T09:31:54.000Z</time>
      </trkpt>
      <trkpt lat="39.52472065575421" lon="-4.318854147568345">
        <ele>1195.8</ele>
        <time>2022-04-14T09:32:00.000Z</time>
      </trkpt>
      <trkpt lat="39.52472258359194" lon="-4.318840317428112">
        <ele>1195.8</ele>
        <time>2022-04-14T09:32:02.000Z</time>
      </trkpt>
      <trkpt lat="39.52472593635321" lon="-4.318837467581034">
        <ele>1195.8</ele>
        <time>2022-04-14T09:32:04.000Z</time>
      </trkpt>
      <trkpt lat="39.52471395023167" lon="-4.318837719038129">
        <ele>1196.2</ele>
        <time>2022-04-14T09:32:08.000Z</time>
      </trkpt>
      <trkpt lat="39.52471629716456" lon="-4.318805197253823">
        <ele>1196.2</ele>
        <time>2022-04-14T09:32:14.000Z</time>
      </trkpt>
      <trkpt lat="39.5247002877295" lon="-4.318773848935962">
        <ele>1195</ele>
        <time>2022-04-14T09:32:20.000Z</time>
      </trkpt>
      <trkpt lat="39.52470003627241" lon="-4.318768568336964">
        <ele>1194.8</ele>
        <time>2022-04-14T09:32:21.000Z</time>
      </trkpt>
      <trkpt lat="39.52470255084336" lon="-4.31876303628087">
        <ele>1194.6</ele>
        <time>2022-04-14T09:32:22.000Z</time>
      </trkpt>
      <trkpt lat="39.52471713535488" lon="-4.318750966340303">
        <ele>1194</ele>
        <time>2022-04-14T09:32:25.000Z</time>
      </trkpt>
      <trkpt lat="39.524717973545194" lon="-4.318748032674193">
        <ele>1193.4</ele>
        <time>2022-04-14T09:32:27.000Z</time>
      </trkpt>
      <trkpt lat="39.52471353113651" lon="-4.318746943026781">
        <ele>1193</ele>
        <time>2022-04-14T09:32:29.000Z</time>
      </trkpt>
      <trkpt lat="39.52471487224102" lon="-4.318738225847483">
        <ele>1193</ele>
        <time>2022-04-14T09:32:33.000Z</time>
      </trkpt>
      <trkpt lat="39.52471713535488" lon="-4.318728838115931">
        <ele>1193</ele>
        <time>2022-04-14T09:32:34.000Z</time>
      </trkpt>
      <trkpt lat="39.52472258359194" lon="-4.31872196495533">
        <ele>1193</ele>
        <time>2022-04-14T09:32:35.000Z</time>
      </trkpt>
      <trkpt lat="39.524776730686426" lon="-4.318668656051159">
        <ele>1192.2</ele>
        <time>2022-04-14T09:32:42.000Z</time>
      </trkpt>
      <trkpt lat="39.524791315197945" lon="-4.318652646616101">
        <ele>1192.2</ele>
        <time>2022-04-14T09:32:44.000Z</time>
      </trkpt>
      <trkpt lat="39.52478955499828" lon="-4.31864133104682">
        <ele>1192</ele>
        <time>2022-04-14T09:32:46.000Z</time>
      </trkpt>
      <trkpt lat="39.524796763435006" lon="-4.318623058497906">
        <ele>1191.6</ele>
        <time>2022-04-14T09:32:48.000Z</time>
      </trkpt>
      <trkpt lat="39.524800116196275" lon="-4.318616520613432">
        <ele>1191.4</ele>
        <time>2022-04-14T09:32:49.000Z</time>
      </trkpt>
      <trkpt lat="39.52479349449277" lon="-4.318613838404417">
        <ele>1191.4</ele>
        <time>2022-04-14T09:32:52.000Z</time>
      </trkpt>
      <trkpt lat="39.524792823940516" lon="-4.318613670766354">
        <ele>1191.4</ele>
        <time>2022-04-14T09:32:53.000Z</time>
      </trkpt>
      <trkpt lat="39.52480623498559" lon="-4.3186042830348015">
        <ele>1191.2</ele>
        <time>2022-04-14T09:32:56.000Z</time>
      </trkpt>
      <trkpt lat="39.524835823103786" lon="-4.318583328276873">
        <ele>1191.2</ele>
        <time>2022-04-14T09:33:00.000Z</time>
      </trkpt>
      <trkpt lat="39.52484085224569" lon="-4.3185801431536674">
        <ele>1191</ele>
        <time>2022-04-14T09:33:01.000Z</time>
      </trkpt>
      <trkpt lat="39.52485702931881" lon="-4.318571425974369">
        <ele>1191.2</ele>
        <time>2022-04-14T09:33:03.000Z</time>
      </trkpt>
      <trkpt lat="39.52486130408943" lon="-4.318569162860513">
        <ele>1191.2</ele>
        <time>2022-04-14T09:33:05.000Z</time>
      </trkpt>
      <trkpt lat="39.524875385686755" lon="-4.3185550812631845">
        <ele>1191.2</ele>
        <time>2022-04-14T09:33:09.000Z</time>
      </trkpt>
      <trkpt lat="39.52487806789577" lon="-4.318552566692233">
        <ele>1191</ele>
        <time>2022-04-14T09:33:11.000Z</time>
      </trkpt>
      <trkpt lat="39.524878319352865" lon="-4.318550555035472">
        <ele>1191</ele>
        <time>2022-04-14T09:33:12.000Z</time>
      </trkpt>
      <trkpt lat="39.52487915754318" lon="-4.31854410097003">
        <ele>1191</ele>
        <time>2022-04-14T09:33:13.000Z</time>
      </trkpt>
      <trkpt lat="39.524885695427656" lon="-4.31852214038372">
        <ele>1190.8</ele>
        <time>2022-04-14T09:33:15.000Z</time>
      </trkpt>
      <trkpt lat="39.52490204013884" lon="-4.318498922511935">
        <ele>1190.6</ele>
        <time>2022-04-14T09:33:18.000Z</time>
      </trkpt>
      <trkpt lat="39.52492106705904" lon="-4.31848106905818">
        <ele>1190.6</ele>
        <time>2022-04-14T09:33:22.000Z</time>
      </trkpt>
      <trkpt lat="39.5249299518764" lon="-4.3184614554047585">
        <ele>1190.6</ele>
        <time>2022-04-14T09:33:25.000Z</time>
      </trkpt>
      <trkpt lat="39.52493757940829" lon="-4.318435974419117">
        <ele>1190.6</ele>
        <time>2022-04-14T09:33:28.000Z</time>
      </trkpt>
      <trkpt lat="39.52494537457824" lon="-4.318424742668867">
        <ele>1190.4</ele>
        <time>2022-04-14T09:33:29.000Z</time>
      </trkpt>
      <trkpt lat="39.524952583014965" lon="-4.318415271118283">
        <ele>1190.4</ele>
        <time>2022-04-14T09:33:30.000Z</time>
      </trkpt>
      <trkpt lat="39.52495333738625" lon="-4.318410158157349">
        <ele>1190.2</ele>
        <time>2022-04-14T09:33:31.000Z</time>
      </trkpt>
      <trkpt lat="39.52495149336755" lon="-4.318392891436815">
        <ele>1190</ele>
        <time>2022-04-14T09:33:33.000Z</time>
      </trkpt>
      <trkpt lat="39.52494730241597" lon="-4.318381156772375">
        <ele>1189.8</ele>
        <time>2022-04-14T09:33:35.000Z</time>
      </trkpt>
      <trkpt lat="39.52495526522398" lon="-4.318365566432476">
        <ele>1189.6</ele>
        <time>2022-04-14T09:33:37.000Z</time>
      </trkpt>
      <trkpt lat="39.5249695982784" lon="-4.318307228386402">
        <ele>1188.6</ele>
        <time>2022-04-14T09:33:43.000Z</time>
      </trkpt>
      <trkpt lat="39.52496943064034" lon="-4.318304127082229">
        <ele>1188.4</ele>
        <time>2022-04-14T09:33:44.000Z</time>
      </trkpt>
      <trkpt lat="39.524968676269054" lon="-4.31830613873899">
        <ele>1188</ele>
        <time>2022-04-14T09:33:45.000Z</time>
      </trkpt>
      <trkpt lat="39.52495384030044" lon="-4.318309240043163">
        <ele>1187.4</ele>
        <time>2022-04-14T09:33:48.000Z</time>
      </trkpt>
      <trkpt lat="39.52495099045336" lon="-4.318309240043163">
        <ele>1187.2</ele>
        <time>2022-04-14T09:33:51.000Z</time>
      </trkpt>
      <trkpt lat="39.52495090663433" lon="-4.318309323862195">
        <ele>1187.2</ele>
        <time>2022-04-14T09:33:54.000Z</time>
      </trkpt>
      <trkpt lat="39.52495367266238" lon="-4.318313850089908">
        <ele>1187.2</ele>
        <time>2022-04-14T09:33:57.000Z</time>
      </trkpt>
      <trkpt lat="39.52495275065303" lon="-4.318316699936986">
        <ele>1187.2</ele>
        <time>2022-04-14T09:33:58.000Z</time>
      </trkpt>
      <trkpt lat="39.524951074272394" lon="-4.318316783756018">
        <ele>1187.4</ele>
        <time>2022-04-14T09:34:04.000Z</time>
      </trkpt>
      <trkpt lat="39.524950655177236" lon="-4.318316867575049">
        <ele>1187.8</ele>
        <time>2022-04-14T09:34:10.000Z</time>
      </trkpt>
      <trkpt lat="39.52495124191046" lon="-4.3183135986328125">
        <ele>1187.8</ele>
        <time>2022-04-14T09:34:12.000Z</time>
      </trkpt>
      <trkpt lat="39.52494646422565" lon="-4.318302366882563">
        <ele>1187.6</ele>
        <time>2022-04-14T09:34:15.000Z</time>
      </trkpt>
      <trkpt lat="39.5249317958951" lon="-4.318277556449175">
        <ele>1187.8</ele>
        <time>2022-04-14T09:34:21.000Z</time>
      </trkpt>
      <trkpt lat="39.524934478104115" lon="-4.318273616954684">
        <ele>1187.8</ele>
        <time>2022-04-14T09:34:23.000Z</time>
      </trkpt>
      <trkpt lat="39.52491612173617" lon="-4.3182458728551865">
        <ele>1187</ele>
        <time>2022-04-14T09:34:30.000Z</time>
      </trkpt>
      <trkpt lat="39.52491176314652" lon="-4.3182384967803955">
        <ele>1187</ele>
        <time>2022-04-14T09:34:31.000Z</time>
      </trkpt>
      <trkpt lat="39.52490849420428" lon="-4.3182246666401625">
        <ele>1186.8</ele>
        <time>2022-04-14T09:34:33.000Z</time>
      </trkpt>
      <trkpt lat="39.52490304596722" lon="-4.318207399919629">
        <ele>1186.4</ele>
        <time>2022-04-14T09:34:35.000Z</time>
      </trkpt>
      <trkpt lat="39.52490656636655" lon="-4.318190300837159">
        <ele>1185.8</ele>
        <time>2022-04-14T09:34:38.000Z</time>
      </trkpt>
      <trkpt lat="39.52491704374552" lon="-4.318166747689247">
        <ele>1185.2</ele>
        <time>2022-04-14T09:34:43.000Z</time>
      </trkpt>
      <trkpt lat="39.52492433600128" lon="-4.318164233118296">
        <ele>1185</ele>
        <time>2022-04-14T09:34:45.000Z</time>
      </trkpt>
      <trkpt lat="39.5249302033335" lon="-4.318141853436828">
        <ele>1184.2</ele>
        <time>2022-04-14T09:34:50.000Z</time>
      </trkpt>
      <trkpt lat="39.52493146061897" lon="-4.318128442391753">
        <ele>1183.8</ele>
        <time>2022-04-14T09:34:52.000Z</time>
      </trkpt>
      <trkpt lat="39.52493313699961" lon="-4.318127604201436">
        <ele>1183.4</ele>
        <time>2022-04-14T09:34:53.000Z</time>
      </trkpt>
      <trkpt lat="39.5249439496547" lon="-4.318116707727313">
        <ele>1183</ele>
        <time>2022-04-14T09:34:56.000Z</time>
      </trkpt>
      <trkpt lat="39.524956941604614" lon="-4.318120647221804">
        <ele>1182.4</ele>
        <time>2022-04-14T09:35:00.000Z</time>
      </trkpt>
      <trkpt lat="39.52499675564468" lon="-4.3180944956839085">
        <ele>1182</ele>
        <time>2022-04-14T09:35:08.000Z</time>
      </trkpt>
      <trkpt lat="39.52499633654952" lon="-4.318089801818132">
        <ele>1181.8</ele>
        <time>2022-04-14T09:35:09.000Z</time>
      </trkpt>
      <trkpt lat="39.52499977312982" lon="-4.318063063547015">
        <ele>1180.6</ele>
        <time>2022-04-14T09:35:15.000Z</time>
      </trkpt>
      <trkpt lat="39.52503045089543" lon="-4.318008748814464">
        <ele>1179.4</ele>
        <time>2022-04-14T09:35:22.000Z</time>
      </trkpt>
      <trkpt lat="39.5250147767365" lon="-4.317998103797436">
        <ele>1179.2</ele>
        <time>2022-04-14T09:35:23.000Z</time>
      </trkpt>
      <trkpt lat="39.52500916086137" lon="-4.317982932552695">
        <ele>1178.8</ele>
        <time>2022-04-14T09:35:25.000Z</time>
      </trkpt>
      <trkpt lat="39.52500128187239" lon="-4.3179684318602085">
        <ele>1178.6</ele>
        <time>2022-04-14T09:35:27.000Z</time>
      </trkpt>
      <trkpt lat="39.52500178478658" lon="-4.317962983623147">
        <ele>1178.4</ele>
        <time>2022-04-14T09:35:28.000Z</time>
      </trkpt>
      <trkpt lat="39.52500513754785" lon="-4.317953679710627">
        <ele>1178.4</ele>
        <time>2022-04-14T09:35:29.000Z</time>
      </trkpt>
      <trkpt lat="39.52501377090812" lon="-4.3179466389119625">
        <ele>1178.2</ele>
        <time>2022-04-14T09:35:30.000Z</time>
      </trkpt>
      <trkpt lat="39.52501519583166" lon="-4.3179380893707275">
        <ele>1178</ele>
        <time>2022-04-14T09:35:31.000Z</time>
      </trkpt>
      <trkpt lat="39.525009328499436" lon="-4.317933060228825">
        <ele>1177.8</ele>
        <time>2022-04-14T09:35:33.000Z</time>
      </trkpt>
      <trkpt lat="39.52500890940428" lon="-4.317946722730994">
        <ele>1177.8</ele>
        <time>2022-04-14T09:35:37.000Z</time>
      </trkpt>
      <trkpt lat="39.525012178346515" lon="-4.3179431185126305">
        <ele>1177.4</ele>
        <time>2022-04-14T09:35:41.000Z</time>
      </trkpt>
      <trkpt lat="39.52501486055553" lon="-4.317936161532998">
        <ele>1177.4</ele>
        <time>2022-04-14T09:35:42.000Z</time>
      </trkpt>
      <trkpt lat="39.52501972205937" lon="-4.317910261452198">
        <ele>1177.2</ele>
        <time>2022-04-14T09:35:44.000Z</time>
      </trkpt>
      <trkpt lat="39.52503103762865" lon="-4.317862652242184">
        <ele>1176.8</ele>
        <time>2022-04-14T09:35:49.000Z</time>
      </trkpt>
      <trkpt lat="39.525048807263374" lon="-4.31784538552165">
        <ele>1176.4</ele>
        <time>2022-04-14T09:35:51.000Z</time>
      </trkpt>
      <trkpt lat="39.525053668767214" lon="-4.317836919799447">
        <ele>1176.2</ele>
        <time>2022-04-14T09:35:52.000Z</time>
      </trkpt>
      <trkpt lat="39.52506146393716" lon="-4.317812696099281">
        <ele>1175.2</ele>
        <time>2022-04-14T09:35:55.000Z</time>
      </trkpt>
      <trkpt lat="39.52507110312581" lon="-4.317791238427162">
        <ele>1174.6</ele>
        <time>2022-04-14T09:35:57.000Z</time>
      </trkpt>
      <trkpt lat="39.5250924769789" lon="-4.317765757441521">
        <ele>1174.2</ele>
        <time>2022-04-14T09:36:00.000Z</time>
      </trkpt>
      <trkpt lat="39.52510337345302" lon="-4.31776424869895">
        <ele>1174.2</ele>
        <time>2022-04-14T09:36:01.000Z</time>
      </trkpt>
      <trkpt lat="39.52511611394584" lon="-4.317749831825495">
        <ele>1174.2</ele>
        <time>2022-04-14T09:36:04.000Z</time>
      </trkpt>
      <trkpt lat="39.52512139454484" lon="-4.317742120474577">
        <ele>1174</ele>
        <time>2022-04-14T09:36:05.000Z</time>
      </trkpt>
      <trkpt lat="39.52513840980828" lon="-4.317724099382758">
        <ele>1173.6</ele>
        <time>2022-04-14T09:36:07.000Z</time>
      </trkpt>
      <trkpt lat="39.5251598674804" lon="-4.317692583426833">
        <ele>1173.2</ele>
        <time>2022-04-14T09:36:12.000Z</time>
      </trkpt>
      <trkpt lat="39.52516187913716" lon="-4.317689733579755">
        <ele>1173.2</ele>
        <time>2022-04-14T09:36:13.000Z</time>
      </trkpt>
      <trkpt lat="39.525162633508444" lon="-4.317688141018152">
        <ele>1173</ele>
        <time>2022-04-14T09:36:14.000Z</time>
      </trkpt>
      <trkpt lat="39.525170512497425" lon="-4.317684033885598">
        <ele>1172.8</ele>
        <time>2022-04-14T09:36:16.000Z</time>
      </trkpt>
      <trkpt lat="39.52518258243799" lon="-4.317644974216819">
        <ele>1172.2</ele>
        <time>2022-04-14T09:36:20.000Z</time>
      </trkpt>
      <trkpt lat="39.52520102262497" lon="-4.317620247602463">
        <ele>1172.2</ele>
        <time>2022-04-14T09:36:23.000Z</time>
      </trkpt>
      <trkpt lat="39.52523270621896" lon="-4.317581774666905">
        <ele>1171.4</ele>
        <time>2022-04-14T09:36:28.000Z</time>
      </trkpt>
      <trkpt lat="39.52524779364467" lon="-4.317561574280262">
        <ele>1171</ele>
        <time>2022-04-14T09:36:30.000Z</time>
      </trkpt>
      <trkpt lat="39.52527335844934" lon="-4.317542212083936">
        <ele>1169.8</ele>
        <time>2022-04-14T09:36:33.000Z</time>
      </trkpt>
      <trkpt lat="39.52528509311378" lon="-4.317526621744037">
        <ele>1169.4</ele>
        <time>2022-04-14T09:36:35.000Z</time>
      </trkpt>
      <trkpt lat="39.52529205009341" lon="-4.317481694743037">
        <ele>1169.6</ele>
        <time>2022-04-14T09:36:39.000Z</time>
      </trkpt>
      <trkpt lat="39.52530722133815" lon="-4.317453447729349">
        <ele>1169.2</ele>
        <time>2022-04-14T09:36:42.000Z</time>
      </trkpt>
      <trkpt lat="39.52533412724733" lon="-4.3174253683537245">
        <ele>1168.8</ele>
        <time>2022-04-14T09:36:45.000Z</time>
      </trkpt>
      <trkpt lat="39.525345945730805" lon="-4.317420423030853">
        <ele>1168.6</ele>
        <time>2022-04-14T09:36:46.000Z</time>
      </trkpt>
      <trkpt lat="39.52536472119391" lon="-4.317394271492958">
        <ele>1167.8</ele>
        <time>2022-04-14T09:36:49.000Z</time>
      </trkpt>
      <trkpt lat="39.52535793185234" lon="-4.317375998944044">
        <ele>1167.6</ele>
        <time>2022-04-14T09:36:51.000Z</time>
      </trkpt>
      <trkpt lat="39.525349298492074" lon="-4.317360911518335">
        <ele>1167.4</ele>
        <time>2022-04-14T09:36:53.000Z</time>
      </trkpt>
      <trkpt lat="39.52534770593047" lon="-4.317356050014496">
        <ele>1167</ele>
        <time>2022-04-14T09:36:56.000Z</time>
      </trkpt>
      <trkpt lat="39.52534670010209" lon="-4.317353367805481">
        <ele>1166.8</ele>
        <time>2022-04-14T09:36:57.000Z</time>
      </trkpt>
      <trkpt lat="39.52534611336887" lon="-4.3173523619771">
        <ele>1166.6</ele>
        <time>2022-04-14T09:36:58.000Z</time>
      </trkpt>
      <trkpt lat="39.52534167096019" lon="-4.317352445796132">
        <ele>1166.6</ele>
        <time>2022-04-14T09:36:59.000Z</time>
      </trkpt>
      <trkpt lat="39.525327421724796" lon="-4.317337945103645">
        <ele>1166.4</ele>
        <time>2022-04-14T09:37:04.000Z</time>
      </trkpt>
      <trkpt lat="39.52532909810543" lon="-4.317335430532694">
        <ele>1166.4</ele>
        <time>2022-04-14T09:37:05.000Z</time>
      </trkpt>
      <trkpt lat="39.525337563827634" lon="-4.317338615655899">
        <ele>1166.4</ele>
        <time>2022-04-14T09:37:13.000Z</time>
      </trkpt>
      <trkpt lat="39.52533940784633" lon="-4.317338950932026">
        <ele>1166.4</ele>
        <time>2022-04-14T09:37:14.000Z</time>
      </trkpt>
      <trkpt lat="39.52533354051411" lon="-4.3173454888165">
        <ele>1166.2</ele>
        <time>2022-04-14T09:37:19.000Z</time>
      </trkpt>
      <trkpt lat="39.52532943338156" lon="-4.317350685596466">
        <ele>1166.2</ele>
        <time>2022-04-14T09:37:21.000Z</time>
      </trkpt>
      <trkpt lat="39.52531409449875" lon="-4.317381531000137">
        <ele>1166.2</ele>
        <time>2022-04-14T09:37:29.000Z</time>
      </trkpt>
      <trkpt lat="39.52531887218356" lon="-4.317374574020505">
        <ele>1166.4</ele>
        <time>2022-04-14T09:37:34.000Z</time>
      </trkpt>
      <trkpt lat="39.52533530071378" lon="-4.317347751930356">
        <ele>1166.6</ele>
        <time>2022-04-14T09:37:39.000Z</time>
      </trkpt>
      <trkpt lat="39.52533555217087" lon="-4.3173264618963">
        <ele>1166.2</ele>
        <time>2022-04-14T09:37:44.000Z</time>
      </trkpt>
      <trkpt lat="39.525334630161524" lon="-4.31731179356575">
        <ele>1166.2</ele>
        <time>2022-04-14T09:37:46.000Z</time>
      </trkpt>
      <trkpt lat="39.52535885386169" lon="-4.317255467176437">
        <ele>1165.8</ele>
        <time>2022-04-14T09:37:53.000Z</time>
      </trkpt>
      <trkpt lat="39.52536136843264" lon="-4.317240966483951">
        <ele>1165.4</ele>
        <time>2022-04-14T09:37:55.000Z</time>
      </trkpt>
      <trkpt lat="39.52535483054817" lon="-4.3172200955450535">
        <ele>1165</ele>
        <time>2022-04-14T09:37:57.000Z</time>
      </trkpt>
      <trkpt lat="39.525358099490404" lon="-4.317208444699645">
        <ele>1164.8</ele>
        <time>2022-04-14T09:37:59.000Z</time>
      </trkpt>
      <trkpt lat="39.52535608783364" lon="-4.317198470234871">
        <ele>1164.6</ele>
        <time>2022-04-14T09:38:00.000Z</time>
      </trkpt>
      <trkpt lat="39.52535893768072" lon="-4.317185897380114">
        <ele>1164.2</ele>
        <time>2022-04-14T09:38:02.000Z</time>
      </trkpt>
      <trkpt lat="39.525363966822624" lon="-4.3171744979918">
        <ele>1163.6</ele>
        <time>2022-04-14T09:38:05.000Z</time>
      </trkpt>
      <trkpt lat="39.52537268400192" lon="-4.317154884338379">
        <ele>1163.4</ele>
        <time>2022-04-14T09:38:07.000Z</time>
      </trkpt>
      <trkpt lat="39.52537729404867" lon="-4.317149436101317">
        <ele>1163.2</ele>
        <time>2022-04-14T09:38:08.000Z</time>
      </trkpt>
      <trkpt lat="39.52538047917187" lon="-4.317143736407161">
        <ele>1163</ele>
        <time>2022-04-14T09:38:09.000Z</time>
      </trkpt>
      <trkpt lat="39.52538366429508" lon="-4.317134181037545">
        <ele>1162.8</ele>
        <time>2022-04-14T09:38:11.000Z</time>
      </trkpt>
      <trkpt lat="39.525399170815945" lon="-4.317100401967764">
        <ele>1162.2</ele>
        <time>2022-04-14T09:38:15.000Z</time>
      </trkpt>
      <trkpt lat="39.5254188682884" lon="-4.317082380875945">
        <ele>1161.8</ele>
        <time>2022-04-14T09:38:18.000Z</time>
      </trkpt>
      <trkpt lat="39.52542984858155" lon="-4.31707626208663">
        <ele>1161.8</ele>
        <time>2022-04-14T09:38:19.000Z</time>
      </trkpt>
      <trkpt lat="39.52544149942696" lon="-4.317070310935378">
        <ele>1161.8</ele>
        <time>2022-04-14T09:38:20.000Z</time>
      </trkpt>
      <trkpt lat="39.52544988133013" lon="-4.317063437774777">
        <ele>1161.6</ele>
        <time>2022-04-14T09:38:21.000Z</time>
      </trkpt>
      <trkpt lat="39.525460274890065" lon="-4.317052541300654">
        <ele>1161.4</ele>
        <time>2022-04-14T09:38:23.000Z</time>
      </trkpt>
      <trkpt lat="39.52546924352646" lon="-4.317047260701656">
        <ele>1161</ele>
        <time>2022-04-14T09:38:24.000Z</time>
      </trkpt>
      <trkpt lat="39.52549019828439" lon="-4.317035358399153">
        <ele>1160.8</ele>
        <time>2022-04-14T09:38:26.000Z</time>
      </trkpt>
      <trkpt lat="39.52549858018756" lon="-4.317023120820522">
        <ele>1160.6</ele>
        <time>2022-04-14T09:38:28.000Z</time>
      </trkpt>
      <trkpt lat="39.52551316469908" lon="-4.3170142360031605">
        <ele>1160</ele>
        <time>2022-04-14T09:38:30.000Z</time>
      </trkpt>
      <trkpt lat="39.52552054077387" lon="-4.317007698118687">
        <ele>1159.8</ele>
        <time>2022-04-14T09:38:31.000Z</time>
      </trkpt>
      <trkpt lat="39.525521378964186" lon="-4.316998142749071">
        <ele>1159.4</ele>
        <time>2022-04-14T09:38:32.000Z</time>
      </trkpt>
      <trkpt lat="39.52555323019624" lon="-4.3169747572392225">
        <ele>1159</ele>
        <time>2022-04-14T09:38:36.000Z</time>
      </trkpt>
      <trkpt lat="39.52556747943163" lon="-4.316951036453247">
        <ele>1158.8</ele>
        <time>2022-04-14T09:38:39.000Z</time>
      </trkpt>
      <trkpt lat="39.52557493932545" lon="-4.316920107230544">
        <ele>1158</ele>
        <time>2022-04-14T09:38:43.000Z</time>
      </trkpt>
      <trkpt lat="39.52557762153447" lon="-4.316910384222865">
        <ele>1157.6</ele>
        <time>2022-04-14T09:38:44.000Z</time>
      </trkpt>
      <trkpt lat="39.52561014331877" lon="-4.316862607374787">
        <ele>1157</ele>
        <time>2022-04-14T09:38:50.000Z</time>
      </trkpt>
      <trkpt lat="39.52561039477587" lon="-4.316853638738394">
        <ele>1156.8</ele>
        <time>2022-04-14T09:38:51.000Z</time>
      </trkpt>
      <trkpt lat="39.52562531456351" lon="-4.316798569634557">
        <ele>1155.8</ele>
        <time>2022-04-14T09:38:55.000Z</time>
      </trkpt>
      <trkpt lat="39.52562757767737" lon="-4.316787254065275">
        <ele>1155.8</ele>
        <time>2022-04-14T09:38:56.000Z</time>
      </trkpt>
      <trkpt lat="39.52563394792378" lon="-4.31677577085793">
        <ele>1155.6</ele>
        <time>2022-04-14T09:38:57.000Z</time>
      </trkpt>
      <trkpt lat="39.525645431131124" lon="-4.3167544808238745">
        <ele>1155.2</ele>
        <time>2022-04-14T09:38:59.000Z</time>
      </trkpt>
      <trkpt lat="39.525650292634964" lon="-4.316744422540069">
        <ele>1154.8</ele>
        <time>2022-04-14T09:39:00.000Z</time>
      </trkpt>
      <trkpt lat="39.5256709959358" lon="-4.316715253517032">
        <ele>1153.8</ele>
        <time>2022-04-14T09:39:04.000Z</time>
      </trkpt>
      <trkpt lat="39.52568759210408" lon="-4.31670100428164">
        <ele>1153.6</ele>
        <time>2022-04-14T09:39:06.000Z</time>
      </trkpt>
      <trkpt lat="39.52570494264364" lon="-4.316686587408185">
        <ele>1153.6</ele>
        <time>2022-04-14T09:39:08.000Z</time>
      </trkpt>
      <trkpt lat="39.525721706449986" lon="-4.316668650135398">
        <ele>1153.6</ele>
        <time>2022-04-14T09:39:10.000Z</time>
      </trkpt>
      <trkpt lat="39.525734446942806" lon="-4.316658256575465">
        <ele>1153.6</ele>
        <time>2022-04-14T09:39:12.000Z</time>
      </trkpt>
      <trkpt lat="39.525760766118765" lon="-4.31663554161787">
        <ele>1153.6</ele>
        <time>2022-04-14T09:39:16.000Z</time>
      </trkpt>
      <trkpt lat="39.52578046359122" lon="-4.316598996520042">
        <ele>1153.6</ele>
        <time>2022-04-14T09:39:20.000Z</time>
      </trkpt>
      <trkpt lat="39.52578683383763" lon="-4.316592290997505">
        <ele>1153.6</ele>
        <time>2022-04-14T09:39:21.000Z</time>
      </trkpt>
      <trkpt lat="39.525811560451984" lon="-4.316577119752765">
        <ele>1153.6</ele>
        <time>2022-04-14T09:39:24.000Z</time>
      </trkpt>
      <trkpt lat="39.525813069194555" lon="-4.316571420058608">
        <ele>1153.6</ele>
        <time>2022-04-14T09:39:25.000Z</time>
      </trkpt>
      <trkpt lat="39.52581734396517" lon="-4.316571252420545">
        <ele>1153.6</ele>
        <time>2022-04-14T09:39:27.000Z</time>
      </trkpt>
      <trkpt lat="39.5258295815438" lon="-4.3165636248886585">
        <ele>1153.6</ele>
        <time>2022-04-14T09:39:29.000Z</time>
      </trkpt>
      <trkpt lat="39.52583519741893" lon="-4.316557087004185">
        <ele>1153.6</ele>
        <time>2022-04-14T09:39:30.000Z</time>
      </trkpt>
      <trkpt lat="39.52583687379956" lon="-4.316548872739077">
        <ele>1153.6</ele>
        <time>2022-04-14T09:39:31.000Z</time>
      </trkpt>
      <trkpt lat="39.525847770273685" lon="-4.316516350954771">
        <ele>1153.4</ele>
        <time>2022-04-14T09:39:34.000Z</time>
      </trkpt>
      <trkpt lat="39.52585003338754" lon="-4.316493384540081">
        <ele>1153.2</ele>
        <time>2022-04-14T09:39:36.000Z</time>
      </trkpt>
      <trkpt lat="39.52585246413946" lon="-4.316487098112702">
        <ele>1153.2</ele>
        <time>2022-04-14T09:39:37.000Z</time>
      </trkpt>
      <trkpt lat="39.525844752788544" lon="-4.316468322649598">
        <ele>1152.8</ele>
        <time>2022-04-14T09:39:40.000Z</time>
      </trkpt>
      <trkpt lat="39.52584844082594" lon="-4.316459940746427">
        <ele>1152.8</ele>
        <time>2022-04-14T09:39:41.000Z</time>
      </trkpt>
      <trkpt lat="39.525846345350146" lon="-4.31644644588232">
        <ele>1152.6</ele>
        <time>2022-04-14T09:39:43.000Z</time>
      </trkpt>
      <trkpt lat="39.5258610136807" lon="-4.31638483889401">
        <ele>1152</ele>
        <time>2022-04-14T09:39:49.000Z</time>
      </trkpt>
      <trkpt lat="39.5258747600019" lon="-4.316360950469971">
        <ele>1151.8</ele>
        <time>2022-04-14T09:39:52.000Z</time>
      </trkpt>
      <trkpt lat="39.52587878331542" lon="-4.316357849165797">
        <ele>1151.8</ele>
        <time>2022-04-14T09:39:53.000Z</time>
      </trkpt>
      <trkpt lat="39.52587601728737" lon="-4.316346030682325">
        <ele>1151.6</ele>
        <time>2022-04-14T09:39:55.000Z</time>
      </trkpt>
      <trkpt lat="39.52588071115315" lon="-4.316341336816549">
        <ele>1151.6</ele>
        <time>2022-04-14T09:39:56.000Z</time>
      </trkpt>
      <trkpt lat="39.525938630104065" lon="-4.316281909123063">
        <ele>1151</ele>
        <time>2022-04-14T09:40:04.000Z</time>
      </trkpt>
      <trkpt lat="39.526002164930105" lon="-4.316235138103366">
        <ele>1151</ele>
        <time>2022-04-14T09:40:12.000Z</time>
      </trkpt>
      <trkpt lat="39.52602772973478" lon="-4.3162252474576235">
        <ele>1150.8</ele>
        <time>2022-04-14T09:40:15.000Z</time>
      </trkpt>
      <trkpt lat="39.526073243469" lon="-4.316218039020896">
        <ele>1150.2</ele>
        <time>2022-04-14T09:40:20.000Z</time>
      </trkpt>
      <trkpt lat="39.52608841471374" lon="-4.316214686259627">
        <ele>1150.2</ele>
        <time>2022-04-14T09:40:23.000Z</time>
      </trkpt>
      <trkpt lat="39.526087660342455" lon="-4.316212506964803">
        <ele>1150</ele>
        <time>2022-04-14T09:40:25.000Z</time>
      </trkpt>
      <trkpt lat="39.526111129671335" lon="-4.31620454415679">
        <ele>1149.8</ele>
        <time>2022-04-14T09:40:27.000Z</time>
      </trkpt>
      <trkpt lat="39.52612747438252" lon="-4.316191133111715">
        <ele>1149.6</ele>
        <time>2022-04-14T09:40:29.000Z</time>
      </trkpt>
      <trkpt lat="39.52610978856683" lon="-4.316182667389512">
        <ele>1149.8</ele>
        <time>2022-04-14T09:40:31.000Z</time>
      </trkpt>
      <trkpt lat="39.526097886264324" lon="-4.3161719385534525">
        <ele>1149.8</ele>
        <time>2022-04-14T09:40:33.000Z</time>
      </trkpt>
      <trkpt lat="39.52608590014279" lon="-4.316133633255959">
        <ele>1149.8</ele>
        <time>2022-04-14T09:40:37.000Z</time>
      </trkpt>
      <trkpt lat="39.52608053572476" lon="-4.316097758710384">
        <ele>1149.4</ele>
        <time>2022-04-14T09:40:40.000Z</time>
      </trkpt>
      <trkpt lat="39.52607810497284" lon="-4.316089292988181">
        <ele>1149.4</ele>
        <time>2022-04-14T09:40:41.000Z</time>
      </trkpt>
      <trkpt lat="39.52607357874513" lon="-4.316077306866646">
        <ele>1149</ele>
        <time>2022-04-14T09:40:43.000Z</time>
      </trkpt>
      <trkpt lat="39.52606259845197" lon="-4.316073367372155">
        <ele>1148.6</ele>
        <time>2022-04-14T09:40:46.000Z</time>
      </trkpt>
      <trkpt lat="39.526059832423925" lon="-4.316076468676329">
        <ele>1148.6</ele>
        <time>2022-04-14T09:40:47.000Z</time>
      </trkpt>
      <trkpt lat="39.52606444247067" lon="-4.316082336008549">
        <ele>1148.6</ele>
        <time>2022-04-14T09:40:51.000Z</time>
      </trkpt>
      <trkpt lat="39.526066118851304" lon="-4.31609264574945">
        <ele>1148.4</ele>
        <time>2022-04-14T09:40:54.000Z</time>
      </trkpt>
      <trkpt lat="39.52606947161257" lon="-4.316141679883003">
        <ele>1149</ele>
        <time>2022-04-14T09:41:01.000Z</time>
      </trkpt>
      <trkpt lat="39.52606804668903" lon="-4.3161954917013645">
        <ele>1149.8</ele>
        <time>2022-04-14T09:41:06.000Z</time>
      </trkpt>
      <trkpt lat="39.526057820767164" lon="-4.3162196315824986">
        <ele>1149.8</ele>
        <time>2022-04-14T09:41:08.000Z</time>
      </trkpt>
      <trkpt lat="39.52606687322259" lon="-4.316222481429577">
        <ele>1149.8</ele>
        <time>2022-04-14T09:41:10.000Z</time>
      </trkpt>
      <trkpt lat="39.52606502920389" lon="-4.3162166979163885">
        <ele>1150.2</ele>
        <time>2022-04-14T09:41:14.000Z</time>
      </trkpt>
      <trkpt lat="39.52606804668903" lon="-4.316216949373484">
        <ele>1150.2</ele>
        <time>2022-04-14T09:41:15.000Z</time>
      </trkpt>
      <trkpt lat="39.526106268167496" lon="-4.316200604662299">
        <ele>1150</ele>
        <time>2022-04-14T09:41:22.000Z</time>
      </trkpt>
      <trkpt lat="39.52611833810806" lon="-4.3161815777421">
        <ele>1149.8</ele>
        <time>2022-04-14T09:41:32.000Z</time>
      </trkpt>
      <trkpt lat="39.526119930669665" lon="-4.316180991008878">
        <ele>1150</ele>
        <time>2022-04-14T09:41:39.000Z</time>
      </trkpt>
      <trkpt lat="39.526118002831936" lon="-4.316186606884003">
        <ele>1150.2</ele>
        <time>2022-04-14T09:41:41.000Z</time>
      </trkpt>
      <trkpt lat="39.52611733227968" lon="-4.31618744507432">
        <ele>1150</ele>
        <time>2022-04-14T09:41:42.000Z</time>
      </trkpt>
      <trkpt lat="39.526112889871" lon="-4.3161884509027">
        <ele>1150</ele>
        <time>2022-04-14T09:41:47.000Z</time>
      </trkpt>
      <trkpt lat="39.52612797729671" lon="-4.316183337941766">
        <ele>1149.8</ele>
        <time>2022-04-14T09:41:54.000Z</time>
      </trkpt>
      <trkpt lat="39.52616837807" lon="-4.316170932725072">
        <ele>1149</ele>
        <time>2022-04-14T09:42:03.000Z</time>
      </trkpt>
      <trkpt lat="39.526173155754805" lon="-4.3161736987531185">
        <ele>1149</ele>
        <time>2022-04-14T09:42:04.000Z</time>
      </trkpt>
      <trkpt lat="39.52618723735213" lon="-4.316188618540764">
        <ele>1148.6</ele>
        <time>2022-04-14T09:42:07.000Z</time>
      </trkpt>
      <trkpt lat="39.526197547093034" lon="-4.316187696531415">
        <ele>1148.4</ele>
        <time>2022-04-14T09:42:09.000Z</time>
      </trkpt>
      <trkpt lat="39.52620064839721" lon="-4.3161804880946875">
        <ele>1148.4</ele>
        <time>2022-04-14T09:42:10.000Z</time>
      </trkpt>
      <trkpt lat="39.52621431089938" lon="-4.3161645624786615">
        <ele>1147.6</ele>
        <time>2022-04-14T09:42:13.000Z</time>
      </trkpt>
      <trkpt lat="39.52621288597584" lon="-4.316155761480331">
        <ele>1147.4</ele>
        <time>2022-04-14T09:42:14.000Z</time>
      </trkpt>
      <trkpt lat="39.52621975913644" lon="-4.3161254189908504">
        <ele>1147.2</ele>
        <time>2022-04-14T09:42:17.000Z</time>
      </trkpt>
      <trkpt lat="39.52622964978218" lon="-4.316117623820901">
        <ele>1146.4</ele>
        <time>2022-04-14T09:42:20.000Z</time>
      </trkpt>
      <trkpt lat="39.52624373137951" lon="-4.316134890541434">
        <ele>1145.8</ele>
        <time>2022-04-14T09:42:23.000Z</time>
      </trkpt>
      <trkpt lat="39.52625974081457" lon="-4.316147966310382">
        <ele>1145.4</ele>
        <time>2022-04-14T09:42:27.000Z</time>
      </trkpt>
      <trkpt lat="39.52625563368201" lon="-4.316146709024906">
        <ele>1145.2</ele>
        <time>2022-04-14T09:42:30.000Z</time>
      </trkpt>
      <trkpt lat="39.52625974081457" lon="-4.316150480881333">
        <ele>1144.8</ele>
        <time>2022-04-14T09:42:38.000Z</time>
      </trkpt>
      <trkpt lat="39.52627658843994" lon="-4.316144529730082">
        <ele>1144.8</ele>
        <time>2022-04-14T09:42:48.000Z</time>
      </trkpt>
      <trkpt lat="39.52629511244595" lon="-4.316114606335759">
        <ele>1144.6</ele>
        <time>2022-04-14T09:42:56.000Z</time>
      </trkpt>
      <trkpt lat="39.52629804611206" lon="-4.316101279109716">
        <ele>1144.4</ele>
        <time>2022-04-14T09:42:58.000Z</time>
      </trkpt>
      <trkpt lat="39.52629662118852" lon="-4.316086694598198">
        <ele>1144</ele>
        <time>2022-04-14T09:43:02.000Z</time>
      </trkpt>
      <trkpt lat="39.52630081214011" lon="-4.316082084551454">
        <ele>1144</ele>
        <time>2022-04-14T09:43:03.000Z</time>
      </trkpt>
      <trkpt lat="39.52634188346565" lon="-4.3160567712038755">
        <ele>1143.4</ele>
        <time>2022-04-14T09:43:08.000Z</time>
      </trkpt>
      <trkpt lat="39.526351019740105" lon="-4.316058028489351">
        <ele>1143.2</ele>
        <time>2022-04-14T09:43:09.000Z</time>
      </trkpt>
      <trkpt lat="39.5263668615371" lon="-4.3160497304052114">
        <ele>1142.8</ele>
        <time>2022-04-14T09:43:11.000Z</time>
      </trkpt>
      <trkpt lat="39.52637507580221" lon="-4.316045623272657">
        <ele>1142.8</ele>
        <time>2022-04-14T09:43:12.000Z</time>
      </trkpt>
      <trkpt lat="39.5263980422169" lon="-4.316032463684678">
        <ele>1142</ele>
        <time>2022-04-14T09:43:14.000Z</time>
      </trkpt>
      <trkpt lat="39.52640801668167" lon="-4.316025422886014">
        <ele>1141.6</ele>
        <time>2022-04-14T09:43:15.000Z</time>
      </trkpt>
      <trkpt lat="39.526447830721736" lon="-4.315992146730423">
        <ele>1141</ele>
        <time>2022-04-14T09:43:21.000Z</time>
      </trkpt>
      <trkpt lat="39.52644808217883" lon="-4.315991057083011">
        <ele>1141</ele>
        <time>2022-04-14T09:43:22.000Z</time>
      </trkpt>
      <trkpt lat="39.52644506469369" lon="-4.315992901101708">
        <ele>1140.8</ele>
        <time>2022-04-14T09:43:23.000Z</time>
      </trkpt>
      <trkpt lat="39.526439951732755" lon="-4.315992230549455">
        <ele>1140.6</ele>
        <time>2022-04-14T09:43:24.000Z</time>
      </trkpt>
      <trkpt lat="39.526426792144775" lon="-4.315986949950457">
        <ele>1140.4</ele>
        <time>2022-04-14T09:43:29.000Z</time>
      </trkpt>
      <trkpt lat="39.526456464082" lon="-4.315996672958136">
        <ele>1140</ele>
        <time>2022-04-14T09:43:36.000Z</time>
      </trkpt>
      <trkpt lat="39.52646660618484" lon="-4.315984016284347">
        <ele>1139.8</ele>
        <time>2022-04-14T09:43:38.000Z</time>
      </trkpt>
      <trkpt lat="39.52647356316447" lon="-4.3159925658255816">
        <ele>1139.6</ele>
        <time>2022-04-14T09:43:42.000Z</time>
      </trkpt>
      <trkpt lat="39.526472305879" lon="-4.315992146730423">
        <ele>1139.4</ele>
        <time>2022-04-14T09:43:44.000Z</time>
      </trkpt>
      <trkpt lat="39.52647347934544" lon="-4.31598661467433">
        <ele>1139.4</ele>
        <time>2022-04-14T09:43:45.000Z</time>
      </trkpt>
      <trkpt lat="39.52648093923926" lon="-4.315977729856968">
        <ele>1139.2</ele>
        <time>2022-04-14T09:43:49.000Z</time>
      </trkpt>
      <trkpt lat="39.52648756094277" lon="-4.315964486449957">
        <ele>1138.8</ele>
        <time>2022-04-14T09:43:53.000Z</time>
      </trkpt>
      <trkpt lat="39.52648856677115" lon="-4.315961636602879">
        <ele>1138.8</ele>
        <time>2022-04-14T09:43:54.000Z</time>
      </trkpt>
      <trkpt lat="39.52649946324527" lon="-4.315953170880675">
        <ele>1138.6</ele>
        <time>2022-04-14T09:43:57.000Z</time>
      </trkpt>
      <trkpt lat="39.526506839320064" lon="-4.315954679623246">
        <ele>1138.8</ele>
        <time>2022-04-14T09:43:58.000Z</time>
      </trkpt>
      <trkpt lat="39.52650893479586" lon="-4.315927941352129">
        <ele>1138.8</ele>
        <time>2022-04-14T09:44:06.000Z</time>
      </trkpt>
      <trkpt lat="39.52649183571339" lon="-4.315928025171161">
        <ele>1138.4</ele>
        <time>2022-04-14T09:44:11.000Z</time>
      </trkpt>
      <trkpt lat="39.52651597559452" lon="-4.315933305770159">
        <ele>1138.2</ele>
        <time>2022-04-14T09:44:13.000Z</time>
      </trkpt>
      <trkpt lat="39.526521507650614" lon="-4.3159351497888565">
        <ele>1138.2</ele>
        <time>2022-04-14T09:44:14.000Z</time>
      </trkpt>
      <trkpt lat="39.526522513478994" lon="-4.3159357365220785">
        <ele>1138.2</ele>
        <time>2022-04-14T09:44:15.000Z</time>
      </trkpt>
      <trkpt lat="39.526526955887675" lon="-4.315929869189858">
        <ele>1138.2</ele>
        <time>2022-04-14T09:44:24.000Z</time>
      </trkpt>
      <trkpt lat="39.52653483487666" lon="-4.315931797027588">
        <ele>1137.8</ele>
        <time>2022-04-14T09:44:26.000Z</time>
      </trkpt>
      <trkpt lat="39.526547407731414" lon="-4.315940262749791">
        <ele>1137.6</ele>
        <time>2022-04-14T09:44:34.000Z</time>
      </trkpt>
      <trkpt lat="39.52655646018684" lon="-4.3159127701073885">
        <ele>1137.4</ele>
        <time>2022-04-14T09:44:38.000Z</time>
      </trkpt>
      <trkpt lat="39.526564087718725" lon="-4.315894413739443">
        <ele>1137.6</ele>
        <time>2022-04-14T09:44:40.000Z</time>
      </trkpt>
      <trkpt lat="39.52662686817348" lon="-4.315864657983184">
        <ele>1137.6</ele>
        <time>2022-04-14T09:44:46.000Z</time>
      </trkpt>
      <trkpt lat="39.52663826756179" lon="-4.315858790650964">
        <ele>1137</ele>
        <time>2022-04-14T09:44:47.000Z</time>
      </trkpt>
      <trkpt lat="39.526650588959455" lon="-4.315849402919412">
        <ele>1136.6</ele>
        <time>2022-04-14T09:44:48.000Z</time>
      </trkpt>
      <trkpt lat="39.526682356372476" lon="-4.3158226646482944">
        <ele>1135.8</ele>
        <time>2022-04-14T09:44:51.000Z</time>
      </trkpt>
      <trkpt lat="39.52668746933341" lon="-4.31581168435514">
        <ele>1135.6</ele>
        <time>2022-04-14T09:44:52.000Z</time>
      </trkpt>
      <trkpt lat="39.526691576465964" lon="-4.3158032186329365">
        <ele>1135.4</ele>
        <time>2022-04-14T09:44:53.000Z</time>
      </trkpt>
      <trkpt lat="39.52671001665294" lon="-4.315766002982855">
        <ele>1135</ele>
        <time>2022-04-14T09:44:57.000Z</time>
      </trkpt>
      <trkpt lat="39.52671320177615" lon="-4.315763572230935">
        <ele>1134.8</ele>
        <time>2022-04-14T09:44:58.000Z</time>
      </trkpt>
      <trkpt lat="39.52672175131738" lon="-4.315756196156144">
        <ele>1135</ele>
        <time>2022-04-14T09:44:59.000Z</time>
      </trkpt>
      <trkpt lat="39.526754105463624" lon="-4.315718309953809">
        <ele>1134.4</ele>
        <time>2022-04-14T09:45:03.000Z</time>
      </trkpt>
      <trkpt lat="39.52676282264292" lon="-4.3157104309648275">
        <ele>1134.4</ele>
        <time>2022-04-14T09:45:04.000Z</time>
      </trkpt>
      <trkpt lat="39.5267897285521" lon="-4.315688973292708">
        <ele>1133.8</ele>
        <time>2022-04-14T09:45:07.000Z</time>
      </trkpt>
      <trkpt lat="39.52680179849267" lon="-4.315684782341123">
        <ele>1133.4</ele>
        <time>2022-04-14T09:45:09.000Z</time>
      </trkpt>
      <trkpt lat="39.52680339105427" lon="-4.315682351589203">
        <ele>1133.2</ele>
        <time>2022-04-14T09:45:10.000Z</time>
      </trkpt>
      <trkpt lat="39.52680665999651" lon="-4.315679585561156">
        <ele>1133.2</ele>
        <time>2022-04-14T09:45:11.000Z</time>
      </trkpt>
      <trkpt lat="39.526839181780815" lon="-4.315625689923763">
        <ele>1133</ele>
        <time>2022-04-14T09:45:17.000Z</time>
      </trkpt>
      <trkpt lat="39.52685703523457" lon="-4.315589144825935">
        <ele>1132.6</ele>
        <time>2022-04-14T09:45:20.000Z</time>
      </trkpt>
      <trkpt lat="39.526862148195505" lon="-4.315557545050979">
        <ele>1132.4</ele>
        <time>2022-04-14T09:45:23.000Z</time>
      </trkpt>
      <trkpt lat="39.52686156146228" lon="-4.315552180632949">
        <ele>1132.2</ele>
        <time>2022-04-14T09:45:24.000Z</time>
      </trkpt>
      <trkpt lat="39.526866590604186" lon="-4.3155378475785255">
        <ele>1131.6</ele>
        <time>2022-04-14T09:45:26.000Z</time>
      </trkpt>
      <trkpt lat="39.52689039520919" lon="-4.3155148811638355">
        <ele>1131.2</ele>
        <time>2022-04-14T09:45:29.000Z</time>
      </trkpt>
      <trkpt lat="39.52690824866295" lon="-4.315501805394888">
        <ele>1130.8</ele>
        <time>2022-04-14T09:45:31.000Z</time>
      </trkpt>
      <trkpt lat="39.526941776275635" lon="-4.315430140122771">
        <ele>1130</ele>
        <time>2022-04-14T09:45:37.000Z</time>
      </trkpt>
      <trkpt lat="39.52694848179817" lon="-4.315404994413257">
        <ele>1129.6</ele>
        <time>2022-04-14T09:45:39.000Z</time>
      </trkpt>
      <trkpt lat="39.52694605104625" lon="-4.31538806296885">
        <ele>1129.4</ele>
        <time>2022-04-14T09:45:41.000Z</time>
      </trkpt>
      <trkpt lat="39.52693909406662" lon="-4.315369874238968">
        <ele>1129.2</ele>
        <time>2022-04-14T09:45:43.000Z</time>
      </trkpt>
      <trkpt lat="39.526935908943415" lon="-4.315358391031623">
        <ele>1129.2</ele>
        <time>2022-04-14T09:45:44.000Z</time>
      </trkpt>
      <trkpt lat="39.52693800441921" lon="-4.315350176766515">
        <ele>1129</ele>
        <time>2022-04-14T09:45:45.000Z</time>
      </trkpt>
      <trkpt lat="39.52693766914308" lon="-4.3153399508446455">
        <ele>1128.6</ele>
        <time>2022-04-14T09:45:46.000Z</time>
      </trkpt>
      <trkpt lat="39.52695325948298" lon="-4.315259819850326">
        <ele>1127.6</ele>
        <time>2022-04-14T09:45:52.000Z</time>
      </trkpt>
      <trkpt lat="39.52695661224425" lon="-4.315246073529124">
        <ele>1127.6</ele>
        <time>2022-04-14T09:45:53.000Z</time>
      </trkpt>
      <trkpt lat="39.52695954591036" lon="-4.315209612250328">
        <ele>1127</ele>
        <time>2022-04-14T09:45:56.000Z</time>
      </trkpt>
      <trkpt lat="39.526986703276634" lon="-4.315175414085388">
        <ele>1126.8</ele>
        <time>2022-04-14T09:45:59.000Z</time>
      </trkpt>
      <trkpt lat="39.52699776738882" lon="-4.315149346366525">
        <ele>1126.8</ele>
        <time>2022-04-14T09:46:02.000Z</time>
      </trkpt>
      <trkpt lat="39.52700170688331" lon="-4.315146328881383">
        <ele>1126.4</ele>
        <time>2022-04-14T09:46:03.000Z</time>
      </trkpt>
      <trkpt lat="39.52701352536678" lon="-4.315136019140482">
        <ele>1125.8</ele>
        <time>2022-04-14T09:46:05.000Z</time>
      </trkpt>
      <trkpt lat="39.52702182345092" lon="-4.315116908401251">
        <ele>1125.2</ele>
        <time>2022-04-14T09:46:07.000Z</time>
      </trkpt>
      <trkpt lat="39.52703816816211" lon="-4.315079441294074">
        <ele>1124.8</ele>
        <time>2022-04-14T09:46:10.000Z</time>
      </trkpt>
      <trkpt lat="39.52704512514174" lon="-4.315071478486061">
        <ele>1124.6</ele>
        <time>2022-04-14T09:46:11.000Z</time>
      </trkpt>
      <trkpt lat="39.527052249759436" lon="-4.315063767135143">
        <ele>1124.4</ele>
        <time>2022-04-14T09:46:12.000Z</time>
      </trkpt>
      <trkpt lat="39.52705870382488" lon="-4.315053876489401">
        <ele>1124.2</ele>
        <time>2022-04-14T09:46:13.000Z</time>
      </trkpt>
      <trkpt lat="39.52707689255476" lon="-4.315025797113776">
        <ele>1124</ele>
        <time>2022-04-14T09:46:15.000Z</time>
      </trkpt>
      <trkpt lat="39.52709994278848" lon="-4.314996292814612">
        <ele>1123.8</ele>
        <time>2022-04-14T09:46:18.000Z</time>
      </trkpt>
      <trkpt lat="39.52710832469165" lon="-4.3149959575384855">
        <ele>1122.8</ele>
        <time>2022-04-14T09:46:20.000Z</time>
      </trkpt>
      <trkpt lat="39.52711343765259" lon="-4.314994616433978">
        <ele>1122.4</ele>
        <time>2022-04-14T09:46:22.000Z</time>
      </trkpt>
      <trkpt lat="39.52712559141219" lon="-4.314989503473043">
        <ele>1122.2</ele>
        <time>2022-04-14T09:46:24.000Z</time>
      </trkpt>
      <trkpt lat="39.52713305130601" lon="-4.314960585907102">
        <ele>1122.2</ele>
        <time>2022-04-14T09:46:31.000Z</time>
      </trkpt>
      <trkpt lat="39.52713942155242" lon="-4.314944995567203">
        <ele>1121.6</ele>
        <time>2022-04-14T09:46:35.000Z</time>
      </trkpt>
      <trkpt lat="39.52714587561786" lon="-4.314938709139824">
        <ele>1121.4</ele>
        <time>2022-04-14T09:46:38.000Z</time>
      </trkpt>
      <trkpt lat="39.52712919563055" lon="-4.314939631149173">
        <ele>1121.4</ele>
        <time>2022-04-14T09:46:48.000Z</time>
      </trkpt>
      <trkpt lat="39.52712190337479" lon="-4.314991347491741">
        <ele>1121.6</ele>
        <time>2022-04-14T09:46:54.000Z</time>
      </trkpt>
      <trkpt lat="39.527106899768114" lon="-4.314984977245331">
        <ele>1121.8</ele>
        <time>2022-04-14T09:47:04.000Z</time>
      </trkpt>
      <trkpt lat="39.52710832469165" lon="-4.3149833008646965">
        <ele>1121.6</ele>
        <time>2022-04-14T09:47:05.000Z</time>
      </trkpt>
      <trkpt lat="39.52711008489132" lon="-4.31498296558857">
        <ele>1121.6</ele>
        <time>2022-04-14T09:47:06.000Z</time>
      </trkpt>
      <trkpt lat="39.52711503021419" lon="-4.31498589925468">
        <ele>1121.4</ele>
        <time>2022-04-14T09:47:12.000Z</time>
      </trkpt>
      <trkpt lat="39.52711394056678" lon="-4.31498933583498">
        <ele>1121</ele>
        <time>2022-04-14T09:47:15.000Z</time>
      </trkpt>
      <trkpt lat="39.52710555866361" lon="-4.314993275329471">
        <ele>1120.8</ele>
        <time>2022-04-14T09:47:21.000Z</time>
      </trkpt>
      <trkpt lat="39.52709533274174" lon="-4.314992856234312">
        <ele>1120.6</ele>
        <time>2022-04-14T09:47:25.000Z</time>
      </trkpt>
      <trkpt lat="39.52708183787763" lon="-4.314982295036316">
        <ele>1120</ele>
        <time>2022-04-14T09:47:30.000Z</time>
      </trkpt>
      <trkpt lat="39.52708259224892" lon="-4.314983552321792">
        <ele>1120</ele>
        <time>2022-04-14T09:47:32.000Z</time>
      </trkpt>
      <trkpt lat="39.52712810598314" lon="-4.314958658069372">
        <ele>1119.8</ele>
        <time>2022-04-14T09:47:41.000Z</time>
      </trkpt>
      <trkpt lat="39.52713732607663" lon="-4.314964022487402">
        <ele>1119.6</ele>
        <time>2022-04-14T09:47:46.000Z</time>
      </trkpt>
      <trkpt lat="39.52713506296277" lon="-4.314959412440658">
        <ele>1119.6</ele>
        <time>2022-04-14T09:47:50.000Z</time>
      </trkpt>
      <trkpt lat="39.527127519249916" lon="-4.314952120184898">
        <ele>1119.4</ele>
        <time>2022-04-14T09:47:52.000Z</time>
      </trkpt>
      <trkpt lat="39.527115197852254" lon="-4.314939631149173">
        <ele>1119.4</ele>
        <time>2022-04-14T09:47:56.000Z</time>
      </trkpt>
      <trkpt lat="39.527110923081636" lon="-4.314936529844999">
        <ele>1119.6</ele>
        <time>2022-04-14T09:47:58.000Z</time>
      </trkpt>
      <trkpt lat="39.527106983587146" lon="-4.314938122406602">
        <ele>1119.6</ele>
        <time>2022-04-14T09:47:59.000Z</time>
      </trkpt>
      <trkpt lat="39.5271126832813" lon="-4.314924040809274">
        <ele>1119.8</ele>
        <time>2022-04-14T09:48:04.000Z</time>
      </trkpt>
      <trkpt lat="39.52711301855743" lon="-4.314924459904432">
        <ele>1119.8</ele>
        <time>2022-04-14T09:48:05.000Z</time>
      </trkpt>
      <trkpt lat="39.52711259946227" lon="-4.3149264715611935">
        <ele>1119.8</ele>
        <time>2022-04-14T09:48:06.000Z</time>
      </trkpt>
      <trkpt lat="39.527114778757095" lon="-4.3149282317608595">
        <ele>1120</ele>
        <time>2022-04-14T09:48:08.000Z</time>
      </trkpt>
      <trkpt lat="39.52711486257613" lon="-4.314928483217955">
        <ele>1120</ele>
        <time>2022-04-14T09:48:09.000Z</time>
      </trkpt>
      <trkpt lat="39.527111342176795" lon="-4.3149391282349825">
        <ele>1120.2</ele>
        <time>2022-04-14T09:48:12.000Z</time>
      </trkpt>
      <trkpt lat="39.52710773795843" lon="-4.314946420490742">
        <ele>1120.6</ele>
        <time>2022-04-14T09:48:15.000Z</time>
      </trkpt>
      <trkpt lat="39.527100613340735" lon="-4.314961675554514">
        <ele>1120.6</ele>
        <time>2022-04-14T09:48:19.000Z</time>
      </trkpt>
      <trkpt lat="39.52710145153105" lon="-4.3149656150490046">
        <ele>1121.6</ele>
        <time>2022-04-14T09:48:21.000Z</time>
      </trkpt>
      <trkpt lat="39.52711159363389" lon="-4.314962849020958">
        <ele>1122</ele>
        <time>2022-04-14T09:48:26.000Z</time>
      </trkpt>
      <trkpt lat="39.52711318619549" lon="-4.314964357763529">
        <ele>1122</ele>
        <time>2022-04-14T09:48:28.000Z</time>
      </trkpt>
      <trkpt lat="39.52711461111903" lon="-4.3149650283157825">
        <ele>1122</ele>
        <time>2022-04-14T09:48:29.000Z</time>
      </trkpt>
      <trkpt lat="39.527117628604174" lon="-4.31496100500226">
        <ele>1121.8</ele>
        <time>2022-04-14T09:48:38.000Z</time>
      </trkpt>
      <trkpt lat="39.52714076265693" lon="-4.3149305786937475">
        <ele>1121.2</ele>
        <time>2022-04-14T09:48:46.000Z</time>
      </trkpt>
      <trkpt lat="39.52714176848531" lon="-4.314910043030977">
        <ele>1121.2</ele>
        <time>2022-04-14T09:48:51.000Z</time>
      </trkpt>
      <trkpt lat="39.527142606675625" lon="-4.31490333750844">
        <ele>1121.2</ele>
        <time>2022-04-14T09:48:52.000Z</time>
      </trkpt>
      <trkpt lat="39.52714931219816" lon="-4.314895290881395">
        <ele>1120.8</ele>
        <time>2022-04-14T09:48:55.000Z</time>
      </trkpt>
      <trkpt lat="39.52715224586427" lon="-4.314898643642664">
        <ele>1120.4</ele>
        <time>2022-04-14T09:48:57.000Z</time>
      </trkpt>
      <trkpt lat="39.527154173702" lon="-4.31489990092814">
        <ele>1120.4</ele>
        <time>2022-04-14T09:48:58.000Z</time>
      </trkpt>
      <trkpt lat="39.5271578617394" lon="-4.314904594793916">
        <ele>1120.2</ele>
        <time>2022-04-14T09:49:06.000Z</time>
      </trkpt>
      <trkpt lat="39.527157694101334" lon="-4.314903253689408">
        <ele>1120.2</ele>
        <time>2022-04-14T09:49:07.000Z</time>
      </trkpt>
      <trkpt lat="39.52713740989566" lon="-4.3149140663445">
        <ele>1120.4</ele>
        <time>2022-04-14T09:49:13.000Z</time>
      </trkpt>
      <trkpt lat="39.527135817334056" lon="-4.314915155991912">
        <ele>1120.8</ele>
        <time>2022-04-14T09:49:22.000Z</time>
      </trkpt>
      <trkpt lat="39.52714981511235" lon="-4.314906019717455">
        <ele>1120.2</ele>
        <time>2022-04-14T09:49:29.000Z</time>
      </trkpt>
      <trkpt lat="39.52714277431369" lon="-4.314908366650343">
        <ele>1119.8</ele>
        <time>2022-04-14T09:49:34.000Z</time>
      </trkpt>
      <trkpt lat="39.527135314419866" lon="-4.314911300316453">
        <ele>1119.8</ele>
        <time>2022-04-14T09:49:36.000Z</time>
      </trkpt>
      <trkpt lat="39.52713120728731" lon="-4.314912976697087">
        <ele>1119.6</ele>
        <time>2022-04-14T09:49:37.000Z</time>
      </trkpt>
      <trkpt lat="39.52712425030768" lon="-4.314911887049675">
        <ele>1119.8</ele>
        <time>2022-04-14T09:49:39.000Z</time>
      </trkpt>
      <trkpt lat="39.52711989171803" lon="-4.31490576826036">
        <ele>1119.8</ele>
        <time>2022-04-14T09:49:41.000Z</time>
      </trkpt>
      <trkpt lat="39.527127435430884" lon="-4.314911467954516">
        <ele>1119.8</ele>
        <time>2022-04-14T09:49:44.000Z</time>
      </trkpt>
      <trkpt lat="39.52712559141219" lon="-4.314915826544166">
        <ele>1119.8</ele>
        <time>2022-04-14T09:49:46.000Z</time>
      </trkpt>
      <trkpt lat="39.527121651917696" lon="-4.314904762431979">
        <ele>1120</ele>
        <time>2022-04-14T09:49:57.000Z</time>
      </trkpt>
      <trkpt lat="39.527127016335726" lon="-4.314876263961196">
        <ele>1119.2</ele>
        <time>2022-04-14T09:50:00.000Z</time>
      </trkpt>
      <trkpt lat="39.52712886035442" lon="-4.314863523468375">
        <ele>1118.8</ele>
        <time>2022-04-14T09:50:01.000Z</time>
      </trkpt>
      <trkpt lat="39.52713070437312" lon="-4.3148519564419985">
        <ele>1118.6</ele>
        <time>2022-04-14T09:50:02.000Z</time>
      </trkpt>
      <trkpt lat="39.52714839018881" lon="-4.3148301634937525">
        <ele>1118.4</ele>
        <time>2022-04-14T09:50:04.000Z</time>
      </trkpt>
      <trkpt lat="39.52715199440718" lon="-4.314821530133486">
        <ele>1118.4</ele>
        <time>2022-04-14T09:50:05.000Z</time>
      </trkpt>
      <trkpt lat="39.527149479836226" lon="-4.314798898994923">
        <ele>1118.4</ele>
        <time>2022-04-14T09:50:07.000Z</time>
      </trkpt>
      <trkpt lat="39.52715350314975" lon="-4.314764281734824">
        <ele>1118.4</ele>
        <time>2022-04-14T09:50:09.000Z</time>
      </trkpt>
      <trkpt lat="39.52715325169265" lon="-4.314760342240334">
        <ele>1118.2</ele>
        <time>2022-04-14T09:50:11.000Z</time>
      </trkpt>
      <trkpt lat="39.527155263349414" lon="-4.314746763557196">
        <ele>1118.2</ele>
        <time>2022-04-14T09:50:13.000Z</time>
      </trkpt>
      <trkpt lat="39.52716297470033" lon="-4.314722623676062">
        <ele>1118</ele>
        <time>2022-04-14T09:50:15.000Z</time>
      </trkpt>
      <trkpt lat="39.527172362431884" lon="-4.314698902890086">
        <ele>1117.6</ele>
        <time>2022-04-14T09:50:17.000Z</time>
      </trkpt>
      <trkpt lat="39.52718133106828" lon="-4.314664704725146">
        <ele>1117</ele>
        <time>2022-04-14T09:50:20.000Z</time>
      </trkpt>
      <trkpt lat="39.527209075167775" lon="-4.314564876258373">
        <ele>1116</ele>
        <time>2022-04-14T09:50:27.000Z</time>
      </trkpt>
      <trkpt lat="39.52721267938614" lon="-4.314550207927823">
        <ele>1116</ele>
        <time>2022-04-14T09:50:28.000Z</time>
      </trkpt>
      <trkpt lat="39.5272165350616" lon="-4.314490696415305">
        <ele>1114.6</ele>
        <time>2022-04-14T09:50:32.000Z</time>
      </trkpt>
      <trkpt lat="39.52722433023155" lon="-4.314437806606293">
        <ele>1113.8</ele>
        <time>2022-04-14T09:50:36.000Z</time>
      </trkpt>
      <trkpt lat="39.527238411828876" lon="-4.314399417489767">
        <ele>1113.6</ele>
        <time>2022-04-14T09:50:39.000Z</time>
      </trkpt>
      <trkpt lat="39.52723170630634" lon="-4.314354071393609">
        <ele>1112.6</ele>
        <time>2022-04-14T09:50:43.000Z</time>
      </trkpt>
      <trkpt lat="39.52722927555442" lon="-4.314351221546531">
        <ele>1112.4</ele>
        <time>2022-04-14T09:50:44.000Z</time>
      </trkpt>
      <trkpt lat="39.52724847011268" lon="-4.314326662570238">
        <ele>1112.2</ele>
        <time>2022-04-14T09:50:47.000Z</time>
      </trkpt>
      <trkpt lat="39.52725685201585" lon="-4.314313502982259">
        <ele>1112</ele>
        <time>2022-04-14T09:50:48.000Z</time>
      </trkpt>
      <trkpt lat="39.52726749703288" lon="-4.314287351444364">
        <ele>1111.4</ele>
        <time>2022-04-14T09:50:50.000Z</time>
      </trkpt>
      <trkpt lat="39.5272749569267" lon="-4.314253656193614">
        <ele>1110.6</ele>
        <time>2022-04-14T09:50:53.000Z</time>
      </trkpt>
      <trkpt lat="39.52729130163789" lon="-4.31424711830914">
        <ele>1110.6</ele>
        <time>2022-04-14T09:50:55.000Z</time>
      </trkpt>
      <trkpt lat="39.5272958278656" lon="-4.314245022833347">
        <ele>1110.4</ele>
        <time>2022-04-14T09:50:56.000Z</time>
      </trkpt>
      <trkpt lat="39.5273098256439" lon="-4.314246783033013">
        <ele>1110.4</ele>
        <time>2022-04-14T09:50:59.000Z</time>
      </trkpt>
      <trkpt lat="39.52732449397445" lon="-4.314257763326168">
        <ele>1110.2</ele>
        <time>2022-04-14T09:51:04.000Z</time>
      </trkpt>
      <trkpt lat="39.52732223086059" lon="-4.314258769154549">
        <ele>1110.4</ele>
        <time>2022-04-14T09:51:08.000Z</time>
      </trkpt>
      <trkpt lat="39.52731384895742" lon="-4.314219877123833">
        <ele>1110</ele>
        <time>2022-04-14T09:51:11.000Z</time>
      </trkpt>
      <trkpt lat="39.527290211990476" lon="-4.314185092225671">
        <ele>1109.6</ele>
        <time>2022-04-14T09:51:14.000Z</time>
      </trkpt>
      <trkpt lat="39.527284847572446" lon="-4.314170256257057">
        <ele>1109.4</ele>
        <time>2022-04-14T09:51:15.000Z</time>
      </trkpt>
      <trkpt lat="39.52728082425892" lon="-4.314148714765906">
        <ele>1109.4</ele>
        <time>2022-04-14T09:51:17.000Z</time>
      </trkpt>
      <trkpt lat="39.52728359028697" lon="-4.31413421407342">
        <ele>1109.4</ele>
        <time>2022-04-14T09:51:19.000Z</time>
      </trkpt>
      <trkpt lat="39.527275543659925" lon="-4.3141197971999645">
        <ele>1109.8</ele>
        <time>2022-04-14T09:51:23.000Z</time>
      </trkpt>
      <trkpt lat="39.52728937380016" lon="-4.314095238223672">
        <ele>1109.2</ele>
        <time>2022-04-14T09:51:30.000Z</time>
      </trkpt>
      <trkpt lat="39.527312591671944" lon="-4.314094986766577">
        <ele>1109.2</ele>
        <time>2022-04-14T09:51:31.000Z</time>
      </trkpt>
      <trkpt lat="39.5273148547858" lon="-4.314091131091118">
        <ele>1109.2</ele>
        <time>2022-04-14T09:51:32.000Z</time>
      </trkpt>
      <trkpt lat="39.527317117899656" lon="-4.314086437225342">
        <ele>1109.2</ele>
        <time>2022-04-14T09:51:33.000Z</time>
      </trkpt>
      <trkpt lat="39.52731083147228" lon="-4.314089203253388">
        <ele>1109.4</ele>
        <time>2022-04-14T09:51:36.000Z</time>
      </trkpt>
      <trkpt lat="39.52730605378747" lon="-4.314090292900801">
        <ele>1109.6</ele>
        <time>2022-04-14T09:51:38.000Z</time>
      </trkpt>
      <trkpt lat="39.52730521559715" lon="-4.314085515215993">
        <ele>1109.8</ele>
        <time>2022-04-14T09:51:44.000Z</time>
      </trkpt>
      <trkpt lat="39.52731099911034" lon="-4.314086185768247">
        <ele>1109.2</ele>
        <time>2022-04-14T09:51:52.000Z</time>
      </trkpt>
      <trkpt lat="39.52731250785291" lon="-4.314088532701135">
        <ele>1109.2</ele>
        <time>2022-04-14T09:51:53.000Z</time>
      </trkpt>
      <trkpt lat="39.52731175348163" lon="-4.31409121491015">
        <ele>1109.2</ele>
        <time>2022-04-14T09:51:54.000Z</time>
      </trkpt>
      <trkpt lat="39.52732214704156" lon="-4.314088951796293">
        <ele>1109</ele>
        <time>2022-04-14T09:52:00.000Z</time>
      </trkpt>
      <trkpt lat="39.52730647288263" lon="-4.314086688682437">
        <ele>1109.2</ele>
        <time>2022-04-14T09:52:07.000Z</time>
      </trkpt>
      <trkpt lat="39.527329774573445" lon="-4.314078725874424">
        <ele>1108.8</ele>
        <time>2022-04-14T09:52:14.000Z</time>
      </trkpt>
      <trkpt lat="39.52736338600516" lon="-4.314086604863405">
        <ele>1108.8</ele>
        <time>2022-04-14T09:52:18.000Z</time>
      </trkpt>
      <trkpt lat="39.52736900188029" lon="-4.314087526872754">
        <ele>1108.2</ele>
        <time>2022-04-14T09:52:20.000Z</time>
      </trkpt>
      <trkpt lat="39.527368415147066" lon="-4.31408635340631">
        <ele>1108</ele>
        <time>2022-04-14T09:52:21.000Z</time>
      </trkpt>
      <trkpt lat="39.527372270822525" lon="-4.314090628176928">
        <ele>1107.8</ele>
        <time>2022-04-14T09:52:25.000Z</time>
      </trkpt>
      <trkpt lat="39.52737797051668" lon="-4.3140997644513845">
        <ele>1107.8</ele>
        <time>2022-04-14T09:52:26.000Z</time>
      </trkpt>
      <trkpt lat="39.527381574735045" lon="-4.314109655097127">
        <ele>1107.6</ele>
        <time>2022-04-14T09:52:27.000Z</time>
      </trkpt>
      <trkpt lat="39.527434296905994" lon="-4.314233371987939">
        <ele>1107.4</ele>
        <time>2022-04-14T09:52:34.000Z</time>
      </trkpt>
      <trkpt lat="39.52743882313371" lon="-4.314244771376252">
        <ele>1107.2</ele>
        <time>2022-04-14T09:52:35.000Z</time>
      </trkpt>
      <trkpt lat="39.52748341485858" lon="-4.314284333959222">
        <ele>1107</ele>
        <time>2022-04-14T09:52:40.000Z</time>
      </trkpt>
      <trkpt lat="39.52750135213137" lon="-4.31429841555655">
        <ele>1107</ele>
        <time>2022-04-14T09:52:42.000Z</time>
      </trkpt>
      <trkpt lat="39.52752951532602" lon="-4.314325824379921">
        <ele>1107</ele>
        <time>2022-04-14T09:52:45.000Z</time>
      </trkpt>
      <trkpt lat="39.52755725942552" lon="-4.314336720854044">
        <ele>1107.2</ele>
        <time>2022-04-14T09:52:48.000Z</time>
      </trkpt>
      <trkpt lat="39.52756421640515" lon="-4.314344432204962">
        <ele>1107</ele>
        <time>2022-04-14T09:52:49.000Z</time>
      </trkpt>
      <trkpt lat="39.52762557193637" lon="-4.314363040030003">
        <ele>1107.2</ele>
        <time>2022-04-14T09:52:56.000Z</time>
      </trkpt>
      <trkpt lat="39.52765784226358" lon="-4.314373433589935">
        <ele>1107.8</ele>
        <time>2022-04-14T09:52:59.000Z</time>
      </trkpt>
      <trkpt lat="39.5276845805347" lon="-4.314394053071737">
        <ele>1108.4</ele>
        <time>2022-04-14T09:53:02.000Z</time>
      </trkpt>
      <trkpt lat="39.527797903865576" lon="-4.314453229308128">
        <ele>1109.2</ele>
        <time>2022-04-14T09:53:10.000Z</time>
      </trkpt>
      <trkpt lat="39.52783118002117" lon="-4.314473681151867">
        <ele>1109.2</ele>
        <time>2022-04-14T09:53:14.000Z</time>
      </trkpt>
      <trkpt lat="39.52787585556507" lon="-4.314461527392268">
        <ele>1109</ele>
        <time>2022-04-14T09:53:18.000Z</time>
      </trkpt>
      <trkpt lat="39.527895553037524" lon="-4.3144523072987795">
        <ele>1109</ele>
        <time>2022-04-14T09:53:21.000Z</time>
      </trkpt>
      <trkpt lat="39.52789437957108" lon="-4.314450798556209">
        <ele>1109</ele>
        <time>2022-04-14T09:53:24.000Z</time>
      </trkpt>
      <trkpt lat="39.52789278700948" lon="-4.314447278156877">
        <ele>1109</ele>
        <time>2022-04-14T09:53:25.000Z</time>
      </trkpt>
      <trkpt lat="39.52787443064153" lon="-4.314414840191603">
        <ele>1109.4</ele>
        <time>2022-04-14T09:53:30.000Z</time>
      </trkpt>
      <trkpt lat="39.527873173356056" lon="-4.314406709745526">
        <ele>1109.6</ele>
        <time>2022-04-14T09:53:33.000Z</time>
      </trkpt>
      <trkpt lat="39.52787384390831" lon="-4.314407967031002">
        <ele>1109.4</ele>
        <time>2022-04-14T09:53:34.000Z</time>
      </trkpt>
      <trkpt lat="39.52788750641048" lon="-4.314428586512804">
        <ele>1109.4</ele>
        <time>2022-04-14T09:53:38.000Z</time>
      </trkpt>
      <trkpt lat="39.527890188619494" lon="-4.314434956759214">
        <ele>1109.4</ele>
        <time>2022-04-14T09:53:39.000Z</time>
      </trkpt>
      <trkpt lat="39.527890775352716" lon="-4.314457839354873">
        <ele>1109.2</ele>
        <time>2022-04-14T09:53:45.000Z</time>
      </trkpt>
      <trkpt lat="39.527891613543034" lon="-4.314459348097444">
        <ele>1109.2</ele>
        <time>2022-04-14T09:53:46.000Z</time>
      </trkpt>
      <trkpt lat="39.527892703190446" lon="-4.314461275935173">
        <ele>1109.2</ele>
        <time>2022-04-14T09:53:47.000Z</time>
      </trkpt>
      <trkpt lat="39.52789203263819" lon="-4.314454486593604">
        <ele>1109.4</ele>
        <time>2022-04-14T09:53:58.000Z</time>
      </trkpt>
      <trkpt lat="39.52790276147425" lon="-4.314475692808628">
        <ele>1109.4</ele>
        <time>2022-04-14T09:54:02.000Z</time>
      </trkpt>
      <trkpt lat="39.527913155034184" lon="-4.314483320340514">
        <ele>1109.4</ele>
        <time>2022-04-14T09:54:04.000Z</time>
      </trkpt>
      <trkpt lat="39.52792505733669" lon="-4.314496563747525">
        <ele>1109.4</ele>
        <time>2022-04-14T09:54:06.000Z</time>
      </trkpt>
      <trkpt lat="39.52793343923986" lon="-4.314505951479077">
        <ele>1109.4</ele>
        <time>2022-04-14T09:54:11.000Z</time>
      </trkpt>
      <trkpt lat="39.52795347198844" lon="-4.314543334767222">
        <ele>1109.6</ele>
        <time>2022-04-14T09:54:17.000Z</time>
      </trkpt>
      <trkpt lat="39.527996806427836" lon="-4.314562948420644">
        <ele>1109.6</ele>
        <time>2022-04-14T09:54:23.000Z</time>
      </trkpt>
      <trkpt lat="39.52800334431231" lon="-4.314571162685752">
        <ele>1109.6</ele>
        <time>2022-04-14T09:54:24.000Z</time>
      </trkpt>
      <trkpt lat="39.52807433903217" lon="-4.314617766067386">
        <ele>1109.6</ele>
        <time>2022-04-14T09:54:33.000Z</time>
      </trkpt>
      <trkpt lat="39.528141897171736" lon="-4.314706446602941">
        <ele>1109.8</ele>
        <time>2022-04-14T09:54:42.000Z</time>
      </trkpt>
      <trkpt lat="39.528196044266224" lon="-4.314767299219966">
        <ele>1110.6</ele>
        <time>2022-04-14T09:54:49.000Z</time>
      </trkpt>
      <trkpt lat="39.52822471037507" lon="-4.314805939793587">
        <ele>1111.4</ele>
        <time>2022-04-14T09:54:52.000Z</time>
      </trkpt>
      <trkpt lat="39.52823979780078" lon="-4.314825888723135">
        <ele>1111.4</ele>
        <time>2022-04-14T09:54:54.000Z</time>
      </trkpt>
      <trkpt lat="39.52825605869293" lon="-4.314847849309444">
        <ele>1111.4</ele>
        <time>2022-04-14T09:54:56.000Z</time>
      </trkpt>
      <trkpt lat="39.5282731577754" lon="-4.314882969483733">
        <ele>1111.6</ele>
        <time>2022-04-14T09:54:59.000Z</time>
      </trkpt>
      <trkpt lat="39.5282818749547" lon="-4.314892692491412">
        <ele>1111.8</ele>
        <time>2022-04-14T09:55:00.000Z</time>
      </trkpt>
      <trkpt lat="39.528299225494266" lon="-4.314918424934149">
        <ele>1111.8</ele>
        <time>2022-04-14T09:55:02.000Z</time>
      </trkpt>
      <trkpt lat="39.528339793905616" lon="-4.314953712746501">
        <ele>1112</ele>
        <time>2022-04-14T09:55:06.000Z</time>
      </trkpt>
      <trkpt lat="39.52834943309426" lon="-4.314962429925799">
        <ele>1112</ele>
        <time>2022-04-14T09:55:07.000Z</time>
      </trkpt>
      <trkpt lat="39.5283925998956" lon="-4.3149917665869">
        <ele>1112.6</ele>
        <time>2022-04-14T09:55:11.000Z</time>
      </trkpt>
      <trkpt lat="39.528403831645846" lon="-4.314999477937818">
        <ele>1112.8</ele>
        <time>2022-04-14T09:55:12.000Z</time>
      </trkpt>
      <trkpt lat="39.52841196209192" lon="-4.31500593200326">
        <ele>1112.8</ele>
        <time>2022-04-14T09:55:13.000Z</time>
      </trkpt>
      <trkpt lat="39.5284285582602" lon="-4.3150183372199535">
        <ele>1112.8</ele>
        <time>2022-04-14T09:55:15.000Z</time>
      </trkpt>
      <trkpt lat="39.52848597429693" lon="-4.315063767135143">
        <ele>1113.6</ele>
        <time>2022-04-14T09:55:22.000Z</time>
      </trkpt>
      <trkpt lat="39.52853484079242" lon="-4.31515253148973">
        <ele>1113.6</ele>
        <time>2022-04-14T09:55:29.000Z</time>
      </trkpt>
      <trkpt lat="39.52855939976871" lon="-4.315218077972531">
        <ele>1113.6</ele>
        <time>2022-04-14T09:55:35.000Z</time>
      </trkpt>
      <trkpt lat="39.52857105061412" lon="-4.315206678584218">
        <ele>1113.6</ele>
        <time>2022-04-14T09:55:36.000Z</time>
      </trkpt>
      <trkpt lat="39.52857197262347" lon="-4.315236015245318">
        <ele>1113.8</ele>
        <time>2022-04-14T09:55:40.000Z</time>
      </trkpt>
      <trkpt lat="39.5285754930228" lon="-4.315242972224951">
        <ele>1113.8</ele>
        <time>2022-04-14T09:55:41.000Z</time>
      </trkpt>
      <trkpt lat="39.528607511892915" lon="-4.315296867862344">
        <ele>1114</ele>
        <time>2022-04-14T09:55:47.000Z</time>
      </trkpt>
      <trkpt lat="39.52861706726253" lon="-4.3153181578963995">
        <ele>1114.2</ele>
        <time>2022-04-14T09:55:49.000Z</time>
      </trkpt>
      <trkpt lat="39.52863911166787" lon="-4.315317068248987">
        <ele>1114.4</ele>
        <time>2022-04-14T09:55:51.000Z</time>
      </trkpt>
      <trkpt lat="39.52864841558039" lon="-4.315310530364513">
        <ele>1114.6</ele>
        <time>2022-04-14T09:55:53.000Z</time>
      </trkpt>
      <trkpt lat="39.52864824794233" lon="-4.315315056592226">
        <ele>1114.8</ele>
        <time>2022-04-14T09:55:55.000Z</time>
      </trkpt>
      <trkpt lat="39.52864984050393" lon="-4.3153152242302895">
        <ele>1114.8</ele>
        <time>2022-04-14T09:55:56.000Z</time>
      </trkpt>
      <trkpt lat="39.528653025627136" lon="-4.315334837883711">
        <ele>1114.4</ele>
        <time>2022-04-14T09:56:03.000Z</time>
      </trkpt>
      <trkpt lat="39.52868018299341" lon="-4.315451933071017">
        <ele>1114.2</ele>
        <time>2022-04-14T09:56:11.000Z</time>
      </trkpt>
      <trkpt lat="39.52869233675301" lon="-4.315502056851983">
        <ele>1114.2</ele>
        <time>2022-04-14T09:56:14.000Z</time>
      </trkpt>
      <trkpt lat="39.52871127985418" lon="-4.315580762922764">
        <ele>1114.2</ele>
        <time>2022-04-14T09:56:19.000Z</time>
      </trkpt>
      <trkpt lat="39.5287361741066" lon="-4.315682016313076">
        <ele>1113.8</ele>
        <time>2022-04-14T09:56:25.000Z</time>
      </trkpt>
      <trkpt lat="39.5287361741066" lon="-4.315682016313076">
        <ele>1113.8</ele>
        <time>2022-04-14T09:56:26.000Z</time>
      </trkpt>
      <trkpt lat="39.52874002978206" lon="-4.31570372544229">
        <ele>1113.8</ele>
        <time>2022-04-14T09:56:28.000Z</time>
      </trkpt>
      <trkpt lat="39.52874321490526" lon="-4.315713280811906">
        <ele>1113.6</ele>
        <time>2022-04-14T09:56:29.000Z</time>
      </trkpt>
      <trkpt lat="39.52877984382212" lon="-4.315806068480015">
        <ele>1113.2</ele>
        <time>2022-04-14T09:56:37.000Z</time>
      </trkpt>
      <trkpt lat="39.52879342250526" lon="-4.31583808735013">
        <ele>1113.2</ele>
        <time>2022-04-14T09:56:40.000Z</time>
      </trkpt>
      <trkpt lat="39.528815634548664" lon="-4.315887121483684">
        <ele>1113.6</ele>
        <time>2022-04-14T09:56:45.000Z</time>
      </trkpt>
      <trkpt lat="39.528842121362686" lon="-4.315971443429589">
        <ele>1113.4</ele>
        <time>2022-04-14T09:56:51.000Z</time>
      </trkpt>
      <trkpt lat="39.528859220445156" lon="-4.316035313531756">
        <ele>1112.6</ele>
        <time>2022-04-14T09:56:56.000Z</time>
      </trkpt>
      <trkpt lat="39.528867015615106" lon="-4.316077642142773">
        <ele>1112.4</ele>
        <time>2022-04-14T09:56:59.000Z</time>
      </trkpt>
      <trkpt lat="39.528881683945656" lon="-4.31612441316247">
        <ele>1112.4</ele>
        <time>2022-04-14T09:57:02.000Z</time>
      </trkpt>
      <trkpt lat="39.52890733256936" lon="-4.316184930503368">
        <ele>1112</ele>
        <time>2022-04-14T09:57:07.000Z</time>
      </trkpt>
      <trkpt lat="39.52891412191093" lon="-4.316223654896021">
        <ele>1111.2</ele>
        <time>2022-04-14T09:57:11.000Z</time>
      </trkpt>
      <trkpt lat="39.528921749442816" lon="-4.316249135881662">
        <ele>1110.6</ele>
        <time>2022-04-14T09:57:14.000Z</time>
      </trkpt>
      <trkpt lat="39.5289259403944" lon="-4.316259529441595">
        <ele>1110.6</ele>
        <time>2022-04-14T09:57:15.000Z</time>
      </trkpt>
      <trkpt lat="39.52893549576402" lon="-4.316289033740759">
        <ele>1110.4</ele>
        <time>2022-04-14T09:57:17.000Z</time>
      </trkpt>
      <trkpt lat="39.52894379384816" lon="-4.316325327381492">
        <ele>1110.4</ele>
        <time>2022-04-14T09:57:19.000Z</time>
      </trkpt>
      <trkpt lat="39.52895720489323" lon="-4.316388359293342">
        <ele>1110.2</ele>
        <time>2022-04-14T09:57:23.000Z</time>
      </trkpt>
      <trkpt lat="39.52896608971059" lon="-4.316416522487998">
        <ele>1109.8</ele>
        <time>2022-04-14T09:57:26.000Z</time>
      </trkpt>
      <trkpt lat="39.528979333117604" lon="-4.316441500559449">
        <ele>1109.8</ele>
        <time>2022-04-14T09:57:28.000Z</time>
      </trkpt>
      <trkpt lat="39.52898737974465" lon="-4.316472513601184">
        <ele>1110</ele>
        <time>2022-04-14T09:57:30.000Z</time>
      </trkpt>
      <trkpt lat="39.529011100530624" lon="-4.316527498885989">
        <ele>1109</ele>
        <time>2022-04-14T09:57:35.000Z</time>
      </trkpt>
      <trkpt lat="39.52902861870825" lon="-4.316553566604853">
        <ele>1108.8</ele>
        <time>2022-04-14T09:57:38.000Z</time>
      </trkpt>
      <trkpt lat="39.529074216261506" lon="-4.3166455160826445">
        <ele>1108.2</ele>
        <time>2022-04-14T09:57:47.000Z</time>
      </trkpt>
      <trkpt lat="39.5290815923363" lon="-4.316676612943411">
        <ele>1108.2</ele>
        <time>2022-04-14T09:57:50.000Z</time>
      </trkpt>
      <trkpt lat="39.5290985237807" lon="-4.316697819158435">
        <ele>1108</ele>
        <time>2022-04-14T09:57:52.000Z</time>
      </trkpt>
      <trkpt lat="39.52911646105349" lon="-4.3167235516011715">
        <ele>1107.6</ele>
        <time>2022-04-14T09:57:54.000Z</time>
      </trkpt>
      <trkpt lat="39.52912316657603" lon="-4.3167344480752945">
        <ele>1107.6</ele>
        <time>2022-04-14T09:57:55.000Z</time>
      </trkpt>
      <trkpt lat="39.52915501780808" lon="-4.316822458058596">
        <ele>1107.4</ele>
        <time>2022-04-14T09:58:02.000Z</time>
      </trkpt>
      <trkpt lat="39.529199693351984" lon="-4.316906780004501">
        <ele>1107.2</ele>
        <time>2022-04-14T09:58:09.000Z</time>
      </trkpt>
      <trkpt lat="39.52920765616" lon="-4.31691600009799">
        <ele>1107</ele>
        <time>2022-04-14T09:58:10.000Z</time>
      </trkpt>
      <trkpt lat="39.52922726981342" lon="-4.316938044503331">
        <ele>1106.8</ele>
        <time>2022-04-14T09:58:13.000Z</time>
      </trkpt>
      <trkpt lat="39.529238333925605" lon="-4.316968219354749">
        <ele>1107</ele>
        <time>2022-04-14T09:58:16.000Z</time>
      </trkpt>
      <trkpt lat="39.52924839220941" lon="-4.316984731703997">
        <ele>1107</ele>
        <time>2022-04-14T09:58:18.000Z</time>
      </trkpt>
      <trkpt lat="39.52926054596901" lon="-4.3170136492699385">
        <ele>1107</ele>
        <time>2022-04-14T09:58:20.000Z</time>
      </trkpt>
      <trkpt lat="39.52926440164447" lon="-4.317027647048235">
        <ele>1107</ele>
        <time>2022-04-14T09:58:21.000Z</time>
      </trkpt>
      <trkpt lat="39.52927001751959" lon="-4.317049607634544">
        <ele>1107</ele>
        <time>2022-04-14T09:58:23.000Z</time>
      </trkpt>
      <trkpt lat="39.529277393594384" lon="-4.317088248208165">
        <ele>1107</ele>
        <time>2022-04-14T09:58:26.000Z</time>
      </trkpt>
      <trkpt lat="39.529283260926604" lon="-4.317101240158081">
        <ele>1107</ele>
        <time>2022-04-14T09:58:28.000Z</time>
      </trkpt>
      <trkpt lat="39.529296504333615" lon="-4.317147089168429">
        <ele>1107</ele>
        <time>2022-04-14T09:58:32.000Z</time>
      </trkpt>
      <trkpt lat="39.52930295839906" lon="-4.3171714805066586">
        <ele>1106.8</ele>
        <time>2022-04-14T09:58:34.000Z</time>
      </trkpt>
      <trkpt lat="39.52934084460139" lon="-4.317208779975772">
        <ele>1106</ele>
        <time>2022-04-14T09:58:39.000Z</time>
      </trkpt>
      <trkpt lat="39.52934453263879" lon="-4.317216156050563">
        <ele>1105.8</ele>
        <time>2022-04-14T09:58:40.000Z</time>
      </trkpt>
      <trkpt lat="39.52937093563378" lon="-4.3172607477754354">
        <ele>1105</ele>
        <time>2022-04-14T09:58:46.000Z</time>
      </trkpt>
      <trkpt lat="39.52936758287251" lon="-4.3172648549079895">
        <ele>1104.8</ele>
        <time>2022-04-14T09:58:47.000Z</time>
      </trkpt>
      <trkpt lat="39.52938065864146" lon="-4.317282792180777">
        <ele>1104.4</ele>
        <time>2022-04-14T09:58:49.000Z</time>
      </trkpt>
      <trkpt lat="39.52939197421074" lon="-4.317295113578439">
        <ele>1104.2</ele>
        <time>2022-04-14T09:58:50.000Z</time>
      </trkpt>
      <trkpt lat="39.5294008590281" lon="-4.317309195175767">
        <ele>1104</ele>
        <time>2022-04-14T09:58:51.000Z</time>
      </trkpt>
      <trkpt lat="39.52942424453795" lon="-4.317337106913328">
        <ele>1103.8</ele>
        <time>2022-04-14T09:58:54.000Z</time>
      </trkpt>
      <trkpt lat="39.529460705816746" lon="-4.317385805770755">
        <ele>1102.6</ele>
        <time>2022-04-14T09:59:01.000Z</time>
      </trkpt>
      <trkpt lat="39.52947746962309" lon="-4.317397037521005">
        <ele>1102.4</ele>
        <time>2022-04-14T09:59:03.000Z</time>
      </trkpt>
      <trkpt lat="39.52948534861207" lon="-4.317401563748717">
        <ele>1102.2</ele>
        <time>2022-04-14T09:59:04.000Z</time>
      </trkpt>
      <trkpt lat="39.52949850820005" lon="-4.317419836297631">
        <ele>1102</ele>
        <time>2022-04-14T09:59:06.000Z</time>
      </trkpt>
      <trkpt lat="39.52951904386282" lon="-4.317457638680935">
        <ele>1101.8</ele>
        <time>2022-04-14T09:59:09.000Z</time>
      </trkpt>
      <trkpt lat="39.52953279018402" lon="-4.317500051110983">
        <ele>1101.8</ele>
        <time>2022-04-14T09:59:12.000Z</time>
      </trkpt>
      <trkpt lat="39.529534969478846" lon="-4.317514132708311">
        <ele>1101.6</ele>
        <time>2022-04-14T09:59:13.000Z</time>
      </trkpt>
      <trkpt lat="39.52954628504813" lon="-4.317555204033852">
        <ele>1101</ele>
        <time>2022-04-14T09:59:17.000Z</time>
      </trkpt>
      <trkpt lat="39.52956103719771" lon="-4.317581104114652">
        <ele>1100.6</ele>
        <time>2022-04-14T09:59:20.000Z</time>
      </trkpt>
      <trkpt lat="39.529567155987024" lon="-4.317659055814147">
        <ele>1099.8</ele>
        <time>2022-04-14T09:59:28.000Z</time>
      </trkpt>
      <trkpt lat="39.52957327477634" lon="-4.317685877904296">
        <ele>1099.6</ele>
        <time>2022-04-14T09:59:31.000Z</time>
      </trkpt>
      <trkpt lat="39.529581321403384" lon="-4.317733738571405">
        <ele>1099</ele>
        <time>2022-04-14T09:59:36.000Z</time>
      </trkpt>
      <trkpt lat="39.52958065085113" lon="-4.317740527912974">
        <ele>1099</ele>
        <time>2022-04-14T09:59:37.000Z</time>
      </trkpt>
      <trkpt lat="39.52957570552826" lon="-4.317770954221487">
        <ele>1099.2</ele>
        <time>2022-04-14T09:59:40.000Z</time>
      </trkpt>
      <trkpt lat="39.52956849709153" lon="-4.317783694714308">
        <ele>1099.2</ele>
        <time>2022-04-14T09:59:41.000Z</time>
      </trkpt>
      <trkpt lat="39.52956045046449" lon="-4.31780188344419">
        <ele>1099.2</ele>
        <time>2022-04-14T09:59:42.000Z</time>
      </trkpt>
      <trkpt lat="39.52956045046449" lon="-4.31780188344419">
        <ele>1099.2</ele>
        <time>2022-04-14T09:59:42.000Z</time>
      </trkpt>
      <trkpt lat="39.529552487656474" lon="-4.317835159599781">
        <ele>1099</ele>
        <time>2022-04-14T09:59:44.000Z</time>
      </trkpt>
      <trkpt lat="39.529552571475506" lon="-4.317925767973065">
        <ele>1098.4</ele>
        <time>2022-04-14T09:59:50.000Z</time>
      </trkpt>
      <trkpt lat="39.52955273911357" lon="-4.31793725118041">
        <ele>1098.2</ele>
        <time>2022-04-14T09:59:51.000Z</time>
      </trkpt>
      <trkpt lat="39.52955944463611" lon="-4.317955439910293">
        <ele>1097.8</ele>
        <time>2022-04-14T09:59:53.000Z</time>
      </trkpt>
      <trkpt lat="39.529563216492534" lon="-4.317974047735333">
        <ele>1097.6</ele>
        <time>2022-04-14T09:59:55.000Z</time>
      </trkpt>
      <trkpt lat="39.529577465727925" lon="-4.3179913982748985">
        <ele>1097.4</ele>
        <time>2022-04-14T09:59:57.000Z</time>
      </trkpt>
      <trkpt lat="39.52958199195564" lon="-4.318001205101609">
        <ele>1097.4</ele>
        <time>2022-04-14T09:59:58.000Z</time>
      </trkpt>
      <trkpt lat="39.529612166807055" lon="-4.318060046061873">
        <ele>1097</ele>
        <time>2022-04-14T10:00:05.000Z</time>
      </trkpt>
      <trkpt lat="39.529607724398375" lon="-4.318077815696597">
        <ele>1096.8</ele>
        <time>2022-04-14T10:00:07.000Z</time>
      </trkpt>
      <trkpt lat="39.52959389425814" lon="-4.318117965012789">
        <ele>1097</ele>
        <time>2022-04-14T10:00:10.000Z</time>
      </trkpt>
      <trkpt lat="39.52958115376532" lon="-4.318154929205775">
        <ele>1097</ele>
        <time>2022-04-14T10:00:13.000Z</time>
      </trkpt>
      <trkpt lat="39.52958534471691" lon="-4.318227767944336">
        <ele>1097.2</ele>
        <time>2022-04-14T10:00:19.000Z</time>
      </trkpt>
      <trkpt lat="39.529587775468826" lon="-4.318238161504269">
        <ele>1097.2</ele>
        <time>2022-04-14T10:00:20.000Z</time>
      </trkpt>
      <trkpt lat="39.52961350791156" lon="-4.31830613873899">
        <ele>1097.2</ele>
        <time>2022-04-14T10:00:26.000Z</time>
      </trkpt>
      <trkpt lat="39.52961719594896" lon="-4.3183280155062675">
        <ele>1097</ele>
        <time>2022-04-14T10:00:27.000Z</time>
      </trkpt>
      <trkpt lat="39.52962230890989" lon="-4.318341594189405">
        <ele>1097</ele>
        <time>2022-04-14T10:00:28.000Z</time>
      </trkpt>
      <trkpt lat="39.529640916734934" lon="-4.318394316360354">
        <ele>1096.4</ele>
        <time>2022-04-14T10:00:33.000Z</time>
      </trkpt>
      <trkpt lat="39.52964804135263" lon="-4.318406218662858">
        <ele>1096.2</ele>
        <time>2022-04-14T10:00:35.000Z</time>
      </trkpt>
      <trkpt lat="39.529660027474165" lon="-4.318447876721621">
        <ele>1096.2</ele>
        <time>2022-04-14T10:00:38.000Z</time>
      </trkpt>
      <trkpt lat="39.52966044656932" lon="-4.318451061844826">
        <ele>1096.8</ele>
        <time>2022-04-14T10:00:41.000Z</time>
      </trkpt>
      <trkpt lat="39.529666313901544" lon="-4.318462125957012">
        <ele>1097</ele>
        <time>2022-04-14T10:00:48.000Z</time>
      </trkpt>
      <trkpt lat="39.52970528975129" lon="-4.318531276658177">
        <ele>1096.2</ele>
        <time>2022-04-14T10:00:55.000Z</time>
      </trkpt>
      <trkpt lat="39.52971928752959" lon="-4.318565558642149">
        <ele>1096.2</ele>
        <time>2022-04-14T10:00:58.000Z</time>
      </trkpt>
      <trkpt lat="39.52972716651857" lon="-4.31859296746552">
        <ele>1096</ele>
        <time>2022-04-14T10:01:00.000Z</time>
      </trkpt>
      <trkpt lat="39.529732363298535" lon="-4.318604450672865">
        <ele>1096</ele>
        <time>2022-04-14T10:01:01.000Z</time>
      </trkpt>
      <trkpt lat="39.529734291136265" lon="-4.318628925830126">
        <ele>1095.8</ele>
        <time>2022-04-14T10:01:03.000Z</time>
      </trkpt>
      <trkpt lat="39.52973303385079" lon="-4.3186416663229465">
        <ele>1095.6</ele>
        <time>2022-04-14T10:01:04.000Z</time>
      </trkpt>
      <trkpt lat="39.52973353676498" lon="-4.318666979670525">
        <ele>1095.6</ele>
        <time>2022-04-14T10:01:06.000Z</time>
      </trkpt>
      <trkpt lat="39.52972331084311" lon="-4.318707715719938">
        <ele>1095.4</ele>
        <time>2022-04-14T10:01:10.000Z</time>
      </trkpt>
      <trkpt lat="39.52971727587283" lon="-4.318730346858501">
        <ele>1095.2</ele>
        <time>2022-04-14T10:01:12.000Z</time>
      </trkpt>
      <trkpt lat="39.529719203710556" lon="-4.318763958290219">
        <ele>1094.8</ele>
        <time>2022-04-14T10:01:15.000Z</time>
      </trkpt>
      <trkpt lat="39.52972674742341" lon="-4.318799413740635">
        <ele>1094.2</ele>
        <time>2022-04-14T10:01:18.000Z</time>
      </trkpt>
      <trkpt lat="39.529735296964645" lon="-4.318848783150315">
        <ele>1093.2</ele>
        <time>2022-04-14T10:01:22.000Z</time>
      </trkpt>
      <trkpt lat="39.52973362058401" lon="-4.3188616912811995">
        <ele>1093</ele>
        <time>2022-04-14T10:01:23.000Z</time>
      </trkpt>
      <trkpt lat="39.529728926718235" lon="-4.31890619918704">
        <ele>1092.6</ele>
        <time>2022-04-14T10:01:26.000Z</time>
      </trkpt>
      <trkpt lat="39.529724987223744" lon="-4.3189438339322805">
        <ele>1092.4</ele>
        <time>2022-04-14T10:01:29.000Z</time>
      </trkpt>
      <trkpt lat="39.529726915061474" lon="-4.318956825882196">
        <ele>1092.2</ele>
        <time>2022-04-14T10:01:30.000Z</time>
      </trkpt>
      <trkpt lat="39.52972817234695" lon="-4.318982558324933">
        <ele>1091.8</ele>
        <time>2022-04-14T10:01:32.000Z</time>
      </trkpt>
      <trkpt lat="39.52971937134862" lon="-4.319022204726934">
        <ele>1091</ele>
        <time>2022-04-14T10:01:36.000Z</time>
      </trkpt>
      <trkpt lat="39.52970897778869" lon="-4.319067802280188">
        <ele>1090.8</ele>
        <time>2022-04-14T10:01:40.000Z</time>
      </trkpt>
      <trkpt lat="39.52971048653126" lon="-4.319095630198717">
        <ele>1090.6</ele>
        <time>2022-04-14T10:01:42.000Z</time>
      </trkpt>
      <trkpt lat="39.529713755473495" lon="-4.3191043473780155">
        <ele>1090.6</ele>
        <time>2022-04-14T10:01:43.000Z</time>
      </trkpt>
      <trkpt lat="39.5297219697386" lon="-4.319135611876845">
        <ele>1090.2</ele>
        <time>2022-04-14T10:01:46.000Z</time>
      </trkpt>
      <trkpt lat="39.52972758561373" lon="-4.319144831970334">
        <ele>1089.8</ele>
        <time>2022-04-14T10:01:49.000Z</time>
      </trkpt>
      <trkpt lat="39.52973051927984" lon="-4.319154052063823">
        <ele>1089.8</ele>
        <time>2022-04-14T10:01:50.000Z</time>
      </trkpt>
      <trkpt lat="39.52973496168852" lon="-4.3191650323569775">
        <ele>1089.8</ele>
        <time>2022-04-14T10:01:51.000Z</time>
      </trkpt>
      <trkpt lat="39.52975122258067" lon="-4.319195793941617">
        <ele>1089.2</ele>
        <time>2022-04-14T10:01:54.000Z</time>
      </trkpt>
      <trkpt lat="39.52976136468351" lon="-4.3192092049866915">
        <ele>1089</ele>
        <time>2022-04-14T10:01:55.000Z</time>
      </trkpt>
      <trkpt lat="39.52976672910154" lon="-4.3192206881940365">
        <ele>1088.8</ele>
        <time>2022-04-14T10:01:56.000Z</time>
      </trkpt>
      <trkpt lat="39.52977427281439" lon="-4.3192327581346035">
        <ele>1088.2</ele>
        <time>2022-04-14T10:01:58.000Z</time>
      </trkpt>
      <trkpt lat="39.529775781556964" lon="-4.319234769791365">
        <ele>1088</ele>
        <time>2022-04-14T10:02:01.000Z</time>
      </trkpt>
      <trkpt lat="39.529774859547615" lon="-4.319234853610396">
        <ele>1088</ele>
        <time>2022-04-14T10:02:02.000Z</time>
      </trkpt>
      <trkpt lat="39.529801178723574" lon="-4.319273075088859">
        <ele>1088</ele>
        <time>2022-04-14T10:02:07.000Z</time>
      </trkpt>
      <trkpt lat="39.52981014735997" lon="-4.319315906614065">
        <ele>1087.6</ele>
        <time>2022-04-14T10:02:10.000Z</time>
      </trkpt>
      <trkpt lat="39.52981425449252" lon="-4.319337364286184">
        <ele>1087</ele>
        <time>2022-04-14T10:02:12.000Z</time>
      </trkpt>
      <trkpt lat="39.529814422130585" lon="-4.319358570501208">
        <ele>1086.6</ele>
        <time>2022-04-14T10:02:14.000Z</time>
      </trkpt>
      <trkpt lat="39.52981458976865" lon="-4.319366700947285">
        <ele>1086.6</ele>
        <time>2022-04-14T10:02:15.000Z</time>
      </trkpt>
      <trkpt lat="39.529812494292855" lon="-4.319396540522575">
        <ele>1086.2</ele>
        <time>2022-04-14T10:02:18.000Z</time>
      </trkpt>
      <trkpt lat="39.529842752963305" lon="-4.319448256865144">
        <ele>1085.4</ele>
        <time>2022-04-14T10:02:23.000Z</time>
      </trkpt>
      <trkpt lat="39.52985138632357" lon="-4.319462925195694">
        <ele>1085</ele>
        <time>2022-04-14T10:02:25.000Z</time>
      </trkpt>
      <trkpt lat="39.52988558448851" lon="-4.319497123360634">
        <ele>1084.4</ele>
        <time>2022-04-14T10:02:29.000Z</time>
      </trkpt>
      <trkpt lat="39.52991642989218" lon="-4.31952428072691">
        <ele>1083.8</ele>
        <time>2022-04-14T10:02:32.000Z</time>
      </trkpt>
      <trkpt lat="39.52993394806981" lon="-4.319549007341266">
        <ele>1083.6</ele>
        <time>2022-04-14T10:02:35.000Z</time>
      </trkpt>
      <trkpt lat="39.52994224615395" lon="-4.319572225213051">
        <ele>1083.4</ele>
        <time>2022-04-14T10:02:37.000Z</time>
      </trkpt>
      <trkpt lat="39.52994920313358" lon="-4.319582870230079">
        <ele>1083.4</ele>
        <time>2022-04-14T10:02:38.000Z</time>
      </trkpt>
      <trkpt lat="39.52995331026614" lon="-4.319592760875821">
        <ele>1083.2</ele>
        <time>2022-04-14T10:02:39.000Z</time>
      </trkpt>
      <trkpt lat="39.529975689947605" lon="-4.319626288488507">
        <ele>1083</ele>
        <time>2022-04-14T10:02:42.000Z</time>
      </trkpt>
      <trkpt lat="39.53000435605645" lon="-4.319667024537921">
        <ele>1082.6</ele>
        <time>2022-04-14T10:02:46.000Z</time>
      </trkpt>
      <trkpt lat="39.53003796748817" lon="-4.319687811657786">
        <ele>1082</ele>
        <time>2022-04-14T10:02:50.000Z</time>
      </trkpt>
      <trkpt lat="39.530047019943595" lon="-4.319696193560958">
        <ele>1081.6</ele>
        <time>2022-04-14T10:02:52.000Z</time>
      </trkpt>
      <trkpt lat="39.530055318027735" lon="-4.319701977074146">
        <ele>1081.4</ele>
        <time>2022-04-14T10:02:54.000Z</time>
      </trkpt>
      <trkpt lat="39.530073925852776" lon="-4.319703821092844">
        <ele>1081.6</ele>
        <time>2022-04-14T10:02:56.000Z</time>
      </trkpt>
      <trkpt lat="39.53008926473558" lon="-4.319719411432743">
        <ele>1081.8</ele>
        <time>2022-04-14T10:03:00.000Z</time>
      </trkpt>
      <trkpt lat="39.530092952772975" lon="-4.319722764194012">
        <ele>1081.8</ele>
        <time>2022-04-14T10:03:01.000Z</time>
      </trkpt>
      <trkpt lat="39.53010720200837" lon="-4.319753609597683">
        <ele>1081.6</ele>
        <time>2022-04-14T10:03:05.000Z</time>
      </trkpt>
      <trkpt lat="39.53012706711888" lon="-4.319770624861121">
        <ele>1081.6</ele>
        <time>2022-04-14T10:03:07.000Z</time>
      </trkpt>
      <trkpt lat="39.53012438490987" lon="-4.319775151088834">
        <ele>1081.6</ele>
        <time>2022-04-14T10:03:08.000Z</time>
      </trkpt>
      <trkpt lat="39.53013343736529" lon="-4.319782108068466">
        <ele>1081.8</ele>
        <time>2022-04-14T10:03:09.000Z</time>
      </trkpt>
      <trkpt lat="39.5301937032491" lon="-4.319855533540249">
        <ele>1082.4</ele>
        <time>2022-04-14T10:03:17.000Z</time>
      </trkpt>
      <trkpt lat="39.53020300716162" lon="-4.319864585995674">
        <ele>1082.4</ele>
        <time>2022-04-14T10:03:18.000Z</time>
      </trkpt>
      <trkpt lat="39.53024483285844" lon="-4.3198824394494295">
        <ele>1082.6</ele>
        <time>2022-04-14T10:03:22.000Z</time>
      </trkpt>
      <trkpt lat="39.53025690279901" lon="-4.319905489683151">
        <ele>1082.8</ele>
        <time>2022-04-14T10:03:24.000Z</time>
      </trkpt>
      <trkpt lat="39.5302817132324" lon="-4.319922169670463">
        <ele>1083</ele>
        <time>2022-04-14T10:03:28.000Z</time>
      </trkpt>
      <trkpt lat="39.530289927497506" lon="-4.319932060316205">
        <ele>1083</ele>
        <time>2022-04-14T10:03:29.000Z</time>
      </trkpt>
      <trkpt lat="39.53029596246779" lon="-4.319954691454768">
        <ele>1083</ele>
        <time>2022-04-14T10:03:30.000Z</time>
      </trkpt>
      <trkpt lat="39.53030333854258" lon="-4.3199678510427475">
        <ele>1083</ele>
        <time>2022-04-14T10:03:31.000Z</time>
      </trkpt>
      <trkpt lat="39.53030467964709" lon="-4.320008419454098">
        <ele>1083</ele>
        <time>2022-04-14T10:03:33.000Z</time>
      </trkpt>
      <trkpt lat="39.5303197670728" lon="-4.320080587640405">
        <ele>1083.4</ele>
        <time>2022-04-14T10:03:38.000Z</time>
      </trkpt>
      <trkpt lat="39.53034935519099" lon="-4.320124927908182">
        <ele>1083.8</ele>
        <time>2022-04-14T10:03:42.000Z</time>
      </trkpt>
      <trkpt lat="39.53035329468548" lon="-4.320168849080801">
        <ele>1083.6</ele>
        <time>2022-04-14T10:03:46.000Z</time>
      </trkpt>
      <trkpt lat="39.530375422909856" lon="-4.3202046398073435">
        <ele>1083.6</ele>
        <time>2022-04-14T10:03:50.000Z</time>
      </trkpt>
      <trkpt lat="39.530385648831725" lon="-4.320219308137894">
        <ele>1083.6</ele>
        <time>2022-04-14T10:03:52.000Z</time>
      </trkpt>
      <trkpt lat="39.53039453364909" lon="-4.3202258460223675">
        <ele>1083.6</ele>
        <time>2022-04-14T10:03:53.000Z</time>
      </trkpt>
      <trkpt lat="39.53042630106211" lon="-4.320299439132214">
        <ele>1083.4</ele>
        <time>2022-04-14T10:04:01.000Z</time>
      </trkpt>
      <trkpt lat="39.5304941944778" lon="-4.320389712229371">
        <ele>1083.4</ele>
        <time>2022-04-14T10:04:09.000Z</time>
      </trkpt>
      <trkpt lat="39.53051305375993" lon="-4.320413516834378">
        <ele>1083.2</ele>
        <time>2022-04-14T10:04:11.000Z</time>
      </trkpt>
      <trkpt lat="39.53055437654257" lon="-4.32046540081501">
        <ele>1082.8</ele>
        <time>2022-04-14T10:04:16.000Z</time>
      </trkpt>
      <trkpt lat="39.53056577593088" lon="-4.320484008640051">
        <ele>1082.4</ele>
        <time>2022-04-14T10:04:18.000Z</time>
      </trkpt>
      <trkpt lat="39.530578181147575" lon="-4.320506472140551">
        <ele>1082.2</ele>
        <time>2022-04-14T10:04:20.000Z</time>
      </trkpt>
      <trkpt lat="39.53061405569315" lon="-4.320552488788962">
        <ele>1082</ele>
        <time>2022-04-14T10:04:24.000Z</time>
      </trkpt>
      <trkpt lat="39.530627466738224" lon="-4.320573778823018">
        <ele>1081.6</ele>
        <time>2022-04-14T10:04:26.000Z</time>
      </trkpt>
      <trkpt lat="39.53064339235425" lon="-4.320609401911497">
        <ele>1080.8</ele>
        <time>2022-04-14T10:04:30.000Z</time>
      </trkpt>
      <trkpt lat="39.53065009787679" lon="-4.320633457973599">
        <ele>1080.4</ele>
        <time>2022-04-14T10:04:32.000Z</time>
      </trkpt>
      <trkpt lat="39.53065311536193" lon="-4.320644522085786">
        <ele>1080.2</ele>
        <time>2022-04-14T10:04:33.000Z</time>
      </trkpt>
      <trkpt lat="39.53066669404507" lon="-4.320683078840375">
        <ele>1079.6</ele>
        <time>2022-04-14T10:04:37.000Z</time>
      </trkpt>
      <trkpt lat="39.530681278556585" lon="-4.320723647251725">
        <ele>1079.4</ele>
        <time>2022-04-14T10:04:40.000Z</time>
      </trkpt>
      <trkpt lat="39.53069016337395" lon="-4.320788020268083">
        <ele>1078.8</ele>
        <time>2022-04-14T10:04:45.000Z</time>
      </trkpt>
      <trkpt lat="39.53069175593555" lon="-4.320794893428683">
        <ele>1078.6</ele>
        <time>2022-04-14T10:04:46.000Z</time>
      </trkpt>
      <trkpt lat="39.530697455629706" lon="-4.320825487375259">
        <ele>1078.4</ele>
        <time>2022-04-14T10:04:50.000Z</time>
      </trkpt>
      <trkpt lat="39.53070432879031" lon="-4.320828588679433">
        <ele>1078.2</ele>
        <time>2022-04-14T10:04:51.000Z</time>
      </trkpt>
      <trkpt lat="39.53072058968246" lon="-4.320857003331184">
        <ele>1077.4</ele>
        <time>2022-04-14T10:04:56.000Z</time>
      </trkpt>
      <trkpt lat="39.530724696815014" lon="-4.320868318900466">
        <ele>1076.8</ele>
        <time>2022-04-14T10:04:58.000Z</time>
      </trkpt>
      <trkpt lat="39.530732072889805" lon="-4.320883071050048">
        <ele>1076.4</ele>
        <time>2022-04-14T10:05:00.000Z</time>
      </trkpt>
      <trkpt lat="39.53073374927044" lon="-4.3209093902260065">
        <ele>1076</ele>
        <time>2022-04-14T10:05:03.000Z</time>
      </trkpt>
      <trkpt lat="39.53075336292386" lon="-4.320943504571915">
        <ele>1075.6</ele>
        <time>2022-04-14T10:05:07.000Z</time>
      </trkpt>
      <trkpt lat="39.53074942342937" lon="-4.320978038012981">
        <ele>1075.4</ele>
        <time>2022-04-14T10:05:11.000Z</time>
      </trkpt>
      <trkpt lat="39.53079678118229" lon="-4.321052553132176">
        <ele>1074.8</ele>
        <time>2022-04-14T10:05:14.000Z</time>
      </trkpt>
      <trkpt lat="39.53080859966576" lon="-4.321098485961556">
        <ele>1074.4</ele>
        <time>2022-04-14T10:05:18.000Z</time>
      </trkpt>
      <trkpt lat="39.53082703985274" lon="-4.321137713268399">
        <ele>1073.6</ele>
        <time>2022-04-14T10:05:22.000Z</time>
      </trkpt>
      <trkpt lat="39.530840953812" lon="-4.321152465417981">
        <ele>1073.2</ele>
        <time>2022-04-14T10:05:24.000Z</time>
      </trkpt>
      <trkpt lat="39.530875319615006" lon="-4.321197476238012">
        <ele>1072.2</ele>
        <time>2022-04-14T10:05:29.000Z</time>
      </trkpt>
      <trkpt lat="39.530890826135874" lon="-4.321208288893104">
        <ele>1071.4</ele>
        <time>2022-04-14T10:05:33.000Z</time>
      </trkpt>
      <trkpt lat="39.53089032322168" lon="-4.321213150396943">
        <ele>1071.4</ele>
        <time>2022-04-14T10:05:34.000Z</time>
      </trkpt>
      <trkpt lat="39.530888982117176" lon="-4.321219269186258">
        <ele>1071.2</ele>
        <time>2022-04-14T10:05:36.000Z</time>
      </trkpt>
      <trkpt lat="39.5308980345726" lon="-4.3212345242500305">
        <ele>1071</ele>
        <time>2022-04-14T10:05:38.000Z</time>
      </trkpt>
      <trkpt lat="39.53092326410115" lon="-4.3212745897471905">
        <ele>1070.4</ele>
        <time>2022-04-14T10:05:44.000Z</time>
      </trkpt>
      <trkpt lat="39.530926030129194" lon="-4.321278864517808">
        <ele>1070</ele>
        <time>2022-04-14T10:05:46.000Z</time>
      </trkpt>
      <trkpt lat="39.53094396740198" lon="-4.321297891438007">
        <ele>1069.6</ele>
        <time>2022-04-14T10:05:49.000Z</time>
      </trkpt>
      <trkpt lat="39.530947068706155" lon="-4.321300908923149">
        <ele>1069.6</ele>
        <time>2022-04-14T10:05:50.000Z</time>
      </trkpt>
      <trkpt lat="39.53098068013787" lon="-4.321333849802613">
        <ele>1068.8</ele>
        <time>2022-04-14T10:05:54.000Z</time>
      </trkpt>
      <trkpt lat="39.53099668957293" lon="-4.3213491048663855">
        <ele>1068.6</ele>
        <time>2022-04-14T10:05:56.000Z</time>
      </trkpt>
      <trkpt lat="39.53100297600031" lon="-4.321364443749189">
        <ele>1068.2</ele>
        <time>2022-04-14T10:05:58.000Z</time>
      </trkpt>
      <trkpt lat="39.531006161123514" lon="-4.3213714845478535">
        <ele>1068</ele>
        <time>2022-04-14T10:05:59.000Z</time>
      </trkpt>
      <trkpt lat="39.5310103520751" lon="-4.321385566145182">
        <ele>1067.8</ele>
        <time>2022-04-14T10:06:01.000Z</time>
      </trkpt>
      <trkpt lat="39.531019404530525" lon="-4.321435941383243">
        <ele>1067</ele>
        <time>2022-04-14T10:06:06.000Z</time>
      </trkpt>
      <trkpt lat="39.53102166764438" lon="-4.321445161476731">
        <ele>1066.8</ele>
        <time>2022-04-14T10:06:07.000Z</time>
      </trkpt>
      <trkpt lat="39.53102686442435" lon="-4.321468295529485">
        <ele>1066.4</ele>
        <time>2022-04-14T10:06:09.000Z</time>
      </trkpt>
      <trkpt lat="39.531031558290124" lon="-4.321504170075059">
        <ele>1066</ele>
        <time>2022-04-14T10:06:12.000Z</time>
      </trkpt>
      <trkpt lat="39.53102611005306" lon="-4.321514395996928">
        <ele>1065.8</ele>
        <time>2022-04-14T10:06:13.000Z</time>
      </trkpt>
      <trkpt lat="39.531022841110826" lon="-4.321531914174557">
        <ele>1065.6</ele>
        <time>2022-04-14T10:06:15.000Z</time>
      </trkpt>
      <trkpt lat="39.5310275349766" lon="-4.321548594161868">
        <ele>1065.2</ele>
        <time>2022-04-14T10:06:17.000Z</time>
      </trkpt>
      <trkpt lat="39.53103180974722" lon="-4.3215693812817335">
        <ele>1064.8</ele>
        <time>2022-04-14T10:06:19.000Z</time>
      </trkpt>
      <trkpt lat="39.53104505315423" lon="-4.321594443172216">
        <ele>1064.6</ele>
        <time>2022-04-14T10:06:21.000Z</time>
      </trkpt>
      <trkpt lat="39.531051591038704" lon="-4.321627384051681">
        <ele>1064.4</ele>
        <time>2022-04-14T10:06:23.000Z</time>
      </trkpt>
      <trkpt lat="39.53103834763169" lon="-4.321687063202262">
        <ele>1063.6</ele>
        <time>2022-04-14T10:06:28.000Z</time>
      </trkpt>
      <trkpt lat="39.531036922708154" lon="-4.321693014353514">
        <ele>1063.4</ele>
        <time>2022-04-14T10:06:29.000Z</time>
      </trkpt>
      <trkpt lat="39.531038515269756" lon="-4.3217086885124445">
        <ele>1063</ele>
        <time>2022-04-14T10:06:31.000Z</time>
      </trkpt>
      <trkpt lat="39.531040862202644" lon="-4.321722434833646">
        <ele>1062.8</ele>
        <time>2022-04-14T10:06:32.000Z</time>
      </trkpt>
      <trkpt lat="39.531049244105816" lon="-4.321739366278052">
        <ele>1062.4</ele>
        <time>2022-04-14T10:06:34.000Z</time>
      </trkpt>
      <trkpt lat="39.531065840274096" lon="-4.321793681010604">
        <ele>1061.8</ele>
        <time>2022-04-14T10:06:39.000Z</time>
      </trkpt>
      <trkpt lat="39.53107765875757" lon="-4.321819161996245">
        <ele>1061.6</ele>
        <time>2022-04-14T10:06:41.000Z</time>
      </trkpt>
      <trkpt lat="39.531083945184946" lon="-4.3218429666012526">
        <ele>1061.4</ele>
        <time>2022-04-14T10:06:43.000Z</time>
      </trkpt>
      <trkpt lat="39.53108746558428" lon="-4.321907926350832">
        <ele>1060.6</ele>
        <time>2022-04-14T10:06:49.000Z</time>
      </trkpt>
      <trkpt lat="39.53108319081366" lon="-4.321930222213268">
        <ele>1060.4</ele>
        <time>2022-04-14T10:06:51.000Z</time>
      </trkpt>
      <trkpt lat="39.5310898963362" lon="-4.321930557489395">
        <ele>1060.4</ele>
        <time>2022-04-14T10:06:52.000Z</time>
      </trkpt>
      <trkpt lat="39.53109693713486" lon="-4.321925779804587">
        <ele>1060.4</ele>
        <time>2022-04-14T10:06:55.000Z</time>
      </trkpt>
      <trkpt lat="39.53109844587743" lon="-4.321925193071365">
        <ele>1060.4</ele>
        <time>2022-04-14T10:06:56.000Z</time>
      </trkpt>
      <trkpt lat="39.531094171106815" lon="-4.321927623823285">
        <ele>1060.4</ele>
        <time>2022-04-14T10:06:59.000Z</time>
      </trkpt>
      <trkpt lat="39.53107715584338" lon="-4.321971042081714">
        <ele>1059.8</ele>
        <time>2022-04-14T10:07:03.000Z</time>
      </trkpt>
      <trkpt lat="39.53107187524438" lon="-4.322020243853331">
        <ele>1059.2</ele>
        <time>2022-04-14T10:07:07.000Z</time>
      </trkpt>
      <trkpt lat="39.53106475062668" lon="-4.322048658505082">
        <ele>1058.6</ele>
        <time>2022-04-14T10:07:10.000Z</time>
      </trkpt>
      <trkpt lat="39.53106156550348" lon="-4.322090316563845">
        <ele>1058.4</ele>
        <time>2022-04-14T10:07:13.000Z</time>
      </trkpt>
      <trkpt lat="39.53106123022735" lon="-4.32213650085032">
        <ele>1058.2</ele>
        <time>2022-04-14T10:07:16.000Z</time>
      </trkpt>
      <trkpt lat="39.53106081113219" lon="-4.322163071483374">
        <ele>1058</ele>
        <time>2022-04-14T10:07:18.000Z</time>
      </trkpt>
      <trkpt lat="39.53106257133186" lon="-4.322201292961836">
        <ele>1057.8</ele>
        <time>2022-04-14T10:07:20.000Z</time>
      </trkpt>
      <trkpt lat="39.53105586580932" lon="-4.322246219962835">
        <ele>1057.2</ele>
        <time>2022-04-14T10:07:24.000Z</time>
      </trkpt>
      <trkpt lat="39.53105536289513" lon="-4.322255440056324">
        <ele>1057</ele>
        <time>2022-04-14T10:07:25.000Z</time>
      </trkpt>
      <trkpt lat="39.53106248751283" lon="-4.32227773591876">
        <ele>1056.8</ele>
        <time>2022-04-14T10:07:28.000Z</time>
      </trkpt>
      <trkpt lat="39.53106449916959" lon="-4.322303049266338">
        <ele>1056.8</ele>
        <time>2022-04-14T10:07:31.000Z</time>
      </trkpt>
      <trkpt lat="39.53106164932251" lon="-4.32232559658587">
        <ele>1056.6</ele>
        <time>2022-04-14T10:07:33.000Z</time>
      </trkpt>
      <trkpt lat="39.53105913475156" lon="-4.322345210239291">
        <ele>1056.6</ele>
        <time>2022-04-14T10:07:35.000Z</time>
      </trkpt>
      <trkpt lat="39.531040862202644" lon="-4.322372451424599">
        <ele>1056</ele>
        <time>2022-04-14T10:07:39.000Z</time>
      </trkpt>
      <trkpt lat="39.53103289939463" lon="-4.3223916459828615">
        <ele>1055.6</ele>
        <time>2022-04-14T10:07:41.000Z</time>
      </trkpt>
      <trkpt lat="39.53102502040565" lon="-4.322407487779856">
        <ele>1054.8</ele>
        <time>2022-04-14T10:07:45.000Z</time>
      </trkpt>
      <trkpt lat="39.531017979606986" lon="-4.322427352890372">
        <ele>1054.6</ele>
        <time>2022-04-14T10:07:48.000Z</time>
      </trkpt>
      <trkpt lat="39.5309981983155" lon="-4.322470016777515">
        <ele>1053.8</ele>
        <time>2022-04-14T10:07:52.000Z</time>
      </trkpt>
      <trkpt lat="39.53099182806909" lon="-4.322481080889702">
        <ele>1053.6</ele>
        <time>2022-04-14T10:07:53.000Z</time>
      </trkpt>
      <trkpt lat="39.53099283389747" lon="-4.322497425600886">
        <ele>1053.4</ele>
        <time>2022-04-14T10:07:55.000Z</time>
      </trkpt>
      <trkpt lat="39.530986631289124" lon="-4.322518464177847">
        <ele>1052.8</ele>
        <time>2022-04-14T10:07:57.000Z</time>
      </trkpt>
      <trkpt lat="39.530984200537205" lon="-4.322532461956143">
        <ele>1052.6</ele>
        <time>2022-04-14T10:07:58.000Z</time>
      </trkpt>
      <trkpt lat="39.53097472898662" lon="-4.322600942105055">
        <ele>1052</ele>
        <time>2022-04-14T10:08:03.000Z</time>
      </trkpt>
      <trkpt lat="39.53096785582602" lon="-4.322610665112734">
        <ele>1051.6</ele>
        <time>2022-04-14T10:08:05.000Z</time>
      </trkpt>
      <trkpt lat="39.53096651472151" lon="-4.322616616263986">
        <ele>1051.2</ele>
        <time>2022-04-14T10:08:07.000Z</time>
      </trkpt>
      <trkpt lat="39.53096240758896" lon="-4.322634469717741">
        <ele>1051</ele>
        <time>2022-04-14T10:08:10.000Z</time>
      </trkpt>
      <trkpt lat="39.53096089884639" lon="-4.322643019258976">
        <ele>1051</ele>
        <time>2022-04-14T10:08:11.000Z</time>
      </trkpt>
      <trkpt lat="39.53093851916492" lon="-4.322670763358474">
        <ele>1050.4</ele>
        <time>2022-04-14T10:08:15.000Z</time>
      </trkpt>
      <trkpt lat="39.530916810035706" lon="-4.322706218808889">
        <ele>1049.8</ele>
        <time>2022-04-14T10:08:19.000Z</time>
      </trkpt>
      <trkpt lat="39.5309117808938" lon="-4.32274972088635">
        <ele>1049.4</ele>
        <time>2022-04-14T10:08:22.000Z</time>
      </trkpt>
      <trkpt lat="39.530899627134204" lon="-4.322756174951792">
        <ele>1049</ele>
        <time>2022-04-14T10:08:23.000Z</time>
      </trkpt>
      <trkpt lat="39.5308826956898" lon="-4.322750475257635">
        <ele>1048.6</ele>
        <time>2022-04-14T10:08:25.000Z</time>
      </trkpt>
      <trkpt lat="39.5308739785105" lon="-4.32275022380054">
        <ele>1048.2</ele>
        <time>2022-04-14T10:08:26.000Z</time>
      </trkpt>
      <trkpt lat="39.5308739785105" lon="-4.32275022380054">
        <ele>1048.2</ele>
        <time>2022-04-14T10:08:28.000Z</time>
      </trkpt>
      <trkpt lat="39.530852269381285" lon="-4.322772100567818">
        <ele>1047.8</ele>
        <time>2022-04-14T10:08:34.000Z</time>
      </trkpt>
      <trkpt lat="39.53084422275424" lon="-4.322783499956131">
        <ele>1047.6</ele>
        <time>2022-04-14T10:08:38.000Z</time>
      </trkpt>
      <trkpt lat="39.53084371984005" lon="-4.322800096124411">
        <ele>1047.6</ele>
        <time>2022-04-14T10:08:40.000Z</time>
      </trkpt>
      <trkpt lat="39.53084749169648" lon="-4.322836557403207">
        <ele>1047</ele>
        <time>2022-04-14T10:08:44.000Z</time>
      </trkpt>
      <trkpt lat="39.53082477673888" lon="-4.322858015075326">
        <ele>1046.4</ele>
        <time>2022-04-14T10:08:46.000Z</time>
      </trkpt>
      <trkpt lat="39.5308168977499" lon="-4.322865474969149">
        <ele>1046.4</ele>
        <time>2022-04-14T10:08:47.000Z</time>
      </trkpt>
      <trkpt lat="39.53079326078296" lon="-4.322880394756794">
        <ele>1045.8</ele>
        <time>2022-04-14T10:08:50.000Z</time>
      </trkpt>
      <trkpt lat="39.53078965656459" lon="-4.322905791923404">
        <ele>1045.2</ele>
        <time>2022-04-14T10:08:55.000Z</time>
      </trkpt>
      <trkpt lat="39.53079669736326" lon="-4.322918616235256">
        <ele>1044.6</ele>
        <time>2022-04-14T10:08:58.000Z</time>
      </trkpt>
      <trkpt lat="39.53080331906676" lon="-4.3229647167027">
        <ele>1044</ele>
        <time>2022-04-14T10:09:04.000Z</time>
      </trkpt>
      <trkpt lat="39.53081781975925" lon="-4.323030514642596">
        <ele>1043.6</ele>
        <time>2022-04-14T10:09:10.000Z</time>
      </trkpt>
      <trkpt lat="39.53081798739731" lon="-4.323038142174482">
        <ele>1043.4</ele>
        <time>2022-04-14T10:09:11.000Z</time>
      </trkpt>
      <trkpt lat="39.53082712367177" lon="-4.323146101087332">
        <ele>1042.8</ele>
        <time>2022-04-14T10:09:18.000Z</time>
      </trkpt>
      <trkpt lat="39.53083508647978" lon="-4.3231759406626225">
        <ele>1042.4</ele>
        <time>2022-04-14T10:09:19.000Z</time>
      </trkpt>
      <trkpt lat="39.5308272074908" lon="-4.3232156708836555">
        <ele>1042</ele>
        <time>2022-04-14T10:09:21.000Z</time>
      </trkpt>
      <trkpt lat="39.5308324880898" lon="-4.323309129104018">
        <ele>1041.4</ele>
        <time>2022-04-14T10:09:26.000Z</time>
      </trkpt>
      <trkpt lat="39.53082703985274" lon="-4.323336286470294">
        <ele>1041</ele>
        <time>2022-04-14T10:09:28.000Z</time>
      </trkpt>
      <trkpt lat="39.530816646292806" lon="-4.323370987549424">
        <ele>1040.4</ele>
        <time>2022-04-14T10:09:32.000Z</time>
      </trkpt>
      <trkpt lat="39.53081723302603" lon="-4.323383728042245">
        <ele>1040.2</ele>
        <time>2022-04-14T10:09:33.000Z</time>
      </trkpt>
      <trkpt lat="39.53082729130983" lon="-4.323406275361776">
        <ele>1039.8</ele>
        <time>2022-04-14T10:09:36.000Z</time>
      </trkpt>
      <trkpt lat="39.530848329886794" lon="-4.323427984490991">
        <ele>1039</ele>
        <time>2022-04-14T10:09:40.000Z</time>
      </trkpt>
      <trkpt lat="39.53086509369314" lon="-4.323425134643912">
        <ele>1038.8</ele>
        <time>2022-04-14T10:09:44.000Z</time>
      </trkpt>
      <trkpt lat="39.53086777590215" lon="-4.3234489392489195">
        <ele>1039</ele>
        <time>2022-04-14T10:09:47.000Z</time>
      </trkpt>
      <trkpt lat="39.53089543618262" lon="-4.323471151292324">
        <ele>1039.2</ele>
        <time>2022-04-14T10:09:51.000Z</time>
      </trkpt>
      <trkpt lat="39.53090189024806" lon="-4.323472576215863">
        <ele>1039.2</ele>
        <time>2022-04-14T10:09:52.000Z</time>
      </trkpt>
      <trkpt lat="39.53090574592352" lon="-4.323477270081639">
        <ele>1039</ele>
        <time>2022-04-14T10:09:54.000Z</time>
      </trkpt>
      <trkpt lat="39.53093499876559" lon="-4.3234804552048445">
        <ele>1038.6</ele>
        <time>2022-04-14T10:10:00.000Z</time>
      </trkpt>
      <trkpt lat="39.53093986026943" lon="-4.323480203747749">
        <ele>1038.2</ele>
        <time>2022-04-14T10:10:02.000Z</time>
      </trkpt>
      <trkpt lat="39.53093667514622" lon="-4.323483053594828">
        <ele>1038</ele>
        <time>2022-04-14T10:10:03.000Z</time>
      </trkpt>
      <trkpt lat="39.53092636540532" lon="-4.323489256203175">
        <ele>1037.6</ele>
        <time>2022-04-14T10:10:05.000Z</time>
      </trkpt>
      <trkpt lat="39.5309204980731" lon="-4.323496799916029">
        <ele>1037.4</ele>
        <time>2022-04-14T10:10:07.000Z</time>
      </trkpt>
      <trkpt lat="39.530926616862416" lon="-4.323518173769116">
        <ele>1037</ele>
        <time>2022-04-14T10:10:12.000Z</time>
      </trkpt>
      <trkpt lat="39.530928460881114" lon="-4.32353644631803">
        <ele>1036.8</ele>
        <time>2022-04-14T10:10:14.000Z</time>
      </trkpt>
      <trkpt lat="39.530935417860746" lon="-4.323562597855926">
        <ele>1036.4</ele>
        <time>2022-04-14T10:10:21.000Z</time>
      </trkpt>
      <trkpt lat="39.53098068013787" lon="-4.323606183752418">
        <ele>1036.2</ele>
        <time>2022-04-14T10:10:25.000Z</time>
      </trkpt>
      <trkpt lat="39.53099719248712" lon="-4.32361364364624">
        <ele>1036.2</ele>
        <time>2022-04-14T10:10:27.000Z</time>
      </trkpt>
      <trkpt lat="39.530997443944216" lon="-4.323612553998828">
        <ele>1036.2</ele>
        <time>2022-04-14T10:10:28.000Z</time>
      </trkpt>
      <trkpt lat="39.5309947617352" lon="-4.3236153200268745">
        <ele>1036</ele>
        <time>2022-04-14T10:10:30.000Z</time>
      </trkpt>
      <trkpt lat="39.53101177699864" lon="-4.323671143501997">
        <ele>1035.4</ele>
        <time>2022-04-14T10:10:35.000Z</time>
      </trkpt>
      <trkpt lat="39.53104899264872" lon="-4.323738534003496">
        <ele>1035</ele>
        <time>2022-04-14T10:10:41.000Z</time>
      </trkpt>
      <trkpt lat="39.53105226159096" lon="-4.323750017210841">
        <ele>1034.8</ele>
        <time>2022-04-14T10:10:42.000Z</time>
      </trkpt>
      <trkpt lat="39.53105201013386" lon="-4.323764853179455">
        <ele>1034.8</ele>
        <time>2022-04-14T10:10:43.000Z</time>
      </trkpt>
      <trkpt lat="39.531051674857736" lon="-4.323828723281622">
        <ele>1034.4</ele>
        <time>2022-04-14T10:10:48.000Z</time>
      </trkpt>
      <trkpt lat="39.53104295767844" lon="-4.3238618317991495">
        <ele>1034.2</ele>
        <time>2022-04-14T10:10:51.000Z</time>
      </trkpt>
      <trkpt lat="39.53103776089847" lon="-4.3239030707627535">
        <ele>1034</ele>
        <time>2022-04-14T10:10:55.000Z</time>
      </trkpt>
      <trkpt lat="39.53104790300131" lon="-4.323908938094974">
        <ele>1033.8</ele>
        <time>2022-04-14T10:10:56.000Z</time>
      </trkpt>
      <trkpt lat="39.53107036650181" lon="-4.3239466566592455">
        <ele>1033</ele>
        <time>2022-04-14T10:11:00.000Z</time>
      </trkpt>
      <trkpt lat="39.53107472509146" lon="-4.3239540327340364">
        <ele>1032.8</ele>
        <time>2022-04-14T10:11:01.000Z</time>
      </trkpt>
      <trkpt lat="39.5310793351382" lon="-4.323960822075605">
        <ele>1032.6</ele>
        <time>2022-04-14T10:11:02.000Z</time>
      </trkpt>
      <trkpt lat="39.53109425492585" lon="-4.3239999655634165">
        <ele>1032.2</ele>
        <time>2022-04-14T10:11:06.000Z</time>
      </trkpt>
      <trkpt lat="39.53110615722835" lon="-4.324029302224517">
        <ele>1032</ele>
        <time>2022-04-14T10:11:10.000Z</time>
      </trkpt>
      <trkpt lat="39.531115209683776" lon="-4.32404950261116">
        <ele>1031.6</ele>
        <time>2022-04-14T10:11:12.000Z</time>
      </trkpt>
      <trkpt lat="39.531120993196964" lon="-4.324056962504983">
        <ele>1031.4</ele>
        <time>2022-04-14T10:11:13.000Z</time>
      </trkpt>
      <trkpt lat="39.53112434595823" lon="-4.324076157063246">
        <ele>1030.8</ele>
        <time>2022-04-14T10:11:15.000Z</time>
      </trkpt>
      <trkpt lat="39.531148402020335" lon="-4.324092166498303">
        <ele>1030.4</ele>
        <time>2022-04-14T10:11:17.000Z</time>
      </trkpt>
      <trkpt lat="39.53122937120497" lon="-4.3241272028535604">
        <ele>1029.8</ele>
        <time>2022-04-14T10:11:22.000Z</time>
      </trkpt>
      <trkpt lat="39.53123121522367" lon="-4.324137261137366">
        <ele>1029.4</ele>
        <time>2022-04-14T10:11:24.000Z</time>
      </trkpt>
      <trkpt lat="39.53127672895789" lon="-4.324186714366078">
        <ele>1028.2</ele>
        <time>2022-04-14T10:11:29.000Z</time>
      </trkpt>
      <trkpt lat="39.531282344833016" lon="-4.3242063280195">
        <ele>1027.8</ele>
        <time>2022-04-14T10:11:31.000Z</time>
      </trkpt>
      <trkpt lat="39.53127915970981" lon="-4.324211021885276">
        <ele>1027.6</ele>
        <time>2022-04-14T10:11:32.000Z</time>
      </trkpt>
      <trkpt lat="39.53127823770046" lon="-4.324223510921001">
        <ele>1027.6</ele>
        <time>2022-04-14T10:11:33.000Z</time>
      </trkpt>
      <trkpt lat="39.5312780700624" lon="-4.324263157323003">
        <ele>1027</ele>
        <time>2022-04-14T10:11:36.000Z</time>
      </trkpt>
      <trkpt lat="39.53127320855856" lon="-4.324273886159062">
        <ele>1026.8</ele>
        <time>2022-04-14T10:11:37.000Z</time>
      </trkpt>
      <trkpt lat="39.53126742504537" lon="-4.32430163025856">
        <ele>1026.6</ele>
        <time>2022-04-14T10:11:39.000Z</time>
      </trkpt>
      <trkpt lat="39.53126038424671" lon="-4.3243159633129835">
        <ele>1026.4</ele>
        <time>2022-04-14T10:11:40.000Z</time>
      </trkpt>
      <trkpt lat="39.53125317580998" lon="-4.324352592229843">
        <ele>1026</ele>
        <time>2022-04-14T10:11:43.000Z</time>
      </trkpt>
      <trkpt lat="39.53125518746674" lon="-4.324360806494951">
        <ele>1025.8</ele>
        <time>2022-04-14T10:11:44.000Z</time>
      </trkpt>
      <trkpt lat="39.531250493600965" lon="-4.324383772909641">
        <ele>1025.2</ele>
        <time>2022-04-14T10:11:47.000Z</time>
      </trkpt>
      <trkpt lat="39.531251499429345" lon="-4.324389724060893">
        <ele>1025</ele>
        <time>2022-04-14T10:11:48.000Z</time>
      </trkpt>
      <trkpt lat="39.531283266842365" lon="-4.324421575292945">
        <ele>1023.8</ele>
        <time>2022-04-14T10:11:53.000Z</time>
      </trkpt>
      <trkpt lat="39.53128980472684" lon="-4.324433645233512">
        <ele>1023.6</ele>
        <time>2022-04-14T10:11:55.000Z</time>
      </trkpt>
      <trkpt lat="39.53128200955689" lon="-4.32447656057775">
        <ele>1023</ele>
        <time>2022-04-14T10:12:00.000Z</time>
      </trkpt>
      <trkpt lat="39.53127865679562" lon="-4.324479578062892">
        <ele>1023</ele>
        <time>2022-04-14T10:12:01.000Z</time>
      </trkpt>
      <trkpt lat="39.531277399510145" lon="-4.324481254443526">
        <ele>1022.8</ele>
        <time>2022-04-14T10:12:02.000Z</time>
      </trkpt>
      <trkpt lat="39.531295001506805" lon="-4.3244843557477">
        <ele>1022.6</ele>
        <time>2022-04-14T10:12:06.000Z</time>
      </trkpt>
      <trkpt lat="39.531299443915486" lon="-4.3244908936321735">
        <ele>1022.6</ele>
        <time>2022-04-14T10:12:07.000Z</time>
      </trkpt>
      <trkpt lat="39.531300868839025" lon="-4.324512016028166">
        <ele>1022.2</ele>
        <time>2022-04-14T10:12:10.000Z</time>
      </trkpt>
      <trkpt lat="39.53128829598427" lon="-4.324531378224492">
        <ele>1021.8</ele>
        <time>2022-04-14T10:12:14.000Z</time>
      </trkpt>
      <trkpt lat="39.531289050355554" lon="-4.324551159515977">
        <ele>1021.4</ele>
        <time>2022-04-14T10:12:17.000Z</time>
      </trkpt>
      <trkpt lat="39.53129810281098" lon="-4.324582256376743">
        <ele>1020.8</ele>
        <time>2022-04-14T10:12:21.000Z</time>
      </trkpt>
      <trkpt lat="39.531279411166906" lon="-4.324617041274905">
        <ele>1020</ele>
        <time>2022-04-14T10:12:25.000Z</time>
      </trkpt>
      <trkpt lat="39.53128536231816" lon="-4.324629530310631">
        <ele>1020</ele>
        <time>2022-04-14T10:12:33.000Z</time>
      </trkpt>
      <trkpt lat="39.53129231929779" lon="-4.324659621343017">
        <ele>1019.6</ele>
        <time>2022-04-14T10:12:41.000Z</time>
      </trkpt>
      <trkpt lat="39.531299443915486" lon="-4.324669176712632">
        <ele>1019.6</ele>
        <time>2022-04-14T10:12:42.000Z</time>
      </trkpt>
      <trkpt lat="39.531307658180594" lon="-4.324726928025484">
        <ele>1019.2</ele>
        <time>2022-04-14T10:12:46.000Z</time>
      </trkpt>
      <trkpt lat="39.53130464069545" lon="-4.324763221666217">
        <ele>1018.6</ele>
        <time>2022-04-14T10:12:48.000Z</time>
      </trkpt>
      <trkpt lat="39.53130103647709" lon="-4.324773447588086">
        <ele>1018.4</ele>
        <time>2022-04-14T10:12:49.000Z</time>
      </trkpt>
      <trkpt lat="39.53130112029612" lon="-4.324785517528653">
        <ele>1018.4</ele>
        <time>2022-04-14T10:12:50.000Z</time>
      </trkpt>
      <trkpt lat="39.53130841255188" lon="-4.324793564155698">
        <ele>1018.2</ele>
        <time>2022-04-14T10:12:51.000Z</time>
      </trkpt>
      <trkpt lat="39.531326266005635" lon="-4.3248101603239775">
        <ele>1018</ele>
        <time>2022-04-14T10:12:55.000Z</time>
      </trkpt>
      <trkpt lat="39.531332049518824" lon="-4.324807645753026">
        <ele>1017.8</ele>
        <time>2022-04-14T10:12:56.000Z</time>
      </trkpt>
      <trkpt lat="39.53133590519428" lon="-4.324810327962041">
        <ele>1017.6</ele>
        <time>2022-04-14T10:12:57.000Z</time>
      </trkpt>
      <trkpt lat="39.53133682720363" lon="-4.324816949665546">
        <ele>1017.4</ele>
        <time>2022-04-14T10:12:58.000Z</time>
      </trkpt>
      <trkpt lat="39.531355602666736" lon="-4.324838491156697">
        <ele>1016.8</ele>
        <time>2022-04-14T10:13:01.000Z</time>
      </trkpt>
      <trkpt lat="39.531369516626" lon="-4.324850561097264">
        <ele>1016.6</ele>
        <time>2022-04-14T10:13:03.000Z</time>
      </trkpt>
      <trkpt lat="39.53137530013919" lon="-4.324852824211121">
        <ele>1016.2</ele>
        <time>2022-04-14T10:13:06.000Z</time>
      </trkpt>
      <trkpt lat="39.531383430585265" lon="-4.3248560931533575">
        <ele>1016.2</ele>
        <time>2022-04-14T10:13:07.000Z</time>
      </trkpt>
      <trkpt lat="39.53139281831682" lon="-4.324862128123641">
        <ele>1016</ele>
        <time>2022-04-14T10:13:08.000Z</time>
      </trkpt>
      <trkpt lat="39.53142626211047" lon="-4.324881071224809">
        <ele>1015.4</ele>
        <time>2022-04-14T10:13:12.000Z</time>
      </trkpt>
      <trkpt lat="39.53146180137992" lon="-4.3248790595680475">
        <ele>1014.6</ele>
        <time>2022-04-14T10:13:16.000Z</time>
      </trkpt>
      <trkpt lat="39.53148392960429" lon="-4.324872940778732">
        <ele>1014.6</ele>
        <time>2022-04-14T10:13:18.000Z</time>
      </trkpt>
      <trkpt lat="39.531521229073405" lon="-4.324858272448182">
        <ele>1014.6</ele>
        <time>2022-04-14T10:13:22.000Z</time>
      </trkpt>
      <trkpt lat="39.531536819413304" lon="-4.324853578582406">
        <ele>1014.6</ele>
        <time>2022-04-14T10:13:23.000Z</time>
      </trkpt>
      <trkpt lat="39.53155173920095" lon="-4.324851902201772">
        <ele>1014.6</ele>
        <time>2022-04-14T10:13:24.000Z</time>
      </trkpt>
      <trkpt lat="39.53157797455788" lon="-4.324854165315628">
        <ele>1014.6</ele>
        <time>2022-04-14T10:13:27.000Z</time>
      </trkpt>
      <trkpt lat="39.53156632371247" lon="-4.324854668229818">
        <ele>1014.4</ele>
        <time>2022-04-14T10:13:30.000Z</time>
      </trkpt>
      <trkpt lat="39.5315629709512" lon="-4.3248543329536915">
        <ele>1014.6</ele>
        <time>2022-04-14T10:13:32.000Z</time>
      </trkpt>
      <trkpt lat="39.53158317133784" lon="-4.3248531594872475">
        <ele>1014.2</ele>
        <time>2022-04-14T10:13:35.000Z</time>
      </trkpt>
      <trkpt lat="39.531590044498444" lon="-4.324845364317298">
        <ele>1014.2</ele>
        <time>2022-04-14T10:13:37.000Z</time>
      </trkpt>
      <trkpt lat="39.53161812387407" lon="-4.324829941615462">
        <ele>1014</ele>
        <time>2022-04-14T10:13:42.000Z</time>
      </trkpt>
      <trkpt lat="39.53162801451981" lon="-4.324827175587416">
        <ele>1014</ele>
        <time>2022-04-14T10:13:43.000Z</time>
      </trkpt>
      <trkpt lat="39.53164125792682" lon="-4.324823236092925">
        <ele>1013.8</ele>
        <time>2022-04-14T10:13:44.000Z</time>
      </trkpt>
      <trkpt lat="39.53169439919293" lon="-4.324799347668886">
        <ele>1013.8</ele>
        <time>2022-04-14T10:13:50.000Z</time>
      </trkpt>
      <trkpt lat="39.53172323293984" lon="-4.324781326577067">
        <ele>1014</ele>
        <time>2022-04-14T10:13:53.000Z</time>
      </trkpt>
      <trkpt lat="39.53175835311413" lon="-4.324769927188754">
        <ele>1014</ele>
        <time>2022-04-14T10:13:55.000Z</time>
      </trkpt>
      <trkpt lat="39.53177712857723" lon="-4.3247692566365">
        <ele>1014</ele>
        <time>2022-04-14T10:13:56.000Z</time>
      </trkpt>
      <trkpt lat="39.531800178810954" lon="-4.324768586084247">
        <ele>1014</ele>
        <time>2022-04-14T10:13:58.000Z</time>
      </trkpt>
      <trkpt lat="39.531877459958196" lon="-4.324744027107954">
        <ele>1014</ele>
        <time>2022-04-14T10:14:05.000Z</time>
      </trkpt>
      <trkpt lat="39.53197636641562" lon="-4.324731035158038">
        <ele>1013.6</ele>
        <time>2022-04-14T10:14:13.000Z</time>
      </trkpt>
      <trkpt lat="39.53198508359492" lon="-4.324732376262546">
        <ele>1013.6</ele>
        <time>2022-04-14T10:14:14.000Z</time>
      </trkpt>
      <trkpt lat="39.53201995231211" lon="-4.324727933853865">
        <ele>1013</ele>
        <time>2022-04-14T10:14:19.000Z</time>
      </trkpt>
      <trkpt lat="39.532061610370874" lon="-4.324734220281243">
        <ele>1012</ele>
        <time>2022-04-14T10:14:25.000Z</time>
      </trkpt>
      <trkpt lat="39.53207133337855" lon="-4.324738411232829">
        <ele>1012</ele>
        <time>2022-04-14T10:14:26.000Z</time>
      </trkpt>
      <trkpt lat="39.53208130784333" lon="-4.324739081785083">
        <ele>1011.8</ele>
        <time>2022-04-14T10:14:27.000Z</time>
      </trkpt>
      <trkpt lat="39.5320999994874" lon="-4.324737321585417">
        <ele>1011.2</ele>
        <time>2022-04-14T10:14:30.000Z</time>
      </trkpt>
      <trkpt lat="39.53212455846369" lon="-4.324749391525984">
        <ele>1010.8</ele>
        <time>2022-04-14T10:14:32.000Z</time>
      </trkpt>
      <trkpt lat="39.532153559848666" lon="-4.324760288000107">
        <ele>1010.4</ele>
        <time>2022-04-14T10:14:35.000Z</time>
      </trkpt>
      <trkpt lat="39.53216152265668" lon="-4.324763724580407">
        <ele>1010.2</ele>
        <time>2022-04-14T10:14:36.000Z</time>
      </trkpt>
      <trkpt lat="39.53219044022262" lon="-4.324778812006116">
        <ele>1009.8</ele>
        <time>2022-04-14T10:14:39.000Z</time>
      </trkpt>
      <trkpt lat="39.53221625648439" lon="-4.324770011007786">
        <ele>1009.4</ele>
        <time>2022-04-14T10:14:41.000Z</time>
      </trkpt>
      <trkpt lat="39.532248275354505" lon="-4.324763808399439">
        <ele>1009</ele>
        <time>2022-04-14T10:14:43.000Z</time>
      </trkpt>
      <trkpt lat="39.532261518761516" lon="-4.324761461466551">
        <ele>1008.6</ele>
        <time>2022-04-14T10:14:47.000Z</time>
      </trkpt>
      <trkpt lat="39.53229362145066" lon="-4.324779398739338">
        <ele>1008</ele>
        <time>2022-04-14T10:14:51.000Z</time>
      </trkpt>
      <trkpt lat="39.53230510465801" lon="-4.324781829491258">
        <ele>1007.8</ele>
        <time>2022-04-14T10:14:53.000Z</time>
      </trkpt>
      <trkpt lat="39.5323090441525" lon="-4.324791468679905">
        <ele>1007.6</ele>
        <time>2022-04-14T10:14:55.000Z</time>
      </trkpt>
      <trkpt lat="39.53233259730041" lon="-4.324809908866882">
        <ele>1006.6</ele>
        <time>2022-04-14T10:14:59.000Z</time>
      </trkpt>
      <trkpt lat="39.53234567306936" lon="-4.324812926352024">
        <ele>1006.4</ele>
        <time>2022-04-14T10:15:00.000Z</time>
      </trkpt>
      <trkpt lat="39.53236444853246" lon="-4.324825247749686">
        <ele>1006.4</ele>
        <time>2022-04-14T10:15:02.000Z</time>
      </trkpt>
      <trkpt lat="39.53240283764899" lon="-4.324852405115962">
        <ele>1006</ele>
        <time>2022-04-14T10:15:07.000Z</time>
      </trkpt>
      <trkpt lat="39.532410046085715" lon="-4.3248549196869135">
        <ele>1005.8</ele>
        <time>2022-04-14T10:15:11.000Z</time>
      </trkpt>
      <trkpt lat="39.53245270997286" lon="-4.324880987405777">
        <ele>1005.4</ele>
        <time>2022-04-14T10:15:16.000Z</time>
      </trkpt>
      <trkpt lat="39.53246410936117" lon="-4.324888531118631">
        <ele>1005.2</ele>
        <time>2022-04-14T10:15:17.000Z</time>
      </trkpt>
      <trkpt lat="39.53251733444631" lon="-4.324905294924974">
        <ele>1005</ele>
        <time>2022-04-14T10:15:21.000Z</time>
      </trkpt>
      <trkpt lat="39.5325439888984" lon="-4.324908312410116">
        <ele>1004.6</ele>
        <time>2022-04-14T10:15:23.000Z</time>
      </trkpt>
      <trkpt lat="39.532563434913754" lon="-4.324909821152687">
        <ele>1004.4</ele>
        <time>2022-04-14T10:15:24.000Z</time>
      </trkpt>
      <trkpt lat="39.532609870657325" lon="-4.324906216934323">
        <ele>1003.8</ele>
        <time>2022-04-14T10:15:29.000Z</time>
      </trkpt>
      <trkpt lat="39.53264465555549" lon="-4.324927255511284">
        <ele>1003.4</ele>
        <time>2022-04-14T10:15:34.000Z</time>
      </trkpt>
      <trkpt lat="39.532648511230946" lon="-4.324929686263204">
        <ele>1003.4</ele>
        <time>2022-04-14T10:15:36.000Z</time>
      </trkpt>
      <trkpt lat="39.53266938216984" lon="-4.324926836416125">
        <ele>1003.2</ele>
        <time>2022-04-14T10:15:39.000Z</time>
      </trkpt>
      <trkpt lat="39.53267415985465" lon="-4.324926668778062">
        <ele>1003.2</ele>
        <time>2022-04-14T10:15:40.000Z</time>
      </trkpt>
      <trkpt lat="39.532690085470676" lon="-4.324920130893588">
        <ele>1003.4</ele>
        <time>2022-04-14T10:15:44.000Z</time>
      </trkpt>
      <trkpt lat="39.53272042796016" lon="-4.324909234419465">
        <ele>1002.8</ele>
        <time>2022-04-14T10:15:51.000Z</time>
      </trkpt>
      <trkpt lat="39.53275219537318" lon="-4.324947539716959">
        <ele>1002.4</ele>
        <time>2022-04-14T10:15:55.000Z</time>
      </trkpt>
      <trkpt lat="39.532760325819254" lon="-4.324973942711949">
        <ele>1001.8</ele>
        <time>2022-04-14T10:15:57.000Z</time>
      </trkpt>
      <trkpt lat="39.53277532942593" lon="-4.324987269937992">
        <ele>1001</ele>
        <time>2022-04-14T10:15:59.000Z</time>
      </trkpt>
      <trkpt lat="39.53279921784997" lon="-4.325005291029811">
        <ele>1000.8</ele>
        <time>2022-04-14T10:16:01.000Z</time>
      </trkpt>
      <trkpt lat="39.53281715512276" lon="-4.32503554970026">
        <ele>1000.6</ele>
        <time>2022-04-14T10:16:04.000Z</time>
      </trkpt>
      <trkpt lat="39.532840959727764" lon="-4.325105287134647">
        <ele>1000.4</ele>
        <time>2022-04-14T10:16:08.000Z</time>
      </trkpt>
      <trkpt lat="39.532854622229934" lon="-4.32512934319675">
        <ele>1000.2</ele>
        <time>2022-04-14T10:16:10.000Z</time>
      </trkpt>
      <trkpt lat="39.532864429056644" lon="-4.325158344581723">
        <ele>1000</ele>
        <time>2022-04-14T10:16:13.000Z</time>
      </trkpt>
      <trkpt lat="39.532861076295376" lon="-4.325172761455178">
        <ele>1000</ele>
        <time>2022-04-14T10:16:14.000Z</time>
      </trkpt>
      <trkpt lat="39.53286769799888" lon="-4.325191704556346">
        <ele>999.8</ele>
        <time>2022-04-14T10:16:17.000Z</time>
      </trkpt>
      <trkpt lat="39.532870380207896" lon="-4.325196733698249">
        <ele>999.8</ele>
        <time>2022-04-14T10:16:18.000Z</time>
      </trkpt>
      <trkpt lat="39.532869793474674" lon="-4.325198829174042">
        <ele>999.8</ele>
        <time>2022-04-14T10:16:20.000Z</time>
      </trkpt>
      <trkpt lat="39.53287607990205" lon="-4.325202936306596">
        <ele>999.4</ele>
        <time>2022-04-14T10:16:22.000Z</time>
      </trkpt>
      <trkpt lat="39.53288898803294" lon="-4.32521240785718">
        <ele>999.2</ele>
        <time>2022-04-14T10:16:24.000Z</time>
      </trkpt>
      <trkpt lat="39.53289653174579" lon="-4.325213497504592">
        <ele>999</ele>
        <time>2022-04-14T10:16:25.000Z</time>
      </trkpt>
      <trkpt lat="39.532947577536106" lon="-4.325234116986394">
        <ele>997.8</ele>
        <time>2022-04-14T10:16:30.000Z</time>
      </trkpt>
      <trkpt lat="39.53299568966031" lon="-4.325268482789397">
        <ele>996.6</ele>
        <time>2022-04-14T10:16:37.000Z</time>
      </trkpt>
      <trkpt lat="39.53300692141056" lon="-4.325270326808095">
        <ele>996</ele>
        <time>2022-04-14T10:16:40.000Z</time>
      </trkpt>
      <trkpt lat="39.53304447233677" lon="-4.325308296829462">
        <ele>995.4</ele>
        <time>2022-04-14T10:16:44.000Z</time>
      </trkpt>
      <trkpt lat="39.53305981121957" lon="-4.325321037322283">
        <ele>994.8</ele>
        <time>2022-04-14T10:16:47.000Z</time>
      </trkpt>
      <trkpt lat="39.53308202326298" lon="-4.325336292386055">
        <ele>994.4</ele>
        <time>2022-04-14T10:16:50.000Z</time>
      </trkpt>
      <trkpt lat="39.53308596275747" lon="-4.325342578813434">
        <ele>994.4</ele>
        <time>2022-04-14T10:16:51.000Z</time>
      </trkpt>
      <trkpt lat="39.533090153709054" lon="-4.325346685945988">
        <ele>994.4</ele>
        <time>2022-04-14T10:16:52.000Z</time>
      </trkpt>
      <trkpt lat="39.53309669159353" lon="-4.325355738401413">
        <ele>994.2</ele>
        <time>2022-04-14T10:16:53.000Z</time>
      </trkpt>
      <trkpt lat="39.53310213983059" lon="-4.325365126132965">
        <ele>994.2</ele>
        <time>2022-04-14T10:16:54.000Z</time>
      </trkpt>
      <trkpt lat="39.53310842625797" lon="-4.325371915474534">
        <ele>994</ele>
        <time>2022-04-14T10:16:55.000Z</time>
      </trkpt>
      <trkpt lat="39.53309627249837" lon="-4.325354229658842">
        <ele>993.8</ele>
        <time>2022-04-14T10:17:00.000Z</time>
      </trkpt>
      <trkpt lat="39.53310658223927" lon="-4.325381219387054">
        <ele>993.6</ele>
        <time>2022-04-14T10:17:06.000Z</time>
      </trkpt>
      <trkpt lat="39.533115131780505" lon="-4.3253835663199425">
        <ele>993.6</ele>
        <time>2022-04-14T10:17:07.000Z</time>
      </trkpt>
      <trkpt lat="39.533136170357466" lon="-4.325383901596069">
        <ele>993.4</ele>
        <time>2022-04-14T10:17:09.000Z</time>
      </trkpt>
      <trkpt lat="39.5331793371588" lon="-4.325385745614767">
        <ele>992.6</ele>
        <time>2022-04-14T10:17:14.000Z</time>
      </trkpt>
      <trkpt lat="39.5332018006593" lon="-4.325392199680209">
        <ele>992.2</ele>
        <time>2022-04-14T10:17:16.000Z</time>
      </trkpt>
      <trkpt lat="39.53323080204427" lon="-4.325403179973364">
        <ele>991.6</ele>
        <time>2022-04-14T10:17:21.000Z</time>
      </trkpt>
      <trkpt lat="39.53330162912607" lon="-4.325400497764349">
        <ele>991.2</ele>
        <time>2022-04-14T10:17:27.000Z</time>
      </trkpt>
      <trkpt lat="39.53330900520086" lon="-4.3254041858017445">
        <ele>991</ele>
        <time>2022-04-14T10:17:28.000Z</time>
      </trkpt>
      <trkpt lat="39.53331705182791" lon="-4.325409801676869">
        <ele>990.8</ele>
        <time>2022-04-14T10:17:29.000Z</time>
      </trkpt>
      <trkpt lat="39.53334420919418" lon="-4.325426984578371">
        <ele>990.6</ele>
        <time>2022-04-14T10:17:32.000Z</time>
      </trkpt>
      <trkpt lat="39.53335736878216" lon="-4.325428493320942">
        <ele>990.4</ele>
        <time>2022-04-14T10:17:33.000Z</time>
      </trkpt>
      <trkpt lat="39.53338561579585" lon="-4.325436539947987">
        <ele>990.2</ele>
        <time>2022-04-14T10:17:36.000Z</time>
      </trkpt>
      <trkpt lat="39.53343439847231" lon="-4.325439473614097">
        <ele>989.6</ele>
        <time>2022-04-14T10:17:41.000Z</time>
      </trkpt>
      <trkpt lat="39.533460550010204" lon="-4.325445424765348">
        <ele>989</ele>
        <time>2022-04-14T10:17:44.000Z</time>
      </trkpt>
      <trkpt lat="39.53347102738917" lon="-4.325448023155332">
        <ele>988.8</ele>
        <time>2022-04-14T10:17:45.000Z</time>
      </trkpt>
      <trkpt lat="39.53355518169701" lon="-4.325480628758669">
        <ele>988.2</ele>
        <time>2022-04-14T10:17:52.000Z</time>
      </trkpt>
      <trkpt lat="39.5335609652102" lon="-4.325488843023777">
        <ele>988</ele>
        <time>2022-04-14T10:17:53.000Z</time>
      </trkpt>
      <trkpt lat="39.53356876038015" lon="-4.325493536889553">
        <ele>987.8</ele>
        <time>2022-04-14T10:17:54.000Z</time>
      </trkpt>
      <trkpt lat="39.53358937986195" lon="-4.325512144714594">
        <ele>987.6</ele>
        <time>2022-04-14T10:17:57.000Z</time>
      </trkpt>
      <trkpt lat="39.53361653722823" lon="-4.325530333444476">
        <ele>987</ele>
        <time>2022-04-14T10:18:00.000Z</time>
      </trkpt>
      <trkpt lat="39.53362760134041" lon="-4.325536033138633">
        <ele>986.8</ele>
        <time>2022-04-14T10:18:01.000Z</time>
      </trkpt>
      <trkpt lat="39.533632630482316" lon="-4.325538296252489">
        <ele>986.6</ele>
        <time>2022-04-14T10:18:02.000Z</time>
      </trkpt>
      <trkpt lat="39.533663392066956" lon="-4.325566375628114">
        <ele>986.6</ele>
        <time>2022-04-14T10:18:06.000Z</time>
      </trkpt>
      <trkpt lat="39.53369691967964" lon="-4.325573667883873">
        <ele>986.2</ele>
        <time>2022-04-14T10:18:09.000Z</time>
      </trkpt>
      <trkpt lat="39.533746372908354" lon="-4.325595796108246">
        <ele>985.8</ele>
        <time>2022-04-14T10:18:14.000Z</time>
      </trkpt>
      <trkpt lat="39.533752240240574" lon="-4.325598059222102">
        <ele>985.8</ele>
        <time>2022-04-14T10:18:15.000Z</time>
      </trkpt>
      <trkpt lat="39.53376967459917" lon="-4.325607279315591">
        <ele>985.6</ele>
        <time>2022-04-14T10:18:17.000Z</time>
      </trkpt>
      <trkpt lat="39.533774284645915" lon="-4.325612895190716">
        <ele>985.6</ele>
        <time>2022-04-14T10:18:18.000Z</time>
      </trkpt>
      <trkpt lat="39.53378777951002" lon="-4.325628066435456">
        <ele>985.6</ele>
        <time>2022-04-14T10:18:20.000Z</time>
      </trkpt>
      <trkpt lat="39.53382625244558" lon="-4.325651787221432">
        <ele>985.2</ele>
        <time>2022-04-14T10:18:23.000Z</time>
      </trkpt>
      <trkpt lat="39.533833879977465" lon="-4.325657403096557">
        <ele>985.2</ele>
        <time>2022-04-14T10:18:24.000Z</time>
      </trkpt>
      <trkpt lat="39.533861204981804" lon="-4.325677352026105">
        <ele>984.6</ele>
        <time>2022-04-14T10:18:27.000Z</time>
      </trkpt>
      <trkpt lat="39.53388266265392" lon="-4.325709454715252">
        <ele>984.2</ele>
        <time>2022-04-14T10:18:30.000Z</time>
      </trkpt>
      <trkpt lat="39.53391971066594" lon="-4.3257425632327795">
        <ele>983.6</ele>
        <time>2022-04-14T10:18:35.000Z</time>
      </trkpt>
      <trkpt lat="39.53393077477813" lon="-4.325758740305901">
        <ele>983.2</ele>
        <time>2022-04-14T10:18:37.000Z</time>
      </trkpt>
      <trkpt lat="39.53396078199148" lon="-4.325788076967001">
        <ele>982.4</ele>
        <time>2022-04-14T10:18:41.000Z</time>
      </trkpt>
      <trkpt lat="39.53399749472737" lon="-4.325832333415747">
        <ele>982</ele>
        <time>2022-04-14T10:18:45.000Z</time>
      </trkpt>
      <trkpt lat="39.53400520607829" lon="-4.32584373280406">
        <ele>982</ele>
        <time>2022-04-14T10:18:46.000Z</time>
      </trkpt>
      <trkpt lat="39.534030351787806" lon="-4.3258692137897015">
        <ele>981.6</ele>
        <time>2022-04-14T10:18:49.000Z</time>
      </trkpt>
      <trkpt lat="39.534046445041895" lon="-4.325885809957981">
        <ele>981.4</ele>
        <time>2022-04-14T10:18:51.000Z</time>
      </trkpt>
      <trkpt lat="39.534063041210175" lon="-4.325899807736278">
        <ele>981</ele>
        <time>2022-04-14T10:18:53.000Z</time>
      </trkpt>
      <trkpt lat="39.534101681783795" lon="-4.325953619554639">
        <ele>980.4</ele>
        <time>2022-04-14T10:18:59.000Z</time>
      </trkpt>
      <trkpt lat="39.53411450609565" lon="-4.32597222737968">
        <ele>980.2</ele>
        <time>2022-04-14T10:19:01.000Z</time>
      </trkpt>
      <trkpt lat="39.534121630713344" lon="-4.3259816989302635">
        <ele>980.2</ele>
        <time>2022-04-14T10:19:02.000Z</time>
      </trkpt>
      <trkpt lat="39.5341463573277" lon="-4.326003659516573">
        <ele>979.6</ele>
        <time>2022-04-14T10:19:06.000Z</time>
      </trkpt>
      <trkpt lat="39.53415532596409" lon="-4.326006760820746">
        <ele>979.4</ele>
        <time>2022-04-14T10:19:07.000Z</time>
      </trkpt>
      <trkpt lat="39.53417368233204" lon="-4.326005084440112">
        <ele>979.2</ele>
        <time>2022-04-14T10:19:09.000Z</time>
      </trkpt>
      <trkpt lat="39.534183237701654" lon="-4.32600692845881">
        <ele>979</ele>
        <time>2022-04-14T10:19:10.000Z</time>
      </trkpt>
      <trkpt lat="39.53419958241284" lon="-4.326015478000045">
        <ele>978.8</ele>
        <time>2022-04-14T10:19:12.000Z</time>
      </trkpt>
      <trkpt lat="39.53420997597277" lon="-4.326028889045119">
        <ele>978.4</ele>
        <time>2022-04-14T10:19:14.000Z</time>
      </trkpt>
      <trkpt lat="39.534222297370434" lon="-4.32604506611824">
        <ele>978.2</ele>
        <time>2022-04-14T10:19:16.000Z</time>
      </trkpt>
      <trkpt lat="39.5342293381691" lon="-4.3260550405830145">
        <ele>978.2</ele>
        <time>2022-04-14T10:19:17.000Z</time>
      </trkpt>
      <trkpt lat="39.534240905195475" lon="-4.3260688707232475">
        <ele>977.8</ele>
        <time>2022-04-14T10:19:19.000Z</time>
      </trkpt>
      <trkpt lat="39.53425624407828" lon="-4.326071972027421">
        <ele>977.4</ele>
        <time>2022-04-14T10:19:21.000Z</time>
      </trkpt>
      <trkpt lat="39.53426512889564" lon="-4.326077504083514">
        <ele>977.2</ele>
        <time>2022-04-14T10:19:23.000Z</time>
      </trkpt>
      <trkpt lat="39.53427040949464" lon="-4.326083539053798">
        <ele>977</ele>
        <time>2022-04-14T10:19:24.000Z</time>
      </trkpt>
      <trkpt lat="39.53429966233671" lon="-4.326131148263812">
        <ele>976</ele>
        <time>2022-04-14T10:19:29.000Z</time>
      </trkpt>
      <trkpt lat="39.534305362030864" lon="-4.326139949262142">
        <ele>976</ele>
        <time>2022-04-14T10:19:30.000Z</time>
      </trkpt>
      <trkpt lat="39.534309888258576" lon="-4.326172219589353">
        <ele>975.8</ele>
        <time>2022-04-14T10:19:33.000Z</time>
      </trkpt>
      <trkpt lat="39.53432522714138" lon="-4.326191917061806">
        <ele>975.4</ele>
        <time>2022-04-14T10:19:36.000Z</time>
      </trkpt>
      <trkpt lat="39.534341152757406" lon="-4.326217984780669">
        <ele>974.8</ele>
        <time>2022-04-14T10:19:39.000Z</time>
      </trkpt>
      <trkpt lat="39.53435439616442" lon="-4.326252182945609">
        <ele>974.4</ele>
        <time>2022-04-14T10:19:43.000Z</time>
      </trkpt>
      <trkpt lat="39.53437375836074" lon="-4.326280849054456">
        <ele>974.2</ele>
        <time>2022-04-14T10:19:46.000Z</time>
      </trkpt>
      <trkpt lat="39.53438591212034" lon="-4.326296942308545">
        <ele>974</ele>
        <time>2022-04-14T10:19:48.000Z</time>
      </trkpt>
      <trkpt lat="39.53439312055707" lon="-4.326319238170981">
        <ele>973.8</ele>
        <time>2022-04-14T10:19:50.000Z</time>
      </trkpt>
      <trkpt lat="39.53439747914672" lon="-4.326342456042767">
        <ele>973.4</ele>
        <time>2022-04-14T10:19:53.000Z</time>
      </trkpt>
      <trkpt lat="39.53439999371767" lon="-4.326358297839761">
        <ele>973</ele>
        <time>2022-04-14T10:19:56.000Z</time>
      </trkpt>
      <trkpt lat="39.53440628014505" lon="-4.326441949233413">
        <ele>972.6</ele>
        <time>2022-04-14T10:20:05.000Z</time>
      </trkpt>
      <trkpt lat="39.53443519771099" lon="-4.3264994490891695">
        <ele>971.6</ele>
        <time>2022-04-14T10:20:11.000Z</time>
      </trkpt>
      <trkpt lat="39.53444098122418" lon="-4.326515207067132">
        <ele>971.4</ele>
        <time>2022-04-14T10:20:12.000Z</time>
      </trkpt>
      <trkpt lat="39.53446654602885" lon="-4.326553177088499">
        <ele>971.2</ele>
        <time>2022-04-14T10:20:14.000Z</time>
      </trkpt>
      <trkpt lat="39.53448691405356" lon="-4.326598858460784">
        <ele>971.2</ele>
        <time>2022-04-14T10:20:17.000Z</time>
      </trkpt>
      <trkpt lat="39.53447953797877" lon="-4.326625009998679">
        <ele>970.4</ele>
        <time>2022-04-14T10:20:20.000Z</time>
      </trkpt>
      <trkpt lat="39.534476939588785" lon="-4.326629536226392">
        <ele>970</ele>
        <time>2022-04-14T10:20:21.000Z</time>
      </trkpt>
      <trkpt lat="39.53446797095239" lon="-4.326623249799013">
        <ele>969.4</ele>
        <time>2022-04-14T10:20:24.000Z</time>
      </trkpt>
      <trkpt lat="39.53446512110531" lon="-4.326620399951935">
        <ele>969.2</ele>
        <time>2022-04-14T10:20:25.000Z</time>
      </trkpt>
      <trkpt lat="39.534473083913326" lon="-4.326615119352937">
        <ele>969.2</ele>
        <time>2022-04-14T10:20:33.000Z</time>
      </trkpt>
      <trkpt lat="39.53447769396007" lon="-4.326644539833069">
        <ele>968.8</ele>
        <time>2022-04-14T10:20:42.000Z</time>
      </trkpt>
      <trkpt lat="39.53449412249029" lon="-4.326688796281815">
        <ele>968</ele>
        <time>2022-04-14T10:20:45.000Z</time>
      </trkpt>
      <trkpt lat="39.534507282078266" lon="-4.326711427420378">
        <ele>967.8</ele>
        <time>2022-04-14T10:20:47.000Z</time>
      </trkpt>
      <trkpt lat="39.53455137088895" lon="-4.326793234795332">
        <ele>967</ele>
        <time>2022-04-14T10:20:54.000Z</time>
      </trkpt>
      <trkpt lat="39.534555142745376" lon="-4.326821314170957">
        <ele>967</ele>
        <time>2022-04-14T10:20:56.000Z</time>
      </trkpt>
      <trkpt lat="39.53456109389663" lon="-4.326870599761605">
        <ele>966.2</ele>
        <time>2022-04-14T10:21:00.000Z</time>
      </trkpt>
      <trkpt lat="39.53456478193402" lon="-4.326883088797331">
        <ele>966</ele>
        <time>2022-04-14T10:21:01.000Z</time>
      </trkpt>
      <trkpt lat="39.53459302894771" lon="-4.326931284740567">
        <ele>965.2</ele>
        <time>2022-04-14T10:21:05.000Z</time>
      </trkpt>
      <trkpt lat="39.53460074029863" lon="-4.326944863423705">
        <ele>965.2</ele>
        <time>2022-04-14T10:21:06.000Z</time>
      </trkpt>
      <trkpt lat="39.53461683355272" lon="-4.326967913657427">
        <ele>964.8</ele>
        <time>2022-04-14T10:21:08.000Z</time>
      </trkpt>
      <trkpt lat="39.53462949022651" lon="-4.326998004689813">
        <ele>964</ele>
        <time>2022-04-14T10:21:11.000Z</time>
      </trkpt>
      <trkpt lat="39.534630328416824" lon="-4.327016361057758">
        <ele>963.6</ele>
        <time>2022-04-14T10:21:13.000Z</time>
      </trkpt>
      <trkpt lat="39.53462915495038" lon="-4.327023401856422">
        <ele>963.4</ele>
        <time>2022-04-14T10:21:14.000Z</time>
      </trkpt>
      <trkpt lat="39.53462865203619" lon="-4.327040668576956">
        <ele>963</ele>
        <time>2022-04-14T10:21:17.000Z</time>
      </trkpt>
      <trkpt lat="39.53463418409228" lon="-4.327056761831045">
        <ele>962.8</ele>
        <time>2022-04-14T10:21:19.000Z</time>
      </trkpt>
      <trkpt lat="39.534630412235856" lon="-4.327063048258424">
        <ele>962.8</ele>
        <time>2022-04-14T10:21:20.000Z</time>
      </trkpt>
      <trkpt lat="39.53463099896908" lon="-4.327073190361261">
        <ele>962.6</ele>
        <time>2022-04-14T10:21:21.000Z</time>
      </trkpt>
      <trkpt lat="39.534628400579095" lon="-4.327120129019022">
        <ele>962.2</ele>
        <time>2022-04-14T10:21:24.000Z</time>
      </trkpt>
      <trkpt lat="39.53462756238878" lon="-4.327131863683462">
        <ele>962</ele>
        <time>2022-04-14T10:21:25.000Z</time>
      </trkpt>
      <trkpt lat="39.53462949022651" lon="-4.327163631096482">
        <ele>961.4</ele>
        <time>2022-04-14T10:21:28.000Z</time>
      </trkpt>
      <trkpt lat="39.5346331782639" lon="-4.3271738570183516">
        <ele>961.4</ele>
        <time>2022-04-14T10:21:29.000Z</time>
      </trkpt>
      <trkpt lat="39.53463938087225" lon="-4.327196991071105">
        <ele>961</ele>
        <time>2022-04-14T10:21:31.000Z</time>
      </trkpt>
      <trkpt lat="39.53465119935572" lon="-4.327226663008332">
        <ele>960.8</ele>
        <time>2022-04-14T10:21:34.000Z</time>
      </trkpt>
      <trkpt lat="39.534656815230846" lon="-4.327259184792638">
        <ele>960.4</ele>
        <time>2022-04-14T10:21:37.000Z</time>
      </trkpt>
      <trkpt lat="39.5346936956048" lon="-4.327326491475105">
        <ele>959.6</ele>
        <time>2022-04-14T10:21:43.000Z</time>
      </trkpt>
      <trkpt lat="39.53470040112734" lon="-4.327340740710497">
        <ele>959.4</ele>
        <time>2022-04-14T10:21:44.000Z</time>
      </trkpt>
      <trkpt lat="39.53471213579178" lon="-4.32735163718462">
        <ele>959.4</ele>
        <time>2022-04-14T10:21:45.000Z</time>
      </trkpt>
      <trkpt lat="39.534751530736685" lon="-4.327371083199978">
        <ele>959.2</ele>
        <time>2022-04-14T10:21:49.000Z</time>
      </trkpt>
      <trkpt lat="39.53475966118276" lon="-4.327375525608659">
        <ele>959</ele>
        <time>2022-04-14T10:21:50.000Z</time>
      </trkpt>
      <trkpt lat="39.53477273695171" lon="-4.327384661883116">
        <ele>958.6</ele>
        <time>2022-04-14T10:21:52.000Z</time>
      </trkpt>
      <trkpt lat="39.53477684408426" lon="-4.327387847006321">
        <ele>958.2</ele>
        <time>2022-04-14T10:21:53.000Z</time>
      </trkpt>
      <trkpt lat="39.53480031341314" lon="-4.327402766793966">
        <ele>957.6</ele>
        <time>2022-04-14T10:21:57.000Z</time>
      </trkpt>
      <trkpt lat="39.53482378274202" lon="-4.3274221289902925">
        <ele>957.4</ele>
        <time>2022-04-14T10:22:00.000Z</time>
      </trkpt>
      <trkpt lat="39.53482671640813" lon="-4.327423721551895">
        <ele>957.4</ele>
        <time>2022-04-14T10:22:01.000Z</time>
      </trkpt>
      <trkpt lat="39.53484959900379" lon="-4.327423637732863">
        <ele>957</ele>
        <time>2022-04-14T10:22:03.000Z</time>
      </trkpt>
      <trkpt lat="39.534874241799116" lon="-4.327419446781278">
        <ele>956.4</ele>
        <time>2022-04-14T10:22:05.000Z</time>
      </trkpt>
      <trkpt lat="39.53488773666322" lon="-4.327422045171261">
        <ele>956.2</ele>
        <time>2022-04-14T10:22:06.000Z</time>
      </trkpt>
      <trkpt lat="39.53490165062249" lon="-4.327425146475434">
        <ele>955.8</ele>
        <time>2022-04-14T10:22:07.000Z</time>
      </trkpt>
      <trkpt lat="39.53493836335838" lon="-4.3274312652647495">
        <ele>954.6</ele>
        <time>2022-04-14T10:22:11.000Z</time>
      </trkpt>
      <trkpt lat="39.53495688736439" lon="-4.327433193102479">
        <ele>954.2</ele>
        <time>2022-04-14T10:22:13.000Z</time>
      </trkpt>
      <trkpt lat="39.53497566282749" lon="-4.327436210587621">
        <ele>954.2</ele>
        <time>2022-04-14T10:22:15.000Z</time>
      </trkpt>
      <trkpt lat="39.53498823568225" lon="-4.327434366568923">
        <ele>954.2</ele>
        <time>2022-04-14T10:22:16.000Z</time>
      </trkpt>
      <trkpt lat="39.53503525815904" lon="-4.327416513115168">
        <ele>953.2</ele>
        <time>2022-04-14T10:22:21.000Z</time>
      </trkpt>
      <trkpt lat="39.53504456207156" lon="-4.327413495630026">
        <ele>953</ele>
        <time>2022-04-14T10:22:22.000Z</time>
      </trkpt>
      <trkpt lat="39.53510717488825" lon="-4.327389020472765">
        <ele>952.2</ele>
        <time>2022-04-14T10:22:29.000Z</time>
      </trkpt>
      <trkpt lat="39.53511304222047" lon="-4.327388685196638">
        <ele>951.8</ele>
        <time>2022-04-14T10:22:30.000Z</time>
      </trkpt>
      <trkpt lat="39.53512620180845" lon="-4.32738876901567">
        <ele>951.2</ele>
        <time>2022-04-14T10:22:32.000Z</time>
      </trkpt>
      <trkpt lat="39.5351305603981" lon="-4.3273894395679235">
        <ele>951</ele>
        <time>2022-04-14T10:22:33.000Z</time>
      </trkpt>
      <trkpt lat="39.535152185708284" lon="-4.327373094856739">
        <ele>950.6</ele>
        <time>2022-04-14T10:22:38.000Z</time>
      </trkpt>
      <trkpt lat="39.5351961068809" lon="-4.327403856441379">
        <ele>950.2</ele>
        <time>2022-04-14T10:22:45.000Z</time>
      </trkpt>
      <trkpt lat="39.53519836999476" lon="-4.3273997493088245">
        <ele>950.2</ele>
        <time>2022-04-14T10:22:47.000Z</time>
      </trkpt>
      <trkpt lat="39.535197196528316" lon="-4.327398408204317">
        <ele>950</ele>
        <time>2022-04-14T10:22:48.000Z</time>
      </trkpt>
      <trkpt lat="39.535199124366045" lon="-4.327398156747222">
        <ele>949.6</ele>
        <time>2022-04-14T10:22:51.000Z</time>
      </trkpt>
      <trkpt lat="39.53526827506721" lon="-4.327403353527188">
        <ele>949.2</ele>
        <time>2022-04-14T10:22:58.000Z</time>
      </trkpt>
      <trkpt lat="39.53529509715736" lon="-4.3274112325161695">
        <ele>949</ele>
        <time>2022-04-14T10:23:01.000Z</time>
      </trkpt>
      <trkpt lat="39.535311944782734" lon="-4.327428750693798">
        <ele>948.4</ele>
        <time>2022-04-14T10:23:03.000Z</time>
      </trkpt>
      <trkpt lat="39.535329630598426" lon="-4.32744886726141">
        <ele>948.2</ele>
        <time>2022-04-14T10:23:05.000Z</time>
      </trkpt>
      <trkpt lat="39.535361314192414" lon="-4.327470408752561">
        <ele>947.8</ele>
        <time>2022-04-14T10:23:09.000Z</time>
      </trkpt>
      <trkpt lat="39.53539132140577" lon="-4.327480718493462">
        <ele>947.6</ele>
        <time>2022-04-14T10:23:12.000Z</time>
      </trkpt>
      <trkpt lat="39.53546600416303" lon="-4.327487172558904">
        <ele>946.8</ele>
        <time>2022-04-14T10:23:19.000Z</time>
      </trkpt>
      <trkpt lat="39.53548754565418" lon="-4.32748700492084">
        <ele>946.4</ele>
        <time>2022-04-14T10:23:21.000Z</time>
      </trkpt>
      <trkpt lat="39.53550514765084" lon="-4.327490022405982">
        <ele>946</ele>
        <time>2022-04-14T10:23:23.000Z</time>
      </trkpt>
      <trkpt lat="39.53551344573498" lon="-4.327492704614997">
        <ele>945.8</ele>
        <time>2022-04-14T10:23:24.000Z</time>
      </trkpt>
      <trkpt lat="39.53554546460509" lon="-4.327497398480773">
        <ele>945.2</ele>
        <time>2022-04-14T10:23:28.000Z</time>
      </trkpt>
      <trkpt lat="39.53555426560342" lon="-4.327499326318502">
        <ele>945</ele>
        <time>2022-04-14T10:23:29.000Z</time>
      </trkpt>
      <trkpt lat="39.53557119704783" lon="-4.327509803697467">
        <ele>944.8</ele>
        <time>2022-04-14T10:23:31.000Z</time>
      </trkpt>
      <trkpt lat="39.53557765111327" lon="-4.327514749020338">
        <ele>944.8</ele>
        <time>2022-04-14T10:23:32.000Z</time>
      </trkpt>
      <trkpt lat="39.53563422895968" lon="-4.327551880851388">
        <ele>943.6</ele>
        <time>2022-04-14T10:23:39.000Z</time>
      </trkpt>
      <trkpt lat="39.53564244322479" lon="-4.327558083459735">
        <ele>943.4</ele>
        <time>2022-04-14T10:23:40.000Z</time>
      </trkpt>
      <trkpt lat="39.535696506500244" lon="-4.32761893607676">
        <ele>942.8</ele>
        <time>2022-04-14T10:23:47.000Z</time>
      </trkpt>
      <trkpt lat="39.53571058809757" lon="-4.327639555558562">
        <ele>942.4</ele>
        <time>2022-04-14T10:23:50.000Z</time>
      </trkpt>
      <trkpt lat="39.53574755229056" lon="-4.327671574428678">
        <ele>941.6</ele>
        <time>2022-04-14T10:23:55.000Z</time>
      </trkpt>
      <trkpt lat="39.53576020896435" lon="-4.327672412618995">
        <ele>941.4</ele>
        <time>2022-04-14T10:23:57.000Z</time>
      </trkpt>
      <trkpt lat="39.53576364554465" lon="-4.327670317143202">
        <ele>941.4</ele>
        <time>2022-04-14T10:23:59.000Z</time>
      </trkpt>
      <trkpt lat="39.535771775990725" lon="-4.327695546671748">
        <ele>941.2</ele>
        <time>2022-04-14T10:24:02.000Z</time>
      </trkpt>
      <trkpt lat="39.53580295667052" lon="-4.327760674059391">
        <ele>940.6</ele>
        <time>2022-04-14T10:24:09.000Z</time>
      </trkpt>
      <trkpt lat="39.53581100329757" lon="-4.327827226370573">
        <ele>940.4</ele>
        <time>2022-04-14T10:24:15.000Z</time>
      </trkpt>
      <trkpt lat="39.53581251204014" lon="-4.327834853902459">
        <ele>940.4</ele>
        <time>2022-04-14T10:24:16.000Z</time>
      </trkpt>
      <trkpt lat="39.53585308045149" lon="-4.327897047623992">
        <ele>939.8</ele>
        <time>2022-04-14T10:24:23.000Z</time>
      </trkpt>
      <trkpt lat="39.535850482061505" lon="-4.3279151525348425">
        <ele>939.4</ele>
        <time>2022-04-14T10:24:25.000Z</time>
      </trkpt>
      <trkpt lat="39.53584880568087" lon="-4.327926132827997">
        <ele>939.4</ele>
        <time>2022-04-14T10:24:26.000Z</time>
      </trkpt>
      <trkpt lat="39.53585132025182" lon="-4.327968545258045">
        <ele>939</ele>
        <time>2022-04-14T10:24:29.000Z</time>
      </trkpt>
      <trkpt lat="39.535883674398065" lon="-4.32801959104836">
        <ele>938.2</ele>
        <time>2022-04-14T10:24:35.000Z</time>
      </trkpt>
      <trkpt lat="39.53589708544314" lon="-4.328039875254035">
        <ele>937.8</ele>
        <time>2022-04-14T10:24:37.000Z</time>
      </trkpt>
      <trkpt lat="39.53593052923679" lon="-4.3281239457428455">
        <ele>937</ele>
        <time>2022-04-14T10:24:44.000Z</time>
      </trkpt>
      <trkpt lat="39.53593413345516" lon="-4.32813392020762">
        <ele>936.8</ele>
        <time>2022-04-14T10:24:45.000Z</time>
      </trkpt>
      <trkpt lat="39.53596321865916" lon="-4.328181613236666">
        <ele>936.6</ele>
        <time>2022-04-14T10:24:49.000Z</time>
      </trkpt>
      <trkpt lat="39.53597763553262" lon="-4.328218409791589">
        <ele>936.4</ele>
        <time>2022-04-14T10:24:52.000Z</time>
      </trkpt>
      <trkpt lat="39.53598132357001" lon="-4.328231485560536">
        <ele>936.2</ele>
        <time>2022-04-14T10:24:53.000Z</time>
      </trkpt>
      <trkpt lat="39.535988280549645" lon="-4.328252021223307">
        <ele>935.8</ele>
        <time>2022-04-14T10:24:55.000Z</time>
      </trkpt>
      <trkpt lat="39.53598593361676" lon="-4.3282632529735565">
        <ele>935.6</ele>
        <time>2022-04-14T10:24:56.000Z</time>
      </trkpt>
      <trkpt lat="39.535972606390715" lon="-4.3283039052039385">
        <ele>935.2</ele>
        <time>2022-04-14T10:24:59.000Z</time>
      </trkpt>
      <trkpt lat="39.535971097648144" lon="-4.328315304592252">
        <ele>935.2</ele>
        <time>2022-04-14T10:25:00.000Z</time>
      </trkpt>
      <trkpt lat="39.53598509542644" lon="-4.328356711193919">
        <ele>934.6</ele>
        <time>2022-04-14T10:25:04.000Z</time>
      </trkpt>
      <trkpt lat="39.5359958242625" lon="-4.3283922504633665">
        <ele>934.2</ele>
        <time>2022-04-14T10:25:07.000Z</time>
      </trkpt>
      <trkpt lat="39.53599490225315" lon="-4.328413791954517">
        <ele>933.8</ele>
        <time>2022-04-14T10:25:10.000Z</time>
      </trkpt>
      <trkpt lat="39.53599305823445" lon="-4.328436087816954">
        <ele>933.6</ele>
        <time>2022-04-14T10:25:12.000Z</time>
      </trkpt>
      <trkpt lat="39.53598652034998" lon="-4.328460060060024">
        <ele>933</ele>
        <time>2022-04-14T10:25:14.000Z</time>
      </trkpt>
      <trkpt lat="39.53599892556667" lon="-4.328525774180889">
        <ele>932.6</ele>
        <time>2022-04-14T10:25:20.000Z</time>
      </trkpt>
      <trkpt lat="39.53599875792861" lon="-4.328541615977883">
        <ele>932.6</ele>
        <time>2022-04-14T10:25:21.000Z</time>
      </trkpt>
      <trkpt lat="39.53600320033729" lon="-4.328577658161521">
        <ele>932.6</ele>
        <time>2022-04-14T10:25:24.000Z</time>
      </trkpt>
      <trkpt lat="39.536014599725604" lon="-4.328622920438647">
        <ele>933</ele>
        <time>2022-04-14T10:25:27.000Z</time>
      </trkpt>
      <trkpt lat="39.53601426444948" lon="-4.3286370020359755">
        <ele>933</ele>
        <time>2022-04-14T10:25:28.000Z</time>
      </trkpt>
      <trkpt lat="39.53602281399071" lon="-4.328678995370865">
        <ele>933.2</ele>
        <time>2022-04-14T10:25:31.000Z</time>
      </trkpt>
      <trkpt lat="39.53601870685816" lon="-4.328721826896071">
        <ele>933.6</ele>
        <time>2022-04-14T10:25:34.000Z</time>
      </trkpt>
      <trkpt lat="39.53602717258036" lon="-4.328776057809591">
        <ele>933.4</ele>
        <time>2022-04-14T10:25:39.000Z</time>
      </trkpt>
      <trkpt lat="39.53603195026517" lon="-4.328787289559841">
        <ele>933.4</ele>
        <time>2022-04-14T10:25:40.000Z</time>
      </trkpt>
      <trkpt lat="39.53605365939438" lon="-4.328844705596566">
        <ele>933.2</ele>
        <time>2022-04-14T10:25:45.000Z</time>
      </trkpt>
      <trkpt lat="39.53604510985315" lon="-4.328857949003577">
        <ele>933.2</ele>
        <time>2022-04-14T10:25:46.000Z</time>
      </trkpt>
      <trkpt lat="39.53603639267385" lon="-4.328949311748147">
        <ele>933.4</ele>
        <time>2022-04-14T10:25:53.000Z</time>
      </trkpt>
      <trkpt lat="39.53607687726617" lon="-4.329043440520763">
        <ele>933.6</ele>
        <time>2022-04-14T10:25:59.000Z</time>
      </trkpt>
      <trkpt lat="39.53608324751258" lon="-4.329080572351813">
        <ele>933.4</ele>
        <time>2022-04-14T10:26:02.000Z</time>
      </trkpt>
      <trkpt lat="39.53608903102577" lon="-4.329091804102063">
        <ele>933</ele>
        <time>2022-04-14T10:26:03.000Z</time>
      </trkpt>
      <trkpt lat="39.53608970157802" lon="-4.329125164076686">
        <ele>932.6</ele>
        <time>2022-04-14T10:26:06.000Z</time>
      </trkpt>
      <trkpt lat="39.53611359000206" lon="-4.329196410253644">
        <ele>931.8</ele>
        <time>2022-04-14T10:26:13.000Z</time>
      </trkpt>
      <trkpt lat="39.53611107543111" lon="-4.329205797985196">
        <ele>931.6</ele>
        <time>2022-04-14T10:26:14.000Z</time>
      </trkpt>
      <trkpt lat="39.536106465384364" lon="-4.329216778278351">
        <ele>931.4</ele>
        <time>2022-04-14T10:26:15.000Z</time>
      </trkpt>
      <trkpt lat="39.53611065633595" lon="-4.3292689975351095">
        <ele>931.4</ele>
        <time>2022-04-14T10:26:19.000Z</time>
      </trkpt>
      <trkpt lat="39.53612104989588" lon="-4.3292816542088985">
        <ele>931.4</ele>
        <time>2022-04-14T10:26:20.000Z</time>
      </trkpt>
      <trkpt lat="39.53614544123411" lon="-4.3293199595063925">
        <ele>931.2</ele>
        <time>2022-04-14T10:26:23.000Z</time>
      </trkpt>
      <trkpt lat="39.536151979118586" lon="-4.3293320294469595">
        <ele>931</ele>
        <time>2022-04-14T10:26:24.000Z</time>
      </trkpt>
      <trkpt lat="39.53615013509989" lon="-4.329406209290028">
        <ele>931.2</ele>
        <time>2022-04-14T10:26:30.000Z</time>
      </trkpt>
      <trkpt lat="39.5361512247473" lon="-4.329419871792197">
        <ele>931.4</ele>
        <time>2022-04-14T10:26:31.000Z</time>
      </trkpt>
      <trkpt lat="39.53618106432259" lon="-4.329481981694698">
        <ele>930.8</ele>
        <time>2022-04-14T10:26:36.000Z</time>
      </trkpt>
      <trkpt lat="39.53620528802276" lon="-4.329514503479004">
        <ele>930.6</ele>
        <time>2022-04-14T10:26:39.000Z</time>
      </trkpt>
      <trkpt lat="39.53622825443745" lon="-4.329586839303374">
        <ele>931</ele>
        <time>2022-04-14T10:26:44.000Z</time>
      </trkpt>
      <trkpt lat="39.53623931854963" lon="-4.329623719677329">
        <ele>931</ele>
        <time>2022-04-14T10:26:47.000Z</time>
      </trkpt>
      <trkpt lat="39.53625088557601" lon="-4.329651463776827">
        <ele>930.8</ele>
        <time>2022-04-14T10:26:49.000Z</time>
      </trkpt>
      <trkpt lat="39.53627351671457" lon="-4.329733941704035">
        <ele>930.6</ele>
        <time>2022-04-14T10:26:55.000Z</time>
      </trkpt>
      <trkpt lat="39.53629153780639" lon="-4.3297558184713125">
        <ele>930.2</ele>
        <time>2022-04-14T10:26:57.000Z</time>
      </trkpt>
      <trkpt lat="39.53631475567818" lon="-4.329813402146101">
        <ele>929.4</ele>
        <time>2022-04-14T10:27:02.000Z</time>
      </trkpt>
      <trkpt lat="39.53633696772158" lon="-4.329840475693345">
        <ele>928.8</ele>
        <time>2022-04-14T10:27:05.000Z</time>
      </trkpt>
      <trkpt lat="39.5363859180361" lon="-4.3298745062202215">
        <ele>928.4</ele>
        <time>2022-04-14T10:27:09.000Z</time>
      </trkpt>
      <trkpt lat="39.536427073180676" lon="-4.329907028004527">
        <ele>927.2</ele>
        <time>2022-04-14T10:27:13.000Z</time>
      </trkpt>
      <trkpt lat="39.5364448428154" lon="-4.329930832609534">
        <ele>926.4</ele>
        <time>2022-04-14T10:27:16.000Z</time>
      </trkpt>
      <trkpt lat="39.536465713754296" lon="-4.3299672938883305">
        <ele>926.4</ele>
        <time>2022-04-14T10:27:19.000Z</time>
      </trkpt>
      <trkpt lat="39.536473006010056" lon="-4.329977855086327">
        <ele>926.2</ele>
        <time>2022-04-14T10:27:20.000Z</time>
      </trkpt>
      <trkpt lat="39.53648163937032" lon="-4.329986907541752">
        <ele>926</ele>
        <time>2022-04-14T10:27:21.000Z</time>
      </trkpt>
      <trkpt lat="39.53654073178768" lon="-4.33005765080452">
        <ele>925.2</ele>
        <time>2022-04-14T10:27:29.000Z</time>
      </trkpt>
      <trkpt lat="39.53655816614628" lon="-4.330080030485988">
        <ele>925</ele>
        <time>2022-04-14T10:27:31.000Z</time>
      </trkpt>
      <trkpt lat="39.5365986507386" lon="-4.33014465495944">
        <ele>924.6</ele>
        <time>2022-04-14T10:27:36.000Z</time>
      </trkpt>
      <trkpt lat="39.53663159161806" lon="-4.33020768687129">
        <ele>924</ele>
        <time>2022-04-14T10:27:41.000Z</time>
      </trkpt>
      <trkpt lat="39.53666000626981" lon="-4.330245992168784">
        <ele>924</ele>
        <time>2022-04-14T10:27:44.000Z</time>
      </trkpt>
      <trkpt lat="39.53672236762941" lon="-4.330302989110351">
        <ele>923.4</ele>
        <time>2022-04-14T10:27:51.000Z</time>
      </trkpt>
      <trkpt lat="39.536752542480826" lon="-4.330329978838563">
        <ele>923</ele>
        <time>2022-04-14T10:27:54.000Z</time>
      </trkpt>
      <trkpt lat="39.53678690828383" lon="-4.330359734594822">
        <ele>922.6</ele>
        <time>2022-04-14T10:27:58.000Z</time>
      </trkpt>
      <trkpt lat="39.53681373037398" lon="-4.330376917496324">
        <ele>922.6</ele>
        <time>2022-04-14T10:28:01.000Z</time>
      </trkpt>
      <trkpt lat="39.536821357905865" lon="-4.330383623018861">
        <ele>922.6</ele>
        <time>2022-04-14T10:28:02.000Z</time>
      </trkpt>
      <trkpt lat="39.536840384826064" lon="-4.330397788435221">
        <ele>922.6</ele>
        <time>2022-04-14T10:28:04.000Z</time>
      </trkpt>
      <trkpt lat="39.536863854154944" lon="-4.330410612747073">
        <ele>922.4</ele>
        <time>2022-04-14T10:28:06.000Z</time>
      </trkpt>
      <trkpt lat="39.53688841313124" lon="-4.3304208386689425">
        <ele>921.8</ele>
        <time>2022-04-14T10:28:08.000Z</time>
      </trkpt>
      <trkpt lat="39.536959156394005" lon="-4.330448331311345">
        <ele>921.2</ele>
        <time>2022-04-14T10:28:13.000Z</time>
      </trkpt>
      <trkpt lat="39.536998216062784" lon="-4.3304788414388895">
        <ele>921</ele>
        <time>2022-04-14T10:28:18.000Z</time>
      </trkpt>
      <trkpt lat="39.537012381479144" lon="-4.330492168664932">
        <ele>920.8</ele>
        <time>2022-04-14T10:28:20.000Z</time>
      </trkpt>
      <trkpt lat="39.537019254639745" lon="-4.330499041825533">
        <ele>920.6</ele>
        <time>2022-04-14T10:28:21.000Z</time>
      </trkpt>
      <trkpt lat="39.5370646007359" lon="-4.330529551953077">
        <ele>919.4</ele>
        <time>2022-04-14T10:28:27.000Z</time>
      </trkpt>
      <trkpt lat="39.53712402842939" lon="-4.330560313537717">
        <ele>918.6</ele>
        <time>2022-04-14T10:28:34.000Z</time>
      </trkpt>
      <trkpt lat="39.5371544547379" lon="-4.330576490610838">
        <ele>918.2</ele>
        <time>2022-04-14T10:28:37.000Z</time>
      </trkpt>
      <trkpt lat="39.53721052967012" lon="-4.330607168376446">
        <ele>917.8</ele>
        <time>2022-04-14T10:28:42.000Z</time>
      </trkpt>
      <trkpt lat="39.53722268342972" lon="-4.330614292994142">
        <ele>917.6</ele>
        <time>2022-04-14T10:28:43.000Z</time>
      </trkpt>
      <trkpt lat="39.53725168481469" lon="-4.330625273287296">
        <ele>917.4</ele>
        <time>2022-04-14T10:28:45.000Z</time>
      </trkpt>
      <trkpt lat="39.53726610168815" lon="-4.330628039315343">
        <ele>917.2</ele>
        <time>2022-04-14T10:28:46.000Z</time>
      </trkpt>
      <trkpt lat="39.53727833926678" lon="-4.330630972981453">
        <ele>917.2</ele>
        <time>2022-04-14T10:28:47.000Z</time>
      </trkpt>
      <trkpt lat="39.537313878536224" lon="-4.330653436481953">
        <ele>917</ele>
        <time>2022-04-14T10:28:51.000Z</time>
      </trkpt>
      <trkpt lat="39.537370624020696" lon="-4.330734657123685">
        <ele>916.4</ele>
        <time>2022-04-14T10:29:00.000Z</time>
      </trkpt>
      <trkpt lat="39.537374563515186" lon="-4.330750247463584">
        <ele>916.2</ele>
        <time>2022-04-14T10:29:02.000Z</time>
      </trkpt>
      <trkpt lat="39.53738110139966" lon="-4.330759132280946">
        <ele>916</ele>
        <time>2022-04-14T10:29:04.000Z</time>
      </trkpt>
      <trkpt lat="39.53738537617028" lon="-4.330774303525686">
        <ele>915.8</ele>
        <time>2022-04-14T10:29:06.000Z</time>
      </trkpt>
      <trkpt lat="39.53741379082203" lon="-4.3308204878121614">
        <ele>915.6</ele>
        <time>2022-04-14T10:29:10.000Z</time>
      </trkpt>
      <trkpt lat="39.53743348829448" lon="-4.330838089808822">
        <ele>915.4</ele>
        <time>2022-04-14T10:29:12.000Z</time>
      </trkpt>
      <trkpt lat="39.53746357932687" lon="-4.330862732604146">
        <ele>915.2</ele>
        <time>2022-04-14T10:29:15.000Z</time>
      </trkpt>
      <trkpt lat="39.537487803027034" lon="-4.330893745645881">
        <ele>914.8</ele>
        <time>2022-04-14T10:29:18.000Z</time>
      </trkpt>
      <trkpt lat="39.537539100274444" lon="-4.330990305170417">
        <ele>914.4</ele>
        <time>2022-04-14T10:29:26.000Z</time>
      </trkpt>
      <trkpt lat="39.5375447999686" lon="-4.330999944359064">
        <ele>914.4</ele>
        <time>2022-04-14T10:29:27.000Z</time>
      </trkpt>
      <trkpt lat="39.53754588961601" lon="-4.331011846661568">
        <ele>914.4</ele>
        <time>2022-04-14T10:29:28.000Z</time>
      </trkpt>
      <trkpt lat="39.53754932619631" lon="-4.331022156402469">
        <ele>914.2</ele>
        <time>2022-04-14T10:29:29.000Z</time>
      </trkpt>
      <trkpt lat="39.53755402006209" lon="-4.331033891066909">
        <ele>914</ele>
        <time>2022-04-14T10:29:30.000Z</time>
      </trkpt>
      <trkpt lat="39.53757363371551" lon="-4.331066580489278">
        <ele>913.6</ele>
        <time>2022-04-14T10:29:33.000Z</time>
      </trkpt>
      <trkpt lat="39.53760255128145" lon="-4.331123158335686">
        <ele>913.2</ele>
        <time>2022-04-14T10:29:38.000Z</time>
      </trkpt>
      <trkpt lat="39.53763423487544" lon="-4.331168923527002">
        <ele>913</ele>
        <time>2022-04-14T10:29:42.000Z</time>
      </trkpt>
      <trkpt lat="39.53764890320599" lon="-4.331177892163396">
        <ele>912.8</ele>
        <time>2022-04-14T10:29:43.000Z</time>
      </trkpt>
      <trkpt lat="39.53767673112452" lon="-4.331208737567067">
        <ele>912.4</ele>
        <time>2022-04-14T10:29:46.000Z</time>
      </trkpt>
      <trkpt lat="39.53770933672786" lon="-4.331237990409136">
        <ele>912.2</ele>
        <time>2022-04-14T10:29:50.000Z</time>
      </trkpt>
      <trkpt lat="39.53771872445941" lon="-4.331243606284261">
        <ele>912.2</ele>
        <time>2022-04-14T10:29:51.000Z</time>
      </trkpt>
      <trkpt lat="39.5377276930958" lon="-4.331250311806798">
        <ele>912</ele>
        <time>2022-04-14T10:29:52.000Z</time>
      </trkpt>
      <trkpt lat="39.53780044801533" lon="-4.331283085048199">
        <ele>911.2</ele>
        <time>2022-04-14T10:29:59.000Z</time>
      </trkpt>
      <trkpt lat="39.53785166144371" lon="-4.331290125846863">
        <ele>911</ele>
        <time>2022-04-14T10:30:03.000Z</time>
      </trkpt>
      <trkpt lat="39.537918800488114" lon="-4.331315020099282">
        <ele>910.4</ele>
        <time>2022-04-14T10:30:07.000Z</time>
      </trkpt>
      <trkpt lat="39.537963727489114" lon="-4.331332873553038">
        <ele>909.8</ele>
        <time>2022-04-14T10:30:12.000Z</time>
      </trkpt>
      <trkpt lat="39.53798602335155" lon="-4.33134569786489">
        <ele>909.8</ele>
        <time>2022-04-14T10:30:14.000Z</time>
      </trkpt>
      <trkpt lat="39.53803472220898" lon="-4.331386014819145">
        <ele>909.4</ele>
        <time>2022-04-14T10:30:20.000Z</time>
      </trkpt>
      <trkpt lat="39.5380834210664" lon="-4.33138626627624">
        <ele>908.8</ele>
        <time>2022-04-14T10:30:25.000Z</time>
      </trkpt>
      <trkpt lat="39.5380990114063" lon="-4.331382913514972">
        <ele>908.6</ele>
        <time>2022-04-14T10:30:27.000Z</time>
      </trkpt>
      <trkpt lat="39.53819129616022" lon="-4.331390373408794">
        <ele>908.4</ele>
        <time>2022-04-14T10:30:35.000Z</time>
      </trkpt>
      <trkpt lat="39.538221303373575" lon="-4.33139213360846">
        <ele>908</ele>
        <time>2022-04-14T10:30:38.000Z</time>
      </trkpt>
      <trkpt lat="39.5382475387305" lon="-4.331393223255873">
        <ele>907.8</ele>
        <time>2022-04-14T10:30:41.000Z</time>
      </trkpt>
      <trkpt lat="39.53826220706105" lon="-4.331390792503953">
        <ele>907.8</ele>
        <time>2022-04-14T10:30:43.000Z</time>
      </trkpt>
      <trkpt lat="39.53826757147908" lon="-4.331392804160714">
        <ele>907.6</ele>
        <time>2022-04-14T10:30:44.000Z</time>
      </trkpt>
      <trkpt lat="39.53828115016222" lon="-4.331402694806457">
        <ele>907.4</ele>
        <time>2022-04-14T10:30:46.000Z</time>
      </trkpt>
      <trkpt lat="39.538318952545524" lon="-4.331416692584753">
        <ele>907</ele>
        <time>2022-04-14T10:30:50.000Z</time>
      </trkpt>
      <trkpt lat="39.538361029699445" lon="-4.331443514674902">
        <ele>906.6</ele>
        <time>2022-04-14T10:30:53.000Z</time>
      </trkpt>
      <trkpt lat="39.53840771690011" lon="-4.331472599878907">
        <ele>906.4</ele>
        <time>2022-04-14T10:30:56.000Z</time>
      </trkpt>
      <trkpt lat="39.53843160532415" lon="-4.33148005977273">
        <ele>906</ele>
        <time>2022-04-14T10:30:58.000Z</time>
      </trkpt>
      <trkpt lat="39.53843864612281" lon="-4.331479640677571">
        <ele>905.6</ele>
        <time>2022-04-14T10:30:59.000Z</time>
      </trkpt>
      <trkpt lat="39.53846982680261" lon="-4.331450220197439">
        <ele>905.4</ele>
        <time>2022-04-14T10:31:02.000Z</time>
      </trkpt>
      <trkpt lat="39.538483237847686" lon="-4.331362042576075">
        <ele>906</ele>
        <time>2022-04-14T10:31:06.000Z</time>
      </trkpt>
      <trkpt lat="39.53848793171346" lon="-4.331358270719647">
        <ele>906</ele>
        <time>2022-04-14T10:31:07.000Z</time>
      </trkpt>
      <trkpt lat="39.53849857673049" lon="-4.331348380073905">
        <ele>906</ele>
        <time>2022-04-14T10:31:10.000Z</time>
      </trkpt>
      <trkpt lat="39.53850436024368" lon="-4.331342093646526">
        <ele>906</ele>
        <time>2022-04-14T10:31:11.000Z</time>
      </trkpt>
      <trkpt lat="39.53852095641196" lon="-4.331341087818146">
        <ele>905.6</ele>
        <time>2022-04-14T10:31:13.000Z</time>
      </trkpt>
      <trkpt lat="39.53853998333216" lon="-4.331326670944691">
        <ele>905.2</ele>
        <time>2022-04-14T10:31:15.000Z</time>
      </trkpt>
      <trkpt lat="39.53857300803065" lon="-4.331302782520652">
        <ele>904.6</ele>
        <time>2022-04-14T10:31:17.000Z</time>
      </trkpt>
      <trkpt lat="39.538578540086746" lon="-4.331283923238516">
        <ele>904.4</ele>
        <time>2022-04-14T10:31:19.000Z</time>
      </trkpt>
      <trkpt lat="39.538592118769884" lon="-4.331269171088934">
        <ele>904.6</ele>
        <time>2022-04-14T10:31:21.000Z</time>
      </trkpt>
      <trkpt lat="39.538596561178565" lon="-4.33127042837441">
        <ele>904.6</ele>
        <time>2022-04-14T10:31:22.000Z</time>
      </trkpt>
      <trkpt lat="39.53860703855753" lon="-4.3312654830515385">
        <ele>905.2</ele>
        <time>2022-04-14T10:31:24.000Z</time>
      </trkpt>
      <trkpt lat="39.53861743211746" lon="-4.331276128068566">
        <ele>905.4</ele>
        <time>2022-04-14T10:31:26.000Z</time>
      </trkpt>
      <trkpt lat="39.53864190727472" lon="-4.331269506365061">
        <ele>905.4</ele>
        <time>2022-04-14T10:31:28.000Z</time>
      </trkpt>
      <trkpt lat="39.53869421035051" lon="-4.331258442252874">
        <ele>904.6</ele>
        <time>2022-04-14T10:31:32.000Z</time>
      </trkpt>
      <trkpt lat="39.53872052952647" lon="-4.331257352605462">
        <ele>904.4</ele>
        <time>2022-04-14T10:31:34.000Z</time>
      </trkpt>
      <trkpt lat="39.53874986618757" lon="-4.331256179139018">
        <ele>903.4</ele>
        <time>2022-04-14T10:31:37.000Z</time>
      </trkpt>
      <trkpt lat="39.53876797109842" lon="-4.331235224381089">
        <ele>903</ele>
        <time>2022-04-14T10:31:40.000Z</time>
      </trkpt>
      <trkpt lat="39.538763696327806" lon="-4.331211671233177">
        <ele>903</ele>
        <time>2022-04-14T10:31:41.000Z</time>
      </trkpt>
      <trkpt lat="39.538763696327806" lon="-4.331192895770073">
        <ele>902.8</ele>
        <time>2022-04-14T10:31:43.000Z</time>
      </trkpt>
      <trkpt lat="39.53876344487071" lon="-4.331186106428504">
        <ele>902.4</ele>
        <time>2022-04-14T10:31:45.000Z</time>
      </trkpt>
      <trkpt lat="39.538803761824965" lon="-4.331261878833175">
        <ele>901.8</ele>
        <time>2022-04-14T10:31:48.000Z</time>
      </trkpt>
      <trkpt lat="39.53885707072914" lon="-4.33131099678576">
        <ele>901.6</ele>
        <time>2022-04-14T10:31:50.000Z</time>
      </trkpt>
      <trkpt lat="39.53888280317187" lon="-4.331341506913304">
        <ele>901.8</ele>
        <time>2022-04-14T10:31:51.000Z</time>
      </trkpt>
      <trkpt lat="39.53897441737354" lon="-4.331360198557377">
        <ele>902</ele>
        <time>2022-04-14T10:31:54.000Z</time>
      </trkpt>
      <trkpt lat="39.53900191001594" lon="-4.331363802775741">
        <ele>902</ele>
        <time>2022-04-14T10:31:55.000Z</time>
      </trkpt>
      <trkpt lat="39.5390644390136" lon="-4.331380482763052">
        <ele>901</ele>
        <time>2022-04-14T10:31:58.000Z</time>
      </trkpt>
      <trkpt lat="39.53907282091677" lon="-4.331398839130998">
        <ele>900.8</ele>
        <time>2022-04-14T10:32:01.000Z</time>
      </trkpt>
      <trkpt lat="39.53909042291343" lon="-4.331424823030829">
        <ele>900.8</ele>
        <time>2022-04-14T10:32:03.000Z</time>
      </trkpt>
      <trkpt lat="39.53910442069173" lon="-4.331396156921983">
        <ele>901.2</ele>
        <time>2022-04-14T10:32:05.000Z</time>
      </trkpt>
      <trkpt lat="39.53914540819824" lon="-4.331426080316305">
        <ele>901.2</ele>
        <time>2022-04-14T10:32:07.000Z</time>
      </trkpt>
      <trkpt lat="39.539152197539806" lon="-4.331438150256872">
        <ele>901.2</ele>
        <time>2022-04-14T10:32:09.000Z</time>
      </trkpt>
      <trkpt lat="39.53920123167336" lon="-4.331504367291927">
        <ele>900.4</ele>
        <time>2022-04-14T10:32:16.000Z</time>
      </trkpt>
      <trkpt lat="39.539234675467014" lon="-4.331518784165382">
        <ele>900.4</ele>
        <time>2022-04-14T10:32:20.000Z</time>
      </trkpt>
      <trkpt lat="39.53924029134214" lon="-4.331524483859539">
        <ele>900.4</ele>
        <time>2022-04-14T10:32:21.000Z</time>
      </trkpt>
      <trkpt lat="39.53924967907369" lon="-4.331539990380406">
        <ele>900.2</ele>
        <time>2022-04-14T10:32:23.000Z</time>
      </trkpt>
      <trkpt lat="39.53925252892077" lon="-4.331549713388085">
        <ele>899.8</ele>
        <time>2022-04-14T10:32:24.000Z</time>
      </trkpt>
      <trkpt lat="39.53925906680524" lon="-4.331563711166382">
        <ele>899.6</ele>
        <time>2022-04-14T10:32:26.000Z</time>
      </trkpt>
      <trkpt lat="39.53927122056484" lon="-4.331577457487583">
        <ele>899</ele>
        <time>2022-04-14T10:32:29.000Z</time>
      </trkpt>
      <trkpt lat="39.539280105382204" lon="-4.331586258485913">
        <ele>898.8</ele>
        <time>2022-04-14T10:32:30.000Z</time>
      </trkpt>
      <trkpt lat="39.53928446397185" lon="-4.331600004807115">
        <ele>898.8</ele>
        <time>2022-04-14T10:32:31.000Z</time>
      </trkpt>
      <trkpt lat="39.539289493113756" lon="-4.331625988706946">
        <ele>898.8</ele>
        <time>2022-04-14T10:32:33.000Z</time>
      </trkpt>
      <trkpt lat="39.539301227778196" lon="-4.331633783876896">
        <ele>898.6</ele>
        <time>2022-04-14T10:32:35.000Z</time>
      </trkpt>
      <trkpt lat="39.539335845038295" lon="-4.331651469692588">
        <ele>898.4</ele>
        <time>2022-04-14T10:32:38.000Z</time>
      </trkpt>
      <trkpt lat="39.539349591359496" lon="-4.331666976213455">
        <ele>897.8</ele>
        <time>2022-04-14T10:32:41.000Z</time>
      </trkpt>
      <trkpt lat="39.53935755416751" lon="-4.331673346459866">
        <ele>897.8</ele>
        <time>2022-04-14T10:32:42.000Z</time>
      </trkpt>
      <trkpt lat="39.539392003789544" lon="-4.331693798303604">
        <ele>898.2</ele>
        <time>2022-04-14T10:32:48.000Z</time>
      </trkpt>
      <trkpt lat="39.53939359635115" lon="-4.331702766939998">
        <ele>898.4</ele>
        <time>2022-04-14T10:32:49.000Z</time>
      </trkpt>
      <trkpt lat="39.539404325187206" lon="-4.331723470240831">
        <ele>898.4</ele>
        <time>2022-04-14T10:32:51.000Z</time>
      </trkpt>
      <trkpt lat="39.53942351974547" lon="-4.3317402340471745">
        <ele>897.8</ele>
        <time>2022-04-14T10:32:53.000Z</time>
      </trkpt>
      <trkpt lat="39.53946014866233" lon="-4.331777365878224">
        <ele>897</ele>
        <time>2022-04-14T10:32:56.000Z</time>
      </trkpt>
      <trkpt lat="39.539475571364164" lon="-4.331785915419459">
        <ele>896.6</ele>
        <time>2022-04-14T10:32:57.000Z</time>
      </trkpt>
      <trkpt lat="39.5395721308887" lon="-4.331781221553683">
        <ele>895.8</ele>
        <time>2022-04-14T10:33:01.000Z</time>
      </trkpt>
      <trkpt lat="39.53960741870105" lon="-4.331779796630144">
        <ele>895.8</ele>
        <time>2022-04-14T10:33:03.000Z</time>
      </trkpt>
      <trkpt lat="39.53964932821691" lon="-4.331777533516288">
        <ele>895.8</ele>
        <time>2022-04-14T10:33:06.000Z</time>
      </trkpt>
      <trkpt lat="39.539655949920416" lon="-4.331764038652182">
        <ele>895.8</ele>
        <time>2022-04-14T10:33:10.000Z</time>
      </trkpt>
      <trkpt lat="39.53965611755848" lon="-4.331769989803433">
        <ele>895.8</ele>
        <time>2022-04-14T10:33:11.000Z</time>
      </trkpt>
      <trkpt lat="39.53966156579554" lon="-4.3317751865834">
        <ele>895.6</ele>
        <time>2022-04-14T10:33:12.000Z</time>
      </trkpt>
      <trkpt lat="39.53966558910906" lon="-4.33178449049592">
        <ele>894.8</ele>
        <time>2022-04-14T10:33:14.000Z</time>
      </trkpt>
      <trkpt lat="39.53967472538352" lon="-4.331793542951345">
        <ele>894.4</ele>
        <time>2022-04-14T10:33:15.000Z</time>
      </trkpt>
      <trkpt lat="39.5396931655705" lon="-4.331810139119625">
        <ele>893.8</ele>
        <time>2022-04-14T10:33:18.000Z</time>
      </trkpt>
      <trkpt lat="39.53970272094011" lon="-4.331810055300593">
        <ele>893.8</ele>
        <time>2022-04-14T10:33:19.000Z</time>
      </trkpt>
      <trkpt lat="39.53976701013744" lon="-4.331828495487571">
        <ele>893.8</ele>
        <time>2022-04-14T10:33:22.000Z</time>
      </trkpt>
      <trkpt lat="39.539776649326086" lon="-4.331814330071211">
        <ele>893.8</ele>
        <time>2022-04-14T10:33:23.000Z</time>
      </trkpt>
      <trkpt lat="39.53988041728735" lon="-4.331888426095247">
        <ele>893.6</ele>
        <time>2022-04-14T10:33:30.000Z</time>
      </trkpt>
      <trkpt lat="39.53990665264428" lon="-4.331891527399421">
        <ele>893.2</ele>
        <time>2022-04-14T10:33:32.000Z</time>
      </trkpt>
      <trkpt lat="39.53994118608534" lon="-4.331917092204094">
        <ele>892</ele>
        <time>2022-04-14T10:33:36.000Z</time>
      </trkpt>
      <trkpt lat="39.53995233401656" lon="-4.331915834918618">
        <ele>891.8</ele>
        <time>2022-04-14T10:33:38.000Z</time>
      </trkpt>
      <trkpt lat="39.53993774950504" lon="-4.331856155768037">
        <ele>892</ele>
        <time>2022-04-14T10:33:43.000Z</time>
      </trkpt>
      <trkpt lat="39.539929702878" lon="-4.331852635368705">
        <ele>892</ele>
        <time>2022-04-14T10:33:45.000Z</time>
      </trkpt>
      <trkpt lat="39.539942275732756" lon="-4.3318653758615255">
        <ele>891.6</ele>
        <time>2022-04-14T10:33:47.000Z</time>
      </trkpt>
      <trkpt lat="39.53997194766998" lon="-4.331882810220122">
        <ele>891.4</ele>
        <time>2022-04-14T10:33:49.000Z</time>
      </trkpt>
      <trkpt lat="39.54003129154444" lon="-4.331937963142991">
        <ele>891</ele>
        <time>2022-04-14T10:33:51.000Z</time>
      </trkpt>
      <trkpt lat="39.54005878418684" lon="-4.33195011690259">
        <ele>891</ele>
        <time>2022-04-14T10:33:52.000Z</time>
      </trkpt>
      <trkpt lat="39.54005442559719" lon="-4.331891275942326">
        <ele>890.8</ele>
        <time>2022-04-14T10:33:53.000Z</time>
      </trkpt>
      <trkpt lat="39.54005333594978" lon="-4.33186118490994">
        <ele>890.8</ele>
        <time>2022-04-14T10:33:54.000Z</time>
      </trkpt>
      <trkpt lat="39.54007001593709" lon="-4.331866633147001">
        <ele>890.4</ele>
        <time>2022-04-14T10:33:56.000Z</time>
      </trkpt>
      <trkpt lat="39.54008460044861" lon="-4.331871159374714">
        <ele>889.6</ele>
        <time>2022-04-14T10:33:58.000Z</time>
      </trkpt>
      <trkpt lat="39.54012852162123" lon="-4.3318877555429935">
        <ele>888.8</ele>
        <time>2022-04-14T10:34:03.000Z</time>
      </trkpt>
      <trkpt lat="39.54014386050403" lon="-4.33189295232296">
        <ele>888.8</ele>
        <time>2022-04-14T10:34:04.000Z</time>
      </trkpt>
      <trkpt lat="39.54019406810403" lon="-4.331937795504928">
        <ele>889</ele>
        <time>2022-04-14T10:34:06.000Z</time>
      </trkpt>
      <trkpt lat="39.54019809141755" lon="-4.331941567361355">
        <ele>889</ele>
        <time>2022-04-14T10:34:07.000Z</time>
      </trkpt>
      <trkpt lat="39.54020337201655" lon="-4.331943998113275">
        <ele>889</ele>
        <time>2022-04-14T10:34:09.000Z</time>
      </trkpt>
      <trkpt lat="39.540228601545095" lon="-4.331968892365694">
        <ele>888.4</ele>
        <time>2022-04-14T10:34:11.000Z</time>
      </trkpt>
      <trkpt lat="39.54024444334209" lon="-4.331971742212772">
        <ele>887.6</ele>
        <time>2022-04-14T10:34:13.000Z</time>
      </trkpt>
      <trkpt lat="39.54027118161321" lon="-4.331962103024125">
        <ele>887.4</ele>
        <time>2022-04-14T10:34:15.000Z</time>
      </trkpt>
      <trkpt lat="39.540291130542755" lon="-4.33194525539875">
        <ele>887.2</ele>
        <time>2022-04-14T10:34:18.000Z</time>
      </trkpt>
      <trkpt lat="39.540294064208865" lon="-4.3319460935890675">
        <ele>887</ele>
        <time>2022-04-14T10:34:19.000Z</time>
      </trkpt>
      <trkpt lat="39.54033052548766" lon="-4.331907536834478">
        <ele>886.6</ele>
        <time>2022-04-14T10:34:23.000Z</time>
      </trkpt>
      <trkpt lat="39.540401604026556" lon="-4.331900328397751">
        <ele>886.6</ele>
        <time>2022-04-14T10:34:27.000Z</time>
      </trkpt>
      <trkpt lat="39.5405010972172" lon="-4.331920780241489">
        <ele>886.4</ele>
        <time>2022-04-14T10:34:31.000Z</time>
      </trkpt>
      <trkpt lat="39.54052406363189" lon="-4.331902759149671">
        <ele>886</ele>
        <time>2022-04-14T10:34:33.000Z</time>
      </trkpt>
      <trkpt lat="39.540538815781474" lon="-4.331899993121624">
        <ele>886</ele>
        <time>2022-04-14T10:34:34.000Z</time>
      </trkpt>
      <trkpt lat="39.54059690237045" lon="-4.331947015598416">
        <ele>885.8</ele>
        <time>2022-04-14T10:34:36.000Z</time>
      </trkpt>
      <trkpt lat="39.54062623903155" lon="-4.332000492140651">
        <ele>885.6</ele>
        <time>2022-04-14T10:34:39.000Z</time>
      </trkpt>
      <trkpt lat="39.54064216464758" lon="-4.332021279260516">
        <ele>885.4</ele>
        <time>2022-04-14T10:34:40.000Z</time>
      </trkpt>
      <trkpt lat="39.540661023929715" lon="-4.332076013088226">
        <ele>885.2</ele>
        <time>2022-04-14T10:34:44.000Z</time>
      </trkpt>
      <trkpt lat="39.540660521015525" lon="-4.332089172676206">
        <ele>885.2</ele>
        <time>2022-04-14T10:34:45.000Z</time>
      </trkpt>
      <trkpt lat="39.54066060483456" lon="-4.332102835178375">
        <ele>885.2</ele>
        <time>2022-04-14T10:34:46.000Z</time>
      </trkpt>
      <trkpt lat="39.540653731673956" lon="-4.3321434035897255">
        <ele>885.2</ele>
        <time>2022-04-14T10:34:49.000Z</time>
      </trkpt>
      <trkpt lat="39.54066772945225" lon="-4.332155976444483">
        <ele>885.2</ele>
        <time>2022-04-14T10:34:50.000Z</time>
      </trkpt>
      <trkpt lat="39.54067795537412" lon="-4.3321681302040815">
        <ele>885.2</ele>
        <time>2022-04-14T10:34:51.000Z</time>
      </trkpt>
      <trkpt lat="39.54069597646594" lon="-4.33223158121109">
        <ele>884.6</ele>
        <time>2022-04-14T10:34:56.000Z</time>
      </trkpt>
      <trkpt lat="39.540700167417526" lon="-4.332243986427784">
        <ele>884.6</ele>
        <time>2022-04-14T10:34:57.000Z</time>
      </trkpt>
      <trkpt lat="39.54069756902754" lon="-4.332294277846813">
        <ele>884.4</ele>
        <time>2022-04-14T10:35:01.000Z</time>
      </trkpt>
      <trkpt lat="39.54070762731135" lon="-4.332315232604742">
        <ele>884.4</ele>
        <time>2022-04-14T10:35:04.000Z</time>
      </trkpt>
      <trkpt lat="39.54072338528931" lon="-4.332316657528281">
        <ele>884.2</ele>
        <time>2022-04-14T10:35:08.000Z</time>
      </trkpt>
      <trkpt lat="39.54072883352637" lon="-4.3323171604424715">
        <ele>884.2</ele>
        <time>2022-04-14T10:35:09.000Z</time>
      </trkpt>
      <trkpt lat="39.54073470085859" lon="-4.3323122151196">
        <ele>884.2</ele>
        <time>2022-04-14T10:35:10.000Z</time>
      </trkpt>
      <trkpt lat="39.54079303890467" lon="-4.332326548174024">
        <ele>883</ele>
        <time>2022-04-14T10:35:15.000Z</time>
      </trkpt>
      <trkpt lat="39.54079647548497" lon="-4.332332080230117">
        <ele>882.8</ele>
        <time>2022-04-14T10:35:16.000Z</time>
      </trkpt>
      <trkpt lat="39.540833942592144" lon="-4.332371139898896">
        <ele>882.6</ele>
        <time>2022-04-14T10:35:23.000Z</time>
      </trkpt>
      <trkpt lat="39.540860345587134" lon="-4.332380024716258">
        <ele>882.6</ele>
        <time>2022-04-14T10:35:28.000Z</time>
      </trkpt>
      <trkpt lat="39.54087878577411" lon="-4.332381701096892">
        <ele>882.4</ele>
        <time>2022-04-14T10:35:30.000Z</time>
      </trkpt>
      <trkpt lat="39.54091189429164" lon="-4.332382790744305">
        <ele>882.4</ele>
        <time>2022-04-14T10:35:32.000Z</time>
      </trkpt>
      <trkpt lat="39.5410312525928" lon="-4.332371475175023">
        <ele>882.4</ele>
        <time>2022-04-14T10:35:37.000Z</time>
      </trkpt>
      <trkpt lat="39.54112890176475" lon="-4.332369714975357">
        <ele>882.4</ele>
        <time>2022-04-14T10:35:46.000Z</time>
      </trkpt>
      <trkpt lat="39.54115094617009" lon="-4.332348508760333">
        <ele>882.2</ele>
        <time>2022-04-14T10:35:49.000Z</time>
      </trkpt>
      <trkpt lat="39.541171649470925" lon="-4.332340965047479">
        <ele>882</ele>
        <time>2022-04-14T10:35:51.000Z</time>
      </trkpt>
      <trkpt lat="39.541193190962076" lon="-4.332332834601402">
        <ele>881.2</ele>
        <time>2022-04-14T10:35:53.000Z</time>
      </trkpt>
      <trkpt lat="39.54120794311166" lon="-4.332324704155326">
        <ele>880.8</ele>
        <time>2022-04-14T10:35:54.000Z</time>
      </trkpt>
      <trkpt lat="39.54125261865556" lon="-4.332317244261503">
        <ele>880.4</ele>
        <time>2022-04-14T10:35:59.000Z</time>
      </trkpt>
      <trkpt lat="39.54125345684588" lon="-4.332319004461169">
        <ele>880.6</ele>
        <time>2022-04-14T10:36:00.000Z</time>
      </trkpt>
      <trkpt lat="39.54128245823085" lon="-4.332345826551318">
        <ele>880.6</ele>
        <time>2022-04-14T10:36:02.000Z</time>
      </trkpt>
      <trkpt lat="39.54129729419947" lon="-4.332359405234456">
        <ele>880.6</ele>
        <time>2022-04-14T10:36:05.000Z</time>
      </trkpt>
    </trkseg>
  </trk>
</gpx>
